<?xml version="1.0" encoding="UTF-8" standalone="no" ?>
<gpx xmlns="http://www.topografix.com/GPX/1/1" xmlns:xsi="http://www.w3.org/2001/XMLSchema-instance" xsi:schemaLocation="http://www.topografix.com/GPX/1/1 http://www.topografix.com/GPX/1/1/gpx.xsd" version="1.1" creator="VisuGPX - https://www.visugpx.com">
  <metadata>
    <name>parcours-02-03-2015</name>
    <desc><![CDATA[Orphin-Emancé]]></desc>
  </metadata>
  <trk>
    <name><![CDATA[2015-03-15 17:25:01]]></name>
    <trkseg>
      <trkpt lat="48.57978" lon="1.78195">
        <ele>160.2</ele>
        <time>2015-03-15T08:09:58Z</time>
      </trkpt>
      <trkpt lat="48.57978" lon="1.78195">
        <ele>160.2</ele>
        <time>2015-03-15T08:09:59Z</time>
      </trkpt>
      <trkpt lat="48.57978" lon="1.78195">
        <ele>160.2</ele>
        <time>2015-03-15T08:10:00Z</time>
      </trkpt>
      <trkpt lat="48.57979" lon="1.78195">
        <ele>158.75</ele>
        <time>2015-03-15T08:10:02Z</time>
      </trkpt>
      <trkpt lat="48.57978" lon="1.78192">
        <ele>158.75</ele>
        <time>2015-03-15T08:10:16Z</time>
      </trkpt>
      <trkpt lat="48.57977" lon="1.78193">
        <ele>158.75</ele>
        <time>2015-03-15T08:10:29Z</time>
      </trkpt>
      <trkpt lat="48.57975" lon="1.7819">
        <ele>158.75</ele>
        <time>2015-03-15T08:10:44Z</time>
      </trkpt>
      <trkpt lat="48.57976" lon="1.78186">
        <ele>158.75</ele>
        <time>2015-03-15T08:11:02Z</time>
      </trkpt>
      <trkpt lat="48.57976" lon="1.78185">
        <ele>158.75</ele>
        <time>2015-03-15T08:11:12Z</time>
      </trkpt>
      <trkpt lat="48.57976" lon="1.78186">
        <ele>158.75</ele>
        <time>2015-03-15T08:11:28Z</time>
      </trkpt>
      <trkpt lat="48.57978" lon="1.78187">
        <ele>158.75</ele>
        <time>2015-03-15T08:11:49Z</time>
      </trkpt>
      <trkpt lat="48.57977" lon="1.78186">
        <ele>159.24</ele>
        <time>2015-03-15T08:12:01Z</time>
      </trkpt>
      <trkpt lat="48.57977" lon="1.78188">
        <ele>158.27</ele>
        <time>2015-03-15T08:12:13Z</time>
      </trkpt>
      <trkpt lat="48.5798" lon="1.78191">
        <ele>159.24</ele>
        <time>2015-03-15T08:12:24Z</time>
      </trkpt>
      <trkpt lat="48.57986" lon="1.78189">
        <ele>158.75</ele>
        <time>2015-03-15T08:12:34Z</time>
      </trkpt>
      <trkpt lat="48.57989" lon="1.78186">
        <ele>158.75</ele>
        <time>2015-03-15T08:12:43Z</time>
      </trkpt>
      <trkpt lat="48.57989" lon="1.78185">
        <ele>158.75</ele>
        <time>2015-03-15T08:12:52Z</time>
      </trkpt>
      <trkpt lat="48.57989" lon="1.78186">
        <ele>158.75</ele>
        <time>2015-03-15T08:13:02Z</time>
      </trkpt>
      <trkpt lat="48.57989" lon="1.78189">
        <ele>158.75</ele>
        <time>2015-03-15T08:13:18Z</time>
      </trkpt>
      <trkpt lat="48.5799" lon="1.78191">
        <ele>158.75</ele>
        <time>2015-03-15T08:13:33Z</time>
      </trkpt>
      <trkpt lat="48.57991" lon="1.7819">
        <ele>158.75</ele>
        <time>2015-03-15T08:13:52Z</time>
      </trkpt>
      <trkpt lat="48.57993" lon="1.78188">
        <ele>158.75</ele>
        <time>2015-03-15T08:14:10Z</time>
      </trkpt>
      <trkpt lat="48.57991" lon="1.78186">
        <ele>158.75</ele>
        <time>2015-03-15T08:14:26Z</time>
      </trkpt>
      <trkpt lat="48.57989" lon="1.78187">
        <ele>158.75</ele>
        <time>2015-03-15T08:14:41Z</time>
      </trkpt>
      <trkpt lat="48.57988" lon="1.78186">
        <ele>158.75</ele>
        <time>2015-03-15T08:14:57Z</time>
      </trkpt>
      <trkpt lat="48.57988" lon="1.78187">
        <ele>158.75</ele>
        <time>2015-03-15T08:15:07Z</time>
      </trkpt>
      <trkpt lat="48.57986" lon="1.78186">
        <ele>159.24</ele>
        <time>2015-03-15T08:15:18Z</time>
      </trkpt>
      <trkpt lat="48.57986" lon="1.78187">
        <ele>160.68</ele>
        <time>2015-03-15T08:15:26Z</time>
      </trkpt>
      <trkpt lat="48.57986" lon="1.78188">
        <ele>159.24</ele>
        <time>2015-03-15T08:15:30Z</time>
      </trkpt>
      <trkpt lat="48.57984" lon="1.78188">
        <ele>159.24</ele>
        <time>2015-03-15T08:15:45Z</time>
      </trkpt>
      <trkpt lat="48.57985" lon="1.78187">
        <ele>159.24</ele>
        <time>2015-03-15T08:16:04Z</time>
      </trkpt>
      <trkpt lat="48.57984" lon="1.78185">
        <ele>159.24</ele>
        <time>2015-03-15T08:16:17Z</time>
      </trkpt>
      <trkpt lat="48.57983" lon="1.78186">
        <ele>159.24</ele>
        <time>2015-03-15T08:16:26Z</time>
      </trkpt>
      <trkpt lat="48.57986" lon="1.78187">
        <ele>160.2</ele>
        <time>2015-03-15T08:16:38Z</time>
      </trkpt>
      <trkpt lat="48.57985" lon="1.78187">
        <ele>160.2</ele>
        <time>2015-03-15T08:16:51Z</time>
      </trkpt>
      <trkpt lat="48.57983" lon="1.78186">
        <ele>160.2</ele>
        <time>2015-03-15T08:16:58Z</time>
      </trkpt>
      <trkpt lat="48.57981" lon="1.78189">
        <ele>160.2</ele>
        <time>2015-03-15T08:17:06Z</time>
      </trkpt>
      <trkpt lat="48.5798" lon="1.78191">
        <ele>160.2</ele>
        <time>2015-03-15T08:17:16Z</time>
      </trkpt>
      <trkpt lat="48.57979" lon="1.78193">
        <ele>158.75</ele>
        <time>2015-03-15T08:17:20Z</time>
      </trkpt>
      <trkpt lat="48.57978" lon="1.78197">
        <ele>159.24</ele>
        <time>2015-03-15T08:17:31Z</time>
      </trkpt>
      <trkpt lat="48.57977" lon="1.78205">
        <ele>159.24</ele>
        <time>2015-03-15T08:17:41Z</time>
      </trkpt>
      <trkpt lat="48.57975" lon="1.78212">
        <ele>159.24</ele>
        <time>2015-03-15T08:17:52Z</time>
      </trkpt>
      <trkpt lat="48.57975" lon="1.78223">
        <ele>157.79</ele>
        <time>2015-03-15T08:18:02Z</time>
      </trkpt>
      <trkpt lat="48.5798" lon="1.78227">
        <ele>157.79</ele>
        <time>2015-03-15T08:18:11Z</time>
      </trkpt>
      <trkpt lat="48.57983" lon="1.78231">
        <ele>157.79</ele>
        <time>2015-03-15T08:18:15Z</time>
      </trkpt>
      <trkpt lat="48.57987" lon="1.78238">
        <ele>156.35</ele>
        <time>2015-03-15T08:18:21Z</time>
      </trkpt>
      <trkpt lat="48.57988" lon="1.78239">
        <ele>156.35</ele>
        <time>2015-03-15T08:18:22Z</time>
      </trkpt>
      <trkpt lat="48.57989" lon="1.78243">
        <ele>155.87</ele>
        <time>2015-03-15T08:18:25Z</time>
      </trkpt>
      <trkpt lat="48.57992" lon="1.78259">
        <ele>154.43</ele>
        <time>2015-03-15T08:18:36Z</time>
      </trkpt>
      <trkpt lat="48.57992" lon="1.78272">
        <ele>153.95</ele>
        <time>2015-03-15T08:18:45Z</time>
      </trkpt>
      <trkpt lat="48.57995" lon="1.78285">
        <ele>152.51</ele>
        <time>2015-03-15T08:18:54Z</time>
      </trkpt>
      <trkpt lat="48.58" lon="1.78297">
        <ele>151.06</ele>
        <time>2015-03-15T08:19:03Z</time>
      </trkpt>
      <trkpt lat="48.58003" lon="1.78309">
        <ele>150.1</ele>
        <time>2015-03-15T08:19:12Z</time>
      </trkpt>
      <trkpt lat="48.58007" lon="1.78324">
        <ele>149.14</ele>
        <time>2015-03-15T08:19:23Z</time>
      </trkpt>
      <trkpt lat="48.5801" lon="1.78336">
        <ele>148.18</ele>
        <time>2015-03-15T08:19:33Z</time>
      </trkpt>
      <trkpt lat="48.58014" lon="1.78349">
        <ele>147.7</ele>
        <time>2015-03-15T08:19:43Z</time>
      </trkpt>
      <trkpt lat="48.58016" lon="1.78357">
        <ele>147.7</ele>
        <time>2015-03-15T08:19:49Z</time>
      </trkpt>
      <trkpt lat="48.5802" lon="1.78376">
        <ele>147.22</ele>
        <time>2015-03-15T08:20:02Z</time>
      </trkpt>
      <trkpt lat="48.58022" lon="1.78388">
        <ele>147.22</ele>
        <time>2015-03-15T08:20:11Z</time>
      </trkpt>
      <trkpt lat="48.58025" lon="1.784">
        <ele>147.22</ele>
        <time>2015-03-15T08:20:20Z</time>
      </trkpt>
      <trkpt lat="48.58029" lon="1.7841">
        <ele>147.22</ele>
        <time>2015-03-15T08:20:30Z</time>
      </trkpt>
      <trkpt lat="48.58034" lon="1.78416">
        <ele>147.22</ele>
        <time>2015-03-15T08:20:39Z</time>
      </trkpt>
      <trkpt lat="48.58037" lon="1.78424">
        <ele>147.22</ele>
        <time>2015-03-15T08:20:47Z</time>
      </trkpt>
      <trkpt lat="48.58042" lon="1.78428">
        <ele>147.22</ele>
        <time>2015-03-15T08:20:54Z</time>
      </trkpt>
      <trkpt lat="48.58047" lon="1.78428">
        <ele>147.22</ele>
        <time>2015-03-15T08:21:01Z</time>
      </trkpt>
      <trkpt lat="48.58053" lon="1.78427">
        <ele>147.22</ele>
        <time>2015-03-15T08:21:09Z</time>
      </trkpt>
      <trkpt lat="48.58062" lon="1.78423">
        <ele>147.22</ele>
        <time>2015-03-15T08:21:18Z</time>
      </trkpt>
      <trkpt lat="48.58071" lon="1.78419">
        <ele>147.22</ele>
        <time>2015-03-15T08:21:27Z</time>
      </trkpt>
      <trkpt lat="48.58082" lon="1.78412">
        <ele>147.22</ele>
        <time>2015-03-15T08:21:37Z</time>
      </trkpt>
      <trkpt lat="48.58091" lon="1.78407">
        <ele>147.22</ele>
        <time>2015-03-15T08:21:47Z</time>
      </trkpt>
      <trkpt lat="48.58097" lon="1.78401">
        <ele>147.22</ele>
        <time>2015-03-15T08:21:55Z</time>
      </trkpt>
      <trkpt lat="48.58104" lon="1.78396">
        <ele>147.22</ele>
        <time>2015-03-15T08:22:03Z</time>
      </trkpt>
      <trkpt lat="48.58111" lon="1.78391">
        <ele>147.22</ele>
        <time>2015-03-15T08:22:11Z</time>
      </trkpt>
      <trkpt lat="48.58118" lon="1.78387">
        <ele>147.22</ele>
        <time>2015-03-15T08:22:18Z</time>
      </trkpt>
      <trkpt lat="48.58127" lon="1.78378">
        <ele>147.22</ele>
        <time>2015-03-15T08:22:27Z</time>
      </trkpt>
      <trkpt lat="48.58133" lon="1.78372">
        <ele>147.22</ele>
        <time>2015-03-15T08:22:35Z</time>
      </trkpt>
      <trkpt lat="48.58143" lon="1.78363">
        <ele>146.74</ele>
        <time>2015-03-15T08:22:46Z</time>
      </trkpt>
      <trkpt lat="48.58144" lon="1.78362">
        <ele>146.74</ele>
        <time>2015-03-15T08:22:47Z</time>
      </trkpt>
      <trkpt lat="48.58154" lon="1.78353">
        <ele>146.74</ele>
        <time>2015-03-15T08:22:56Z</time>
      </trkpt>
      <trkpt lat="48.58163" lon="1.78342">
        <ele>146.74</ele>
        <time>2015-03-15T08:23:06Z</time>
      </trkpt>
      <trkpt lat="48.58165" lon="1.7834">
        <ele>146.74</ele>
        <time>2015-03-15T08:23:08Z</time>
      </trkpt>
      <trkpt lat="48.58173" lon="1.78325">
        <ele>146.74</ele>
        <time>2015-03-15T08:23:19Z</time>
      </trkpt>
      <trkpt lat="48.5818" lon="1.78313">
        <ele>146.74</ele>
        <time>2015-03-15T08:23:28Z</time>
      </trkpt>
      <trkpt lat="48.58186" lon="1.783">
        <ele>146.74</ele>
        <time>2015-03-15T08:23:38Z</time>
      </trkpt>
      <trkpt lat="48.5819" lon="1.78295">
        <ele>146.74</ele>
        <time>2015-03-15T08:23:42Z</time>
      </trkpt>
      <trkpt lat="48.58195" lon="1.78284">
        <ele>146.74</ele>
        <time>2015-03-15T08:23:50Z</time>
      </trkpt>
      <trkpt lat="48.582" lon="1.78274">
        <ele>146.74</ele>
        <time>2015-03-15T08:23:58Z</time>
      </trkpt>
      <trkpt lat="48.58207" lon="1.78263">
        <ele>146.74</ele>
        <time>2015-03-15T08:24:06Z</time>
      </trkpt>
      <trkpt lat="48.58211" lon="1.78253">
        <ele>147.7</ele>
        <time>2015-03-15T08:24:13Z</time>
      </trkpt>
      <trkpt lat="48.58216" lon="1.78244">
        <ele>147.7</ele>
        <time>2015-03-15T08:24:19Z</time>
      </trkpt>
      <trkpt lat="48.58224" lon="1.78231">
        <ele>147.22</ele>
        <time>2015-03-15T08:24:29Z</time>
      </trkpt>
      <trkpt lat="48.5823" lon="1.7822">
        <ele>147.22</ele>
        <time>2015-03-15T08:24:38Z</time>
      </trkpt>
      <trkpt lat="48.58235" lon="1.78209">
        <ele>147.22</ele>
        <time>2015-03-15T08:24:46Z</time>
      </trkpt>
      <trkpt lat="48.5824" lon="1.78197">
        <ele>147.22</ele>
        <time>2015-03-15T08:24:54Z</time>
      </trkpt>
      <trkpt lat="48.58246" lon="1.78183">
        <ele>146.26</ele>
        <time>2015-03-15T08:25:03Z</time>
      </trkpt>
      <trkpt lat="48.58252" lon="1.78174">
        <ele>145.78</ele>
        <time>2015-03-15T08:25:11Z</time>
      </trkpt>
      <trkpt lat="48.58254" lon="1.78168">
        <ele>145.78</ele>
        <time>2015-03-15T08:25:15Z</time>
      </trkpt>
      <trkpt lat="48.58257" lon="1.78158">
        <ele>145.78</ele>
        <time>2015-03-15T08:25:21Z</time>
      </trkpt>
      <trkpt lat="48.58255" lon="1.7814">
        <ele>145.3</ele>
        <time>2015-03-15T08:25:31Z</time>
      </trkpt>
      <trkpt lat="48.58252" lon="1.78124">
        <ele>145.3</ele>
        <time>2015-03-15T08:25:40Z</time>
      </trkpt>
      <trkpt lat="48.58254" lon="1.78114">
        <ele>145.3</ele>
        <time>2015-03-15T08:25:46Z</time>
      </trkpt>
      <trkpt lat="48.58259" lon="1.78109">
        <ele>145.3</ele>
        <time>2015-03-15T08:25:54Z</time>
      </trkpt>
      <trkpt lat="48.58261" lon="1.78109">
        <ele>146.74</ele>
        <time>2015-03-15T08:25:56Z</time>
      </trkpt>
      <trkpt lat="48.58271" lon="1.78113">
        <ele>146.74</ele>
        <time>2015-03-15T08:26:07Z</time>
      </trkpt>
      <trkpt lat="48.58277" lon="1.78115">
        <ele>147.22</ele>
        <time>2015-03-15T08:26:14Z</time>
      </trkpt>
      <trkpt lat="48.58287" lon="1.78117">
        <ele>147.7</ele>
        <time>2015-03-15T08:26:22Z</time>
      </trkpt>
      <trkpt lat="48.58297" lon="1.78119">
        <ele>147.7</ele>
        <time>2015-03-15T08:26:31Z</time>
      </trkpt>
      <trkpt lat="48.58303" lon="1.78128">
        <ele>149.14</ele>
        <time>2015-03-15T08:26:40Z</time>
      </trkpt>
      <trkpt lat="48.58305" lon="1.78135">
        <ele>150.1</ele>
        <time>2015-03-15T08:26:50Z</time>
      </trkpt>
      <trkpt lat="48.58306" lon="1.7814">
        <ele>151.06</ele>
        <time>2015-03-15T08:26:59Z</time>
      </trkpt>
      <trkpt lat="48.5831" lon="1.78145">
        <ele>152.51</ele>
        <time>2015-03-15T08:27:09Z</time>
      </trkpt>
      <trkpt lat="48.58313" lon="1.7815">
        <ele>153.95</ele>
        <time>2015-03-15T08:27:17Z</time>
      </trkpt>
      <trkpt lat="48.58317" lon="1.78157">
        <ele>154.91</ele>
        <time>2015-03-15T08:27:24Z</time>
      </trkpt>
      <trkpt lat="48.58323" lon="1.78164">
        <ele>155.87</ele>
        <time>2015-03-15T08:27:33Z</time>
      </trkpt>
      <trkpt lat="48.58329" lon="1.78174">
        <ele>157.31</ele>
        <time>2015-03-15T08:27:45Z</time>
      </trkpt>
      <trkpt lat="48.58333" lon="1.78182">
        <ele>158.27</ele>
        <time>2015-03-15T08:27:54Z</time>
      </trkpt>
      <trkpt lat="48.58339" lon="1.78188">
        <ele>158.75</ele>
        <time>2015-03-15T08:28:04Z</time>
      </trkpt>
      <trkpt lat="48.58338" lon="1.78197">
        <ele>159.24</ele>
        <time>2015-03-15T08:28:13Z</time>
      </trkpt>
      <trkpt lat="48.58335" lon="1.78204">
        <ele>159.72</ele>
        <time>2015-03-15T08:28:19Z</time>
      </trkpt>
      <trkpt lat="48.58329" lon="1.78217">
        <ele>160.2</ele>
        <time>2015-03-15T08:28:30Z</time>
      </trkpt>
      <trkpt lat="48.58323" lon="1.78228">
        <ele>160.2</ele>
        <time>2015-03-15T08:28:40Z</time>
      </trkpt>
      <trkpt lat="48.58318" lon="1.78236">
        <ele>160.2</ele>
        <time>2015-03-15T08:28:48Z</time>
      </trkpt>
      <trkpt lat="48.5831" lon="1.78245">
        <ele>160.68</ele>
        <time>2015-03-15T08:28:57Z</time>
      </trkpt>
      <trkpt lat="48.58302" lon="1.78257">
        <ele>160.68</ele>
        <time>2015-03-15T08:29:06Z</time>
      </trkpt>
      <trkpt lat="48.58296" lon="1.78274">
        <ele>160.68</ele>
        <time>2015-03-15T08:29:16Z</time>
      </trkpt>
      <trkpt lat="48.58294" lon="1.78292">
        <ele>161.16</ele>
        <time>2015-03-15T08:29:26Z</time>
      </trkpt>
      <trkpt lat="48.58291" lon="1.78307">
        <ele>161.16</ele>
        <time>2015-03-15T08:29:35Z</time>
      </trkpt>
      <trkpt lat="48.58291" lon="1.78321">
        <ele>161.16</ele>
        <time>2015-03-15T08:29:43Z</time>
      </trkpt>
      <trkpt lat="48.5829" lon="1.78333">
        <ele>161.16</ele>
        <time>2015-03-15T08:29:50Z</time>
      </trkpt>
      <trkpt lat="48.5829" lon="1.78351">
        <ele>161.64</ele>
        <time>2015-03-15T08:30:00Z</time>
      </trkpt>
      <trkpt lat="48.58291" lon="1.78362">
        <ele>161.64</ele>
        <time>2015-03-15T08:30:07Z</time>
      </trkpt>
      <trkpt lat="48.58295" lon="1.78377">
        <ele>161.64</ele>
        <time>2015-03-15T08:30:15Z</time>
      </trkpt>
      <trkpt lat="48.58298" lon="1.78385">
        <ele>161.64</ele>
        <time>2015-03-15T08:30:20Z</time>
      </trkpt>
      <trkpt lat="48.58302" lon="1.78401">
        <ele>162.12</ele>
        <time>2015-03-15T08:30:29Z</time>
      </trkpt>
      <trkpt lat="48.58306" lon="1.78416">
        <ele>161.64</ele>
        <time>2015-03-15T08:30:37Z</time>
      </trkpt>
      <trkpt lat="48.58313" lon="1.78433">
        <ele>162.12</ele>
        <time>2015-03-15T08:30:47Z</time>
      </trkpt>
      <trkpt lat="48.58318" lon="1.78452">
        <ele>162.12</ele>
        <time>2015-03-15T08:30:58Z</time>
      </trkpt>
      <trkpt lat="48.58321" lon="1.78462">
        <ele>161.16</ele>
        <time>2015-03-15T08:31:04Z</time>
      </trkpt>
      <trkpt lat="48.58322" lon="1.78466">
        <ele>163.08</ele>
        <time>2015-03-15T08:31:06Z</time>
      </trkpt>
      <trkpt lat="48.58324" lon="1.78469">
        <ele>162.12</ele>
        <time>2015-03-15T08:31:08Z</time>
      </trkpt>
      <trkpt lat="48.58332" lon="1.78488">
        <ele>161.64</ele>
        <time>2015-03-15T08:31:20Z</time>
      </trkpt>
      <trkpt lat="48.58339" lon="1.78509">
        <ele>161.64</ele>
        <time>2015-03-15T08:31:32Z</time>
      </trkpt>
      <trkpt lat="48.58343" lon="1.78527">
        <ele>161.64</ele>
        <time>2015-03-15T08:31:42Z</time>
      </trkpt>
      <trkpt lat="48.58349" lon="1.78545">
        <ele>161.64</ele>
        <time>2015-03-15T08:31:53Z</time>
      </trkpt>
      <trkpt lat="48.58351" lon="1.78553">
        <ele>163.56</ele>
        <time>2015-03-15T08:31:58Z</time>
      </trkpt>
      <trkpt lat="48.58352" lon="1.78556">
        <ele>162.12</ele>
        <time>2015-03-15T08:32:00Z</time>
      </trkpt>
      <trkpt lat="48.58358" lon="1.78569">
        <ele>162.12</ele>
        <time>2015-03-15T08:32:11Z</time>
      </trkpt>
      <trkpt lat="48.5836" lon="1.78571">
        <ele>162.12</ele>
        <time>2015-03-15T08:32:20Z</time>
      </trkpt>
      <trkpt lat="48.58361" lon="1.78571">
        <ele>162.12</ele>
        <time>2015-03-15T08:32:31Z</time>
      </trkpt>
      <trkpt lat="48.58364" lon="1.78573">
        <ele>162.12</ele>
        <time>2015-03-15T08:32:40Z</time>
      </trkpt>
      <trkpt lat="48.58364" lon="1.78574">
        <ele>162.12</ele>
        <time>2015-03-15T08:32:51Z</time>
      </trkpt>
      <trkpt lat="48.58364" lon="1.78576">
        <ele>162.12</ele>
        <time>2015-03-15T08:33:06Z</time>
      </trkpt>
      <trkpt lat="48.58364" lon="1.78575">
        <ele>162.12</ele>
        <time>2015-03-15T08:33:28Z</time>
      </trkpt>
      <trkpt lat="48.58365" lon="1.78572">
        <ele>162.12</ele>
        <time>2015-03-15T08:33:43Z</time>
      </trkpt>
      <trkpt lat="48.58364" lon="1.78567">
        <ele>162.12</ele>
        <time>2015-03-15T08:33:55Z</time>
      </trkpt>
      <trkpt lat="48.58364" lon="1.78569">
        <ele>162.12</ele>
        <time>2015-03-15T08:34:04Z</time>
      </trkpt>
      <trkpt lat="48.58363" lon="1.78571">
        <ele>162.12</ele>
        <time>2015-03-15T08:34:19Z</time>
      </trkpt>
      <trkpt lat="48.58362" lon="1.78571">
        <ele>162.12</ele>
        <time>2015-03-15T08:34:33Z</time>
      </trkpt>
      <trkpt lat="48.58362" lon="1.78572">
        <ele>162.12</ele>
        <time>2015-03-15T08:34:42Z</time>
      </trkpt>
      <trkpt lat="48.58364" lon="1.78586">
        <ele>163.08</ele>
        <time>2015-03-15T08:34:50Z</time>
      </trkpt>
      <trkpt lat="48.58367" lon="1.78598">
        <ele>163.08</ele>
        <time>2015-03-15T08:34:59Z</time>
      </trkpt>
      <trkpt lat="48.58376" lon="1.78611">
        <ele>163.08</ele>
        <time>2015-03-15T08:35:10Z</time>
      </trkpt>
      <trkpt lat="48.58386" lon="1.78622">
        <ele>163.08</ele>
        <time>2015-03-15T08:35:20Z</time>
      </trkpt>
      <trkpt lat="48.58395" lon="1.78631">
        <ele>163.08</ele>
        <time>2015-03-15T08:35:29Z</time>
      </trkpt>
      <trkpt lat="48.58396" lon="1.78632">
        <ele>163.08</ele>
        <time>2015-03-15T08:35:35Z</time>
      </trkpt>
      <trkpt lat="48.58404" lon="1.7864">
        <ele>163.08</ele>
        <time>2015-03-15T08:35:43Z</time>
      </trkpt>
      <trkpt lat="48.58414" lon="1.78654">
        <ele>163.08</ele>
        <time>2015-03-15T08:35:54Z</time>
      </trkpt>
      <trkpt lat="48.58421" lon="1.78665">
        <ele>163.56</ele>
        <time>2015-03-15T08:36:02Z</time>
      </trkpt>
      <trkpt lat="48.58428" lon="1.78676">
        <ele>163.08</ele>
        <time>2015-03-15T08:36:11Z</time>
      </trkpt>
      <trkpt lat="48.58433" lon="1.78684">
        <ele>163.08</ele>
        <time>2015-03-15T08:36:19Z</time>
      </trkpt>
      <trkpt lat="48.58438" lon="1.78689">
        <ele>163.08</ele>
        <time>2015-03-15T08:36:28Z</time>
      </trkpt>
      <trkpt lat="48.58444" lon="1.78683">
        <ele>163.56</ele>
        <time>2015-03-15T08:36:40Z</time>
      </trkpt>
      <trkpt lat="48.58448" lon="1.7868">
        <ele>163.56</ele>
        <time>2015-03-15T08:36:49Z</time>
      </trkpt>
      <trkpt lat="48.58452" lon="1.78676">
        <ele>163.56</ele>
        <time>2015-03-15T08:36:57Z</time>
      </trkpt>
      <trkpt lat="48.58459" lon="1.78672">
        <ele>163.56</ele>
        <time>2015-03-15T08:37:06Z</time>
      </trkpt>
      <trkpt lat="48.58467" lon="1.78672">
        <ele>163.56</ele>
        <time>2015-03-15T08:37:16Z</time>
      </trkpt>
      <trkpt lat="48.58471" lon="1.78671">
        <ele>164.04</ele>
        <time>2015-03-15T08:37:24Z</time>
      </trkpt>
      <trkpt lat="48.58476" lon="1.78671">
        <ele>164.04</ele>
        <time>2015-03-15T08:37:32Z</time>
      </trkpt>
      <trkpt lat="48.58483" lon="1.78675">
        <ele>164.04</ele>
        <time>2015-03-15T08:37:41Z</time>
      </trkpt>
      <trkpt lat="48.58486" lon="1.78677">
        <ele>164.04</ele>
        <time>2015-03-15T08:37:44Z</time>
      </trkpt>
      <trkpt lat="48.58496" lon="1.78677">
        <ele>164.52</ele>
        <time>2015-03-15T08:37:55Z</time>
      </trkpt>
      <trkpt lat="48.58505" lon="1.78677">
        <ele>164.52</ele>
        <time>2015-03-15T08:38:05Z</time>
      </trkpt>
      <trkpt lat="48.58517" lon="1.78683">
        <ele>164.52</ele>
        <time>2015-03-15T08:38:15Z</time>
      </trkpt>
      <trkpt lat="48.58527" lon="1.78686">
        <ele>165</ele>
        <time>2015-03-15T08:38:24Z</time>
      </trkpt>
      <trkpt lat="48.58534" lon="1.78688">
        <ele>165</ele>
        <time>2015-03-15T08:38:31Z</time>
      </trkpt>
      <trkpt lat="48.58543" lon="1.7869">
        <ele>165.96</ele>
        <time>2015-03-15T08:38:39Z</time>
      </trkpt>
      <trkpt lat="48.58558" lon="1.78694">
        <ele>165.96</ele>
        <time>2015-03-15T08:38:49Z</time>
      </trkpt>
      <trkpt lat="48.58571" lon="1.78695">
        <ele>165.96</ele>
        <time>2015-03-15T08:38:59Z</time>
      </trkpt>
      <trkpt lat="48.58585" lon="1.787">
        <ele>166.45</ele>
        <time>2015-03-15T08:39:08Z</time>
      </trkpt>
      <trkpt lat="48.58587" lon="1.78701">
        <ele>166.45</ele>
        <time>2015-03-15T08:39:11Z</time>
      </trkpt>
      <trkpt lat="48.58598" lon="1.78704">
        <ele>166.93</ele>
        <time>2015-03-15T08:39:19Z</time>
      </trkpt>
      <trkpt lat="48.5861" lon="1.78708">
        <ele>166.93</ele>
        <time>2015-03-15T08:39:29Z</time>
      </trkpt>
      <trkpt lat="48.5862" lon="1.78711">
        <ele>166.93</ele>
        <time>2015-03-15T08:39:39Z</time>
      </trkpt>
      <trkpt lat="48.58628" lon="1.78712">
        <ele>166.93</ele>
        <time>2015-03-15T08:39:46Z</time>
      </trkpt>
      <trkpt lat="48.58639" lon="1.78715">
        <ele>167.41</ele>
        <time>2015-03-15T08:39:55Z</time>
      </trkpt>
      <trkpt lat="48.58648" lon="1.78719">
        <ele>167.41</ele>
        <time>2015-03-15T08:40:02Z</time>
      </trkpt>
      <trkpt lat="48.58664" lon="1.78723">
        <ele>167.41</ele>
        <time>2015-03-15T08:40:12Z</time>
      </trkpt>
      <trkpt lat="48.58675" lon="1.78726">
        <ele>167.89</ele>
        <time>2015-03-15T08:40:21Z</time>
      </trkpt>
      <trkpt lat="48.58685" lon="1.78729">
        <ele>167.89</ele>
        <time>2015-03-15T08:40:29Z</time>
      </trkpt>
      <trkpt lat="48.58699" lon="1.78734">
        <ele>168.85</ele>
        <time>2015-03-15T08:40:39Z</time>
      </trkpt>
      <trkpt lat="48.58709" lon="1.78737">
        <ele>168.85</ele>
        <time>2015-03-15T08:40:47Z</time>
      </trkpt>
      <trkpt lat="48.58722" lon="1.7874">
        <ele>168.85</ele>
        <time>2015-03-15T08:40:55Z</time>
      </trkpt>
      <trkpt lat="48.58727" lon="1.78744">
        <ele>168.85</ele>
        <time>2015-03-15T08:41:03Z</time>
      </trkpt>
      <trkpt lat="48.58736" lon="1.78745">
        <ele>168.85</ele>
        <time>2015-03-15T08:41:11Z</time>
      </trkpt>
      <trkpt lat="48.5874" lon="1.78741">
        <ele>168.85</ele>
        <time>2015-03-15T08:41:16Z</time>
      </trkpt>
      <trkpt lat="48.58745" lon="1.78736">
        <ele>168.85</ele>
        <time>2015-03-15T08:41:23Z</time>
      </trkpt>
      <trkpt lat="48.58753" lon="1.78738">
        <ele>168.85</ele>
        <time>2015-03-15T08:41:30Z</time>
      </trkpt>
      <trkpt lat="48.58757" lon="1.78739">
        <ele>169.33</ele>
        <time>2015-03-15T08:41:34Z</time>
      </trkpt>
      <trkpt lat="48.58764" lon="1.78741">
        <ele>169.33</ele>
        <time>2015-03-15T08:41:42Z</time>
      </trkpt>
      <trkpt lat="48.58772" lon="1.78749">
        <ele>169.33</ele>
        <time>2015-03-15T08:41:50Z</time>
      </trkpt>
      <trkpt lat="48.58779" lon="1.78755">
        <ele>169.33</ele>
        <time>2015-03-15T08:41:59Z</time>
      </trkpt>
      <trkpt lat="48.58784" lon="1.7876">
        <ele>169.33</ele>
        <time>2015-03-15T08:42:06Z</time>
      </trkpt>
      <trkpt lat="48.58788" lon="1.78765">
        <ele>169.33</ele>
        <time>2015-03-15T08:42:11Z</time>
      </trkpt>
      <trkpt lat="48.5879" lon="1.78768">
        <ele>169.33</ele>
        <time>2015-03-15T08:42:13Z</time>
      </trkpt>
      <trkpt lat="48.58796" lon="1.78775">
        <ele>169.81</ele>
        <time>2015-03-15T08:42:22Z</time>
      </trkpt>
      <trkpt lat="48.58801" lon="1.78782">
        <ele>169.81</ele>
        <time>2015-03-15T08:42:31Z</time>
      </trkpt>
      <trkpt lat="48.58805" lon="1.78786">
        <ele>169.81</ele>
        <time>2015-03-15T08:42:39Z</time>
      </trkpt>
      <trkpt lat="48.58809" lon="1.78792">
        <ele>170.29</ele>
        <time>2015-03-15T08:42:46Z</time>
      </trkpt>
      <trkpt lat="48.5881" lon="1.78798">
        <ele>170.29</ele>
        <time>2015-03-15T08:42:53Z</time>
      </trkpt>
      <trkpt lat="48.58816" lon="1.7881">
        <ele>170.29</ele>
        <time>2015-03-15T08:43:03Z</time>
      </trkpt>
      <trkpt lat="48.5882" lon="1.78819">
        <ele>170.29</ele>
        <time>2015-03-15T08:43:10Z</time>
      </trkpt>
      <trkpt lat="48.58826" lon="1.78831">
        <ele>170.29</ele>
        <time>2015-03-15T08:43:18Z</time>
      </trkpt>
      <trkpt lat="48.58832" lon="1.78844">
        <ele>170.29</ele>
        <time>2015-03-15T08:43:29Z</time>
      </trkpt>
      <trkpt lat="48.58836" lon="1.78856">
        <ele>170.29</ele>
        <time>2015-03-15T08:43:37Z</time>
      </trkpt>
      <trkpt lat="48.58841" lon="1.78867">
        <ele>170.29</ele>
        <time>2015-03-15T08:43:44Z</time>
      </trkpt>
      <trkpt lat="48.5885" lon="1.78877">
        <ele>170.29</ele>
        <time>2015-03-15T08:43:53Z</time>
      </trkpt>
      <trkpt lat="48.58857" lon="1.78886">
        <ele>170.29</ele>
        <time>2015-03-15T08:44:02Z</time>
      </trkpt>
      <trkpt lat="48.58863" lon="1.78899">
        <ele>170.29</ele>
        <time>2015-03-15T08:44:11Z</time>
      </trkpt>
      <trkpt lat="48.58868" lon="1.78909">
        <ele>170.29</ele>
        <time>2015-03-15T08:44:18Z</time>
      </trkpt>
      <trkpt lat="48.58873" lon="1.78917">
        <ele>170.29</ele>
        <time>2015-03-15T08:44:25Z</time>
      </trkpt>
      <trkpt lat="48.58878" lon="1.78925">
        <ele>170.77</ele>
        <time>2015-03-15T08:44:33Z</time>
      </trkpt>
      <trkpt lat="48.58882" lon="1.78934">
        <ele>170.77</ele>
        <time>2015-03-15T08:44:41Z</time>
      </trkpt>
      <trkpt lat="48.58888" lon="1.78948">
        <ele>170.77</ele>
        <time>2015-03-15T08:44:52Z</time>
      </trkpt>
      <trkpt lat="48.58895" lon="1.78959">
        <ele>170.77</ele>
        <time>2015-03-15T08:45:00Z</time>
      </trkpt>
      <trkpt lat="48.58901" lon="1.78967">
        <ele>170.77</ele>
        <time>2015-03-15T08:45:09Z</time>
      </trkpt>
      <trkpt lat="48.58907" lon="1.78974">
        <ele>170.77</ele>
        <time>2015-03-15T08:45:16Z</time>
      </trkpt>
      <trkpt lat="48.58914" lon="1.78986">
        <ele>170.77</ele>
        <time>2015-03-15T08:45:24Z</time>
      </trkpt>
      <trkpt lat="48.58921" lon="1.7899">
        <ele>170.77</ele>
        <time>2015-03-15T08:45:32Z</time>
      </trkpt>
      <trkpt lat="48.58926" lon="1.78998">
        <ele>170.77</ele>
        <time>2015-03-15T08:45:40Z</time>
      </trkpt>
      <trkpt lat="48.58933" lon="1.7901">
        <ele>170.77</ele>
        <time>2015-03-15T08:45:50Z</time>
      </trkpt>
      <trkpt lat="48.58936" lon="1.79012">
        <ele>169.81</ele>
        <time>2015-03-15T08:45:53Z</time>
      </trkpt>
      <trkpt lat="48.58943" lon="1.79021">
        <ele>170.77</ele>
        <time>2015-03-15T08:46:01Z</time>
      </trkpt>
      <trkpt lat="48.58949" lon="1.79031">
        <ele>170.77</ele>
        <time>2015-03-15T08:46:09Z</time>
      </trkpt>
      <trkpt lat="48.58955" lon="1.79039">
        <ele>169.81</ele>
        <time>2015-03-15T08:46:16Z</time>
      </trkpt>
      <trkpt lat="48.58963" lon="1.79053">
        <ele>169.81</ele>
        <time>2015-03-15T08:46:25Z</time>
      </trkpt>
      <trkpt lat="48.58971" lon="1.79065">
        <ele>169.81</ele>
        <time>2015-03-15T08:46:33Z</time>
      </trkpt>
      <trkpt lat="48.58978" lon="1.79075">
        <ele>169.33</ele>
        <time>2015-03-15T08:46:42Z</time>
      </trkpt>
      <trkpt lat="48.58984" lon="1.79085">
        <ele>169.33</ele>
        <time>2015-03-15T08:46:50Z</time>
      </trkpt>
      <trkpt lat="48.58989" lon="1.79094">
        <ele>168.85</ele>
        <time>2015-03-15T08:46:57Z</time>
      </trkpt>
      <trkpt lat="48.58994" lon="1.79103">
        <ele>168.85</ele>
        <time>2015-03-15T08:47:04Z</time>
      </trkpt>
      <trkpt lat="48.59002" lon="1.79114">
        <ele>168.85</ele>
        <time>2015-03-15T08:47:13Z</time>
      </trkpt>
      <trkpt lat="48.59009" lon="1.79124">
        <ele>168.85</ele>
        <time>2015-03-15T08:47:21Z</time>
      </trkpt>
      <trkpt lat="48.59017" lon="1.79135">
        <ele>168.85</ele>
        <time>2015-03-15T08:47:30Z</time>
      </trkpt>
      <trkpt lat="48.5902" lon="1.79141">
        <ele>168.37</ele>
        <time>2015-03-15T08:47:36Z</time>
      </trkpt>
      <trkpt lat="48.59025" lon="1.7915">
        <ele>168.37</ele>
        <time>2015-03-15T08:47:42Z</time>
      </trkpt>
      <trkpt lat="48.59031" lon="1.79162">
        <ele>167.89</ele>
        <time>2015-03-15T08:47:52Z</time>
      </trkpt>
      <trkpt lat="48.59037" lon="1.79169">
        <ele>167.89</ele>
        <time>2015-03-15T08:48:00Z</time>
      </trkpt>
      <trkpt lat="48.59041" lon="1.79174">
        <ele>168.37</ele>
        <time>2015-03-15T08:48:05Z</time>
      </trkpt>
      <trkpt lat="48.59047" lon="1.79182">
        <ele>168.37</ele>
        <time>2015-03-15T08:48:14Z</time>
      </trkpt>
      <trkpt lat="48.5905" lon="1.79184">
        <ele>167.41</ele>
        <time>2015-03-15T08:48:21Z</time>
      </trkpt>
      <trkpt lat="48.59056" lon="1.79193">
        <ele>167.89</ele>
        <time>2015-03-15T08:48:29Z</time>
      </trkpt>
      <trkpt lat="48.59059" lon="1.79199">
        <ele>167.89</ele>
        <time>2015-03-15T08:48:33Z</time>
      </trkpt>
      <trkpt lat="48.59067" lon="1.7921">
        <ele>167.89</ele>
        <time>2015-03-15T08:48:42Z</time>
      </trkpt>
      <trkpt lat="48.59068" lon="1.79212">
        <ele>167.41</ele>
        <time>2015-03-15T08:48:44Z</time>
      </trkpt>
      <trkpt lat="48.59074" lon="1.79223">
        <ele>167.41</ele>
        <time>2015-03-15T08:48:53Z</time>
      </trkpt>
      <trkpt lat="48.59075" lon="1.79225">
        <ele>167.41</ele>
        <time>2015-03-15T08:48:55Z</time>
      </trkpt>
      <trkpt lat="48.59083" lon="1.79241">
        <ele>167.41</ele>
        <time>2015-03-15T08:49:06Z</time>
      </trkpt>
      <trkpt lat="48.59089" lon="1.79251">
        <ele>167.41</ele>
        <time>2015-03-15T08:49:13Z</time>
      </trkpt>
      <trkpt lat="48.59096" lon="1.79263">
        <ele>167.41</ele>
        <time>2015-03-15T08:49:23Z</time>
      </trkpt>
      <trkpt lat="48.59102" lon="1.79272">
        <ele>166.93</ele>
        <time>2015-03-15T08:49:32Z</time>
      </trkpt>
      <trkpt lat="48.59105" lon="1.79275">
        <ele>166.93</ele>
        <time>2015-03-15T08:49:40Z</time>
      </trkpt>
      <trkpt lat="48.59106" lon="1.79271">
        <ele>167.41</ele>
        <time>2015-03-15T08:49:49Z</time>
      </trkpt>
      <trkpt lat="48.59106" lon="1.79267">
        <ele>166.93</ele>
        <time>2015-03-15T08:50:03Z</time>
      </trkpt>
      <trkpt lat="48.5911" lon="1.7927">
        <ele>166.93</ele>
        <time>2015-03-15T08:50:11Z</time>
      </trkpt>
      <trkpt lat="48.59112" lon="1.79271">
        <ele>166.93</ele>
        <time>2015-03-15T08:50:19Z</time>
      </trkpt>
      <trkpt lat="48.59107" lon="1.79269">
        <ele>167.41</ele>
        <time>2015-03-15T08:50:27Z</time>
      </trkpt>
      <trkpt lat="48.59107" lon="1.79271">
        <ele>166.45</ele>
        <time>2015-03-15T08:50:31Z</time>
      </trkpt>
      <trkpt lat="48.59106" lon="1.79271">
        <ele>166.45</ele>
        <time>2015-03-15T08:50:44Z</time>
      </trkpt>
      <trkpt lat="48.59107" lon="1.79267">
        <ele>166.45</ele>
        <time>2015-03-15T08:50:56Z</time>
      </trkpt>
      <trkpt lat="48.59108" lon="1.79267">
        <ele>166.45</ele>
        <time>2015-03-15T08:51:04Z</time>
      </trkpt>
      <trkpt lat="48.5911" lon="1.79267">
        <ele>166.45</ele>
        <time>2015-03-15T08:51:14Z</time>
      </trkpt>
      <trkpt lat="48.59111" lon="1.79269">
        <ele>166.45</ele>
        <time>2015-03-15T08:51:26Z</time>
      </trkpt>
      <trkpt lat="48.59111" lon="1.79267">
        <ele>166.45</ele>
        <time>2015-03-15T08:51:41Z</time>
      </trkpt>
      <trkpt lat="48.5911" lon="1.79266">
        <ele>166.45</ele>
        <time>2015-03-15T08:51:59Z</time>
      </trkpt>
      <trkpt lat="48.59111" lon="1.79268">
        <ele>166.45</ele>
        <time>2015-03-15T08:52:10Z</time>
      </trkpt>
      <trkpt lat="48.59111" lon="1.79267">
        <ele>166.45</ele>
        <time>2015-03-15T08:52:23Z</time>
      </trkpt>
      <trkpt lat="48.59111" lon="1.79269">
        <ele>166.45</ele>
        <time>2015-03-15T08:52:39Z</time>
      </trkpt>
      <trkpt lat="48.5911" lon="1.79267">
        <ele>166.45</ele>
        <time>2015-03-15T08:52:53Z</time>
      </trkpt>
      <trkpt lat="48.5911" lon="1.79265">
        <ele>166.93</ele>
        <time>2015-03-15T08:53:14Z</time>
      </trkpt>
      <trkpt lat="48.59111" lon="1.79271">
        <ele>166.93</ele>
        <time>2015-03-15T08:53:26Z</time>
      </trkpt>
      <trkpt lat="48.59116" lon="1.79285">
        <ele>166.93</ele>
        <time>2015-03-15T08:53:35Z</time>
      </trkpt>
      <trkpt lat="48.59123" lon="1.79299">
        <ele>166.93</ele>
        <time>2015-03-15T08:53:44Z</time>
      </trkpt>
      <trkpt lat="48.59131" lon="1.79311">
        <ele>166.93</ele>
        <time>2015-03-15T08:53:53Z</time>
      </trkpt>
      <trkpt lat="48.59137" lon="1.79322">
        <ele>166.93</ele>
        <time>2015-03-15T08:54:01Z</time>
      </trkpt>
      <trkpt lat="48.59142" lon="1.7933">
        <ele>167.89</ele>
        <time>2015-03-15T08:54:08Z</time>
      </trkpt>
      <trkpt lat="48.59144" lon="1.79334">
        <ele>168.37</ele>
        <time>2015-03-15T08:54:10Z</time>
      </trkpt>
      <trkpt lat="48.59152" lon="1.79347">
        <ele>166.93</ele>
        <time>2015-03-15T08:54:20Z</time>
      </trkpt>
      <trkpt lat="48.59158" lon="1.79356">
        <ele>166.93</ele>
        <time>2015-03-15T08:54:28Z</time>
      </trkpt>
      <trkpt lat="48.59163" lon="1.79365">
        <ele>166.93</ele>
        <time>2015-03-15T08:54:34Z</time>
      </trkpt>
      <trkpt lat="48.5917" lon="1.79378">
        <ele>167.41</ele>
        <time>2015-03-15T08:54:44Z</time>
      </trkpt>
      <trkpt lat="48.59173" lon="1.79387">
        <ele>167.41</ele>
        <time>2015-03-15T08:54:51Z</time>
      </trkpt>
      <trkpt lat="48.5918" lon="1.794">
        <ele>166.45</ele>
        <time>2015-03-15T08:54:59Z</time>
      </trkpt>
      <trkpt lat="48.59187" lon="1.79411">
        <ele>166.45</ele>
        <time>2015-03-15T08:55:06Z</time>
      </trkpt>
      <trkpt lat="48.59191" lon="1.79424">
        <ele>165.96</ele>
        <time>2015-03-15T08:55:15Z</time>
      </trkpt>
      <trkpt lat="48.59192" lon="1.79427">
        <ele>165.96</ele>
        <time>2015-03-15T08:55:17Z</time>
      </trkpt>
      <trkpt lat="48.59195" lon="1.79436">
        <ele>165.96</ele>
        <time>2015-03-15T08:55:22Z</time>
      </trkpt>
      <trkpt lat="48.59205" lon="1.79451">
        <ele>165.96</ele>
        <time>2015-03-15T08:55:33Z</time>
      </trkpt>
      <trkpt lat="48.59211" lon="1.79456">
        <ele>165.96</ele>
        <time>2015-03-15T08:55:39Z</time>
      </trkpt>
      <trkpt lat="48.59217" lon="1.79461">
        <ele>165.96</ele>
        <time>2015-03-15T08:55:46Z</time>
      </trkpt>
      <trkpt lat="48.59218" lon="1.79462">
        <ele>165.96</ele>
        <time>2015-03-15T08:55:48Z</time>
      </trkpt>
      <trkpt lat="48.59224" lon="1.79474">
        <ele>165.96</ele>
        <time>2015-03-15T08:55:58Z</time>
      </trkpt>
      <trkpt lat="48.59229" lon="1.79476">
        <ele>165.96</ele>
        <time>2015-03-15T08:56:07Z</time>
      </trkpt>
      <trkpt lat="48.59233" lon="1.79484">
        <ele>165.96</ele>
        <time>2015-03-15T08:56:16Z</time>
      </trkpt>
      <trkpt lat="48.5924" lon="1.79503">
        <ele>165.96</ele>
        <time>2015-03-15T08:56:27Z</time>
      </trkpt>
      <trkpt lat="48.59246" lon="1.79508">
        <ele>167.41</ele>
        <time>2015-03-15T08:56:33Z</time>
      </trkpt>
      <trkpt lat="48.5925" lon="1.79514">
        <ele>167.41</ele>
        <time>2015-03-15T08:56:38Z</time>
      </trkpt>
      <trkpt lat="48.59255" lon="1.79523">
        <ele>167.41</ele>
        <time>2015-03-15T08:56:45Z</time>
      </trkpt>
      <trkpt lat="48.59262" lon="1.79532">
        <ele>167.41</ele>
        <time>2015-03-15T08:56:55Z</time>
      </trkpt>
      <trkpt lat="48.59267" lon="1.79545">
        <ele>167.89</ele>
        <time>2015-03-15T08:57:04Z</time>
      </trkpt>
      <trkpt lat="48.59271" lon="1.79553">
        <ele>167.89</ele>
        <time>2015-03-15T08:57:10Z</time>
      </trkpt>
      <trkpt lat="48.59279" lon="1.79567">
        <ele>167.89</ele>
        <time>2015-03-15T08:57:20Z</time>
      </trkpt>
      <trkpt lat="48.5928" lon="1.79571">
        <ele>168.37</ele>
        <time>2015-03-15T08:57:22Z</time>
      </trkpt>
      <trkpt lat="48.59286" lon="1.79585">
        <ele>168.37</ele>
        <time>2015-03-15T08:57:32Z</time>
      </trkpt>
      <trkpt lat="48.5929" lon="1.79598">
        <ele>168.37</ele>
        <time>2015-03-15T08:57:40Z</time>
      </trkpt>
      <trkpt lat="48.59295" lon="1.79612">
        <ele>168.37</ele>
        <time>2015-03-15T08:57:49Z</time>
      </trkpt>
      <trkpt lat="48.59302" lon="1.79624">
        <ele>168.85</ele>
        <time>2015-03-15T08:57:58Z</time>
      </trkpt>
      <trkpt lat="48.59302" lon="1.79625">
        <ele>168.85</ele>
        <time>2015-03-15T08:57:59Z</time>
      </trkpt>
      <trkpt lat="48.59307" lon="1.79638">
        <ele>169.33</ele>
        <time>2015-03-15T08:58:08Z</time>
      </trkpt>
      <trkpt lat="48.59311" lon="1.79646">
        <ele>169.33</ele>
        <time>2015-03-15T08:58:17Z</time>
      </trkpt>
      <trkpt lat="48.59315" lon="1.79652">
        <ele>169.33</ele>
        <time>2015-03-15T08:58:27Z</time>
      </trkpt>
      <trkpt lat="48.5932" lon="1.79661">
        <ele>169.81</ele>
        <time>2015-03-15T08:58:35Z</time>
      </trkpt>
      <trkpt lat="48.59325" lon="1.7966">
        <ele>169.81</ele>
        <time>2015-03-15T08:58:46Z</time>
      </trkpt>
      <trkpt lat="48.59326" lon="1.79664">
        <ele>169.81</ele>
        <time>2015-03-15T08:58:53Z</time>
      </trkpt>
      <trkpt lat="48.59331" lon="1.79677">
        <ele>169.81</ele>
        <time>2015-03-15T08:59:02Z</time>
      </trkpt>
      <trkpt lat="48.59337" lon="1.79686">
        <ele>169.81</ele>
        <time>2015-03-15T08:59:11Z</time>
      </trkpt>
      <trkpt lat="48.59341" lon="1.79696">
        <ele>169.81</ele>
        <time>2015-03-15T08:59:19Z</time>
      </trkpt>
      <trkpt lat="48.59346" lon="1.79707">
        <ele>169.33</ele>
        <time>2015-03-15T08:59:30Z</time>
      </trkpt>
      <trkpt lat="48.59352" lon="1.79722">
        <ele>168.85</ele>
        <time>2015-03-15T08:59:42Z</time>
      </trkpt>
      <trkpt lat="48.59356" lon="1.7973">
        <ele>169.33</ele>
        <time>2015-03-15T08:59:50Z</time>
      </trkpt>
      <trkpt lat="48.59357" lon="1.79732">
        <ele>170.29</ele>
        <time>2015-03-15T08:59:52Z</time>
      </trkpt>
      <trkpt lat="48.59362" lon="1.79743">
        <ele>170.29</ele>
        <time>2015-03-15T09:00:00Z</time>
      </trkpt>
      <trkpt lat="48.59366" lon="1.79751">
        <ele>170.29</ele>
        <time>2015-03-15T09:00:09Z</time>
      </trkpt>
      <trkpt lat="48.59369" lon="1.79757">
        <ele>170.29</ele>
        <time>2015-03-15T09:00:18Z</time>
      </trkpt>
      <trkpt lat="48.59374" lon="1.79769">
        <ele>170.77</ele>
        <time>2015-03-15T09:00:26Z</time>
      </trkpt>
      <trkpt lat="48.59379" lon="1.7978">
        <ele>170.77</ele>
        <time>2015-03-15T09:00:35Z</time>
      </trkpt>
      <trkpt lat="48.59379" lon="1.79782">
        <ele>170.77</ele>
        <time>2015-03-15T09:00:37Z</time>
      </trkpt>
      <trkpt lat="48.59383" lon="1.79799">
        <ele>170.77</ele>
        <time>2015-03-15T09:00:47Z</time>
      </trkpt>
      <trkpt lat="48.59386" lon="1.79813">
        <ele>170.77</ele>
        <time>2015-03-15T09:00:56Z</time>
      </trkpt>
      <trkpt lat="48.59389" lon="1.79826">
        <ele>170.77</ele>
        <time>2015-03-15T09:01:05Z</time>
      </trkpt>
      <trkpt lat="48.59393" lon="1.79839">
        <ele>171.25</ele>
        <time>2015-03-15T09:01:14Z</time>
      </trkpt>
      <trkpt lat="48.59397" lon="1.79852">
        <ele>171.73</ele>
        <time>2015-03-15T09:01:22Z</time>
      </trkpt>
      <trkpt lat="48.594" lon="1.79868">
        <ele>171.73</ele>
        <time>2015-03-15T09:01:32Z</time>
      </trkpt>
      <trkpt lat="48.59401" lon="1.79872">
        <ele>171.73</ele>
        <time>2015-03-15T09:01:35Z</time>
      </trkpt>
      <trkpt lat="48.59405" lon="1.79888">
        <ele>171.73</ele>
        <time>2015-03-15T09:01:46Z</time>
      </trkpt>
      <trkpt lat="48.59409" lon="1.79902">
        <ele>171.73</ele>
        <time>2015-03-15T09:01:55Z</time>
      </trkpt>
      <trkpt lat="48.59415" lon="1.79916">
        <ele>171.73</ele>
        <time>2015-03-15T09:02:04Z</time>
      </trkpt>
      <trkpt lat="48.5942" lon="1.79929">
        <ele>171.73</ele>
        <time>2015-03-15T09:02:13Z</time>
      </trkpt>
      <trkpt lat="48.59425" lon="1.79942">
        <ele>171.73</ele>
        <time>2015-03-15T09:02:22Z</time>
      </trkpt>
      <trkpt lat="48.5943" lon="1.79954">
        <ele>171.73</ele>
        <time>2015-03-15T09:02:30Z</time>
      </trkpt>
      <trkpt lat="48.59437" lon="1.79966">
        <ele>171.25</ele>
        <time>2015-03-15T09:02:40Z</time>
      </trkpt>
      <trkpt lat="48.59445" lon="1.79977">
        <ele>169.81</ele>
        <time>2015-03-15T09:02:51Z</time>
      </trkpt>
      <trkpt lat="48.59446" lon="1.79976">
        <ele>171.73</ele>
        <time>2015-03-15T09:02:59Z</time>
      </trkpt>
      <trkpt lat="48.59446" lon="1.79977">
        <ele>171.73</ele>
        <time>2015-03-15T09:03:09Z</time>
      </trkpt>
      <trkpt lat="48.59444" lon="1.79978">
        <ele>171.73</ele>
        <time>2015-03-15T09:03:23Z</time>
      </trkpt>
      <trkpt lat="48.59444" lon="1.79977">
        <ele>171.73</ele>
        <time>2015-03-15T09:03:34Z</time>
      </trkpt>
      <trkpt lat="48.59444" lon="1.79977">
        <ele>171.73</ele>
        <time>2015-03-15T09:03:45Z</time>
      </trkpt>
      <trkpt lat="48.59442" lon="1.79976">
        <ele>171.73</ele>
        <time>2015-03-15T09:04:00Z</time>
      </trkpt>
      <trkpt lat="48.59441" lon="1.79975">
        <ele>171.25</ele>
        <time>2015-03-15T09:04:18Z</time>
      </trkpt>
      <trkpt lat="48.59441" lon="1.79977">
        <ele>171.25</ele>
        <time>2015-03-15T09:04:32Z</time>
      </trkpt>
      <trkpt lat="48.59443" lon="1.79977">
        <ele>171.25</ele>
        <time>2015-03-15T09:04:53Z</time>
      </trkpt>
      <trkpt lat="48.59443" lon="1.79977">
        <ele>170.29</ele>
        <time>2015-03-15T09:04:58Z</time>
      </trkpt>
      <trkpt lat="48.59444" lon="1.79977">
        <ele>171.73</ele>
        <time>2015-03-15T09:05:05Z</time>
      </trkpt>
      <trkpt lat="48.59442" lon="1.79978">
        <ele>170.29</ele>
        <time>2015-03-15T09:05:13Z</time>
      </trkpt>
      <trkpt lat="48.59441" lon="1.79979">
        <ele>170.29</ele>
        <time>2015-03-15T09:05:21Z</time>
      </trkpt>
      <trkpt lat="48.59442" lon="1.79978">
        <ele>170.29</ele>
        <time>2015-03-15T09:05:34Z</time>
      </trkpt>
      <trkpt lat="48.59441" lon="1.79978">
        <ele>170.29</ele>
        <time>2015-03-15T09:05:48Z</time>
      </trkpt>
      <trkpt lat="48.59441" lon="1.7998">
        <ele>169.81</ele>
        <time>2015-03-15T09:06:04Z</time>
      </trkpt>
      <trkpt lat="48.59441" lon="1.79979">
        <ele>169.81</ele>
        <time>2015-03-15T09:06:18Z</time>
      </trkpt>
      <trkpt lat="48.59437" lon="1.79982">
        <ele>169.81</ele>
        <time>2015-03-15T09:06:26Z</time>
      </trkpt>
      <trkpt lat="48.59433" lon="1.79985">
        <ele>169.81</ele>
        <time>2015-03-15T09:06:32Z</time>
      </trkpt>
      <trkpt lat="48.59424" lon="1.79993">
        <ele>169.81</ele>
        <time>2015-03-15T09:06:42Z</time>
      </trkpt>
      <trkpt lat="48.59415" lon="1.80011">
        <ele>169.33</ele>
        <time>2015-03-15T09:06:54Z</time>
      </trkpt>
      <trkpt lat="48.59409" lon="1.80026">
        <ele>169.33</ele>
        <time>2015-03-15T09:07:04Z</time>
      </trkpt>
      <trkpt lat="48.59402" lon="1.80044">
        <ele>168.85</ele>
        <time>2015-03-15T09:07:16Z</time>
      </trkpt>
      <trkpt lat="48.59397" lon="1.8006">
        <ele>168.85</ele>
        <time>2015-03-15T09:07:26Z</time>
      </trkpt>
      <trkpt lat="48.59389" lon="1.80078">
        <ele>168.85</ele>
        <time>2015-03-15T09:07:38Z</time>
      </trkpt>
      <trkpt lat="48.59383" lon="1.80095">
        <ele>168.85</ele>
        <time>2015-03-15T09:07:49Z</time>
      </trkpt>
      <trkpt lat="48.59375" lon="1.80115">
        <ele>167.89</ele>
        <time>2015-03-15T09:08:01Z</time>
      </trkpt>
      <trkpt lat="48.59368" lon="1.80132">
        <ele>167.89</ele>
        <time>2015-03-15T09:08:12Z</time>
      </trkpt>
      <trkpt lat="48.5936" lon="1.80152">
        <ele>167.89</ele>
        <time>2015-03-15T09:08:25Z</time>
      </trkpt>
      <trkpt lat="48.59352" lon="1.80171">
        <ele>167.89</ele>
        <time>2015-03-15T09:08:37Z</time>
      </trkpt>
      <trkpt lat="48.59345" lon="1.8019">
        <ele>167.41</ele>
        <time>2015-03-15T09:08:49Z</time>
      </trkpt>
      <trkpt lat="48.59336" lon="1.80211">
        <ele>166.93</ele>
        <time>2015-03-15T09:09:02Z</time>
      </trkpt>
      <trkpt lat="48.59329" lon="1.80232">
        <ele>166.93</ele>
        <time>2015-03-15T09:09:15Z</time>
      </trkpt>
      <trkpt lat="48.59322" lon="1.80248">
        <ele>166.93</ele>
        <time>2015-03-15T09:09:25Z</time>
      </trkpt>
      <trkpt lat="48.59313" lon="1.80269">
        <ele>166.45</ele>
        <time>2015-03-15T09:09:37Z</time>
      </trkpt>
      <trkpt lat="48.59306" lon="1.80283">
        <ele>165.96</ele>
        <time>2015-03-15T09:09:46Z</time>
      </trkpt>
      <trkpt lat="48.59302" lon="1.80293">
        <ele>165.96</ele>
        <time>2015-03-15T09:09:52Z</time>
      </trkpt>
      <trkpt lat="48.59301" lon="1.80301">
        <ele>165.48</ele>
        <time>2015-03-15T09:09:56Z</time>
      </trkpt>
      <trkpt lat="48.59293" lon="1.80318">
        <ele>165.48</ele>
        <time>2015-03-15T09:10:06Z</time>
      </trkpt>
      <trkpt lat="48.59286" lon="1.80334">
        <ele>165.48</ele>
        <time>2015-03-15T09:10:16Z</time>
      </trkpt>
      <trkpt lat="48.59278" lon="1.80353">
        <ele>165.48</ele>
        <time>2015-03-15T09:10:27Z</time>
      </trkpt>
      <trkpt lat="48.59268" lon="1.80377">
        <ele>165</ele>
        <time>2015-03-15T09:10:41Z</time>
      </trkpt>
      <trkpt lat="48.59257" lon="1.80401">
        <ele>165</ele>
        <time>2015-03-15T09:10:55Z</time>
      </trkpt>
      <trkpt lat="48.59248" lon="1.80424">
        <ele>164.04</ele>
        <time>2015-03-15T09:11:08Z</time>
      </trkpt>
      <trkpt lat="48.59239" lon="1.80446">
        <ele>164.04</ele>
        <time>2015-03-15T09:11:21Z</time>
      </trkpt>
      <trkpt lat="48.59236" lon="1.80455">
        <ele>164.04</ele>
        <time>2015-03-15T09:11:26Z</time>
      </trkpt>
      <trkpt lat="48.59236" lon="1.80461">
        <ele>164.04</ele>
        <time>2015-03-15T09:11:29Z</time>
      </trkpt>
      <trkpt lat="48.59229" lon="1.8048">
        <ele>163.56</ele>
        <time>2015-03-15T09:11:40Z</time>
      </trkpt>
      <trkpt lat="48.59227" lon="1.80489">
        <ele>163.56</ele>
        <time>2015-03-15T09:11:46Z</time>
      </trkpt>
      <trkpt lat="48.59236" lon="1.80498">
        <ele>163.56</ele>
        <time>2015-03-15T09:11:55Z</time>
      </trkpt>
      <trkpt lat="48.59247" lon="1.80507">
        <ele>163.08</ele>
        <time>2015-03-15T09:12:04Z</time>
      </trkpt>
      <trkpt lat="48.59258" lon="1.80517">
        <ele>163.08</ele>
        <time>2015-03-15T09:12:15Z</time>
      </trkpt>
      <trkpt lat="48.59268" lon="1.80525">
        <ele>163.08</ele>
        <time>2015-03-15T09:12:24Z</time>
      </trkpt>
      <trkpt lat="48.59282" lon="1.80532">
        <ele>162.6</ele>
        <time>2015-03-15T09:12:35Z</time>
      </trkpt>
      <trkpt lat="48.59292" lon="1.80537">
        <ele>162.6</ele>
        <time>2015-03-15T09:12:43Z</time>
      </trkpt>
      <trkpt lat="48.59304" lon="1.80545">
        <ele>162.12</ele>
        <time>2015-03-15T09:12:53Z</time>
      </trkpt>
      <trkpt lat="48.59316" lon="1.8055">
        <ele>162.12</ele>
        <time>2015-03-15T09:13:02Z</time>
      </trkpt>
      <trkpt lat="48.59332" lon="1.80556">
        <ele>162.12</ele>
        <time>2015-03-15T09:13:14Z</time>
      </trkpt>
      <trkpt lat="48.59345" lon="1.80562">
        <ele>162.12</ele>
        <time>2015-03-15T09:13:25Z</time>
      </trkpt>
      <trkpt lat="48.59357" lon="1.80569">
        <ele>162.12</ele>
        <time>2015-03-15T09:13:36Z</time>
      </trkpt>
      <trkpt lat="48.59369" lon="1.80574">
        <ele>162.12</ele>
        <time>2015-03-15T09:13:46Z</time>
      </trkpt>
      <trkpt lat="48.59384" lon="1.80575">
        <ele>162.12</ele>
        <time>2015-03-15T09:13:56Z</time>
      </trkpt>
      <trkpt lat="48.59399" lon="1.80575">
        <ele>161.64</ele>
        <time>2015-03-15T09:14:06Z</time>
      </trkpt>
      <trkpt lat="48.59413" lon="1.80575">
        <ele>162.12</ele>
        <time>2015-03-15T09:14:16Z</time>
      </trkpt>
      <trkpt lat="48.5943" lon="1.80575">
        <ele>161.16</ele>
        <time>2015-03-15T09:14:28Z</time>
      </trkpt>
      <trkpt lat="48.59444" lon="1.80578">
        <ele>161.16</ele>
        <time>2015-03-15T09:14:38Z</time>
      </trkpt>
      <trkpt lat="48.59458" lon="1.80579">
        <ele>161.16</ele>
        <time>2015-03-15T09:14:49Z</time>
      </trkpt>
      <trkpt lat="48.59471" lon="1.80582">
        <ele>161.16</ele>
        <time>2015-03-15T09:14:59Z</time>
      </trkpt>
      <trkpt lat="48.59483" lon="1.80584">
        <ele>161.16</ele>
        <time>2015-03-15T09:15:08Z</time>
      </trkpt>
      <trkpt lat="48.59497" lon="1.80587">
        <ele>161.16</ele>
        <time>2015-03-15T09:15:19Z</time>
      </trkpt>
      <trkpt lat="48.59512" lon="1.80589">
        <ele>161.16</ele>
        <time>2015-03-15T09:15:30Z</time>
      </trkpt>
      <trkpt lat="48.59528" lon="1.80592">
        <ele>161.16</ele>
        <time>2015-03-15T09:15:42Z</time>
      </trkpt>
      <trkpt lat="48.59541" lon="1.80592">
        <ele>161.16</ele>
        <time>2015-03-15T09:15:51Z</time>
      </trkpt>
      <trkpt lat="48.59552" lon="1.8059">
        <ele>161.16</ele>
        <time>2015-03-15T09:16:00Z</time>
      </trkpt>
      <trkpt lat="48.59567" lon="1.80588">
        <ele>161.16</ele>
        <time>2015-03-15T09:16:11Z</time>
      </trkpt>
      <trkpt lat="48.59579" lon="1.80585">
        <ele>161.16</ele>
        <time>2015-03-15T09:16:21Z</time>
      </trkpt>
      <trkpt lat="48.59589" lon="1.80584">
        <ele>161.16</ele>
        <time>2015-03-15T09:16:30Z</time>
      </trkpt>
      <trkpt lat="48.59605" lon="1.80578">
        <ele>161.16</ele>
        <time>2015-03-15T09:16:42Z</time>
      </trkpt>
      <trkpt lat="48.59606" lon="1.80578">
        <ele>161.16</ele>
        <time>2015-03-15T09:16:43Z</time>
      </trkpt>
      <trkpt lat="48.59615" lon="1.80573">
        <ele>162.12</ele>
        <time>2015-03-15T09:16:50Z</time>
      </trkpt>
      <trkpt lat="48.59631" lon="1.80567">
        <ele>162.12</ele>
        <time>2015-03-15T09:17:03Z</time>
      </trkpt>
      <trkpt lat="48.59645" lon="1.80562">
        <ele>162.6</ele>
        <time>2015-03-15T09:17:14Z</time>
      </trkpt>
      <trkpt lat="48.59658" lon="1.80557">
        <ele>161.16</ele>
        <time>2015-03-15T09:17:25Z</time>
      </trkpt>
      <trkpt lat="48.5967" lon="1.8055">
        <ele>161.16</ele>
        <time>2015-03-15T09:17:35Z</time>
      </trkpt>
      <trkpt lat="48.59682" lon="1.80546">
        <ele>161.16</ele>
        <time>2015-03-15T09:17:45Z</time>
      </trkpt>
      <trkpt lat="48.5969" lon="1.80542">
        <ele>161.16</ele>
        <time>2015-03-15T09:17:53Z</time>
      </trkpt>
      <trkpt lat="48.59702" lon="1.80537">
        <ele>161.16</ele>
        <time>2015-03-15T09:18:03Z</time>
      </trkpt>
      <trkpt lat="48.59713" lon="1.80532">
        <ele>160.68</ele>
        <time>2015-03-15T09:18:13Z</time>
      </trkpt>
      <trkpt lat="48.5972" lon="1.80525">
        <ele>159.72</ele>
        <time>2015-03-15T09:18:20Z</time>
      </trkpt>
      <trkpt lat="48.59734" lon="1.80514">
        <ele>158.75</ele>
        <time>2015-03-15T09:18:31Z</time>
      </trkpt>
      <trkpt lat="48.59745" lon="1.80503">
        <ele>157.79</ele>
        <time>2015-03-15T09:18:42Z</time>
      </trkpt>
      <trkpt lat="48.59749" lon="1.80502">
        <ele>157.79</ele>
        <time>2015-03-15T09:18:46Z</time>
      </trkpt>
      <trkpt lat="48.59755" lon="1.8051">
        <ele>157.31</ele>
        <time>2015-03-15T09:18:55Z</time>
      </trkpt>
      <trkpt lat="48.59755" lon="1.80511">
        <ele>157.31</ele>
        <time>2015-03-15T09:18:56Z</time>
      </trkpt>
      <trkpt lat="48.59755" lon="1.80518">
        <ele>157.31</ele>
        <time>2015-03-15T09:19:00Z</time>
      </trkpt>
      <trkpt lat="48.59755" lon="1.80526">
        <ele>156.83</ele>
        <time>2015-03-15T09:19:05Z</time>
      </trkpt>
      <trkpt lat="48.59754" lon="1.80545">
        <ele>156.83</ele>
        <time>2015-03-15T09:19:16Z</time>
      </trkpt>
      <trkpt lat="48.59753" lon="1.80565">
        <ele>155.87</ele>
        <time>2015-03-15T09:19:27Z</time>
      </trkpt>
      <trkpt lat="48.59752" lon="1.80583">
        <ele>155.39</ele>
        <time>2015-03-15T09:19:37Z</time>
      </trkpt>
      <trkpt lat="48.5975" lon="1.80602">
        <ele>154.91</ele>
        <time>2015-03-15T09:19:48Z</time>
      </trkpt>
      <trkpt lat="48.59748" lon="1.80616">
        <ele>154.43</ele>
        <time>2015-03-15T09:19:56Z</time>
      </trkpt>
      <trkpt lat="48.59748" lon="1.80635">
        <ele>153.95</ele>
        <time>2015-03-15T09:20:06Z</time>
      </trkpt>
      <trkpt lat="48.5975" lon="1.80654">
        <ele>152.99</ele>
        <time>2015-03-15T09:20:16Z</time>
      </trkpt>
      <trkpt lat="48.59748" lon="1.80666">
        <ele>152.99</ele>
        <time>2015-03-15T09:20:23Z</time>
      </trkpt>
      <trkpt lat="48.59746" lon="1.80682">
        <ele>152.99</ele>
        <time>2015-03-15T09:20:32Z</time>
      </trkpt>
      <trkpt lat="48.59744" lon="1.80697">
        <ele>152.99</ele>
        <time>2015-03-15T09:20:40Z</time>
      </trkpt>
      <trkpt lat="48.59744" lon="1.80721">
        <ele>152.51</ele>
        <time>2015-03-15T09:20:52Z</time>
      </trkpt>
      <trkpt lat="48.59744" lon="1.80723">
        <ele>152.51</ele>
        <time>2015-03-15T09:20:59Z</time>
      </trkpt>
      <trkpt lat="48.59744" lon="1.80724">
        <ele>152.51</ele>
        <time>2015-03-15T09:21:12Z</time>
      </trkpt>
      <trkpt lat="48.59744" lon="1.80725">
        <ele>152.99</ele>
        <time>2015-03-15T09:21:23Z</time>
      </trkpt>
      <trkpt lat="48.59741" lon="1.80723">
        <ele>152.03</ele>
        <time>2015-03-15T09:21:29Z</time>
      </trkpt>
      <trkpt lat="48.5974" lon="1.80723">
        <ele>152.03</ele>
        <time>2015-03-15T09:21:41Z</time>
      </trkpt>
      <trkpt lat="48.5974" lon="1.80725">
        <ele>152.03</ele>
        <time>2015-03-15T09:22:04Z</time>
      </trkpt>
      <trkpt lat="48.59741" lon="1.80724">
        <ele>152.03</ele>
        <time>2015-03-15T09:22:28Z</time>
      </trkpt>
      <trkpt lat="48.59742" lon="1.80723">
        <ele>152.03</ele>
        <time>2015-03-15T09:22:48Z</time>
      </trkpt>
      <trkpt lat="48.59744" lon="1.80723">
        <ele>152.03</ele>
        <time>2015-03-15T09:23:11Z</time>
      </trkpt>
      <trkpt lat="48.59744" lon="1.80723">
        <ele>152.03</ele>
        <time>2015-03-15T09:23:24Z</time>
      </trkpt>
      <trkpt lat="48.59743" lon="1.80723">
        <ele>151.54</ele>
        <time>2015-03-15T09:23:46Z</time>
      </trkpt>
      <trkpt lat="48.59742" lon="1.80723">
        <ele>151.54</ele>
        <time>2015-03-15T09:24:12Z</time>
      </trkpt>
      <trkpt lat="48.59743" lon="1.80726">
        <ele>151.54</ele>
        <time>2015-03-15T09:24:36Z</time>
      </trkpt>
      <trkpt lat="48.59742" lon="1.80724">
        <ele>151.54</ele>
        <time>2015-03-15T09:24:54Z</time>
      </trkpt>
      <trkpt lat="48.59741" lon="1.80723">
        <ele>151.54</ele>
        <time>2015-03-15T09:25:10Z</time>
      </trkpt>
      <trkpt lat="48.5974" lon="1.80725">
        <ele>152.99</ele>
        <time>2015-03-15T09:25:21Z</time>
      </trkpt>
      <trkpt lat="48.59739" lon="1.80726">
        <ele>152.99</ele>
        <time>2015-03-15T09:25:35Z</time>
      </trkpt>
      <trkpt lat="48.5974" lon="1.80725">
        <ele>152.99</ele>
        <time>2015-03-15T09:25:53Z</time>
      </trkpt>
      <trkpt lat="48.5974" lon="1.80725">
        <ele>152.99</ele>
        <time>2015-03-15T09:26:03Z</time>
      </trkpt>
      <trkpt lat="48.5974" lon="1.80728">
        <ele>152.99</ele>
        <time>2015-03-15T09:26:19Z</time>
      </trkpt>
      <trkpt lat="48.59742" lon="1.80727">
        <ele>152.51</ele>
        <time>2015-03-15T09:26:36Z</time>
      </trkpt>
      <trkpt lat="48.59743" lon="1.80729">
        <ele>152.51</ele>
        <time>2015-03-15T09:26:54Z</time>
      </trkpt>
      <trkpt lat="48.59743" lon="1.80732">
        <ele>152.51</ele>
        <time>2015-03-15T09:27:16Z</time>
      </trkpt>
      <trkpt lat="48.59742" lon="1.8073">
        <ele>152.51</ele>
        <time>2015-03-15T09:27:31Z</time>
      </trkpt>
      <trkpt lat="48.59742" lon="1.80729">
        <ele>152.51</ele>
        <time>2015-03-15T09:27:45Z</time>
      </trkpt>
      <trkpt lat="48.59743" lon="1.80728">
        <ele>152.51</ele>
        <time>2015-03-15T09:28:01Z</time>
      </trkpt>
      <trkpt lat="48.59742" lon="1.80729">
        <ele>152.51</ele>
        <time>2015-03-15T09:28:16Z</time>
      </trkpt>
      <trkpt lat="48.59742" lon="1.80728">
        <ele>152.51</ele>
        <time>2015-03-15T09:28:39Z</time>
      </trkpt>
      <trkpt lat="48.59742" lon="1.80728">
        <ele>152.99</ele>
        <time>2015-03-15T09:28:54Z</time>
      </trkpt>
      <trkpt lat="48.59743" lon="1.80728">
        <ele>151.54</ele>
        <time>2015-03-15T09:29:02Z</time>
      </trkpt>
      <trkpt lat="48.59743" lon="1.80727">
        <ele>153.47</ele>
        <time>2015-03-15T09:29:04Z</time>
      </trkpt>
      <trkpt lat="48.59743" lon="1.80727">
        <ele>153.47</ele>
        <time>2015-03-15T09:29:18Z</time>
      </trkpt>
      <trkpt lat="48.59744" lon="1.80727">
        <ele>152.51</ele>
        <time>2015-03-15T09:29:34Z</time>
      </trkpt>
      <trkpt lat="48.59743" lon="1.80726">
        <ele>152.51</ele>
        <time>2015-03-15T09:29:45Z</time>
      </trkpt>
      <trkpt lat="48.59743" lon="1.80726">
        <ele>152.51</ele>
        <time>2015-03-15T09:30:04Z</time>
      </trkpt>
      <trkpt lat="48.59744" lon="1.80726">
        <ele>152.51</ele>
        <time>2015-03-15T09:30:18Z</time>
      </trkpt>
      <trkpt lat="48.59744" lon="1.80725">
        <ele>152.51</ele>
        <time>2015-03-15T09:30:34Z</time>
      </trkpt>
      <trkpt lat="48.59744" lon="1.80724">
        <ele>152.51</ele>
        <time>2015-03-15T09:30:50Z</time>
      </trkpt>
      <trkpt lat="48.59744" lon="1.80727">
        <ele>152.51</ele>
        <time>2015-03-15T09:31:08Z</time>
      </trkpt>
      <trkpt lat="48.59744" lon="1.80729">
        <ele>152.51</ele>
        <time>2015-03-15T09:31:17Z</time>
      </trkpt>
      <trkpt lat="48.59744" lon="1.80728">
        <ele>152.51</ele>
        <time>2015-03-15T09:31:34Z</time>
      </trkpt>
      <trkpt lat="48.59743" lon="1.80726">
        <ele>152.51</ele>
        <time>2015-03-15T09:31:49Z</time>
      </trkpt>
      <trkpt lat="48.59744" lon="1.80727">
        <ele>152.51</ele>
        <time>2015-03-15T09:32:08Z</time>
      </trkpt>
      <trkpt lat="48.59744" lon="1.80731">
        <ele>152.51</ele>
        <time>2015-03-15T09:32:17Z</time>
      </trkpt>
      <trkpt lat="48.59743" lon="1.80731">
        <ele>152.51</ele>
        <time>2015-03-15T09:32:26Z</time>
      </trkpt>
      <trkpt lat="48.59741" lon="1.8073">
        <ele>152.51</ele>
        <time>2015-03-15T09:32:39Z</time>
      </trkpt>
      <trkpt lat="48.59742" lon="1.8073">
        <ele>152.51</ele>
        <time>2015-03-15T09:32:49Z</time>
      </trkpt>
      <trkpt lat="48.59741" lon="1.80731">
        <ele>152.51</ele>
        <time>2015-03-15T09:33:14Z</time>
      </trkpt>
      <trkpt lat="48.59741" lon="1.80729">
        <ele>152.51</ele>
        <time>2015-03-15T09:33:28Z</time>
      </trkpt>
      <trkpt lat="48.5974" lon="1.80728">
        <ele>152.51</ele>
        <time>2015-03-15T09:33:39Z</time>
      </trkpt>
      <trkpt lat="48.59741" lon="1.8073">
        <ele>153.47</ele>
        <time>2015-03-15T09:33:49Z</time>
      </trkpt>
      <trkpt lat="48.59741" lon="1.80733">
        <ele>153.47</ele>
        <time>2015-03-15T09:34:03Z</time>
      </trkpt>
      <trkpt lat="48.59741" lon="1.80746">
        <ele>152.03</ele>
        <time>2015-03-15T09:34:12Z</time>
      </trkpt>
      <trkpt lat="48.59741" lon="1.80758">
        <ele>151.54</ele>
        <time>2015-03-15T09:34:19Z</time>
      </trkpt>
      <trkpt lat="48.5974" lon="1.80776">
        <ele>151.06</ele>
        <time>2015-03-15T09:34:29Z</time>
      </trkpt>
      <trkpt lat="48.59742" lon="1.80794">
        <ele>150.58</ele>
        <time>2015-03-15T09:34:39Z</time>
      </trkpt>
      <trkpt lat="48.59743" lon="1.8081">
        <ele>150.58</ele>
        <time>2015-03-15T09:34:48Z</time>
      </trkpt>
      <trkpt lat="48.59745" lon="1.80825">
        <ele>150.1</ele>
        <time>2015-03-15T09:34:57Z</time>
      </trkpt>
      <trkpt lat="48.59749" lon="1.80842">
        <ele>150.1</ele>
        <time>2015-03-15T09:35:07Z</time>
      </trkpt>
      <trkpt lat="48.59753" lon="1.80857">
        <ele>149.14</ele>
        <time>2015-03-15T09:35:16Z</time>
      </trkpt>
      <trkpt lat="48.59756" lon="1.80869">
        <ele>148.66</ele>
        <time>2015-03-15T09:35:24Z</time>
      </trkpt>
      <trkpt lat="48.59758" lon="1.80882">
        <ele>148.18</ele>
        <time>2015-03-15T09:35:32Z</time>
      </trkpt>
      <trkpt lat="48.59759" lon="1.80898">
        <ele>147.7</ele>
        <time>2015-03-15T09:35:41Z</time>
      </trkpt>
      <trkpt lat="48.5976" lon="1.80913">
        <ele>147.22</ele>
        <time>2015-03-15T09:35:50Z</time>
      </trkpt>
      <trkpt lat="48.5976" lon="1.80928">
        <ele>147.22</ele>
        <time>2015-03-15T09:35:58Z</time>
      </trkpt>
      <trkpt lat="48.59761" lon="1.80942">
        <ele>146.74</ele>
        <time>2015-03-15T09:36:06Z</time>
      </trkpt>
      <trkpt lat="48.59761" lon="1.80959">
        <ele>145.78</ele>
        <time>2015-03-15T09:36:15Z</time>
      </trkpt>
      <trkpt lat="48.59762" lon="1.80973">
        <ele>145.78</ele>
        <time>2015-03-15T09:36:23Z</time>
      </trkpt>
      <trkpt lat="48.59763" lon="1.8099">
        <ele>145.3</ele>
        <time>2015-03-15T09:36:33Z</time>
      </trkpt>
      <trkpt lat="48.59764" lon="1.81003">
        <ele>144.82</ele>
        <time>2015-03-15T09:36:42Z</time>
      </trkpt>
      <trkpt lat="48.59765" lon="1.81014">
        <ele>144.82</ele>
        <time>2015-03-15T09:36:50Z</time>
      </trkpt>
      <trkpt lat="48.59765" lon="1.81027">
        <ele>144.34</ele>
        <time>2015-03-15T09:36:58Z</time>
      </trkpt>
      <trkpt lat="48.59765" lon="1.81036">
        <ele>144.34</ele>
        <time>2015-03-15T09:37:05Z</time>
      </trkpt>
      <trkpt lat="48.59765" lon="1.81048">
        <ele>144.34</ele>
        <time>2015-03-15T09:37:14Z</time>
      </trkpt>
      <trkpt lat="48.59765" lon="1.8106">
        <ele>144.34</ele>
        <time>2015-03-15T09:37:22Z</time>
      </trkpt>
      <trkpt lat="48.59765" lon="1.81075">
        <ele>144.34</ele>
        <time>2015-03-15T09:37:32Z</time>
      </trkpt>
      <trkpt lat="48.59767" lon="1.81088">
        <ele>145.3</ele>
        <time>2015-03-15T09:37:42Z</time>
      </trkpt>
      <trkpt lat="48.5977" lon="1.8111">
        <ele>146.26</ele>
        <time>2015-03-15T09:37:54Z</time>
      </trkpt>
      <trkpt lat="48.59771" lon="1.81122">
        <ele>146.74</ele>
        <time>2015-03-15T09:38:02Z</time>
      </trkpt>
      <trkpt lat="48.59774" lon="1.81139">
        <ele>148.18</ele>
        <time>2015-03-15T09:38:12Z</time>
      </trkpt>
      <trkpt lat="48.59777" lon="1.81158">
        <ele>148.66</ele>
        <time>2015-03-15T09:38:23Z</time>
      </trkpt>
      <trkpt lat="48.59779" lon="1.81175">
        <ele>149.14</ele>
        <time>2015-03-15T09:38:33Z</time>
      </trkpt>
      <trkpt lat="48.5978" lon="1.81187">
        <ele>149.14</ele>
        <time>2015-03-15T09:38:42Z</time>
      </trkpt>
      <trkpt lat="48.59779" lon="1.812">
        <ele>149.14</ele>
        <time>2015-03-15T09:38:50Z</time>
      </trkpt>
      <trkpt lat="48.59777" lon="1.81213">
        <ele>149.62</ele>
        <time>2015-03-15T09:38:59Z</time>
      </trkpt>
      <trkpt lat="48.59777" lon="1.81226">
        <ele>150.1</ele>
        <time>2015-03-15T09:39:07Z</time>
      </trkpt>
      <trkpt lat="48.59774" lon="1.8124">
        <ele>150.58</ele>
        <time>2015-03-15T09:39:17Z</time>
      </trkpt>
      <trkpt lat="48.59771" lon="1.8125">
        <ele>150.58</ele>
        <time>2015-03-15T09:39:25Z</time>
      </trkpt>
      <trkpt lat="48.59768" lon="1.81267">
        <ele>151.54</ele>
        <time>2015-03-15T09:39:36Z</time>
      </trkpt>
      <trkpt lat="48.59767" lon="1.81278">
        <ele>151.54</ele>
        <time>2015-03-15T09:39:44Z</time>
      </trkpt>
      <trkpt lat="48.59763" lon="1.81292">
        <ele>151.54</ele>
        <time>2015-03-15T09:39:53Z</time>
      </trkpt>
      <trkpt lat="48.59759" lon="1.81306">
        <ele>152.51</ele>
        <time>2015-03-15T09:40:02Z</time>
      </trkpt>
      <trkpt lat="48.59753" lon="1.81318">
        <ele>152.99</ele>
        <time>2015-03-15T09:40:12Z</time>
      </trkpt>
      <trkpt lat="48.59749" lon="1.81328">
        <ele>154.43</ele>
        <time>2015-03-15T09:40:21Z</time>
      </trkpt>
      <trkpt lat="48.59743" lon="1.81337">
        <ele>154.91</ele>
        <time>2015-03-15T09:40:30Z</time>
      </trkpt>
      <trkpt lat="48.5974" lon="1.81347">
        <ele>155.87</ele>
        <time>2015-03-15T09:40:38Z</time>
      </trkpt>
      <trkpt lat="48.59734" lon="1.8136">
        <ele>157.31</ele>
        <time>2015-03-15T09:40:47Z</time>
      </trkpt>
      <trkpt lat="48.59729" lon="1.81373">
        <ele>158.75</ele>
        <time>2015-03-15T09:40:57Z</time>
      </trkpt>
      <trkpt lat="48.59727" lon="1.81382">
        <ele>159.24</ele>
        <time>2015-03-15T09:41:04Z</time>
      </trkpt>
      <trkpt lat="48.59723" lon="1.81393">
        <ele>160.68</ele>
        <time>2015-03-15T09:41:13Z</time>
      </trkpt>
      <trkpt lat="48.5972" lon="1.81405">
        <ele>161.64</ele>
        <time>2015-03-15T09:41:23Z</time>
      </trkpt>
      <trkpt lat="48.59718" lon="1.81416">
        <ele>162.12</ele>
        <time>2015-03-15T09:41:31Z</time>
      </trkpt>
      <trkpt lat="48.59714" lon="1.8143">
        <ele>163.08</ele>
        <time>2015-03-15T09:41:41Z</time>
      </trkpt>
      <trkpt lat="48.59709" lon="1.81443">
        <ele>163.56</ele>
        <time>2015-03-15T09:41:50Z</time>
      </trkpt>
      <trkpt lat="48.59706" lon="1.81454">
        <ele>164.04</ele>
        <time>2015-03-15T09:41:58Z</time>
      </trkpt>
      <trkpt lat="48.59701" lon="1.81468">
        <ele>165.48</ele>
        <time>2015-03-15T09:42:07Z</time>
      </trkpt>
      <trkpt lat="48.59699" lon="1.81485">
        <ele>165.96</ele>
        <time>2015-03-15T09:42:16Z</time>
      </trkpt>
      <trkpt lat="48.59695" lon="1.81499">
        <ele>166.45</ele>
        <time>2015-03-15T09:42:25Z</time>
      </trkpt>
      <trkpt lat="48.59688" lon="1.81514">
        <ele>167.41</ele>
        <time>2015-03-15T09:42:36Z</time>
      </trkpt>
      <trkpt lat="48.59687" lon="1.81517">
        <ele>167.41</ele>
        <time>2015-03-15T09:42:38Z</time>
      </trkpt>
      <trkpt lat="48.59682" lon="1.8153">
        <ele>167.41</ele>
        <time>2015-03-15T09:42:47Z</time>
      </trkpt>
      <trkpt lat="48.59677" lon="1.81544">
        <ele>167.89</ele>
        <time>2015-03-15T09:42:57Z</time>
      </trkpt>
      <trkpt lat="48.59674" lon="1.81549">
        <ele>167.89</ele>
        <time>2015-03-15T09:43:04Z</time>
      </trkpt>
      <trkpt lat="48.59675" lon="1.81551">
        <ele>167.41</ele>
        <time>2015-03-15T09:43:11Z</time>
      </trkpt>
      <trkpt lat="48.59677" lon="1.81552">
        <ele>167.41</ele>
        <time>2015-03-15T09:43:20Z</time>
      </trkpt>
      <trkpt lat="48.59678" lon="1.81552">
        <ele>167.41</ele>
        <time>2015-03-15T09:43:32Z</time>
      </trkpt>
      <trkpt lat="48.59678" lon="1.81552">
        <ele>167.41</ele>
        <time>2015-03-15T09:43:46Z</time>
      </trkpt>
      <trkpt lat="48.59678" lon="1.81551">
        <ele>167.41</ele>
        <time>2015-03-15T09:44:00Z</time>
      </trkpt>
      <trkpt lat="48.59678" lon="1.81552">
        <ele>167.41</ele>
        <time>2015-03-15T09:44:14Z</time>
      </trkpt>
      <trkpt lat="48.59678" lon="1.81552">
        <ele>167.41</ele>
        <time>2015-03-15T09:44:29Z</time>
      </trkpt>
      <trkpt lat="48.59679" lon="1.81551">
        <ele>167.41</ele>
        <time>2015-03-15T09:44:47Z</time>
      </trkpt>
      <trkpt lat="48.59674" lon="1.81559">
        <ele>166.93</ele>
        <time>2015-03-15T09:44:54Z</time>
      </trkpt>
      <trkpt lat="48.59673" lon="1.81562">
        <ele>166.93</ele>
        <time>2015-03-15T09:44:56Z</time>
      </trkpt>
      <trkpt lat="48.59669" lon="1.8157">
        <ele>166.93</ele>
        <time>2015-03-15T09:45:05Z</time>
      </trkpt>
      <trkpt lat="48.59672" lon="1.81568">
        <ele>166.93</ele>
        <time>2015-03-15T09:45:24Z</time>
      </trkpt>
      <trkpt lat="48.59673" lon="1.81571">
        <ele>166.93</ele>
        <time>2015-03-15T09:45:44Z</time>
      </trkpt>
      <trkpt lat="48.59674" lon="1.8157">
        <ele>166.93</ele>
        <time>2015-03-15T09:45:46Z</time>
      </trkpt>
      <trkpt lat="48.59678" lon="1.81559">
        <ele>166.93</ele>
        <time>2015-03-15T09:45:55Z</time>
      </trkpt>
      <trkpt lat="48.59679" lon="1.81554">
        <ele>166.93</ele>
        <time>2015-03-15T09:45:59Z</time>
      </trkpt>
      <trkpt lat="48.59676" lon="1.81548">
        <ele>166.93</ele>
        <time>2015-03-15T09:46:03Z</time>
      </trkpt>
      <trkpt lat="48.59665" lon="1.81545">
        <ele>166.93</ele>
        <time>2015-03-15T09:46:13Z</time>
      </trkpt>
      <trkpt lat="48.59654" lon="1.81545">
        <ele>166.93</ele>
        <time>2015-03-15T09:46:23Z</time>
      </trkpt>
      <trkpt lat="48.59646" lon="1.81547">
        <ele>166.93</ele>
        <time>2015-03-15T09:46:33Z</time>
      </trkpt>
      <trkpt lat="48.59638" lon="1.81546">
        <ele>166.93</ele>
        <time>2015-03-15T09:46:42Z</time>
      </trkpt>
      <trkpt lat="48.5963" lon="1.81547">
        <ele>166.93</ele>
        <time>2015-03-15T09:46:51Z</time>
      </trkpt>
      <trkpt lat="48.59629" lon="1.81552">
        <ele>166.93</ele>
        <time>2015-03-15T09:46:58Z</time>
      </trkpt>
      <trkpt lat="48.59625" lon="1.81553">
        <ele>168.37</ele>
        <time>2015-03-15T09:47:09Z</time>
      </trkpt>
      <trkpt lat="48.59624" lon="1.8155">
        <ele>168.37</ele>
        <time>2015-03-15T09:47:13Z</time>
      </trkpt>
      <trkpt lat="48.59621" lon="1.81549">
        <ele>168.37</ele>
        <time>2015-03-15T09:47:15Z</time>
      </trkpt>
      <trkpt lat="48.59618" lon="1.81547">
        <ele>168.37</ele>
        <time>2015-03-15T09:47:18Z</time>
      </trkpt>
      <trkpt lat="48.59612" lon="1.81554">
        <ele>168.37</ele>
        <time>2015-03-15T09:47:27Z</time>
      </trkpt>
      <trkpt lat="48.5961" lon="1.81557">
        <ele>168.37</ele>
        <time>2015-03-15T09:47:30Z</time>
      </trkpt>
      <trkpt lat="48.59603" lon="1.81571">
        <ele>168.37</ele>
        <time>2015-03-15T09:47:41Z</time>
      </trkpt>
      <trkpt lat="48.596" lon="1.81585">
        <ele>168.37</ele>
        <time>2015-03-15T09:47:48Z</time>
      </trkpt>
      <trkpt lat="48.59601" lon="1.81598">
        <ele>168.37</ele>
        <time>2015-03-15T09:47:54Z</time>
      </trkpt>
      <trkpt lat="48.59597" lon="1.816">
        <ele>168.37</ele>
        <time>2015-03-15T09:48:01Z</time>
      </trkpt>
      <trkpt lat="48.59598" lon="1.81598">
        <ele>168.37</ele>
        <time>2015-03-15T09:48:05Z</time>
      </trkpt>
      <trkpt lat="48.5959" lon="1.81591">
        <ele>168.37</ele>
        <time>2015-03-15T09:48:14Z</time>
      </trkpt>
      <trkpt lat="48.5959" lon="1.81591">
        <ele>168.37</ele>
        <time>2015-03-15T09:48:15Z</time>
      </trkpt>
      <trkpt lat="48.59584" lon="1.81598">
        <ele>168.37</ele>
        <time>2015-03-15T09:48:23Z</time>
      </trkpt>
      <trkpt lat="48.5958" lon="1.81608">
        <ele>168.37</ele>
        <time>2015-03-15T09:48:30Z</time>
      </trkpt>
      <trkpt lat="48.59576" lon="1.8161">
        <ele>168.37</ele>
        <time>2015-03-15T09:48:34Z</time>
      </trkpt>
      <trkpt lat="48.59566" lon="1.81611">
        <ele>168.37</ele>
        <time>2015-03-15T09:48:43Z</time>
      </trkpt>
      <trkpt lat="48.59561" lon="1.81612">
        <ele>168.37</ele>
        <time>2015-03-15T09:48:50Z</time>
      </trkpt>
      <trkpt lat="48.59549" lon="1.81609">
        <ele>167.89</ele>
        <time>2015-03-15T09:49:01Z</time>
      </trkpt>
      <trkpt lat="48.59548" lon="1.81609">
        <ele>167.89</ele>
        <time>2015-03-15T09:49:03Z</time>
      </trkpt>
      <trkpt lat="48.59545" lon="1.81608">
        <ele>167.89</ele>
        <time>2015-03-15T09:49:05Z</time>
      </trkpt>
      <trkpt lat="48.59534" lon="1.81604">
        <ele>167.89</ele>
        <time>2015-03-15T09:49:14Z</time>
      </trkpt>
      <trkpt lat="48.59527" lon="1.816">
        <ele>167.89</ele>
        <time>2015-03-15T09:49:21Z</time>
      </trkpt>
      <trkpt lat="48.59519" lon="1.81597">
        <ele>167.89</ele>
        <time>2015-03-15T09:49:30Z</time>
      </trkpt>
      <trkpt lat="48.59516" lon="1.81596">
        <ele>167.89</ele>
        <time>2015-03-15T09:49:37Z</time>
      </trkpt>
      <trkpt lat="48.59515" lon="1.81596">
        <ele>167.89</ele>
        <time>2015-03-15T09:49:39Z</time>
      </trkpt>
      <trkpt lat="48.59511" lon="1.81595">
        <ele>167.89</ele>
        <time>2015-03-15T09:49:45Z</time>
      </trkpt>
      <trkpt lat="48.59502" lon="1.81594">
        <ele>165.96</ele>
        <time>2015-03-15T09:49:53Z</time>
      </trkpt>
      <trkpt lat="48.59495" lon="1.81592">
        <ele>165.96</ele>
        <time>2015-03-15T09:50:00Z</time>
      </trkpt>
      <trkpt lat="48.59486" lon="1.81588">
        <ele>165.96</ele>
        <time>2015-03-15T09:50:08Z</time>
      </trkpt>
      <trkpt lat="48.59481" lon="1.81587">
        <ele>165.96</ele>
        <time>2015-03-15T09:50:15Z</time>
      </trkpt>
      <trkpt lat="48.59474" lon="1.81584">
        <ele>165.48</ele>
        <time>2015-03-15T09:50:21Z</time>
      </trkpt>
      <trkpt lat="48.5946" lon="1.81581">
        <ele>165.48</ele>
        <time>2015-03-15T09:50:31Z</time>
      </trkpt>
      <trkpt lat="48.59448" lon="1.81576">
        <ele>165</ele>
        <time>2015-03-15T09:50:40Z</time>
      </trkpt>
      <trkpt lat="48.59435" lon="1.81571">
        <ele>165</ele>
        <time>2015-03-15T09:50:50Z</time>
      </trkpt>
      <trkpt lat="48.59423" lon="1.81568">
        <ele>165</ele>
        <time>2015-03-15T09:50:59Z</time>
      </trkpt>
      <trkpt lat="48.59411" lon="1.81564">
        <ele>165</ele>
        <time>2015-03-15T09:51:08Z</time>
      </trkpt>
      <trkpt lat="48.59397" lon="1.81559">
        <ele>164.04</ele>
        <time>2015-03-15T09:51:19Z</time>
      </trkpt>
      <trkpt lat="48.59383" lon="1.81554">
        <ele>164.04</ele>
        <time>2015-03-15T09:51:30Z</time>
      </trkpt>
      <trkpt lat="48.59372" lon="1.8155">
        <ele>164.04</ele>
        <time>2015-03-15T09:51:39Z</time>
      </trkpt>
      <trkpt lat="48.59359" lon="1.81545">
        <ele>163.56</ele>
        <time>2015-03-15T09:51:49Z</time>
      </trkpt>
      <trkpt lat="48.59346" lon="1.8154">
        <ele>163.08</ele>
        <time>2015-03-15T09:52:00Z</time>
      </trkpt>
      <trkpt lat="48.59334" lon="1.81536">
        <ele>163.08</ele>
        <time>2015-03-15T09:52:09Z</time>
      </trkpt>
      <trkpt lat="48.59321" lon="1.8153">
        <ele>162.6</ele>
        <time>2015-03-15T09:52:20Z</time>
      </trkpt>
      <trkpt lat="48.59308" lon="1.81521">
        <ele>162.6</ele>
        <time>2015-03-15T09:52:31Z</time>
      </trkpt>
      <trkpt lat="48.59295" lon="1.81512">
        <ele>162.12</ele>
        <time>2015-03-15T09:52:42Z</time>
      </trkpt>
      <trkpt lat="48.59285" lon="1.81505">
        <ele>162.12</ele>
        <time>2015-03-15T09:52:51Z</time>
      </trkpt>
      <trkpt lat="48.59275" lon="1.81497">
        <ele>162.12</ele>
        <time>2015-03-15T09:53:00Z</time>
      </trkpt>
      <trkpt lat="48.59267" lon="1.8149">
        <ele>162.12</ele>
        <time>2015-03-15T09:53:07Z</time>
      </trkpt>
      <trkpt lat="48.59259" lon="1.81484">
        <ele>162.12</ele>
        <time>2015-03-15T09:53:16Z</time>
      </trkpt>
      <trkpt lat="48.5925" lon="1.81477">
        <ele>162.12</ele>
        <time>2015-03-15T09:53:25Z</time>
      </trkpt>
      <trkpt lat="48.59243" lon="1.81472">
        <ele>162.12</ele>
        <time>2015-03-15T09:53:32Z</time>
      </trkpt>
      <trkpt lat="48.59234" lon="1.81465">
        <ele>162.12</ele>
        <time>2015-03-15T09:53:40Z</time>
      </trkpt>
      <trkpt lat="48.59223" lon="1.81456">
        <ele>162.12</ele>
        <time>2015-03-15T09:53:49Z</time>
      </trkpt>
      <trkpt lat="48.59216" lon="1.81452">
        <ele>162.12</ele>
        <time>2015-03-15T09:53:55Z</time>
      </trkpt>
      <trkpt lat="48.59206" lon="1.81445">
        <ele>161.64</ele>
        <time>2015-03-15T09:54:04Z</time>
      </trkpt>
      <trkpt lat="48.59195" lon="1.81436">
        <ele>161.64</ele>
        <time>2015-03-15T09:54:14Z</time>
      </trkpt>
      <trkpt lat="48.59186" lon="1.8143">
        <ele>161.64</ele>
        <time>2015-03-15T09:54:22Z</time>
      </trkpt>
      <trkpt lat="48.59175" lon="1.8142">
        <ele>161.64</ele>
        <time>2015-03-15T09:54:32Z</time>
      </trkpt>
      <trkpt lat="48.59164" lon="1.81414">
        <ele>161.64</ele>
        <time>2015-03-15T09:54:42Z</time>
      </trkpt>
      <trkpt lat="48.59158" lon="1.81411">
        <ele>163.08</ele>
        <time>2015-03-15T09:54:47Z</time>
      </trkpt>
      <trkpt lat="48.59147" lon="1.81405">
        <ele>163.08</ele>
        <time>2015-03-15T09:54:57Z</time>
      </trkpt>
      <trkpt lat="48.5914" lon="1.81402">
        <ele>163.08</ele>
        <time>2015-03-15T09:55:03Z</time>
      </trkpt>
      <trkpt lat="48.59133" lon="1.814">
        <ele>163.08</ele>
        <time>2015-03-15T09:55:09Z</time>
      </trkpt>
      <trkpt lat="48.59123" lon="1.81395">
        <ele>163.08</ele>
        <time>2015-03-15T09:55:18Z</time>
      </trkpt>
      <trkpt lat="48.5912" lon="1.81393">
        <ele>163.08</ele>
        <time>2015-03-15T09:55:21Z</time>
      </trkpt>
      <trkpt lat="48.5912" lon="1.81381">
        <ele>163.08</ele>
        <time>2015-03-15T09:55:28Z</time>
      </trkpt>
      <trkpt lat="48.59121" lon="1.81378">
        <ele>163.08</ele>
        <time>2015-03-15T09:55:30Z</time>
      </trkpt>
      <trkpt lat="48.59122" lon="1.81372">
        <ele>163.08</ele>
        <time>2015-03-15T09:55:33Z</time>
      </trkpt>
      <trkpt lat="48.59124" lon="1.81356">
        <ele>163.08</ele>
        <time>2015-03-15T09:55:42Z</time>
      </trkpt>
      <trkpt lat="48.59127" lon="1.81339">
        <ele>163.08</ele>
        <time>2015-03-15T09:55:51Z</time>
      </trkpt>
      <trkpt lat="48.5913" lon="1.81321">
        <ele>161.64</ele>
        <time>2015-03-15T09:56:01Z</time>
      </trkpt>
      <trkpt lat="48.5913" lon="1.81319">
        <ele>161.64</ele>
        <time>2015-03-15T09:56:02Z</time>
      </trkpt>
      <trkpt lat="48.59133" lon="1.81303">
        <ele>161.64</ele>
        <time>2015-03-15T09:56:12Z</time>
      </trkpt>
      <trkpt lat="48.59135" lon="1.81296">
        <ele>161.64</ele>
        <time>2015-03-15T09:56:17Z</time>
      </trkpt>
      <trkpt lat="48.59141" lon="1.81281">
        <ele>161.64</ele>
        <time>2015-03-15T09:56:28Z</time>
      </trkpt>
      <trkpt lat="48.59151" lon="1.81261">
        <ele>161.16</ele>
        <time>2015-03-15T09:56:40Z</time>
      </trkpt>
      <trkpt lat="48.59161" lon="1.81246">
        <ele>160.68</ele>
        <time>2015-03-15T09:56:51Z</time>
      </trkpt>
      <trkpt lat="48.5917" lon="1.81232">
        <ele>160.2</ele>
        <time>2015-03-15T09:57:01Z</time>
      </trkpt>
      <trkpt lat="48.59177" lon="1.81221">
        <ele>160.2</ele>
        <time>2015-03-15T09:57:10Z</time>
      </trkpt>
      <trkpt lat="48.59181" lon="1.81206">
        <ele>159.72</ele>
        <time>2015-03-15T09:57:20Z</time>
      </trkpt>
      <trkpt lat="48.59187" lon="1.81188">
        <ele>159.24</ele>
        <time>2015-03-15T09:57:29Z</time>
      </trkpt>
      <trkpt lat="48.59191" lon="1.81176">
        <ele>158.75</ele>
        <time>2015-03-15T09:57:36Z</time>
      </trkpt>
      <trkpt lat="48.59196" lon="1.81159">
        <ele>158.27</ele>
        <time>2015-03-15T09:57:45Z</time>
      </trkpt>
      <trkpt lat="48.592" lon="1.81141">
        <ele>157.79</ele>
        <time>2015-03-15T09:57:54Z</time>
      </trkpt>
      <trkpt lat="48.59201" lon="1.81133">
        <ele>157.31</ele>
        <time>2015-03-15T09:57:58Z</time>
      </trkpt>
      <trkpt lat="48.59207" lon="1.81112">
        <ele>156.83</ele>
        <time>2015-03-15T09:58:09Z</time>
      </trkpt>
      <trkpt lat="48.5921" lon="1.811">
        <ele>156.35</ele>
        <time>2015-03-15T09:58:17Z</time>
      </trkpt>
      <trkpt lat="48.59213" lon="1.81083">
        <ele>155.39</ele>
        <time>2015-03-15T09:58:26Z</time>
      </trkpt>
      <trkpt lat="48.59216" lon="1.81067">
        <ele>154.43</ele>
        <time>2015-03-15T09:58:34Z</time>
      </trkpt>
      <trkpt lat="48.59218" lon="1.81051">
        <ele>152.99</ele>
        <time>2015-03-15T09:58:42Z</time>
      </trkpt>
      <trkpt lat="48.59208" lon="1.81041">
        <ele>152.99</ele>
        <time>2015-03-15T09:58:51Z</time>
      </trkpt>
      <trkpt lat="48.59198" lon="1.81038">
        <ele>152.99</ele>
        <time>2015-03-15T09:58:59Z</time>
      </trkpt>
      <trkpt lat="48.5919" lon="1.8104">
        <ele>152.51</ele>
        <time>2015-03-15T09:59:07Z</time>
      </trkpt>
      <trkpt lat="48.59188" lon="1.8104">
        <ele>152.51</ele>
        <time>2015-03-15T09:59:09Z</time>
      </trkpt>
      <trkpt lat="48.59177" lon="1.8104">
        <ele>150.58</ele>
        <time>2015-03-15T09:59:19Z</time>
      </trkpt>
      <trkpt lat="48.59166" lon="1.81041">
        <ele>148.18</ele>
        <time>2015-03-15T09:59:29Z</time>
      </trkpt>
      <trkpt lat="48.59159" lon="1.81043">
        <ele>147.7</ele>
        <time>2015-03-15T09:59:36Z</time>
      </trkpt>
      <trkpt lat="48.59147" lon="1.81049">
        <ele>147.22</ele>
        <time>2015-03-15T09:59:47Z</time>
      </trkpt>
      <trkpt lat="48.59139" lon="1.81054">
        <ele>146.74</ele>
        <time>2015-03-15T09:59:56Z</time>
      </trkpt>
      <trkpt lat="48.59134" lon="1.81057">
        <ele>145.78</ele>
        <time>2015-03-15T10:00:04Z</time>
      </trkpt>
      <trkpt lat="48.59127" lon="1.8106">
        <ele>145.78</ele>
        <time>2015-03-15T10:00:11Z</time>
      </trkpt>
      <trkpt lat="48.59117" lon="1.81065">
        <ele>144.34</ele>
        <time>2015-03-15T10:00:19Z</time>
      </trkpt>
      <trkpt lat="48.59107" lon="1.81069">
        <ele>144.34</ele>
        <time>2015-03-15T10:00:29Z</time>
      </trkpt>
      <trkpt lat="48.59099" lon="1.81068">
        <ele>143.85</ele>
        <time>2015-03-15T10:00:36Z</time>
      </trkpt>
      <trkpt lat="48.59088" lon="1.81069">
        <ele>143.37</ele>
        <time>2015-03-15T10:00:45Z</time>
      </trkpt>
      <trkpt lat="48.59077" lon="1.8107">
        <ele>143.37</ele>
        <time>2015-03-15T10:00:55Z</time>
      </trkpt>
      <trkpt lat="48.59068" lon="1.8107">
        <ele>143.37</ele>
        <time>2015-03-15T10:01:03Z</time>
      </trkpt>
      <trkpt lat="48.5906" lon="1.8107">
        <ele>143.37</ele>
        <time>2015-03-15T10:01:10Z</time>
      </trkpt>
      <trkpt lat="48.59049" lon="1.8107">
        <ele>143.37</ele>
        <time>2015-03-15T10:01:20Z</time>
      </trkpt>
      <trkpt lat="48.59041" lon="1.81069">
        <ele>143.85</ele>
        <time>2015-03-15T10:01:27Z</time>
      </trkpt>
      <trkpt lat="48.59029" lon="1.81071">
        <ele>143.85</ele>
        <time>2015-03-15T10:01:37Z</time>
      </trkpt>
      <trkpt lat="48.59017" lon="1.81072">
        <ele>143.85</ele>
        <time>2015-03-15T10:01:48Z</time>
      </trkpt>
      <trkpt lat="48.59009" lon="1.8107">
        <ele>143.85</ele>
        <time>2015-03-15T10:01:57Z</time>
      </trkpt>
      <trkpt lat="48.58996" lon="1.81061">
        <ele>143.37</ele>
        <time>2015-03-15T10:02:07Z</time>
      </trkpt>
      <trkpt lat="48.58986" lon="1.81054">
        <ele>143.37</ele>
        <time>2015-03-15T10:02:16Z</time>
      </trkpt>
      <trkpt lat="48.58983" lon="1.81049">
        <ele>144.82</ele>
        <time>2015-03-15T10:02:21Z</time>
      </trkpt>
      <trkpt lat="48.5898" lon="1.81051">
        <ele>144.82</ele>
        <time>2015-03-15T10:02:32Z</time>
      </trkpt>
      <trkpt lat="48.58971" lon="1.81043">
        <ele>144.82</ele>
        <time>2015-03-15T10:02:41Z</time>
      </trkpt>
      <trkpt lat="48.58961" lon="1.81033">
        <ele>145.3</ele>
        <time>2015-03-15T10:02:50Z</time>
      </trkpt>
      <trkpt lat="48.58954" lon="1.81028">
        <ele>145.78</ele>
        <time>2015-03-15T10:02:58Z</time>
      </trkpt>
      <trkpt lat="48.58943" lon="1.81024">
        <ele>146.74</ele>
        <time>2015-03-15T10:03:08Z</time>
      </trkpt>
      <trkpt lat="48.5894" lon="1.81022">
        <ele>146.74</ele>
        <time>2015-03-15T10:03:11Z</time>
      </trkpt>
      <trkpt lat="48.58934" lon="1.81014">
        <ele>146.74</ele>
        <time>2015-03-15T10:03:19Z</time>
      </trkpt>
      <trkpt lat="48.5893" lon="1.81003">
        <ele>147.22</ele>
        <time>2015-03-15T10:03:28Z</time>
      </trkpt>
      <trkpt lat="48.58925" lon="1.80994">
        <ele>147.7</ele>
        <time>2015-03-15T10:03:34Z</time>
      </trkpt>
      <trkpt lat="48.58919" lon="1.80978">
        <ele>147.7</ele>
        <time>2015-03-15T10:03:43Z</time>
      </trkpt>
      <trkpt lat="48.58918" lon="1.80974">
        <ele>146.26</ele>
        <time>2015-03-15T10:03:45Z</time>
      </trkpt>
      <trkpt lat="48.58914" lon="1.8096">
        <ele>145.78</ele>
        <time>2015-03-15T10:03:54Z</time>
      </trkpt>
      <trkpt lat="48.58913" lon="1.80959">
        <ele>145.78</ele>
        <time>2015-03-15T10:03:55Z</time>
      </trkpt>
      <trkpt lat="48.58911" lon="1.80941">
        <ele>145.78</ele>
        <time>2015-03-15T10:04:06Z</time>
      </trkpt>
      <trkpt lat="48.58905" lon="1.80927">
        <ele>145.78</ele>
        <time>2015-03-15T10:04:16Z</time>
      </trkpt>
      <trkpt lat="48.58902" lon="1.80926">
        <ele>145.78</ele>
        <time>2015-03-15T10:04:23Z</time>
      </trkpt>
      <trkpt lat="48.589" lon="1.80927">
        <ele>145.78</ele>
        <time>2015-03-15T10:04:31Z</time>
      </trkpt>
      <trkpt lat="48.58896" lon="1.80929">
        <ele>145.78</ele>
        <time>2015-03-15T10:04:37Z</time>
      </trkpt>
      <trkpt lat="48.58886" lon="1.80931">
        <ele>148.18</ele>
        <time>2015-03-15T10:04:48Z</time>
      </trkpt>
      <trkpt lat="48.58885" lon="1.80928">
        <ele>148.18</ele>
        <time>2015-03-15T10:04:56Z</time>
      </trkpt>
      <trkpt lat="48.58885" lon="1.80928">
        <ele>148.18</ele>
        <time>2015-03-15T10:05:05Z</time>
      </trkpt>
      <trkpt lat="48.58884" lon="1.80928">
        <ele>148.18</ele>
        <time>2015-03-15T10:05:14Z</time>
      </trkpt>
      <trkpt lat="48.58884" lon="1.80928">
        <ele>148.18</ele>
        <time>2015-03-15T10:05:24Z</time>
      </trkpt>
      <trkpt lat="48.58885" lon="1.80929">
        <ele>149.14</ele>
        <time>2015-03-15T10:05:38Z</time>
      </trkpt>
      <trkpt lat="48.58886" lon="1.8093">
        <ele>149.14</ele>
        <time>2015-03-15T10:05:52Z</time>
      </trkpt>
      <trkpt lat="48.58886" lon="1.8093">
        <ele>147.7</ele>
        <time>2015-03-15T10:05:54Z</time>
      </trkpt>
      <trkpt lat="48.58885" lon="1.80929">
        <ele>147.7</ele>
        <time>2015-03-15T10:06:04Z</time>
      </trkpt>
      <trkpt lat="48.58885" lon="1.80928">
        <ele>147.7</ele>
        <time>2015-03-15T10:06:16Z</time>
      </trkpt>
      <trkpt lat="48.58885" lon="1.80926">
        <ele>147.7</ele>
        <time>2015-03-15T10:06:28Z</time>
      </trkpt>
      <trkpt lat="48.58884" lon="1.80928">
        <ele>147.7</ele>
        <time>2015-03-15T10:06:40Z</time>
      </trkpt>
      <trkpt lat="48.58884" lon="1.80928">
        <ele>147.7</ele>
        <time>2015-03-15T10:06:52Z</time>
      </trkpt>
      <trkpt lat="48.58884" lon="1.80929">
        <ele>147.7</ele>
        <time>2015-03-15T10:07:05Z</time>
      </trkpt>
      <trkpt lat="48.58885" lon="1.8093">
        <ele>147.7</ele>
        <time>2015-03-15T10:07:21Z</time>
      </trkpt>
      <trkpt lat="48.58885" lon="1.80929">
        <ele>147.7</ele>
        <time>2015-03-15T10:07:33Z</time>
      </trkpt>
      <trkpt lat="48.58884" lon="1.80928">
        <ele>147.7</ele>
        <time>2015-03-15T10:07:39Z</time>
      </trkpt>
      <trkpt lat="48.58883" lon="1.80931">
        <ele>147.22</ele>
        <time>2015-03-15T10:07:48Z</time>
      </trkpt>
      <trkpt lat="48.58883" lon="1.80932">
        <ele>147.22</ele>
        <time>2015-03-15T10:08:01Z</time>
      </trkpt>
      <trkpt lat="48.58883" lon="1.80934">
        <ele>147.22</ele>
        <time>2015-03-15T10:08:09Z</time>
      </trkpt>
      <trkpt lat="48.58884" lon="1.80933">
        <ele>147.22</ele>
        <time>2015-03-15T10:08:15Z</time>
      </trkpt>
      <trkpt lat="48.58882" lon="1.80911">
        <ele>147.7</ele>
        <time>2015-03-15T10:08:25Z</time>
      </trkpt>
      <trkpt lat="48.58881" lon="1.8089">
        <ele>147.7</ele>
        <time>2015-03-15T10:08:34Z</time>
      </trkpt>
      <trkpt lat="48.5888" lon="1.80875">
        <ele>146.26</ele>
        <time>2015-03-15T10:08:43Z</time>
      </trkpt>
      <trkpt lat="48.58879" lon="1.80856">
        <ele>146.26</ele>
        <time>2015-03-15T10:08:54Z</time>
      </trkpt>
      <trkpt lat="48.58878" lon="1.80836">
        <ele>144.82</ele>
        <time>2015-03-15T10:09:04Z</time>
      </trkpt>
      <trkpt lat="48.58879" lon="1.80821">
        <ele>144.82</ele>
        <time>2015-03-15T10:09:13Z</time>
      </trkpt>
      <trkpt lat="48.58885" lon="1.80804">
        <ele>144.34</ele>
        <time>2015-03-15T10:09:23Z</time>
      </trkpt>
      <trkpt lat="48.58891" lon="1.80793">
        <ele>143.85</ele>
        <time>2015-03-15T10:09:31Z</time>
      </trkpt>
      <trkpt lat="48.58895" lon="1.80788">
        <ele>143.85</ele>
        <time>2015-03-15T10:09:36Z</time>
      </trkpt>
      <trkpt lat="48.58901" lon="1.80779">
        <ele>143.85</ele>
        <time>2015-03-15T10:09:43Z</time>
      </trkpt>
      <trkpt lat="48.58903" lon="1.80775">
        <ele>143.85</ele>
        <time>2015-03-15T10:09:46Z</time>
      </trkpt>
      <trkpt lat="48.58906" lon="1.80758">
        <ele>143.85</ele>
        <time>2015-03-15T10:09:56Z</time>
      </trkpt>
      <trkpt lat="48.58906" lon="1.80745">
        <ele>143.37</ele>
        <time>2015-03-15T10:10:03Z</time>
      </trkpt>
      <trkpt lat="48.58907" lon="1.80734">
        <ele>143.37</ele>
        <time>2015-03-15T10:10:09Z</time>
      </trkpt>
      <trkpt lat="48.58905" lon="1.80727">
        <ele>142.89</ele>
        <time>2015-03-15T10:10:15Z</time>
      </trkpt>
      <trkpt lat="48.589" lon="1.80723">
        <ele>142.89</ele>
        <time>2015-03-15T10:10:24Z</time>
      </trkpt>
      <trkpt lat="48.58893" lon="1.80721">
        <ele>142.89</ele>
        <time>2015-03-15T10:10:41Z</time>
      </trkpt>
      <trkpt lat="48.58889" lon="1.80721">
        <ele>144.34</ele>
        <time>2015-03-15T10:10:46Z</time>
      </trkpt>
      <trkpt lat="48.58884" lon="1.80718">
        <ele>144.82</ele>
        <time>2015-03-15T10:10:54Z</time>
      </trkpt>
      <trkpt lat="48.58878" lon="1.80706">
        <ele>145.3</ele>
        <time>2015-03-15T10:11:04Z</time>
      </trkpt>
      <trkpt lat="48.58868" lon="1.80697">
        <ele>146.74</ele>
        <time>2015-03-15T10:11:14Z</time>
      </trkpt>
      <trkpt lat="48.58859" lon="1.80692">
        <ele>147.22</ele>
        <time>2015-03-15T10:11:25Z</time>
      </trkpt>
      <trkpt lat="48.58854" lon="1.80691">
        <ele>147.7</ele>
        <time>2015-03-15T10:11:34Z</time>
      </trkpt>
      <trkpt lat="48.5885" lon="1.80695">
        <ele>149.62</ele>
        <time>2015-03-15T10:11:42Z</time>
      </trkpt>
      <trkpt lat="48.58847" lon="1.807">
        <ele>151.06</ele>
        <time>2015-03-15T10:11:52Z</time>
      </trkpt>
      <trkpt lat="48.58846" lon="1.80706">
        <ele>153.47</ele>
        <time>2015-03-15T10:12:01Z</time>
      </trkpt>
      <trkpt lat="48.58841" lon="1.80705">
        <ele>154.91</ele>
        <time>2015-03-15T10:12:11Z</time>
      </trkpt>
      <trkpt lat="48.58838" lon="1.80708">
        <ele>156.83</ele>
        <time>2015-03-15T10:12:20Z</time>
      </trkpt>
      <trkpt lat="48.58833" lon="1.80711">
        <ele>156.83</ele>
        <time>2015-03-15T10:12:27Z</time>
      </trkpt>
      <trkpt lat="48.58836" lon="1.80722">
        <ele>157.31</ele>
        <time>2015-03-15T10:12:33Z</time>
      </trkpt>
      <trkpt lat="48.58839" lon="1.80731">
        <ele>157.79</ele>
        <time>2015-03-15T10:12:43Z</time>
      </trkpt>
      <trkpt lat="48.58838" lon="1.80731">
        <ele>158.27</ele>
        <time>2015-03-15T10:12:53Z</time>
      </trkpt>
      <trkpt lat="48.5884" lon="1.8073">
        <ele>158.27</ele>
        <time>2015-03-15T10:13:06Z</time>
      </trkpt>
      <trkpt lat="48.58836" lon="1.80723">
        <ele>158.27</ele>
        <time>2015-03-15T10:13:20Z</time>
      </trkpt>
      <trkpt lat="48.58829" lon="1.80731">
        <ele>158.27</ele>
        <time>2015-03-15T10:13:29Z</time>
      </trkpt>
      <trkpt lat="48.58828" lon="1.80736">
        <ele>158.27</ele>
        <time>2015-03-15T10:13:35Z</time>
      </trkpt>
      <trkpt lat="48.58828" lon="1.80738">
        <ele>158.27</ele>
        <time>2015-03-15T10:13:44Z</time>
      </trkpt>
      <trkpt lat="48.5883" lon="1.80739">
        <ele>158.27</ele>
        <time>2015-03-15T10:14:01Z</time>
      </trkpt>
      <trkpt lat="48.5883" lon="1.80742">
        <ele>158.75</ele>
        <time>2015-03-15T10:14:15Z</time>
      </trkpt>
      <trkpt lat="48.58831" lon="1.80743">
        <ele>157.79</ele>
        <time>2015-03-15T10:14:28Z</time>
      </trkpt>
      <trkpt lat="48.58831" lon="1.80742">
        <ele>158.27</ele>
        <time>2015-03-15T10:14:46Z</time>
      </trkpt>
      <trkpt lat="48.58831" lon="1.80742">
        <ele>158.27</ele>
        <time>2015-03-15T10:14:59Z</time>
      </trkpt>
      <trkpt lat="48.58833" lon="1.80744">
        <ele>158.27</ele>
        <time>2015-03-15T10:15:14Z</time>
      </trkpt>
      <trkpt lat="48.58833" lon="1.80744">
        <ele>158.27</ele>
        <time>2015-03-15T10:15:31Z</time>
      </trkpt>
      <trkpt lat="48.58833" lon="1.80744">
        <ele>158.27</ele>
        <time>2015-03-15T10:15:42Z</time>
      </trkpt>
      <trkpt lat="48.58831" lon="1.80741">
        <ele>158.27</ele>
        <time>2015-03-15T10:15:56Z</time>
      </trkpt>
      <trkpt lat="48.58832" lon="1.80737">
        <ele>158.27</ele>
        <time>2015-03-15T10:16:04Z</time>
      </trkpt>
      <trkpt lat="48.58831" lon="1.80735">
        <ele>158.27</ele>
        <time>2015-03-15T10:16:11Z</time>
      </trkpt>
      <trkpt lat="48.5883" lon="1.80737">
        <ele>158.27</ele>
        <time>2015-03-15T10:16:23Z</time>
      </trkpt>
      <trkpt lat="48.58828" lon="1.80736">
        <ele>158.27</ele>
        <time>2015-03-15T10:16:35Z</time>
      </trkpt>
      <trkpt lat="48.58825" lon="1.80727">
        <ele>157.79</ele>
        <time>2015-03-15T10:16:43Z</time>
      </trkpt>
      <trkpt lat="48.58821" lon="1.80717">
        <ele>156.83</ele>
        <time>2015-03-15T10:16:55Z</time>
      </trkpt>
      <trkpt lat="48.58817" lon="1.80709">
        <ele>154.91</ele>
        <time>2015-03-15T10:17:05Z</time>
      </trkpt>
      <trkpt lat="48.5881" lon="1.80703">
        <ele>153.47</ele>
        <time>2015-03-15T10:17:14Z</time>
      </trkpt>
      <trkpt lat="48.58805" lon="1.80701">
        <ele>152.51</ele>
        <time>2015-03-15T10:17:21Z</time>
      </trkpt>
      <trkpt lat="48.58801" lon="1.80699">
        <ele>152.03</ele>
        <time>2015-03-15T10:17:28Z</time>
      </trkpt>
      <trkpt lat="48.58795" lon="1.80695">
        <ele>151.06</ele>
        <time>2015-03-15T10:17:36Z</time>
      </trkpt>
      <trkpt lat="48.58792" lon="1.80683">
        <ele>148.66</ele>
        <time>2015-03-15T10:17:45Z</time>
      </trkpt>
      <trkpt lat="48.5879" lon="1.80668">
        <ele>146.74</ele>
        <time>2015-03-15T10:17:54Z</time>
      </trkpt>
      <trkpt lat="48.5879" lon="1.80667">
        <ele>146.74</ele>
        <time>2015-03-15T10:17:55Z</time>
      </trkpt>
      <trkpt lat="48.58791" lon="1.80655">
        <ele>145.3</ele>
        <time>2015-03-15T10:18:03Z</time>
      </trkpt>
      <trkpt lat="48.58786" lon="1.80644">
        <ele>144.34</ele>
        <time>2015-03-15T10:18:12Z</time>
      </trkpt>
      <trkpt lat="48.58784" lon="1.80633">
        <ele>143.85</ele>
        <time>2015-03-15T10:18:20Z</time>
      </trkpt>
      <trkpt lat="48.58783" lon="1.8063">
        <ele>143.85</ele>
        <time>2015-03-15T10:18:28Z</time>
      </trkpt>
      <trkpt lat="48.58779" lon="1.80628">
        <ele>143.85</ele>
        <time>2015-03-15T10:18:43Z</time>
      </trkpt>
      <trkpt lat="48.58779" lon="1.80629">
        <ele>143.85</ele>
        <time>2015-03-15T10:18:58Z</time>
      </trkpt>
      <trkpt lat="48.5878" lon="1.80627">
        <ele>144.82</ele>
        <time>2015-03-15T10:19:11Z</time>
      </trkpt>
      <trkpt lat="48.58779" lon="1.8063">
        <ele>143.85</ele>
        <time>2015-03-15T10:19:22Z</time>
      </trkpt>
      <trkpt lat="48.58777" lon="1.80632">
        <ele>143.85</ele>
        <time>2015-03-15T10:19:34Z</time>
      </trkpt>
      <trkpt lat="48.58777" lon="1.8063">
        <ele>143.85</ele>
        <time>2015-03-15T10:19:48Z</time>
      </trkpt>
      <trkpt lat="48.58776" lon="1.80628">
        <ele>144.82</ele>
        <time>2015-03-15T10:20:00Z</time>
      </trkpt>
      <trkpt lat="48.58777" lon="1.80629">
        <ele>144.82</ele>
        <time>2015-03-15T10:20:11Z</time>
      </trkpt>
      <trkpt lat="48.58776" lon="1.8063">
        <ele>144.82</ele>
        <time>2015-03-15T10:20:23Z</time>
      </trkpt>
      <trkpt lat="48.58775" lon="1.80631">
        <ele>144.82</ele>
        <time>2015-03-15T10:20:40Z</time>
      </trkpt>
      <trkpt lat="48.58773" lon="1.80631">
        <ele>145.3</ele>
        <time>2015-03-15T10:20:48Z</time>
      </trkpt>
      <trkpt lat="48.58776" lon="1.80633">
        <ele>145.3</ele>
        <time>2015-03-15T10:20:57Z</time>
      </trkpt>
      <trkpt lat="48.58779" lon="1.80635">
        <ele>145.3</ele>
        <time>2015-03-15T10:21:10Z</time>
      </trkpt>
      <trkpt lat="48.58778" lon="1.80635">
        <ele>145.78</ele>
        <time>2015-03-15T10:21:24Z</time>
      </trkpt>
      <trkpt lat="48.58772" lon="1.80624">
        <ele>145.78</ele>
        <time>2015-03-15T10:21:33Z</time>
      </trkpt>
      <trkpt lat="48.5877" lon="1.80616">
        <ele>144.82</ele>
        <time>2015-03-15T10:21:41Z</time>
      </trkpt>
      <trkpt lat="48.5877" lon="1.80615">
        <ele>144.82</ele>
        <time>2015-03-15T10:21:42Z</time>
      </trkpt>
      <trkpt lat="48.58767" lon="1.80605">
        <ele>144.82</ele>
        <time>2015-03-15T10:21:51Z</time>
      </trkpt>
      <trkpt lat="48.58762" lon="1.80594">
        <ele>145.78</ele>
        <time>2015-03-15T10:22:01Z</time>
      </trkpt>
      <trkpt lat="48.58756" lon="1.80583">
        <ele>146.74</ele>
        <time>2015-03-15T10:22:10Z</time>
      </trkpt>
      <trkpt lat="48.58754" lon="1.80572">
        <ele>146.74</ele>
        <time>2015-03-15T10:22:18Z</time>
      </trkpt>
      <trkpt lat="48.58753" lon="1.80562">
        <ele>146.74</ele>
        <time>2015-03-15T10:22:26Z</time>
      </trkpt>
      <trkpt lat="48.58748" lon="1.80552">
        <ele>146.74</ele>
        <time>2015-03-15T10:22:34Z</time>
      </trkpt>
      <trkpt lat="48.58742" lon="1.80541">
        <ele>146.74</ele>
        <time>2015-03-15T10:22:43Z</time>
      </trkpt>
      <trkpt lat="48.58738" lon="1.80532">
        <ele>147.22</ele>
        <time>2015-03-15T10:22:51Z</time>
      </trkpt>
      <trkpt lat="48.58731" lon="1.80519">
        <ele>147.7</ele>
        <time>2015-03-15T10:23:00Z</time>
      </trkpt>
      <trkpt lat="48.5872" lon="1.80505">
        <ele>146.26</ele>
        <time>2015-03-15T10:23:10Z</time>
      </trkpt>
      <trkpt lat="48.58711" lon="1.80494">
        <ele>145.78</ele>
        <time>2015-03-15T10:23:19Z</time>
      </trkpt>
      <trkpt lat="48.58704" lon="1.80483">
        <ele>145.3</ele>
        <time>2015-03-15T10:23:27Z</time>
      </trkpt>
      <trkpt lat="48.58698" lon="1.80473">
        <ele>145.3</ele>
        <time>2015-03-15T10:23:35Z</time>
      </trkpt>
      <trkpt lat="48.58691" lon="1.80464">
        <ele>145.3</ele>
        <time>2015-03-15T10:23:45Z</time>
      </trkpt>
      <trkpt lat="48.5868" lon="1.80452">
        <ele>145.3</ele>
        <time>2015-03-15T10:23:56Z</time>
      </trkpt>
      <trkpt lat="48.5867" lon="1.80448">
        <ele>145.3</ele>
        <time>2015-03-15T10:24:05Z</time>
      </trkpt>
      <trkpt lat="48.58659" lon="1.80445">
        <ele>145.3</ele>
        <time>2015-03-15T10:24:13Z</time>
      </trkpt>
      <trkpt lat="48.58647" lon="1.8044">
        <ele>145.3</ele>
        <time>2015-03-15T10:24:23Z</time>
      </trkpt>
      <trkpt lat="48.58638" lon="1.80433">
        <ele>145.78</ele>
        <time>2015-03-15T10:24:34Z</time>
      </trkpt>
      <trkpt lat="48.58632" lon="1.80431">
        <ele>145.78</ele>
        <time>2015-03-15T10:24:38Z</time>
      </trkpt>
      <trkpt lat="48.58623" lon="1.80429">
        <ele>145.78</ele>
        <time>2015-03-15T10:24:46Z</time>
      </trkpt>
      <trkpt lat="48.58615" lon="1.8043">
        <ele>145.78</ele>
        <time>2015-03-15T10:24:54Z</time>
      </trkpt>
      <trkpt lat="48.58604" lon="1.80431">
        <ele>145.78</ele>
        <time>2015-03-15T10:25:02Z</time>
      </trkpt>
      <trkpt lat="48.58594" lon="1.8043">
        <ele>145.3</ele>
        <time>2015-03-15T10:25:11Z</time>
      </trkpt>
      <trkpt lat="48.58584" lon="1.80431">
        <ele>145.3</ele>
        <time>2015-03-15T10:25:19Z</time>
      </trkpt>
      <trkpt lat="48.58583" lon="1.80432">
        <ele>145.3</ele>
        <time>2015-03-15T10:25:20Z</time>
      </trkpt>
      <trkpt lat="48.58575" lon="1.80437">
        <ele>145.3</ele>
        <time>2015-03-15T10:25:29Z</time>
      </trkpt>
      <trkpt lat="48.5857" lon="1.80438">
        <ele>146.74</ele>
        <time>2015-03-15T10:25:34Z</time>
      </trkpt>
      <trkpt lat="48.58562" lon="1.80443">
        <ele>147.7</ele>
        <time>2015-03-15T10:25:42Z</time>
      </trkpt>
      <trkpt lat="48.58554" lon="1.80449">
        <ele>149.14</ele>
        <time>2015-03-15T10:25:53Z</time>
      </trkpt>
      <trkpt lat="48.58552" lon="1.80454">
        <ele>149.14</ele>
        <time>2015-03-15T10:26:03Z</time>
      </trkpt>
      <trkpt lat="48.58552" lon="1.80458">
        <ele>150.1</ele>
        <time>2015-03-15T10:26:18Z</time>
      </trkpt>
      <trkpt lat="48.58549" lon="1.80467">
        <ele>150.1</ele>
        <time>2015-03-15T10:26:33Z</time>
      </trkpt>
      <trkpt lat="48.58552" lon="1.80471">
        <ele>150.1</ele>
        <time>2015-03-15T10:26:46Z</time>
      </trkpt>
      <trkpt lat="48.5855" lon="1.80472">
        <ele>150.1</ele>
        <time>2015-03-15T10:27:00Z</time>
      </trkpt>
      <trkpt lat="48.58551" lon="1.80472">
        <ele>148.66</ele>
        <time>2015-03-15T10:27:09Z</time>
      </trkpt>
      <trkpt lat="48.58553" lon="1.80473">
        <ele>148.66</ele>
        <time>2015-03-15T10:27:23Z</time>
      </trkpt>
      <trkpt lat="48.58553" lon="1.80473">
        <ele>150.1</ele>
        <time>2015-03-15T10:27:25Z</time>
      </trkpt>
      <trkpt lat="48.58554" lon="1.80472">
        <ele>148.66</ele>
        <time>2015-03-15T10:27:35Z</time>
      </trkpt>
      <trkpt lat="48.58553" lon="1.80472">
        <ele>149.62</ele>
        <time>2015-03-15T10:27:46Z</time>
      </trkpt>
      <trkpt lat="48.58552" lon="1.80469">
        <ele>149.62</ele>
        <time>2015-03-15T10:27:56Z</time>
      </trkpt>
      <trkpt lat="48.58551" lon="1.80466">
        <ele>148.66</ele>
        <time>2015-03-15T10:28:00Z</time>
      </trkpt>
      <trkpt lat="48.58545" lon="1.80458">
        <ele>148.18</ele>
        <time>2015-03-15T10:28:09Z</time>
      </trkpt>
      <trkpt lat="48.58539" lon="1.80449">
        <ele>147.22</ele>
        <time>2015-03-15T10:28:19Z</time>
      </trkpt>
      <trkpt lat="48.58533" lon="1.80444">
        <ele>146.74</ele>
        <time>2015-03-15T10:28:29Z</time>
      </trkpt>
      <trkpt lat="48.58521" lon="1.80436">
        <ele>145.78</ele>
        <time>2015-03-15T10:28:39Z</time>
      </trkpt>
      <trkpt lat="48.58511" lon="1.80424">
        <ele>144.82</ele>
        <time>2015-03-15T10:28:49Z</time>
      </trkpt>
      <trkpt lat="48.58504" lon="1.80425">
        <ele>144.82</ele>
        <time>2015-03-15T10:28:58Z</time>
      </trkpt>
      <trkpt lat="48.58498" lon="1.80423">
        <ele>145.78</ele>
        <time>2015-03-15T10:29:04Z</time>
      </trkpt>
      <trkpt lat="48.58489" lon="1.80418">
        <ele>145.78</ele>
        <time>2015-03-15T10:29:14Z</time>
      </trkpt>
      <trkpt lat="48.58479" lon="1.80411">
        <ele>145.78</ele>
        <time>2015-03-15T10:29:23Z</time>
      </trkpt>
      <trkpt lat="48.58474" lon="1.80407">
        <ele>145.78</ele>
        <time>2015-03-15T10:29:30Z</time>
      </trkpt>
      <trkpt lat="48.58463" lon="1.80399">
        <ele>144.82</ele>
        <time>2015-03-15T10:29:40Z</time>
      </trkpt>
      <trkpt lat="48.58452" lon="1.80393">
        <ele>144.34</ele>
        <time>2015-03-15T10:29:49Z</time>
      </trkpt>
      <trkpt lat="48.58443" lon="1.80389">
        <ele>144.34</ele>
        <time>2015-03-15T10:29:57Z</time>
      </trkpt>
      <trkpt lat="48.58435" lon="1.80384">
        <ele>144.34</ele>
        <time>2015-03-15T10:30:05Z</time>
      </trkpt>
      <trkpt lat="48.58428" lon="1.80378">
        <ele>144.34</ele>
        <time>2015-03-15T10:30:12Z</time>
      </trkpt>
      <trkpt lat="48.58421" lon="1.8037">
        <ele>144.34</ele>
        <time>2015-03-15T10:30:21Z</time>
      </trkpt>
      <trkpt lat="48.58414" lon="1.80355">
        <ele>144.34</ele>
        <time>2015-03-15T10:30:30Z</time>
      </trkpt>
      <trkpt lat="48.58404" lon="1.80337">
        <ele>144.34</ele>
        <time>2015-03-15T10:30:40Z</time>
      </trkpt>
      <trkpt lat="48.58402" lon="1.80334">
        <ele>144.34</ele>
        <time>2015-03-15T10:30:42Z</time>
      </trkpt>
      <trkpt lat="48.584" lon="1.80331">
        <ele>144.34</ele>
        <time>2015-03-15T10:30:45Z</time>
      </trkpt>
      <trkpt lat="48.58394" lon="1.80324">
        <ele>144.34</ele>
        <time>2015-03-15T10:30:54Z</time>
      </trkpt>
      <trkpt lat="48.58391" lon="1.80321">
        <ele>144.34</ele>
        <time>2015-03-15T10:31:03Z</time>
      </trkpt>
      <trkpt lat="48.5839" lon="1.80323">
        <ele>144.34</ele>
        <time>2015-03-15T10:31:11Z</time>
      </trkpt>
      <trkpt lat="48.58386" lon="1.80318">
        <ele>144.34</ele>
        <time>2015-03-15T10:31:18Z</time>
      </trkpt>
      <trkpt lat="48.5838" lon="1.80309">
        <ele>144.34</ele>
        <time>2015-03-15T10:31:26Z</time>
      </trkpt>
      <trkpt lat="48.58373" lon="1.80296">
        <ele>144.34</ele>
        <time>2015-03-15T10:31:34Z</time>
      </trkpt>
      <trkpt lat="48.58365" lon="1.80283">
        <ele>144.34</ele>
        <time>2015-03-15T10:31:43Z</time>
      </trkpt>
      <trkpt lat="48.58357" lon="1.80269">
        <ele>144.34</ele>
        <time>2015-03-15T10:31:53Z</time>
      </trkpt>
      <trkpt lat="48.5835" lon="1.80253">
        <ele>144.34</ele>
        <time>2015-03-15T10:32:03Z</time>
      </trkpt>
      <trkpt lat="48.58346" lon="1.80239">
        <ele>144.34</ele>
        <time>2015-03-15T10:32:12Z</time>
      </trkpt>
      <trkpt lat="48.58345" lon="1.80236">
        <ele>144.34</ele>
        <time>2015-03-15T10:32:14Z</time>
      </trkpt>
      <trkpt lat="48.58339" lon="1.80223">
        <ele>144.34</ele>
        <time>2015-03-15T10:32:24Z</time>
      </trkpt>
      <trkpt lat="48.58334" lon="1.80205">
        <ele>144.34</ele>
        <time>2015-03-15T10:32:34Z</time>
      </trkpt>
      <trkpt lat="48.58329" lon="1.8019">
        <ele>144.34</ele>
        <time>2015-03-15T10:32:43Z</time>
      </trkpt>
      <trkpt lat="48.58326" lon="1.80177">
        <ele>145.3</ele>
        <time>2015-03-15T10:32:51Z</time>
      </trkpt>
      <trkpt lat="48.58325" lon="1.80163">
        <ele>145.3</ele>
        <time>2015-03-15T10:33:02Z</time>
      </trkpt>
      <trkpt lat="48.58321" lon="1.80158">
        <ele>145.3</ele>
        <time>2015-03-15T10:33:11Z</time>
      </trkpt>
      <trkpt lat="48.58317" lon="1.80145">
        <ele>145.3</ele>
        <time>2015-03-15T10:33:20Z</time>
      </trkpt>
      <trkpt lat="48.58314" lon="1.80133">
        <ele>145.3</ele>
        <time>2015-03-15T10:33:29Z</time>
      </trkpt>
      <trkpt lat="48.58311" lon="1.80119">
        <ele>145.3</ele>
        <time>2015-03-15T10:33:38Z</time>
      </trkpt>
      <trkpt lat="48.5831" lon="1.80111">
        <ele>145.3</ele>
        <time>2015-03-15T10:33:43Z</time>
      </trkpt>
      <trkpt lat="48.58311" lon="1.80104">
        <ele>145.3</ele>
        <time>2015-03-15T10:33:47Z</time>
      </trkpt>
      <trkpt lat="48.58311" lon="1.80081">
        <ele>145.3</ele>
        <time>2015-03-15T10:33:59Z</time>
      </trkpt>
      <trkpt lat="48.58309" lon="1.80066">
        <ele>145.3</ele>
        <time>2015-03-15T10:34:08Z</time>
      </trkpt>
      <trkpt lat="48.58307" lon="1.80054">
        <ele>145.3</ele>
        <time>2015-03-15T10:34:15Z</time>
      </trkpt>
      <trkpt lat="48.58304" lon="1.80038">
        <ele>145.3</ele>
        <time>2015-03-15T10:34:24Z</time>
      </trkpt>
      <trkpt lat="48.58302" lon="1.80032">
        <ele>145.3</ele>
        <time>2015-03-15T10:34:33Z</time>
      </trkpt>
      <trkpt lat="48.58301" lon="1.80027">
        <ele>145.3</ele>
        <time>2015-03-15T10:34:40Z</time>
      </trkpt>
      <trkpt lat="48.58304" lon="1.80026">
        <ele>143.85</ele>
        <time>2015-03-15T10:34:47Z</time>
      </trkpt>
      <trkpt lat="48.5831" lon="1.80026">
        <ele>143.85</ele>
        <time>2015-03-15T10:34:56Z</time>
      </trkpt>
      <trkpt lat="48.58315" lon="1.80029">
        <ele>143.85</ele>
        <time>2015-03-15T10:35:03Z</time>
      </trkpt>
      <trkpt lat="48.58319" lon="1.80029">
        <ele>144.82</ele>
        <time>2015-03-15T10:35:16Z</time>
      </trkpt>
      <trkpt lat="48.58322" lon="1.80022">
        <ele>144.82</ele>
        <time>2015-03-15T10:35:29Z</time>
      </trkpt>
      <trkpt lat="48.58329" lon="1.80021">
        <ele>144.82</ele>
        <time>2015-03-15T10:35:37Z</time>
      </trkpt>
      <trkpt lat="48.58332" lon="1.80021">
        <ele>144.82</ele>
        <time>2015-03-15T10:35:41Z</time>
      </trkpt>
      <trkpt lat="48.5834" lon="1.80021">
        <ele>144.82</ele>
        <time>2015-03-15T10:35:48Z</time>
      </trkpt>
      <trkpt lat="48.58342" lon="1.80021">
        <ele>145.3</ele>
        <time>2015-03-15T10:35:50Z</time>
      </trkpt>
      <trkpt lat="48.58351" lon="1.80031">
        <ele>144.82</ele>
        <time>2015-03-15T10:35:59Z</time>
      </trkpt>
      <trkpt lat="48.58362" lon="1.80038">
        <ele>145.3</ele>
        <time>2015-03-15T10:36:08Z</time>
      </trkpt>
      <trkpt lat="48.58367" lon="1.80041">
        <ele>145.3</ele>
        <time>2015-03-15T10:36:12Z</time>
      </trkpt>
      <trkpt lat="48.58378" lon="1.80045">
        <ele>145.78</ele>
        <time>2015-03-15T10:36:21Z</time>
      </trkpt>
      <trkpt lat="48.58388" lon="1.80049">
        <ele>146.26</ele>
        <time>2015-03-15T10:36:30Z</time>
      </trkpt>
      <trkpt lat="48.58399" lon="1.80052">
        <ele>146.74</ele>
        <time>2015-03-15T10:36:40Z</time>
      </trkpt>
      <trkpt lat="48.58407" lon="1.80053">
        <ele>147.7</ele>
        <time>2015-03-15T10:36:48Z</time>
      </trkpt>
      <trkpt lat="48.58417" lon="1.80051">
        <ele>148.66</ele>
        <time>2015-03-15T10:36:57Z</time>
      </trkpt>
      <trkpt lat="48.58427" lon="1.80044">
        <ele>149.62</ele>
        <time>2015-03-15T10:37:06Z</time>
      </trkpt>
      <trkpt lat="48.58437" lon="1.80038">
        <ele>150.58</ele>
        <time>2015-03-15T10:37:14Z</time>
      </trkpt>
      <trkpt lat="48.58446" lon="1.8003">
        <ele>151.06</ele>
        <time>2015-03-15T10:37:23Z</time>
      </trkpt>
      <trkpt lat="48.58457" lon="1.80021">
        <ele>152.03</ele>
        <time>2015-03-15T10:37:32Z</time>
      </trkpt>
      <trkpt lat="48.58467" lon="1.80014">
        <ele>152.03</ele>
        <time>2015-03-15T10:37:41Z</time>
      </trkpt>
      <trkpt lat="48.58476" lon="1.80007">
        <ele>152.51</ele>
        <time>2015-03-15T10:37:49Z</time>
      </trkpt>
      <trkpt lat="48.58487" lon="1.79999">
        <ele>153.47</ele>
        <time>2015-03-15T10:38:00Z</time>
      </trkpt>
      <trkpt lat="48.58496" lon="1.79991">
        <ele>153.95</ele>
        <time>2015-03-15T10:38:09Z</time>
      </trkpt>
      <trkpt lat="48.58506" lon="1.79983">
        <ele>154.43</ele>
        <time>2015-03-15T10:38:19Z</time>
      </trkpt>
      <trkpt lat="48.58513" lon="1.79975">
        <ele>154.43</ele>
        <time>2015-03-15T10:38:27Z</time>
      </trkpt>
      <trkpt lat="48.58523" lon="1.79968">
        <ele>154.43</ele>
        <time>2015-03-15T10:38:36Z</time>
      </trkpt>
      <trkpt lat="48.58533" lon="1.7996">
        <ele>154.91</ele>
        <time>2015-03-15T10:38:46Z</time>
      </trkpt>
      <trkpt lat="48.58543" lon="1.79953">
        <ele>154.91</ele>
        <time>2015-03-15T10:38:56Z</time>
      </trkpt>
      <trkpt lat="48.58553" lon="1.79944">
        <ele>154.91</ele>
        <time>2015-03-15T10:39:06Z</time>
      </trkpt>
      <trkpt lat="48.58563" lon="1.79934">
        <ele>155.39</ele>
        <time>2015-03-15T10:39:16Z</time>
      </trkpt>
      <trkpt lat="48.58571" lon="1.79927">
        <ele>155.39</ele>
        <time>2015-03-15T10:39:24Z</time>
      </trkpt>
      <trkpt lat="48.58582" lon="1.79919">
        <ele>155.87</ele>
        <time>2015-03-15T10:39:34Z</time>
      </trkpt>
      <trkpt lat="48.5859" lon="1.79913">
        <ele>156.35</ele>
        <time>2015-03-15T10:39:42Z</time>
      </trkpt>
      <trkpt lat="48.58598" lon="1.79905">
        <ele>156.83</ele>
        <time>2015-03-15T10:39:51Z</time>
      </trkpt>
      <trkpt lat="48.586" lon="1.79902">
        <ele>156.83</ele>
        <time>2015-03-15T10:40:00Z</time>
      </trkpt>
      <trkpt lat="48.58601" lon="1.79897">
        <ele>157.31</ele>
        <time>2015-03-15T10:40:07Z</time>
      </trkpt>
      <trkpt lat="48.58601" lon="1.79894">
        <ele>157.31</ele>
        <time>2015-03-15T10:40:14Z</time>
      </trkpt>
      <trkpt lat="48.58599" lon="1.79891">
        <ele>158.27</ele>
        <time>2015-03-15T10:40:18Z</time>
      </trkpt>
      <trkpt lat="48.58595" lon="1.79883">
        <ele>158.27</ele>
        <time>2015-03-15T10:40:26Z</time>
      </trkpt>
      <trkpt lat="48.58587" lon="1.79871">
        <ele>158.27</ele>
        <time>2015-03-15T10:40:36Z</time>
      </trkpt>
      <trkpt lat="48.5858" lon="1.7986">
        <ele>158.27</ele>
        <time>2015-03-15T10:40:46Z</time>
      </trkpt>
      <trkpt lat="48.58572" lon="1.79849">
        <ele>158.27</ele>
        <time>2015-03-15T10:40:55Z</time>
      </trkpt>
      <trkpt lat="48.58564" lon="1.7984">
        <ele>158.27</ele>
        <time>2015-03-15T10:41:04Z</time>
      </trkpt>
      <trkpt lat="48.58563" lon="1.79838">
        <ele>158.27</ele>
        <time>2015-03-15T10:41:06Z</time>
      </trkpt>
      <trkpt lat="48.58556" lon="1.79829">
        <ele>158.27</ele>
        <time>2015-03-15T10:41:15Z</time>
      </trkpt>
      <trkpt lat="48.5855" lon="1.79821">
        <ele>158.27</ele>
        <time>2015-03-15T10:41:23Z</time>
      </trkpt>
      <trkpt lat="48.58547" lon="1.79814">
        <ele>158.27</ele>
        <time>2015-03-15T10:41:28Z</time>
      </trkpt>
      <trkpt lat="48.5854" lon="1.79806">
        <ele>158.27</ele>
        <time>2015-03-15T10:41:36Z</time>
      </trkpt>
      <trkpt lat="48.58533" lon="1.79796">
        <ele>158.27</ele>
        <time>2015-03-15T10:41:45Z</time>
      </trkpt>
      <trkpt lat="48.58527" lon="1.7979">
        <ele>158.27</ele>
        <time>2015-03-15T10:41:53Z</time>
      </trkpt>
      <trkpt lat="48.58521" lon="1.79782">
        <ele>158.75</ele>
        <time>2015-03-15T10:42:01Z</time>
      </trkpt>
      <trkpt lat="48.58512" lon="1.79767">
        <ele>158.75</ele>
        <time>2015-03-15T10:42:12Z</time>
      </trkpt>
      <trkpt lat="48.58505" lon="1.7976">
        <ele>158.75</ele>
        <time>2015-03-15T10:42:19Z</time>
      </trkpt>
      <trkpt lat="48.58499" lon="1.79754">
        <ele>158.75</ele>
        <time>2015-03-15T10:42:26Z</time>
      </trkpt>
      <trkpt lat="48.58497" lon="1.79752">
        <ele>158.75</ele>
        <time>2015-03-15T10:42:28Z</time>
      </trkpt>
      <trkpt lat="48.5849" lon="1.79741">
        <ele>158.75</ele>
        <time>2015-03-15T10:42:36Z</time>
      </trkpt>
      <trkpt lat="48.58485" lon="1.79733">
        <ele>159.24</ele>
        <time>2015-03-15T10:42:43Z</time>
      </trkpt>
      <trkpt lat="48.58479" lon="1.79726">
        <ele>159.24</ele>
        <time>2015-03-15T10:42:51Z</time>
      </trkpt>
      <trkpt lat="48.58471" lon="1.79716">
        <ele>159.24</ele>
        <time>2015-03-15T10:43:00Z</time>
      </trkpt>
      <trkpt lat="48.58466" lon="1.79709">
        <ele>159.24</ele>
        <time>2015-03-15T10:43:06Z</time>
      </trkpt>
      <trkpt lat="48.58458" lon="1.79697">
        <ele>159.72</ele>
        <time>2015-03-15T10:43:16Z</time>
      </trkpt>
      <trkpt lat="48.58454" lon="1.79684">
        <ele>159.72</ele>
        <time>2015-03-15T10:43:24Z</time>
      </trkpt>
      <trkpt lat="48.5845" lon="1.7967">
        <ele>159.72</ele>
        <time>2015-03-15T10:43:33Z</time>
      </trkpt>
      <trkpt lat="48.58445" lon="1.79657">
        <ele>159.72</ele>
        <time>2015-03-15T10:43:42Z</time>
      </trkpt>
      <trkpt lat="48.58443" lon="1.79652">
        <ele>160.2</ele>
        <time>2015-03-15T10:43:45Z</time>
      </trkpt>
      <trkpt lat="48.58438" lon="1.79638">
        <ele>160.2</ele>
        <time>2015-03-15T10:43:55Z</time>
      </trkpt>
      <trkpt lat="48.58438" lon="1.79637">
        <ele>160.2</ele>
        <time>2015-03-15T10:43:56Z</time>
      </trkpt>
      <trkpt lat="48.58434" lon="1.79628">
        <ele>160.2</ele>
        <time>2015-03-15T10:44:04Z</time>
      </trkpt>
      <trkpt lat="48.58429" lon="1.79615">
        <ele>160.2</ele>
        <time>2015-03-15T10:44:13Z</time>
      </trkpt>
      <trkpt lat="48.58425" lon="1.79603">
        <ele>160.2</ele>
        <time>2015-03-15T10:44:23Z</time>
      </trkpt>
      <trkpt lat="48.58424" lon="1.79597">
        <ele>159.72</ele>
        <time>2015-03-15T10:44:30Z</time>
      </trkpt>
      <trkpt lat="48.58419" lon="1.79583">
        <ele>160.2</ele>
        <time>2015-03-15T10:44:39Z</time>
      </trkpt>
      <trkpt lat="48.58417" lon="1.79578">
        <ele>158.75</ele>
        <time>2015-03-15T10:44:42Z</time>
      </trkpt>
      <trkpt lat="48.58414" lon="1.79568">
        <ele>158.75</ele>
        <time>2015-03-15T10:44:48Z</time>
      </trkpt>
      <trkpt lat="48.58408" lon="1.79552">
        <ele>158.75</ele>
        <time>2015-03-15T10:44:58Z</time>
      </trkpt>
      <trkpt lat="48.58399" lon="1.79538">
        <ele>158.75</ele>
        <time>2015-03-15T10:45:08Z</time>
      </trkpt>
      <trkpt lat="48.58398" lon="1.79538">
        <ele>158.75</ele>
        <time>2015-03-15T10:45:14Z</time>
      </trkpt>
      <trkpt lat="48.58395" lon="1.79534">
        <ele>158.75</ele>
        <time>2015-03-15T10:45:25Z</time>
      </trkpt>
      <trkpt lat="48.58387" lon="1.79523">
        <ele>158.75</ele>
        <time>2015-03-15T10:45:34Z</time>
      </trkpt>
      <trkpt lat="48.58378" lon="1.79511">
        <ele>158.75</ele>
        <time>2015-03-15T10:45:44Z</time>
      </trkpt>
      <trkpt lat="48.58368" lon="1.79499">
        <ele>156.83</ele>
        <time>2015-03-15T10:45:54Z</time>
      </trkpt>
      <trkpt lat="48.58367" lon="1.79498">
        <ele>160.2</ele>
        <time>2015-03-15T10:45:55Z</time>
      </trkpt>
      <trkpt lat="48.58359" lon="1.79486">
        <ele>158.27</ele>
        <time>2015-03-15T10:46:04Z</time>
      </trkpt>
      <trkpt lat="48.58351" lon="1.79476">
        <ele>158.27</ele>
        <time>2015-03-15T10:46:13Z</time>
      </trkpt>
      <trkpt lat="48.58342" lon="1.79465">
        <ele>158.27</ele>
        <time>2015-03-15T10:46:22Z</time>
      </trkpt>
      <trkpt lat="48.58335" lon="1.79453">
        <ele>158.27</ele>
        <time>2015-03-15T10:46:31Z</time>
      </trkpt>
      <trkpt lat="48.58327" lon="1.79441">
        <ele>158.27</ele>
        <time>2015-03-15T10:46:40Z</time>
      </trkpt>
      <trkpt lat="48.58319" lon="1.79427">
        <ele>158.27</ele>
        <time>2015-03-15T10:46:50Z</time>
      </trkpt>
      <trkpt lat="48.58313" lon="1.79414">
        <ele>158.27</ele>
        <time>2015-03-15T10:46:59Z</time>
      </trkpt>
      <trkpt lat="48.58306" lon="1.79403">
        <ele>158.27</ele>
        <time>2015-03-15T10:47:08Z</time>
      </trkpt>
      <trkpt lat="48.58303" lon="1.794">
        <ele>158.27</ele>
        <time>2015-03-15T10:47:14Z</time>
      </trkpt>
      <trkpt lat="48.58302" lon="1.79398">
        <ele>158.27</ele>
        <time>2015-03-15T10:47:21Z</time>
      </trkpt>
      <trkpt lat="48.58301" lon="1.79398">
        <ele>158.27</ele>
        <time>2015-03-15T10:47:22Z</time>
      </trkpt>
      <trkpt lat="48.58297" lon="1.79398">
        <ele>157.79</ele>
        <time>2015-03-15T10:47:29Z</time>
      </trkpt>
      <trkpt lat="48.58291" lon="1.79394">
        <ele>157.79</ele>
        <time>2015-03-15T10:47:36Z</time>
      </trkpt>
      <trkpt lat="48.58288" lon="1.79387">
        <ele>157.79</ele>
        <time>2015-03-15T10:47:46Z</time>
      </trkpt>
      <trkpt lat="48.5829" lon="1.79385">
        <ele>157.79</ele>
        <time>2015-03-15T10:47:54Z</time>
      </trkpt>
      <trkpt lat="48.58289" lon="1.79383">
        <ele>157.31</ele>
        <time>2015-03-15T10:48:00Z</time>
      </trkpt>
      <trkpt lat="48.58286" lon="1.79376">
        <ele>157.31</ele>
        <time>2015-03-15T10:48:08Z</time>
      </trkpt>
      <trkpt lat="48.58285" lon="1.79371">
        <ele>157.31</ele>
        <time>2015-03-15T10:48:17Z</time>
      </trkpt>
      <trkpt lat="48.58282" lon="1.79367">
        <ele>157.31</ele>
        <time>2015-03-15T10:48:21Z</time>
      </trkpt>
      <trkpt lat="48.5828" lon="1.79365">
        <ele>157.31</ele>
        <time>2015-03-15T10:48:23Z</time>
      </trkpt>
      <trkpt lat="48.58276" lon="1.79355">
        <ele>157.31</ele>
        <time>2015-03-15T10:48:33Z</time>
      </trkpt>
      <trkpt lat="48.58273" lon="1.79349">
        <ele>157.31</ele>
        <time>2015-03-15T10:48:41Z</time>
      </trkpt>
      <trkpt lat="48.58274" lon="1.79349">
        <ele>157.31</ele>
        <time>2015-03-15T10:48:48Z</time>
      </trkpt>
      <trkpt lat="48.58274" lon="1.79351">
        <ele>157.31</ele>
        <time>2015-03-15T10:48:57Z</time>
      </trkpt>
      <trkpt lat="48.58274" lon="1.79352">
        <ele>158.75</ele>
        <time>2015-03-15T10:49:14Z</time>
      </trkpt>
      <trkpt lat="48.58275" lon="1.79355">
        <ele>158.75</ele>
        <time>2015-03-15T10:49:25Z</time>
      </trkpt>
      <trkpt lat="48.58273" lon="1.79355">
        <ele>158.27</ele>
        <time>2015-03-15T10:49:43Z</time>
      </trkpt>
      <trkpt lat="48.58271" lon="1.79349">
        <ele>158.27</ele>
        <time>2015-03-15T10:49:56Z</time>
      </trkpt>
      <trkpt lat="48.5827" lon="1.79348">
        <ele>158.27</ele>
        <time>2015-03-15T10:50:06Z</time>
      </trkpt>
      <trkpt lat="48.58265" lon="1.79345">
        <ele>158.27</ele>
        <time>2015-03-15T10:50:19Z</time>
      </trkpt>
      <trkpt lat="48.58264" lon="1.7934">
        <ele>158.27</ele>
        <time>2015-03-15T10:50:28Z</time>
      </trkpt>
      <trkpt lat="48.58262" lon="1.79337">
        <ele>158.27</ele>
        <time>2015-03-15T10:50:40Z</time>
      </trkpt>
      <trkpt lat="48.58261" lon="1.79341">
        <ele>158.27</ele>
        <time>2015-03-15T10:50:47Z</time>
      </trkpt>
      <trkpt lat="48.58267" lon="1.79346">
        <ele>158.27</ele>
        <time>2015-03-15T10:51:03Z</time>
      </trkpt>
      <trkpt lat="48.58267" lon="1.79346">
        <ele>158.27</ele>
        <time>2015-03-15T10:51:20Z</time>
      </trkpt>
      <trkpt lat="48.58264" lon="1.79343">
        <ele>158.27</ele>
        <time>2015-03-15T10:51:33Z</time>
      </trkpt>
      <trkpt lat="48.58264" lon="1.7934">
        <ele>158.27</ele>
        <time>2015-03-15T10:51:46Z</time>
      </trkpt>
      <trkpt lat="48.58261" lon="1.79345">
        <ele>158.27</ele>
        <time>2015-03-15T10:52:06Z</time>
      </trkpt>
      <trkpt lat="48.58262" lon="1.79343">
        <ele>158.27</ele>
        <time>2015-03-15T10:52:16Z</time>
      </trkpt>
      <trkpt lat="48.58261" lon="1.79337">
        <ele>157.79</ele>
        <time>2015-03-15T10:52:29Z</time>
      </trkpt>
      <trkpt lat="48.58257" lon="1.7933">
        <ele>157.79</ele>
        <time>2015-03-15T10:52:36Z</time>
      </trkpt>
      <trkpt lat="48.58252" lon="1.79319">
        <ele>157.31</ele>
        <time>2015-03-15T10:52:45Z</time>
      </trkpt>
      <trkpt lat="48.58248" lon="1.79311">
        <ele>156.83</ele>
        <time>2015-03-15T10:52:53Z</time>
      </trkpt>
      <trkpt lat="48.58245" lon="1.793">
        <ele>156.83</ele>
        <time>2015-03-15T10:53:02Z</time>
      </trkpt>
      <trkpt lat="48.58242" lon="1.79291">
        <ele>156.83</ele>
        <time>2015-03-15T10:53:10Z</time>
      </trkpt>
      <trkpt lat="48.58237" lon="1.79279">
        <ele>156.35</ele>
        <time>2015-03-15T10:53:18Z</time>
      </trkpt>
      <trkpt lat="48.58231" lon="1.79267">
        <ele>155.87</ele>
        <time>2015-03-15T10:53:27Z</time>
      </trkpt>
      <trkpt lat="48.58225" lon="1.79254">
        <ele>155.39</ele>
        <time>2015-03-15T10:53:36Z</time>
      </trkpt>
      <trkpt lat="48.58221" lon="1.79245">
        <ele>154.43</ele>
        <time>2015-03-15T10:53:43Z</time>
      </trkpt>
      <trkpt lat="48.58217" lon="1.79234">
        <ele>154.43</ele>
        <time>2015-03-15T10:53:51Z</time>
      </trkpt>
      <trkpt lat="48.58213" lon="1.79228">
        <ele>154.43</ele>
        <time>2015-03-15T10:53:56Z</time>
      </trkpt>
      <trkpt lat="48.58206" lon="1.79213">
        <ele>153.47</ele>
        <time>2015-03-15T10:54:06Z</time>
      </trkpt>
      <trkpt lat="48.58199" lon="1.79199">
        <ele>152.99</ele>
        <time>2015-03-15T10:54:15Z</time>
      </trkpt>
      <trkpt lat="48.58193" lon="1.79183">
        <ele>152.03</ele>
        <time>2015-03-15T10:54:25Z</time>
      </trkpt>
      <trkpt lat="48.5819" lon="1.79169">
        <ele>151.06</ele>
        <time>2015-03-15T10:54:35Z</time>
      </trkpt>
      <trkpt lat="48.58188" lon="1.79157">
        <ele>151.06</ele>
        <time>2015-03-15T10:54:42Z</time>
      </trkpt>
      <trkpt lat="48.58187" lon="1.79148">
        <ele>150.1</ele>
        <time>2015-03-15T10:54:47Z</time>
      </trkpt>
      <trkpt lat="48.58185" lon="1.79137">
        <ele>150.1</ele>
        <time>2015-03-15T10:54:53Z</time>
      </trkpt>
      <trkpt lat="48.58184" lon="1.79118">
        <ele>149.62</ele>
        <time>2015-03-15T10:55:04Z</time>
      </trkpt>
      <trkpt lat="48.58182" lon="1.79107">
        <ele>149.62</ele>
        <time>2015-03-15T10:55:11Z</time>
      </trkpt>
      <trkpt lat="48.58178" lon="1.79092">
        <ele>148.18</ele>
        <time>2015-03-15T10:55:20Z</time>
      </trkpt>
      <trkpt lat="48.58172" lon="1.79079">
        <ele>148.18</ele>
        <time>2015-03-15T10:55:29Z</time>
      </trkpt>
      <trkpt lat="48.58169" lon="1.79067">
        <ele>147.22</ele>
        <time>2015-03-15T10:55:37Z</time>
      </trkpt>
      <trkpt lat="48.58167" lon="1.79059">
        <ele>146.74</ele>
        <time>2015-03-15T10:55:42Z</time>
      </trkpt>
      <trkpt lat="48.58166" lon="1.79057">
        <ele>146.74</ele>
        <time>2015-03-15T10:55:43Z</time>
      </trkpt>
      <trkpt lat="48.58161" lon="1.79043">
        <ele>145.78</ele>
        <time>2015-03-15T10:55:52Z</time>
      </trkpt>
      <trkpt lat="48.58158" lon="1.79026">
        <ele>144.82</ele>
        <time>2015-03-15T10:56:02Z</time>
      </trkpt>
      <trkpt lat="48.58155" lon="1.79011">
        <ele>144.34</ele>
        <time>2015-03-15T10:56:11Z</time>
      </trkpt>
      <trkpt lat="48.58151" lon="1.78998">
        <ele>143.85</ele>
        <time>2015-03-15T10:56:20Z</time>
      </trkpt>
      <trkpt lat="48.58146" lon="1.78985">
        <ele>143.37</ele>
        <time>2015-03-15T10:56:28Z</time>
      </trkpt>
      <trkpt lat="48.58139" lon="1.78971">
        <ele>142.89</ele>
        <time>2015-03-15T10:56:37Z</time>
      </trkpt>
      <trkpt lat="48.58136" lon="1.78964">
        <ele>142.89</ele>
        <time>2015-03-15T10:56:42Z</time>
      </trkpt>
      <trkpt lat="48.5813" lon="1.78943">
        <ele>142.41</ele>
        <time>2015-03-15T10:56:54Z</time>
      </trkpt>
      <trkpt lat="48.58124" lon="1.78927">
        <ele>142.41</ele>
        <time>2015-03-15T10:57:04Z</time>
      </trkpt>
      <trkpt lat="48.58118" lon="1.78914">
        <ele>141.93</ele>
        <time>2015-03-15T10:57:12Z</time>
      </trkpt>
      <trkpt lat="48.58115" lon="1.78899">
        <ele>141.93</ele>
        <time>2015-03-15T10:57:21Z</time>
      </trkpt>
      <trkpt lat="48.58112" lon="1.78894">
        <ele>141.93</ele>
        <time>2015-03-15T10:57:25Z</time>
      </trkpt>
      <trkpt lat="48.5811" lon="1.78887">
        <ele>143.37</ele>
        <time>2015-03-15T10:57:30Z</time>
      </trkpt>
      <trkpt lat="48.58106" lon="1.78878">
        <ele>144.34</ele>
        <time>2015-03-15T10:57:37Z</time>
      </trkpt>
      <trkpt lat="48.58098" lon="1.78873">
        <ele>144.34</ele>
        <time>2015-03-15T10:57:46Z</time>
      </trkpt>
      <trkpt lat="48.58088" lon="1.78868">
        <ele>142.89</ele>
        <time>2015-03-15T10:57:56Z</time>
      </trkpt>
      <trkpt lat="48.58088" lon="1.78865">
        <ele>142.41</ele>
        <time>2015-03-15T10:57:58Z</time>
      </trkpt>
      <trkpt lat="48.58082" lon="1.78849">
        <ele>141.93</ele>
        <time>2015-03-15T10:58:07Z</time>
      </trkpt>
      <trkpt lat="48.5808" lon="1.78837">
        <ele>141.93</ele>
        <time>2015-03-15T10:58:16Z</time>
      </trkpt>
      <trkpt lat="48.5808" lon="1.78835">
        <ele>141.93</ele>
        <time>2015-03-15T10:58:17Z</time>
      </trkpt>
      <trkpt lat="48.58074" lon="1.78821">
        <ele>141.93</ele>
        <time>2015-03-15T10:58:26Z</time>
      </trkpt>
      <trkpt lat="48.58074" lon="1.78811">
        <ele>141.93</ele>
        <time>2015-03-15T10:58:33Z</time>
      </trkpt>
      <trkpt lat="48.58073" lon="1.78802">
        <ele>141.93</ele>
        <time>2015-03-15T10:58:38Z</time>
      </trkpt>
      <trkpt lat="48.58071" lon="1.78797">
        <ele>141.93</ele>
        <time>2015-03-15T10:58:41Z</time>
      </trkpt>
      <trkpt lat="48.58063" lon="1.78778">
        <ele>141.93</ele>
        <time>2015-03-15T10:58:51Z</time>
      </trkpt>
      <trkpt lat="48.58056" lon="1.78766">
        <ele>141.93</ele>
        <time>2015-03-15T10:58:59Z</time>
      </trkpt>
      <trkpt lat="48.5805" lon="1.78753">
        <ele>140.97</ele>
        <time>2015-03-15T10:59:07Z</time>
      </trkpt>
      <trkpt lat="48.58044" lon="1.78741">
        <ele>140.97</ele>
        <time>2015-03-15T10:59:15Z</time>
      </trkpt>
      <trkpt lat="48.58036" lon="1.78725">
        <ele>140.97</ele>
        <time>2015-03-15T10:59:25Z</time>
      </trkpt>
      <trkpt lat="48.58035" lon="1.78714">
        <ele>140.97</ele>
        <time>2015-03-15T10:59:32Z</time>
      </trkpt>
      <trkpt lat="48.58031" lon="1.78705">
        <ele>140.97</ele>
        <time>2015-03-15T10:59:39Z</time>
      </trkpt>
      <trkpt lat="48.58029" lon="1.78695">
        <ele>140.97</ele>
        <time>2015-03-15T10:59:45Z</time>
      </trkpt>
      <trkpt lat="48.58023" lon="1.78681">
        <ele>140.97</ele>
        <time>2015-03-15T10:59:53Z</time>
      </trkpt>
      <trkpt lat="48.58023" lon="1.7868">
        <ele>140.97</ele>
        <time>2015-03-15T10:59:54Z</time>
      </trkpt>
      <trkpt lat="48.58017" lon="1.78665">
        <ele>140.97</ele>
        <time>2015-03-15T11:00:04Z</time>
      </trkpt>
      <trkpt lat="48.58013" lon="1.78653">
        <ele>140.49</ele>
        <time>2015-03-15T11:00:13Z</time>
      </trkpt>
      <trkpt lat="48.5801" lon="1.78646">
        <ele>140.49</ele>
        <time>2015-03-15T11:00:21Z</time>
      </trkpt>
      <trkpt lat="48.58009" lon="1.78639">
        <ele>140.49</ele>
        <time>2015-03-15T11:00:27Z</time>
      </trkpt>
      <trkpt lat="48.58008" lon="1.78623">
        <ele>140.49</ele>
        <time>2015-03-15T11:00:36Z</time>
      </trkpt>
      <trkpt lat="48.58008" lon="1.78609">
        <ele>140.49</ele>
        <time>2015-03-15T11:00:44Z</time>
      </trkpt>
      <trkpt lat="48.58008" lon="1.78605">
        <ele>140.49</ele>
        <time>2015-03-15T11:00:46Z</time>
      </trkpt>
      <trkpt lat="48.58007" lon="1.78598">
        <ele>140.49</ele>
        <time>2015-03-15T11:00:50Z</time>
      </trkpt>
      <trkpt lat="48.58005" lon="1.78589">
        <ele>140.49</ele>
        <time>2015-03-15T11:00:54Z</time>
      </trkpt>
      <trkpt lat="48.58004" lon="1.78585">
        <ele>140.49</ele>
        <time>2015-03-15T11:00:56Z</time>
      </trkpt>
      <trkpt lat="48.57997" lon="1.78565">
        <ele>140.49</ele>
        <time>2015-03-15T11:01:07Z</time>
      </trkpt>
      <trkpt lat="48.57996" lon="1.78554">
        <ele>140.49</ele>
        <time>2015-03-15T11:01:14Z</time>
      </trkpt>
      <trkpt lat="48.57997" lon="1.78549">
        <ele>140.49</ele>
        <time>2015-03-15T11:01:17Z</time>
      </trkpt>
      <trkpt lat="48.58005" lon="1.78534">
        <ele>140.49</ele>
        <time>2015-03-15T11:01:26Z</time>
      </trkpt>
      <trkpt lat="48.58008" lon="1.78523">
        <ele>140.01</ele>
        <time>2015-03-15T11:01:34Z</time>
      </trkpt>
      <trkpt lat="48.5801" lon="1.7852">
        <ele>140.01</ele>
        <time>2015-03-15T11:01:36Z</time>
      </trkpt>
      <trkpt lat="48.58017" lon="1.78505">
        <ele>140.01</ele>
        <time>2015-03-15T11:01:47Z</time>
      </trkpt>
      <trkpt lat="48.58023" lon="1.78488">
        <ele>140.01</ele>
        <time>2015-03-15T11:01:57Z</time>
      </trkpt>
      <trkpt lat="48.58029" lon="1.78476">
        <ele>140.01</ele>
        <time>2015-03-15T11:02:05Z</time>
      </trkpt>
      <trkpt lat="48.58036" lon="1.78458">
        <ele>140.01</ele>
        <time>2015-03-15T11:02:15Z</time>
      </trkpt>
      <trkpt lat="48.58042" lon="1.78443">
        <ele>140.01</ele>
        <time>2015-03-15T11:02:25Z</time>
      </trkpt>
      <trkpt lat="48.58044" lon="1.78433">
        <ele>140.01</ele>
        <time>2015-03-15T11:02:32Z</time>
      </trkpt>
      <trkpt lat="48.58043" lon="1.7843">
        <ele>140.01</ele>
        <time>2015-03-15T11:02:34Z</time>
      </trkpt>
      <trkpt lat="48.58041" lon="1.78421">
        <ele>140.01</ele>
        <time>2015-03-15T11:02:39Z</time>
      </trkpt>
      <trkpt lat="48.58038" lon="1.78407">
        <ele>140.01</ele>
        <time>2015-03-15T11:02:46Z</time>
      </trkpt>
      <trkpt lat="48.58032" lon="1.7839">
        <ele>140.01</ele>
        <time>2015-03-15T11:02:56Z</time>
      </trkpt>
      <trkpt lat="48.58027" lon="1.78376">
        <ele>140.01</ele>
        <time>2015-03-15T11:03:05Z</time>
      </trkpt>
      <trkpt lat="48.58022" lon="1.78361">
        <ele>140.01</ele>
        <time>2015-03-15T11:03:15Z</time>
      </trkpt>
      <trkpt lat="48.58018" lon="1.78345">
        <ele>141.93</ele>
        <time>2015-03-15T11:03:25Z</time>
      </trkpt>
      <trkpt lat="48.58015" lon="1.7833">
        <ele>141.93</ele>
        <time>2015-03-15T11:03:34Z</time>
      </trkpt>
      <trkpt lat="48.5801" lon="1.78308">
        <ele>142.89</ele>
        <time>2015-03-15T11:03:47Z</time>
      </trkpt>
      <trkpt lat="48.58007" lon="1.78299">
        <ele>143.37</ele>
        <time>2015-03-15T11:03:54Z</time>
      </trkpt>
      <trkpt lat="48.58004" lon="1.78286">
        <ele>144.82</ele>
        <time>2015-03-15T11:04:04Z</time>
      </trkpt>
      <trkpt lat="48.58" lon="1.78274">
        <ele>145.78</ele>
        <time>2015-03-15T11:04:13Z</time>
      </trkpt>
      <trkpt lat="48.57999" lon="1.78266">
        <ele>146.74</ele>
        <time>2015-03-15T11:04:22Z</time>
      </trkpt>
      <trkpt lat="48.57998" lon="1.78255">
        <ele>147.7</ele>
        <time>2015-03-15T11:04:31Z</time>
      </trkpt>
      <trkpt lat="48.57996" lon="1.78248">
        <ele>148.18</ele>
        <time>2015-03-15T11:04:38Z</time>
      </trkpt>
      <trkpt lat="48.57995" lon="1.78237">
        <ele>149.14</ele>
        <time>2015-03-15T11:04:47Z</time>
      </trkpt>
      <trkpt lat="48.57994" lon="1.78235">
        <ele>150.58</ele>
        <time>2015-03-15T11:04:51Z</time>
      </trkpt>
      <trkpt lat="48.57993" lon="1.78233">
        <ele>150.58</ele>
        <time>2015-03-15T11:04:53Z</time>
      </trkpt>
      <trkpt lat="48.57989" lon="1.78229">
        <ele>150.58</ele>
        <time>2015-03-15T11:04:57Z</time>
      </trkpt>
      <trkpt lat="48.5798" lon="1.78221">
        <ele>151.06</ele>
        <time>2015-03-15T11:05:07Z</time>
      </trkpt>
      <trkpt lat="48.5798" lon="1.78218">
        <ele>151.06</ele>
        <time>2015-03-15T11:05:09Z</time>
      </trkpt>
      <trkpt lat="48.57978" lon="1.78204">
        <ele>151.54</ele>
        <time>2015-03-15T11:05:18Z</time>
      </trkpt>
      <trkpt lat="48.57979" lon="1.78196">
        <ele>152.03</ele>
        <time>2015-03-15T11:05:26Z</time>
      </trkpt>
      <trkpt lat="48.57981" lon="1.78197">
        <ele>152.51</ele>
        <time>2015-03-15T11:05:46Z</time>
      </trkpt>
      <trkpt lat="48.57982" lon="1.78197">
        <ele>152.51</ele>
        <time>2015-03-15T11:05:52Z</time>
      </trkpt>
      <trkpt lat="48.57981" lon="1.78194">
        <ele>160.68</ele>
        <time>2015-03-15T12:57:07Z</time>
      </trkpt>
      <trkpt lat="48.57983" lon="1.78184">
        <ele>160.68</ele>
        <time>2015-03-15T12:57:08Z</time>
      </trkpt>
      <trkpt lat="48.57979" lon="1.7819">
        <ele>160.2</ele>
        <time>2015-03-15T12:57:17Z</time>
      </trkpt>
      <trkpt lat="48.57981" lon="1.78192">
        <ele>158.27</ele>
        <time>2015-03-15T12:57:24Z</time>
      </trkpt>
      <trkpt lat="48.57982" lon="1.7819">
        <ele>156.35</ele>
        <time>2015-03-15T12:57:36Z</time>
      </trkpt>
      <trkpt lat="48.57985" lon="1.78188">
        <ele>154.91</ele>
        <time>2015-03-15T12:57:50Z</time>
      </trkpt>
      <trkpt lat="48.57981" lon="1.78186">
        <ele>154.43</ele>
        <time>2015-03-15T12:58:06Z</time>
      </trkpt>
      <trkpt lat="48.57979" lon="1.78191">
        <ele>154.43</ele>
        <time>2015-03-15T12:58:30Z</time>
      </trkpt>
      <trkpt lat="48.5798" lon="1.78192">
        <ele>153.47</ele>
        <time>2015-03-15T12:58:39Z</time>
      </trkpt>
      <trkpt lat="48.5798" lon="1.78193">
        <ele>153.47</ele>
        <time>2015-03-15T12:58:57Z</time>
      </trkpt>
      <trkpt lat="48.57981" lon="1.78193">
        <ele>153.47</ele>
        <time>2015-03-15T12:59:04Z</time>
      </trkpt>
      <trkpt lat="48.57981" lon="1.78193">
        <ele>153.47</ele>
        <time>2015-03-15T12:59:19Z</time>
      </trkpt>
      <trkpt lat="48.57979" lon="1.78191">
        <ele>152.51</ele>
        <time>2015-03-15T12:59:34Z</time>
      </trkpt>
      <trkpt lat="48.57979" lon="1.78192">
        <ele>153.95</ele>
        <time>2015-03-15T12:59:47Z</time>
      </trkpt>
      <trkpt lat="48.57978" lon="1.78192">
        <ele>153.95</ele>
        <time>2015-03-15T13:00:03Z</time>
      </trkpt>
      <trkpt lat="48.57978" lon="1.78191">
        <ele>153.47</ele>
        <time>2015-03-15T13:00:11Z</time>
      </trkpt>
      <trkpt lat="48.57978" lon="1.78191">
        <ele>153.47</ele>
        <time>2015-03-15T13:00:22Z</time>
      </trkpt>
      <trkpt lat="48.57978" lon="1.78193">
        <ele>153.47</ele>
        <time>2015-03-15T13:00:35Z</time>
      </trkpt>
      <trkpt lat="48.5798" lon="1.78196">
        <ele>153.47</ele>
        <time>2015-03-15T13:00:44Z</time>
      </trkpt>
      <trkpt lat="48.5798" lon="1.78195">
        <ele>153.47</ele>
        <time>2015-03-15T13:00:55Z</time>
      </trkpt>
      <trkpt lat="48.57984" lon="1.78188">
        <ele>153.47</ele>
        <time>2015-03-15T13:01:02Z</time>
      </trkpt>
      <trkpt lat="48.57985" lon="1.78183">
        <ele>153.47</ele>
        <time>2015-03-15T13:01:06Z</time>
      </trkpt>
      <trkpt lat="48.57988" lon="1.78179">
        <ele>153.95</ele>
        <time>2015-03-15T13:01:10Z</time>
      </trkpt>
      <trkpt lat="48.57992" lon="1.7816">
        <ele>154.43</ele>
        <time>2015-03-15T13:01:21Z</time>
      </trkpt>
      <trkpt lat="48.57995" lon="1.78141">
        <ele>155.39</ele>
        <time>2015-03-15T13:01:31Z</time>
      </trkpt>
      <trkpt lat="48.57999" lon="1.78123">
        <ele>155.87</ele>
        <time>2015-03-15T13:01:41Z</time>
      </trkpt>
      <trkpt lat="48.58002" lon="1.78104">
        <ele>155.87</ele>
        <time>2015-03-15T13:01:52Z</time>
      </trkpt>
      <trkpt lat="48.58005" lon="1.78088">
        <ele>156.35</ele>
        <time>2015-03-15T13:02:01Z</time>
      </trkpt>
      <trkpt lat="48.5801" lon="1.78071">
        <ele>156.35</ele>
        <time>2015-03-15T13:02:11Z</time>
      </trkpt>
      <trkpt lat="48.58013" lon="1.78061">
        <ele>156.35</ele>
        <time>2015-03-15T13:02:19Z</time>
      </trkpt>
      <trkpt lat="48.58016" lon="1.78047">
        <ele>156.35</ele>
        <time>2015-03-15T13:02:30Z</time>
      </trkpt>
      <trkpt lat="48.58015" lon="1.78043">
        <ele>156.83</ele>
        <time>2015-03-15T13:02:36Z</time>
      </trkpt>
      <trkpt lat="48.5802" lon="1.78028">
        <ele>156.83</ele>
        <time>2015-03-15T13:02:44Z</time>
      </trkpt>
      <trkpt lat="48.58023" lon="1.78008">
        <ele>156.83</ele>
        <time>2015-03-15T13:02:54Z</time>
      </trkpt>
      <trkpt lat="48.58024" lon="1.77992">
        <ele>155.87</ele>
        <time>2015-03-15T13:03:03Z</time>
      </trkpt>
      <trkpt lat="48.58027" lon="1.77973">
        <ele>154.91</ele>
        <time>2015-03-15T13:03:14Z</time>
      </trkpt>
      <trkpt lat="48.5803" lon="1.77951">
        <ele>154.43</ele>
        <time>2015-03-15T13:03:26Z</time>
      </trkpt>
      <trkpt lat="48.58031" lon="1.77934">
        <ele>154.91</ele>
        <time>2015-03-15T13:03:34Z</time>
      </trkpt>
      <trkpt lat="48.58034" lon="1.77918">
        <ele>153.95</ele>
        <time>2015-03-15T13:03:44Z</time>
      </trkpt>
      <trkpt lat="48.58034" lon="1.77909">
        <ele>153.47</ele>
        <time>2015-03-15T13:03:52Z</time>
      </trkpt>
      <trkpt lat="48.58033" lon="1.77891">
        <ele>153.47</ele>
        <time>2015-03-15T13:04:01Z</time>
      </trkpt>
      <trkpt lat="48.58036" lon="1.77872">
        <ele>152.51</ele>
        <time>2015-03-15T13:04:11Z</time>
      </trkpt>
      <trkpt lat="48.58037" lon="1.7787">
        <ele>152.51</ele>
        <time>2015-03-15T13:04:15Z</time>
      </trkpt>
      <trkpt lat="48.58044" lon="1.77873">
        <ele>151.54</ele>
        <time>2015-03-15T13:04:23Z</time>
      </trkpt>
      <trkpt lat="48.58045" lon="1.77874">
        <ele>151.54</ele>
        <time>2015-03-15T13:04:25Z</time>
      </trkpt>
      <trkpt lat="48.58052" lon="1.7788">
        <ele>150.58</ele>
        <time>2015-03-15T13:04:36Z</time>
      </trkpt>
      <trkpt lat="48.58056" lon="1.77882">
        <ele>149.62</ele>
        <time>2015-03-15T13:04:43Z</time>
      </trkpt>
      <trkpt lat="48.58064" lon="1.77888">
        <ele>148.66</ele>
        <time>2015-03-15T13:04:51Z</time>
      </trkpt>
      <trkpt lat="48.58072" lon="1.77895">
        <ele>148.18</ele>
        <time>2015-03-15T13:04:59Z</time>
      </trkpt>
      <trkpt lat="48.5808" lon="1.779">
        <ele>147.22</ele>
        <time>2015-03-15T13:05:09Z</time>
      </trkpt>
      <trkpt lat="48.58088" lon="1.77908">
        <ele>146.74</ele>
        <time>2015-03-15T13:05:18Z</time>
      </trkpt>
      <trkpt lat="48.58096" lon="1.77914">
        <ele>145.78</ele>
        <time>2015-03-15T13:05:27Z</time>
      </trkpt>
      <trkpt lat="48.58105" lon="1.7792">
        <ele>144.82</ele>
        <time>2015-03-15T13:05:37Z</time>
      </trkpt>
      <trkpt lat="48.58114" lon="1.77926">
        <ele>144.34</ele>
        <time>2015-03-15T13:05:46Z</time>
      </trkpt>
      <trkpt lat="48.58121" lon="1.77935">
        <ele>144.34</ele>
        <time>2015-03-15T13:05:54Z</time>
      </trkpt>
      <trkpt lat="48.58129" lon="1.77944">
        <ele>143.85</ele>
        <time>2015-03-15T13:06:03Z</time>
      </trkpt>
      <trkpt lat="48.58135" lon="1.7795">
        <ele>143.85</ele>
        <time>2015-03-15T13:06:10Z</time>
      </trkpt>
      <trkpt lat="48.58142" lon="1.77958">
        <ele>143.85</ele>
        <time>2015-03-15T13:06:19Z</time>
      </trkpt>
      <trkpt lat="48.58149" lon="1.77964">
        <ele>143.85</ele>
        <time>2015-03-15T13:06:28Z</time>
      </trkpt>
      <trkpt lat="48.58158" lon="1.77974">
        <ele>143.37</ele>
        <time>2015-03-15T13:06:38Z</time>
      </trkpt>
      <trkpt lat="48.58165" lon="1.77984">
        <ele>142.41</ele>
        <time>2015-03-15T13:06:46Z</time>
      </trkpt>
      <trkpt lat="48.58172" lon="1.77992">
        <ele>142.41</ele>
        <time>2015-03-15T13:06:54Z</time>
      </trkpt>
      <trkpt lat="48.58179" lon="1.78">
        <ele>142.41</ele>
        <time>2015-03-15T13:07:03Z</time>
      </trkpt>
      <trkpt lat="48.58187" lon="1.78012">
        <ele>141.45</ele>
        <time>2015-03-15T13:07:13Z</time>
      </trkpt>
      <trkpt lat="48.58196" lon="1.78023">
        <ele>140.97</ele>
        <time>2015-03-15T13:07:23Z</time>
      </trkpt>
      <trkpt lat="48.582" lon="1.7803">
        <ele>140.97</ele>
        <time>2015-03-15T13:07:32Z</time>
      </trkpt>
      <trkpt lat="48.58204" lon="1.7804">
        <ele>140.97</ele>
        <time>2015-03-15T13:07:40Z</time>
      </trkpt>
      <trkpt lat="48.58208" lon="1.7805">
        <ele>140.97</ele>
        <time>2015-03-15T13:07:48Z</time>
      </trkpt>
      <trkpt lat="48.58214" lon="1.78063">
        <ele>141.93</ele>
        <time>2015-03-15T13:07:57Z</time>
      </trkpt>
      <trkpt lat="48.58221" lon="1.78073">
        <ele>141.93</ele>
        <time>2015-03-15T13:08:06Z</time>
      </trkpt>
      <trkpt lat="48.58229" lon="1.78084">
        <ele>141.93</ele>
        <time>2015-03-15T13:08:16Z</time>
      </trkpt>
      <trkpt lat="48.58239" lon="1.78085">
        <ele>141.93</ele>
        <time>2015-03-15T13:08:25Z</time>
      </trkpt>
      <trkpt lat="48.58242" lon="1.78086">
        <ele>141.93</ele>
        <time>2015-03-15T13:08:28Z</time>
      </trkpt>
      <trkpt lat="48.58249" lon="1.78091">
        <ele>142.41</ele>
        <time>2015-03-15T13:08:37Z</time>
      </trkpt>
      <trkpt lat="48.58258" lon="1.78097">
        <ele>142.41</ele>
        <time>2015-03-15T13:08:47Z</time>
      </trkpt>
      <trkpt lat="48.58263" lon="1.78099">
        <ele>142.41</ele>
        <time>2015-03-15T13:08:51Z</time>
      </trkpt>
      <trkpt lat="48.58269" lon="1.78104">
        <ele>142.41</ele>
        <time>2015-03-15T13:08:59Z</time>
      </trkpt>
      <trkpt lat="48.5827" lon="1.78106">
        <ele>142.89</ele>
        <time>2015-03-15T13:09:01Z</time>
      </trkpt>
      <trkpt lat="48.58275" lon="1.78113">
        <ele>142.89</ele>
        <time>2015-03-15T13:09:07Z</time>
      </trkpt>
      <trkpt lat="48.58283" lon="1.78114">
        <ele>143.37</ele>
        <time>2015-03-15T13:09:15Z</time>
      </trkpt>
      <trkpt lat="48.58289" lon="1.78106">
        <ele>143.85</ele>
        <time>2015-03-15T13:09:29Z</time>
      </trkpt>
      <trkpt lat="48.58294" lon="1.7811">
        <ele>144.34</ele>
        <time>2015-03-15T13:09:37Z</time>
      </trkpt>
      <trkpt lat="48.58296" lon="1.78112">
        <ele>144.34</ele>
        <time>2015-03-15T13:09:40Z</time>
      </trkpt>
      <trkpt lat="48.58299" lon="1.78115">
        <ele>144.34</ele>
        <time>2015-03-15T13:09:43Z</time>
      </trkpt>
      <trkpt lat="48.58304" lon="1.78124">
        <ele>145.3</ele>
        <time>2015-03-15T13:09:52Z</time>
      </trkpt>
      <trkpt lat="48.58305" lon="1.78129">
        <ele>146.26</ele>
        <time>2015-03-15T13:09:59Z</time>
      </trkpt>
      <trkpt lat="48.58305" lon="1.78129">
        <ele>146.26</ele>
        <time>2015-03-15T13:10:10Z</time>
      </trkpt>
      <trkpt lat="48.58307" lon="1.78133">
        <ele>146.74</ele>
        <time>2015-03-15T13:10:18Z</time>
      </trkpt>
      <trkpt lat="48.58309" lon="1.78139">
        <ele>148.18</ele>
        <time>2015-03-15T13:10:26Z</time>
      </trkpt>
      <trkpt lat="48.58313" lon="1.78145">
        <ele>149.62</ele>
        <time>2015-03-15T13:10:34Z</time>
      </trkpt>
      <trkpt lat="48.58319" lon="1.78155">
        <ele>151.06</ele>
        <time>2015-03-15T13:10:45Z</time>
      </trkpt>
      <trkpt lat="48.58325" lon="1.78164">
        <ele>152.51</ele>
        <time>2015-03-15T13:10:55Z</time>
      </trkpt>
      <trkpt lat="48.58328" lon="1.7817">
        <ele>152.03</ele>
        <time>2015-03-15T13:11:04Z</time>
      </trkpt>
      <trkpt lat="48.58334" lon="1.78179">
        <ele>152.51</ele>
        <time>2015-03-15T13:11:11Z</time>
      </trkpt>
      <trkpt lat="48.58335" lon="1.7818">
        <ele>153.95</ele>
        <time>2015-03-15T13:11:13Z</time>
      </trkpt>
      <trkpt lat="48.58339" lon="1.78186">
        <ele>154.91</ele>
        <time>2015-03-15T13:11:22Z</time>
      </trkpt>
      <trkpt lat="48.58342" lon="1.78186">
        <ele>155.39</ele>
        <time>2015-03-15T13:11:33Z</time>
      </trkpt>
      <trkpt lat="48.58345" lon="1.78183">
        <ele>155.39</ele>
        <time>2015-03-15T13:11:42Z</time>
      </trkpt>
      <trkpt lat="48.58344" lon="1.78182">
        <ele>155.39</ele>
        <time>2015-03-15T13:11:56Z</time>
      </trkpt>
      <trkpt lat="48.58344" lon="1.78183">
        <ele>155.39</ele>
        <time>2015-03-15T13:12:14Z</time>
      </trkpt>
      <trkpt lat="48.58346" lon="1.78182">
        <ele>155.39</ele>
        <time>2015-03-15T13:12:28Z</time>
      </trkpt>
      <trkpt lat="48.58349" lon="1.78179">
        <ele>155.39</ele>
        <time>2015-03-15T13:12:40Z</time>
      </trkpt>
      <trkpt lat="48.5835" lon="1.78177">
        <ele>155.39</ele>
        <time>2015-03-15T13:12:57Z</time>
      </trkpt>
      <trkpt lat="48.58351" lon="1.78172">
        <ele>155.39</ele>
        <time>2015-03-15T13:13:06Z</time>
      </trkpt>
      <trkpt lat="48.58355" lon="1.7816">
        <ele>154.43</ele>
        <time>2015-03-15T13:13:14Z</time>
      </trkpt>
      <trkpt lat="48.58355" lon="1.78158">
        <ele>154.43</ele>
        <time>2015-03-15T13:13:15Z</time>
      </trkpt>
      <trkpt lat="48.58359" lon="1.78145">
        <ele>154.43</ele>
        <time>2015-03-15T13:13:24Z</time>
      </trkpt>
      <trkpt lat="48.58364" lon="1.7813">
        <ele>153.95</ele>
        <time>2015-03-15T13:13:34Z</time>
      </trkpt>
      <trkpt lat="48.58366" lon="1.78114">
        <ele>153.95</ele>
        <time>2015-03-15T13:13:43Z</time>
      </trkpt>
      <trkpt lat="48.58368" lon="1.78099">
        <ele>153.95</ele>
        <time>2015-03-15T13:13:52Z</time>
      </trkpt>
      <trkpt lat="48.58372" lon="1.78079">
        <ele>153.95</ele>
        <time>2015-03-15T13:14:04Z</time>
      </trkpt>
      <trkpt lat="48.58375" lon="1.78062">
        <ele>153.95</ele>
        <time>2015-03-15T13:14:14Z</time>
      </trkpt>
      <trkpt lat="48.58378" lon="1.78041">
        <ele>153.95</ele>
        <time>2015-03-15T13:14:26Z</time>
      </trkpt>
      <trkpt lat="48.5838" lon="1.78026">
        <ele>156.35</ele>
        <time>2015-03-15T13:14:35Z</time>
      </trkpt>
      <trkpt lat="48.58386" lon="1.78012">
        <ele>154.91</ele>
        <time>2015-03-15T13:14:45Z</time>
      </trkpt>
      <trkpt lat="48.58388" lon="1.77996">
        <ele>154.91</ele>
        <time>2015-03-15T13:14:54Z</time>
      </trkpt>
      <trkpt lat="48.58391" lon="1.77984">
        <ele>154.91</ele>
        <time>2015-03-15T13:15:02Z</time>
      </trkpt>
      <trkpt lat="48.58397" lon="1.77973">
        <ele>154.91</ele>
        <time>2015-03-15T13:15:11Z</time>
      </trkpt>
      <trkpt lat="48.58406" lon="1.77965">
        <ele>155.87</ele>
        <time>2015-03-15T13:15:20Z</time>
      </trkpt>
      <trkpt lat="48.58414" lon="1.7796">
        <ele>156.83</ele>
        <time>2015-03-15T13:15:28Z</time>
      </trkpt>
      <trkpt lat="48.58421" lon="1.77955">
        <ele>157.31</ele>
        <time>2015-03-15T13:15:36Z</time>
      </trkpt>
      <trkpt lat="48.58429" lon="1.77949">
        <ele>157.79</ele>
        <time>2015-03-15T13:15:44Z</time>
      </trkpt>
      <trkpt lat="48.5844" lon="1.77943">
        <ele>157.79</ele>
        <time>2015-03-15T13:15:54Z</time>
      </trkpt>
      <trkpt lat="48.5845" lon="1.77937">
        <ele>158.27</ele>
        <time>2015-03-15T13:16:04Z</time>
      </trkpt>
      <trkpt lat="48.58461" lon="1.77931">
        <ele>159.24</ele>
        <time>2015-03-15T13:16:14Z</time>
      </trkpt>
      <trkpt lat="48.58472" lon="1.77927">
        <ele>159.24</ele>
        <time>2015-03-15T13:16:23Z</time>
      </trkpt>
      <trkpt lat="48.58482" lon="1.77921">
        <ele>159.72</ele>
        <time>2015-03-15T13:16:32Z</time>
      </trkpt>
      <trkpt lat="48.58492" lon="1.77913">
        <ele>160.2</ele>
        <time>2015-03-15T13:16:42Z</time>
      </trkpt>
      <trkpt lat="48.58504" lon="1.77907">
        <ele>160.2</ele>
        <time>2015-03-15T13:16:52Z</time>
      </trkpt>
      <trkpt lat="48.58514" lon="1.77902">
        <ele>161.16</ele>
        <time>2015-03-15T13:17:02Z</time>
      </trkpt>
      <trkpt lat="48.58525" lon="1.77899">
        <ele>161.16</ele>
        <time>2015-03-15T13:17:11Z</time>
      </trkpt>
      <trkpt lat="48.58531" lon="1.77896">
        <ele>161.16</ele>
        <time>2015-03-15T13:17:17Z</time>
      </trkpt>
      <trkpt lat="48.58541" lon="1.77893">
        <ele>161.16</ele>
        <time>2015-03-15T13:17:25Z</time>
      </trkpt>
      <trkpt lat="48.58549" lon="1.77889">
        <ele>161.16</ele>
        <time>2015-03-15T13:17:33Z</time>
      </trkpt>
      <trkpt lat="48.58558" lon="1.77886">
        <ele>161.64</ele>
        <time>2015-03-15T13:17:41Z</time>
      </trkpt>
      <trkpt lat="48.5857" lon="1.77882">
        <ele>161.64</ele>
        <time>2015-03-15T13:17:52Z</time>
      </trkpt>
      <trkpt lat="48.58582" lon="1.77876">
        <ele>162.12</ele>
        <time>2015-03-15T13:18:02Z</time>
      </trkpt>
      <trkpt lat="48.58591" lon="1.77873">
        <ele>162.12</ele>
        <time>2015-03-15T13:18:10Z</time>
      </trkpt>
      <trkpt lat="48.58596" lon="1.77869">
        <ele>165.96</ele>
        <time>2015-03-15T13:18:15Z</time>
      </trkpt>
      <trkpt lat="48.58597" lon="1.77869">
        <ele>162.12</ele>
        <time>2015-03-15T13:18:16Z</time>
      </trkpt>
      <trkpt lat="48.58606" lon="1.77865">
        <ele>164.04</ele>
        <time>2015-03-15T13:18:25Z</time>
      </trkpt>
      <trkpt lat="48.58617" lon="1.77862">
        <ele>162.12</ele>
        <time>2015-03-15T13:18:34Z</time>
      </trkpt>
      <trkpt lat="48.58624" lon="1.77855">
        <ele>161.64</ele>
        <time>2015-03-15T13:18:40Z</time>
      </trkpt>
      <trkpt lat="48.58634" lon="1.77851">
        <ele>162.12</ele>
        <time>2015-03-15T13:18:49Z</time>
      </trkpt>
      <trkpt lat="48.58642" lon="1.77849">
        <ele>162.12</ele>
        <time>2015-03-15T13:18:57Z</time>
      </trkpt>
      <trkpt lat="48.58651" lon="1.77847">
        <ele>161.64</ele>
        <time>2015-03-15T13:19:05Z</time>
      </trkpt>
      <trkpt lat="48.58659" lon="1.77843">
        <ele>161.64</ele>
        <time>2015-03-15T13:19:13Z</time>
      </trkpt>
      <trkpt lat="48.58661" lon="1.77843">
        <ele>161.64</ele>
        <time>2015-03-15T13:19:15Z</time>
      </trkpt>
      <trkpt lat="48.58671" lon="1.77842">
        <ele>161.64</ele>
        <time>2015-03-15T13:19:25Z</time>
      </trkpt>
      <trkpt lat="48.58681" lon="1.77838">
        <ele>161.64</ele>
        <time>2015-03-15T13:19:33Z</time>
      </trkpt>
      <trkpt lat="48.58693" lon="1.77834">
        <ele>161.16</ele>
        <time>2015-03-15T13:19:43Z</time>
      </trkpt>
      <trkpt lat="48.58698" lon="1.77832">
        <ele>160.68</ele>
        <time>2015-03-15T13:19:48Z</time>
      </trkpt>
      <trkpt lat="48.5871" lon="1.77832">
        <ele>160.68</ele>
        <time>2015-03-15T13:19:59Z</time>
      </trkpt>
      <trkpt lat="48.58719" lon="1.77834">
        <ele>161.16</ele>
        <time>2015-03-15T13:20:07Z</time>
      </trkpt>
      <trkpt lat="48.58732" lon="1.77833">
        <ele>160.2</ele>
        <time>2015-03-15T13:20:17Z</time>
      </trkpt>
      <trkpt lat="48.58744" lon="1.77831">
        <ele>160.2</ele>
        <time>2015-03-15T13:20:26Z</time>
      </trkpt>
      <trkpt lat="48.58755" lon="1.77832">
        <ele>160.2</ele>
        <time>2015-03-15T13:20:35Z</time>
      </trkpt>
      <trkpt lat="48.58765" lon="1.77831">
        <ele>159.72</ele>
        <time>2015-03-15T13:20:43Z</time>
      </trkpt>
      <trkpt lat="48.58774" lon="1.77833">
        <ele>159.72</ele>
        <time>2015-03-15T13:20:51Z</time>
      </trkpt>
      <trkpt lat="48.58784" lon="1.77835">
        <ele>159.72</ele>
        <time>2015-03-15T13:21:00Z</time>
      </trkpt>
      <trkpt lat="48.58795" lon="1.7784">
        <ele>159.72</ele>
        <time>2015-03-15T13:21:10Z</time>
      </trkpt>
      <trkpt lat="48.58802" lon="1.7784">
        <ele>159.72</ele>
        <time>2015-03-15T13:21:18Z</time>
      </trkpt>
      <trkpt lat="48.58815" lon="1.77842">
        <ele>159.72</ele>
        <time>2015-03-15T13:21:29Z</time>
      </trkpt>
      <trkpt lat="48.58829" lon="1.77846">
        <ele>160.2</ele>
        <time>2015-03-15T13:21:39Z</time>
      </trkpt>
      <trkpt lat="48.58834" lon="1.77848">
        <ele>161.16</ele>
        <time>2015-03-15T13:21:43Z</time>
      </trkpt>
      <trkpt lat="48.58844" lon="1.77858">
        <ele>161.16</ele>
        <time>2015-03-15T13:21:53Z</time>
      </trkpt>
      <trkpt lat="48.58848" lon="1.77856">
        <ele>161.16</ele>
        <time>2015-03-15T13:22:02Z</time>
      </trkpt>
      <trkpt lat="48.58852" lon="1.77853">
        <ele>161.16</ele>
        <time>2015-03-15T13:22:18Z</time>
      </trkpt>
      <trkpt lat="48.58854" lon="1.77852">
        <ele>159.72</ele>
        <time>2015-03-15T13:22:29Z</time>
      </trkpt>
      <trkpt lat="48.58856" lon="1.77849">
        <ele>161.64</ele>
        <time>2015-03-15T13:22:37Z</time>
      </trkpt>
      <trkpt lat="48.58865" lon="1.7784">
        <ele>161.64</ele>
        <time>2015-03-15T13:22:45Z</time>
      </trkpt>
      <trkpt lat="48.58871" lon="1.77834">
        <ele>162.12</ele>
        <time>2015-03-15T13:22:52Z</time>
      </trkpt>
      <trkpt lat="48.58872" lon="1.77827">
        <ele>162.12</ele>
        <time>2015-03-15T13:22:59Z</time>
      </trkpt>
      <trkpt lat="48.58871" lon="1.77823">
        <ele>162.12</ele>
        <time>2015-03-15T13:23:02Z</time>
      </trkpt>
      <trkpt lat="48.58869" lon="1.77809">
        <ele>160.2</ele>
        <time>2015-03-15T13:23:11Z</time>
      </trkpt>
      <trkpt lat="48.58868" lon="1.77806">
        <ele>163.56</ele>
        <time>2015-03-15T13:23:14Z</time>
      </trkpt>
      <trkpt lat="48.58868" lon="1.77805">
        <ele>161.16</ele>
        <time>2015-03-15T13:23:15Z</time>
      </trkpt>
      <trkpt lat="48.58866" lon="1.77792">
        <ele>160.68</ele>
        <time>2015-03-15T13:23:24Z</time>
      </trkpt>
      <trkpt lat="48.58863" lon="1.77778">
        <ele>161.64</ele>
        <time>2015-03-15T13:23:32Z</time>
      </trkpt>
      <trkpt lat="48.58861" lon="1.77761">
        <ele>161.64</ele>
        <time>2015-03-15T13:23:41Z</time>
      </trkpt>
      <trkpt lat="48.58859" lon="1.77742">
        <ele>161.64</ele>
        <time>2015-03-15T13:23:51Z</time>
      </trkpt>
      <trkpt lat="48.58856" lon="1.77725">
        <ele>160.2</ele>
        <time>2015-03-15T13:24:00Z</time>
      </trkpt>
      <trkpt lat="48.58855" lon="1.77714">
        <ele>160.2</ele>
        <time>2015-03-15T13:24:07Z</time>
      </trkpt>
      <trkpt lat="48.58853" lon="1.777">
        <ele>159.72</ele>
        <time>2015-03-15T13:24:15Z</time>
      </trkpt>
      <trkpt lat="48.58851" lon="1.77689">
        <ele>159.24</ele>
        <time>2015-03-15T13:24:22Z</time>
      </trkpt>
      <trkpt lat="48.58849" lon="1.77679">
        <ele>159.72</ele>
        <time>2015-03-15T13:24:28Z</time>
      </trkpt>
      <trkpt lat="48.5885" lon="1.7766">
        <ele>159.72</ele>
        <time>2015-03-15T13:24:39Z</time>
      </trkpt>
      <trkpt lat="48.58851" lon="1.77644">
        <ele>160.68</ele>
        <time>2015-03-15T13:24:49Z</time>
      </trkpt>
      <trkpt lat="48.58852" lon="1.77629">
        <ele>160.68</ele>
        <time>2015-03-15T13:24:58Z</time>
      </trkpt>
      <trkpt lat="48.58853" lon="1.77628">
        <ele>160.68</ele>
        <time>2015-03-15T13:24:59Z</time>
      </trkpt>
      <trkpt lat="48.58855" lon="1.77612">
        <ele>160.68</ele>
        <time>2015-03-15T13:25:09Z</time>
      </trkpt>
      <trkpt lat="48.58859" lon="1.77595">
        <ele>160.68</ele>
        <time>2015-03-15T13:25:20Z</time>
      </trkpt>
      <trkpt lat="48.5886" lon="1.77583">
        <ele>160.68</ele>
        <time>2015-03-15T13:25:27Z</time>
      </trkpt>
      <trkpt lat="48.58861" lon="1.77576">
        <ele>160.68</ele>
        <time>2015-03-15T13:25:31Z</time>
      </trkpt>
      <trkpt lat="48.58862" lon="1.77557">
        <ele>159.72</ele>
        <time>2015-03-15T13:25:41Z</time>
      </trkpt>
      <trkpt lat="48.58863" lon="1.77542">
        <ele>159.72</ele>
        <time>2015-03-15T13:25:49Z</time>
      </trkpt>
      <trkpt lat="48.58865" lon="1.77525">
        <ele>159.72</ele>
        <time>2015-03-15T13:25:58Z</time>
      </trkpt>
      <trkpt lat="48.58868" lon="1.77511">
        <ele>159.72</ele>
        <time>2015-03-15T13:26:06Z</time>
      </trkpt>
      <trkpt lat="48.58871" lon="1.77494">
        <ele>159.72</ele>
        <time>2015-03-15T13:26:15Z</time>
      </trkpt>
      <trkpt lat="48.58873" lon="1.77477">
        <ele>159.72</ele>
        <time>2015-03-15T13:26:24Z</time>
      </trkpt>
      <trkpt lat="48.58874" lon="1.77466">
        <ele>159.24</ele>
        <time>2015-03-15T13:26:31Z</time>
      </trkpt>
      <trkpt lat="48.58876" lon="1.77453">
        <ele>159.24</ele>
        <time>2015-03-15T13:26:39Z</time>
      </trkpt>
      <trkpt lat="48.58876" lon="1.77446">
        <ele>159.24</ele>
        <time>2015-03-15T13:26:43Z</time>
      </trkpt>
      <trkpt lat="48.58879" lon="1.77425">
        <ele>159.24</ele>
        <time>2015-03-15T13:26:54Z</time>
      </trkpt>
      <trkpt lat="48.5888" lon="1.77411">
        <ele>158.75</ele>
        <time>2015-03-15T13:27:02Z</time>
      </trkpt>
      <trkpt lat="48.58882" lon="1.77389">
        <ele>158.75</ele>
        <time>2015-03-15T13:27:13Z</time>
      </trkpt>
      <trkpt lat="48.58885" lon="1.77374">
        <ele>158.75</ele>
        <time>2015-03-15T13:27:21Z</time>
      </trkpt>
      <trkpt lat="48.58886" lon="1.77361">
        <ele>158.27</ele>
        <time>2015-03-15T13:27:29Z</time>
      </trkpt>
      <trkpt lat="48.58887" lon="1.77347">
        <ele>158.75</ele>
        <time>2015-03-15T13:27:38Z</time>
      </trkpt>
      <trkpt lat="48.58889" lon="1.77338">
        <ele>158.27</ele>
        <time>2015-03-15T13:27:43Z</time>
      </trkpt>
      <trkpt lat="48.58888" lon="1.77327">
        <ele>158.27</ele>
        <time>2015-03-15T13:27:49Z</time>
      </trkpt>
      <trkpt lat="48.58891" lon="1.77305">
        <ele>157.31</ele>
        <time>2015-03-15T13:28:00Z</time>
      </trkpt>
      <trkpt lat="48.58891" lon="1.77294">
        <ele>157.31</ele>
        <time>2015-03-15T13:28:07Z</time>
      </trkpt>
      <trkpt lat="48.58892" lon="1.77285">
        <ele>156.35</ele>
        <time>2015-03-15T13:28:13Z</time>
      </trkpt>
      <trkpt lat="48.58893" lon="1.77272">
        <ele>156.35</ele>
        <time>2015-03-15T13:28:21Z</time>
      </trkpt>
      <trkpt lat="48.58894" lon="1.77258">
        <ele>155.39</ele>
        <time>2015-03-15T13:28:29Z</time>
      </trkpt>
      <trkpt lat="48.58896" lon="1.7725">
        <ele>155.39</ele>
        <time>2015-03-15T13:28:33Z</time>
      </trkpt>
      <trkpt lat="48.58897" lon="1.77234">
        <ele>154.91</ele>
        <time>2015-03-15T13:28:41Z</time>
      </trkpt>
      <trkpt lat="48.58901" lon="1.77224">
        <ele>154.43</ele>
        <time>2015-03-15T13:28:47Z</time>
      </trkpt>
      <trkpt lat="48.58907" lon="1.77213">
        <ele>154.43</ele>
        <time>2015-03-15T13:28:55Z</time>
      </trkpt>
      <trkpt lat="48.58912" lon="1.77201">
        <ele>153.95</ele>
        <time>2015-03-15T13:29:03Z</time>
      </trkpt>
      <trkpt lat="48.58914" lon="1.77192">
        <ele>153.47</ele>
        <time>2015-03-15T13:29:11Z</time>
      </trkpt>
      <trkpt lat="48.58915" lon="1.77184">
        <ele>153.47</ele>
        <time>2015-03-15T13:29:19Z</time>
      </trkpt>
      <trkpt lat="48.58918" lon="1.77181">
        <ele>153.47</ele>
        <time>2015-03-15T13:29:27Z</time>
      </trkpt>
      <trkpt lat="48.58921" lon="1.77171">
        <ele>153.47</ele>
        <time>2015-03-15T13:29:36Z</time>
      </trkpt>
      <trkpt lat="48.58924" lon="1.77164">
        <ele>152.99</ele>
        <time>2015-03-15T13:29:43Z</time>
      </trkpt>
      <trkpt lat="48.58926" lon="1.77158">
        <ele>152.99</ele>
        <time>2015-03-15T13:29:50Z</time>
      </trkpt>
      <trkpt lat="48.58929" lon="1.77149">
        <ele>152.99</ele>
        <time>2015-03-15T13:29:57Z</time>
      </trkpt>
      <trkpt lat="48.58936" lon="1.77134">
        <ele>152.99</ele>
        <time>2015-03-15T13:30:06Z</time>
      </trkpt>
      <trkpt lat="48.58939" lon="1.77125">
        <ele>153.47</ele>
        <time>2015-03-15T13:30:11Z</time>
      </trkpt>
      <trkpt lat="48.5894" lon="1.77122">
        <ele>153.47</ele>
        <time>2015-03-15T13:30:20Z</time>
      </trkpt>
      <trkpt lat="48.58938" lon="1.77115">
        <ele>153.47</ele>
        <time>2015-03-15T13:30:27Z</time>
      </trkpt>
      <trkpt lat="48.58938" lon="1.77109">
        <ele>153.47</ele>
        <time>2015-03-15T13:30:34Z</time>
      </trkpt>
      <trkpt lat="48.58944" lon="1.77097">
        <ele>154.43</ele>
        <time>2015-03-15T13:30:42Z</time>
      </trkpt>
      <trkpt lat="48.58947" lon="1.77084">
        <ele>154.91</ele>
        <time>2015-03-15T13:30:51Z</time>
      </trkpt>
      <trkpt lat="48.58948" lon="1.77076">
        <ele>154.91</ele>
        <time>2015-03-15T13:30:58Z</time>
      </trkpt>
      <trkpt lat="48.58948" lon="1.77074">
        <ele>154.91</ele>
        <time>2015-03-15T13:31:00Z</time>
      </trkpt>
      <trkpt lat="48.5895" lon="1.7706">
        <ele>154.91</ele>
        <time>2015-03-15T13:31:09Z</time>
      </trkpt>
      <trkpt lat="48.58953" lon="1.77051">
        <ele>154.91</ele>
        <time>2015-03-15T13:31:17Z</time>
      </trkpt>
      <trkpt lat="48.58956" lon="1.7704">
        <ele>154.91</ele>
        <time>2015-03-15T13:31:24Z</time>
      </trkpt>
      <trkpt lat="48.58957" lon="1.77027">
        <ele>154.91</ele>
        <time>2015-03-15T13:31:31Z</time>
      </trkpt>
      <trkpt lat="48.58961" lon="1.77011">
        <ele>154.91</ele>
        <time>2015-03-15T13:31:40Z</time>
      </trkpt>
      <trkpt lat="48.58966" lon="1.76997">
        <ele>154.91</ele>
        <time>2015-03-15T13:31:49Z</time>
      </trkpt>
      <trkpt lat="48.5897" lon="1.76983">
        <ele>154.91</ele>
        <time>2015-03-15T13:31:58Z</time>
      </trkpt>
      <trkpt lat="48.58971" lon="1.76974">
        <ele>154.91</ele>
        <time>2015-03-15T13:32:04Z</time>
      </trkpt>
      <trkpt lat="48.58973" lon="1.76969">
        <ele>154.91</ele>
        <time>2015-03-15T13:32:08Z</time>
      </trkpt>
      <trkpt lat="48.58979" lon="1.76954">
        <ele>154.91</ele>
        <time>2015-03-15T13:32:18Z</time>
      </trkpt>
      <trkpt lat="48.58982" lon="1.76945">
        <ele>154.91</ele>
        <time>2015-03-15T13:32:24Z</time>
      </trkpt>
      <trkpt lat="48.58986" lon="1.76931">
        <ele>154.91</ele>
        <time>2015-03-15T13:32:33Z</time>
      </trkpt>
      <trkpt lat="48.58989" lon="1.76918">
        <ele>154.91</ele>
        <time>2015-03-15T13:32:41Z</time>
      </trkpt>
      <trkpt lat="48.5899" lon="1.76909">
        <ele>154.91</ele>
        <time>2015-03-15T13:32:47Z</time>
      </trkpt>
      <trkpt lat="48.58991" lon="1.76902">
        <ele>154.91</ele>
        <time>2015-03-15T13:32:51Z</time>
      </trkpt>
      <trkpt lat="48.58992" lon="1.76889">
        <ele>153.95</ele>
        <time>2015-03-15T13:33:00Z</time>
      </trkpt>
      <trkpt lat="48.5899" lon="1.76882">
        <ele>153.95</ele>
        <time>2015-03-15T13:33:09Z</time>
      </trkpt>
      <trkpt lat="48.5899" lon="1.7687">
        <ele>153.95</ele>
        <time>2015-03-15T13:33:17Z</time>
      </trkpt>
      <trkpt lat="48.5899" lon="1.76866">
        <ele>153.95</ele>
        <time>2015-03-15T13:33:19Z</time>
      </trkpt>
      <trkpt lat="48.58991" lon="1.76859">
        <ele>153.95</ele>
        <time>2015-03-15T13:33:23Z</time>
      </trkpt>
      <trkpt lat="48.58992" lon="1.76841">
        <ele>153.95</ele>
        <time>2015-03-15T13:33:33Z</time>
      </trkpt>
      <trkpt lat="48.58993" lon="1.76828">
        <ele>153.95</ele>
        <time>2015-03-15T13:33:41Z</time>
      </trkpt>
      <trkpt lat="48.58993" lon="1.76816">
        <ele>153.95</ele>
        <time>2015-03-15T13:33:49Z</time>
      </trkpt>
      <trkpt lat="48.58993" lon="1.7681">
        <ele>153.95</ele>
        <time>2015-03-15T13:33:52Z</time>
      </trkpt>
      <trkpt lat="48.58994" lon="1.76798">
        <ele>154.91</ele>
        <time>2015-03-15T13:34:01Z</time>
      </trkpt>
      <trkpt lat="48.58992" lon="1.76784">
        <ele>155.39</ele>
        <time>2015-03-15T13:34:09Z</time>
      </trkpt>
      <trkpt lat="48.58993" lon="1.76765">
        <ele>155.39</ele>
        <time>2015-03-15T13:34:19Z</time>
      </trkpt>
      <trkpt lat="48.58994" lon="1.76754">
        <ele>155.87</ele>
        <time>2015-03-15T13:34:27Z</time>
      </trkpt>
      <trkpt lat="48.58993" lon="1.76741">
        <ele>155.87</ele>
        <time>2015-03-15T13:34:35Z</time>
      </trkpt>
      <trkpt lat="48.58993" lon="1.76736">
        <ele>155.87</ele>
        <time>2015-03-15T13:34:38Z</time>
      </trkpt>
      <trkpt lat="48.58995" lon="1.76718">
        <ele>155.87</ele>
        <time>2015-03-15T13:34:48Z</time>
      </trkpt>
      <trkpt lat="48.5899" lon="1.76713">
        <ele>155.87</ele>
        <time>2015-03-15T13:34:57Z</time>
      </trkpt>
      <trkpt lat="48.58987" lon="1.76713">
        <ele>155.87</ele>
        <time>2015-03-15T13:35:07Z</time>
      </trkpt>
      <trkpt lat="48.58988" lon="1.76711">
        <ele>155.87</ele>
        <time>2015-03-15T13:35:16Z</time>
      </trkpt>
      <trkpt lat="48.58991" lon="1.76705">
        <ele>155.87</ele>
        <time>2015-03-15T13:35:23Z</time>
      </trkpt>
      <trkpt lat="48.58989" lon="1.76705">
        <ele>155.87</ele>
        <time>2015-03-15T13:35:33Z</time>
      </trkpt>
      <trkpt lat="48.58988" lon="1.76704">
        <ele>155.87</ele>
        <time>2015-03-15T13:35:46Z</time>
      </trkpt>
      <trkpt lat="48.58987" lon="1.76704">
        <ele>155.87</ele>
        <time>2015-03-15T13:36:01Z</time>
      </trkpt>
      <trkpt lat="48.58988" lon="1.76702">
        <ele>155.87</ele>
        <time>2015-03-15T13:36:11Z</time>
      </trkpt>
      <trkpt lat="48.58988" lon="1.76703">
        <ele>155.87</ele>
        <time>2015-03-15T13:36:17Z</time>
      </trkpt>
      <trkpt lat="48.5899" lon="1.76699">
        <ele>155.87</ele>
        <time>2015-03-15T13:36:25Z</time>
      </trkpt>
      <trkpt lat="48.58991" lon="1.76695">
        <ele>155.87</ele>
        <time>2015-03-15T13:36:39Z</time>
      </trkpt>
      <trkpt lat="48.58994" lon="1.76687">
        <ele>155.87</ele>
        <time>2015-03-15T13:36:49Z</time>
      </trkpt>
      <trkpt lat="48.58994" lon="1.7669">
        <ele>155.87</ele>
        <time>2015-03-15T13:37:11Z</time>
      </trkpt>
      <trkpt lat="48.58991" lon="1.76689">
        <ele>155.87</ele>
        <time>2015-03-15T13:37:25Z</time>
      </trkpt>
      <trkpt lat="48.58989" lon="1.76694">
        <ele>155.87</ele>
        <time>2015-03-15T13:37:33Z</time>
      </trkpt>
      <trkpt lat="48.58988" lon="1.76697">
        <ele>155.87</ele>
        <time>2015-03-15T13:37:38Z</time>
      </trkpt>
      <trkpt lat="48.58986" lon="1.767">
        <ele>156.35</ele>
        <time>2015-03-15T13:37:45Z</time>
      </trkpt>
      <trkpt lat="48.58987" lon="1.76701">
        <ele>156.35</ele>
        <time>2015-03-15T13:37:56Z</time>
      </trkpt>
      <trkpt lat="48.58987" lon="1.76703">
        <ele>156.35</ele>
        <time>2015-03-15T13:38:10Z</time>
      </trkpt>
      <trkpt lat="48.58988" lon="1.76704">
        <ele>156.35</ele>
        <time>2015-03-15T13:38:19Z</time>
      </trkpt>
      <trkpt lat="48.58989" lon="1.76703">
        <ele>156.35</ele>
        <time>2015-03-15T13:38:26Z</time>
      </trkpt>
      <trkpt lat="48.5899" lon="1.76697">
        <ele>155.87</ele>
        <time>2015-03-15T13:38:46Z</time>
      </trkpt>
      <trkpt lat="48.58991" lon="1.76691">
        <ele>155.87</ele>
        <time>2015-03-15T13:38:55Z</time>
      </trkpt>
      <trkpt lat="48.58991" lon="1.7669">
        <ele>155.39</ele>
        <time>2015-03-15T13:38:56Z</time>
      </trkpt>
      <trkpt lat="48.58993" lon="1.76674">
        <ele>156.35</ele>
        <time>2015-03-15T13:39:06Z</time>
      </trkpt>
      <trkpt lat="48.58995" lon="1.76658">
        <ele>156.35</ele>
        <time>2015-03-15T13:39:15Z</time>
      </trkpt>
      <trkpt lat="48.58997" lon="1.76641">
        <ele>156.35</ele>
        <time>2015-03-15T13:39:25Z</time>
      </trkpt>
      <trkpt lat="48.58997" lon="1.76628">
        <ele>156.35</ele>
        <time>2015-03-15T13:39:33Z</time>
      </trkpt>
      <trkpt lat="48.58999" lon="1.76612">
        <ele>156.35</ele>
        <time>2015-03-15T13:39:42Z</time>
      </trkpt>
      <trkpt lat="48.59" lon="1.76607">
        <ele>156.35</ele>
        <time>2015-03-15T13:39:49Z</time>
      </trkpt>
      <trkpt lat="48.59001" lon="1.76601">
        <ele>156.35</ele>
        <time>2015-03-15T13:39:57Z</time>
      </trkpt>
      <trkpt lat="48.59" lon="1.76594">
        <ele>156.35</ele>
        <time>2015-03-15T13:40:04Z</time>
      </trkpt>
      <trkpt lat="48.58997" lon="1.76587">
        <ele>156.35</ele>
        <time>2015-03-15T13:40:12Z</time>
      </trkpt>
      <trkpt lat="48.58997" lon="1.76567">
        <ele>156.35</ele>
        <time>2015-03-15T13:40:20Z</time>
      </trkpt>
      <trkpt lat="48.59" lon="1.76556">
        <ele>156.35</ele>
        <time>2015-03-15T13:40:27Z</time>
      </trkpt>
      <trkpt lat="48.59002" lon="1.76541">
        <ele>156.35</ele>
        <time>2015-03-15T13:40:38Z</time>
      </trkpt>
      <trkpt lat="48.59003" lon="1.76526">
        <ele>156.35</ele>
        <time>2015-03-15T13:40:47Z</time>
      </trkpt>
      <trkpt lat="48.59003" lon="1.76513">
        <ele>156.35</ele>
        <time>2015-03-15T13:40:55Z</time>
      </trkpt>
      <trkpt lat="48.59002" lon="1.76501">
        <ele>156.35</ele>
        <time>2015-03-15T13:41:03Z</time>
      </trkpt>
      <trkpt lat="48.59003" lon="1.76489">
        <ele>156.35</ele>
        <time>2015-03-15T13:41:11Z</time>
      </trkpt>
      <trkpt lat="48.59004" lon="1.7648">
        <ele>156.35</ele>
        <time>2015-03-15T13:41:18Z</time>
      </trkpt>
      <trkpt lat="48.59004" lon="1.76477">
        <ele>156.35</ele>
        <time>2015-03-15T13:41:20Z</time>
      </trkpt>
      <trkpt lat="48.59004" lon="1.76463">
        <ele>156.35</ele>
        <time>2015-03-15T13:41:29Z</time>
      </trkpt>
      <trkpt lat="48.59004" lon="1.76451">
        <ele>155.39</ele>
        <time>2015-03-15T13:41:36Z</time>
      </trkpt>
      <trkpt lat="48.59004" lon="1.76439">
        <ele>155.39</ele>
        <time>2015-03-15T13:41:43Z</time>
      </trkpt>
      <trkpt lat="48.59005" lon="1.76425">
        <ele>154.91</ele>
        <time>2015-03-15T13:41:52Z</time>
      </trkpt>
      <trkpt lat="48.59008" lon="1.76409">
        <ele>154.91</ele>
        <time>2015-03-15T13:42:02Z</time>
      </trkpt>
      <trkpt lat="48.59012" lon="1.76391">
        <ele>154.43</ele>
        <time>2015-03-15T13:42:12Z</time>
      </trkpt>
      <trkpt lat="48.59013" lon="1.76377">
        <ele>154.43</ele>
        <time>2015-03-15T13:42:20Z</time>
      </trkpt>
      <trkpt lat="48.59014" lon="1.76376">
        <ele>154.43</ele>
        <time>2015-03-15T13:42:21Z</time>
      </trkpt>
      <trkpt lat="48.59016" lon="1.76365">
        <ele>154.43</ele>
        <time>2015-03-15T13:42:28Z</time>
      </trkpt>
      <trkpt lat="48.5902" lon="1.76351">
        <ele>154.43</ele>
        <time>2015-03-15T13:42:37Z</time>
      </trkpt>
      <trkpt lat="48.59021" lon="1.76342">
        <ele>154.91</ele>
        <time>2015-03-15T13:42:45Z</time>
      </trkpt>
      <trkpt lat="48.59022" lon="1.76334">
        <ele>154.91</ele>
        <time>2015-03-15T13:42:50Z</time>
      </trkpt>
      <trkpt lat="48.59023" lon="1.7633">
        <ele>154.91</ele>
        <time>2015-03-15T13:42:53Z</time>
      </trkpt>
      <trkpt lat="48.59025" lon="1.76319">
        <ele>154.91</ele>
        <time>2015-03-15T13:43:01Z</time>
      </trkpt>
      <trkpt lat="48.59028" lon="1.76305">
        <ele>155.39</ele>
        <time>2015-03-15T13:43:09Z</time>
      </trkpt>
      <trkpt lat="48.59029" lon="1.76303">
        <ele>155.39</ele>
        <time>2015-03-15T13:43:10Z</time>
      </trkpt>
      <trkpt lat="48.59031" lon="1.76286">
        <ele>155.39</ele>
        <time>2015-03-15T13:43:20Z</time>
      </trkpt>
      <trkpt lat="48.59033" lon="1.76281">
        <ele>155.39</ele>
        <time>2015-03-15T13:43:23Z</time>
      </trkpt>
      <trkpt lat="48.59034" lon="1.76278">
        <ele>155.39</ele>
        <time>2015-03-15T13:43:25Z</time>
      </trkpt>
      <trkpt lat="48.59038" lon="1.76265">
        <ele>155.39</ele>
        <time>2015-03-15T13:43:34Z</time>
      </trkpt>
      <trkpt lat="48.59041" lon="1.7625">
        <ele>155.39</ele>
        <time>2015-03-15T13:43:43Z</time>
      </trkpt>
      <trkpt lat="48.59044" lon="1.76239">
        <ele>155.39</ele>
        <time>2015-03-15T13:43:49Z</time>
      </trkpt>
      <trkpt lat="48.59043" lon="1.76236">
        <ele>155.39</ele>
        <time>2015-03-15T13:43:51Z</time>
      </trkpt>
      <trkpt lat="48.59046" lon="1.76221">
        <ele>155.39</ele>
        <time>2015-03-15T13:44:02Z</time>
      </trkpt>
      <trkpt lat="48.59043" lon="1.76219">
        <ele>155.39</ele>
        <time>2015-03-15T13:44:06Z</time>
      </trkpt>
      <trkpt lat="48.5904" lon="1.76215">
        <ele>155.39</ele>
        <time>2015-03-15T13:44:10Z</time>
      </trkpt>
      <trkpt lat="48.59039" lon="1.76212">
        <ele>155.39</ele>
        <time>2015-03-15T13:44:12Z</time>
      </trkpt>
      <trkpt lat="48.59028" lon="1.76209">
        <ele>155.87</ele>
        <time>2015-03-15T13:44:21Z</time>
      </trkpt>
      <trkpt lat="48.59019" lon="1.76205">
        <ele>155.87</ele>
        <time>2015-03-15T13:44:29Z</time>
      </trkpt>
      <trkpt lat="48.59012" lon="1.76198">
        <ele>155.87</ele>
        <time>2015-03-15T13:44:37Z</time>
      </trkpt>
      <trkpt lat="48.59004" lon="1.76195">
        <ele>155.87</ele>
        <time>2015-03-15T13:44:45Z</time>
      </trkpt>
      <trkpt lat="48.58995" lon="1.76188">
        <ele>156.35</ele>
        <time>2015-03-15T13:44:56Z</time>
      </trkpt>
      <trkpt lat="48.58987" lon="1.76183">
        <ele>156.83</ele>
        <time>2015-03-15T13:45:06Z</time>
      </trkpt>
      <trkpt lat="48.58976" lon="1.7618">
        <ele>157.31</ele>
        <time>2015-03-15T13:45:15Z</time>
      </trkpt>
      <trkpt lat="48.58972" lon="1.76179">
        <ele>157.31</ele>
        <time>2015-03-15T13:45:18Z</time>
      </trkpt>
      <trkpt lat="48.58962" lon="1.76176">
        <ele>157.31</ele>
        <time>2015-03-15T13:45:27Z</time>
      </trkpt>
      <trkpt lat="48.58956" lon="1.76174">
        <ele>157.31</ele>
        <time>2015-03-15T13:45:34Z</time>
      </trkpt>
      <trkpt lat="48.58949" lon="1.76172">
        <ele>157.31</ele>
        <time>2015-03-15T13:45:42Z</time>
      </trkpt>
      <trkpt lat="48.5894" lon="1.76169">
        <ele>157.31</ele>
        <time>2015-03-15T13:45:52Z</time>
      </trkpt>
      <trkpt lat="48.58928" lon="1.76165">
        <ele>157.31</ele>
        <time>2015-03-15T13:46:01Z</time>
      </trkpt>
      <trkpt lat="48.58915" lon="1.7616">
        <ele>157.31</ele>
        <time>2015-03-15T13:46:11Z</time>
      </trkpt>
      <trkpt lat="48.58905" lon="1.76158">
        <ele>157.31</ele>
        <time>2015-03-15T13:46:20Z</time>
      </trkpt>
      <trkpt lat="48.58894" lon="1.76155">
        <ele>157.31</ele>
        <time>2015-03-15T13:46:30Z</time>
      </trkpt>
      <trkpt lat="48.58889" lon="1.76151">
        <ele>157.31</ele>
        <time>2015-03-15T13:46:35Z</time>
      </trkpt>
      <trkpt lat="48.58882" lon="1.76149">
        <ele>157.31</ele>
        <time>2015-03-15T13:46:42Z</time>
      </trkpt>
      <trkpt lat="48.5887" lon="1.76144">
        <ele>157.31</ele>
        <time>2015-03-15T13:46:53Z</time>
      </trkpt>
      <trkpt lat="48.58863" lon="1.76141">
        <ele>157.31</ele>
        <time>2015-03-15T13:47:01Z</time>
      </trkpt>
      <trkpt lat="48.5886" lon="1.76141">
        <ele>157.79</ele>
        <time>2015-03-15T13:47:08Z</time>
      </trkpt>
      <trkpt lat="48.58856" lon="1.76139">
        <ele>157.79</ele>
        <time>2015-03-15T13:47:15Z</time>
      </trkpt>
      <trkpt lat="48.58852" lon="1.76135">
        <ele>157.79</ele>
        <time>2015-03-15T13:47:24Z</time>
      </trkpt>
      <trkpt lat="48.58847" lon="1.76132">
        <ele>157.31</ele>
        <time>2015-03-15T13:47:32Z</time>
      </trkpt>
      <trkpt lat="48.5884" lon="1.76132">
        <ele>157.31</ele>
        <time>2015-03-15T13:47:41Z</time>
      </trkpt>
      <trkpt lat="48.58834" lon="1.76128">
        <ele>157.31</ele>
        <time>2015-03-15T13:47:50Z</time>
      </trkpt>
      <trkpt lat="48.58829" lon="1.76125">
        <ele>157.31</ele>
        <time>2015-03-15T13:47:57Z</time>
      </trkpt>
      <trkpt lat="48.58828" lon="1.76124">
        <ele>157.31</ele>
        <time>2015-03-15T13:48:00Z</time>
      </trkpt>
      <trkpt lat="48.58821" lon="1.76123">
        <ele>157.31</ele>
        <time>2015-03-15T13:48:07Z</time>
      </trkpt>
      <trkpt lat="48.58812" lon="1.7612">
        <ele>157.31</ele>
        <time>2015-03-15T13:48:16Z</time>
      </trkpt>
      <trkpt lat="48.5881" lon="1.7612">
        <ele>157.31</ele>
        <time>2015-03-15T13:48:18Z</time>
      </trkpt>
      <trkpt lat="48.58797" lon="1.76117">
        <ele>157.31</ele>
        <time>2015-03-15T13:48:28Z</time>
      </trkpt>
      <trkpt lat="48.5879" lon="1.76113">
        <ele>157.31</ele>
        <time>2015-03-15T13:48:36Z</time>
      </trkpt>
      <trkpt lat="48.58782" lon="1.7611">
        <ele>157.31</ele>
        <time>2015-03-15T13:48:44Z</time>
      </trkpt>
      <trkpt lat="48.58773" lon="1.76106">
        <ele>157.31</ele>
        <time>2015-03-15T13:48:55Z</time>
      </trkpt>
      <trkpt lat="48.58769" lon="1.76106">
        <ele>157.31</ele>
        <time>2015-03-15T13:49:02Z</time>
      </trkpt>
      <trkpt lat="48.58767" lon="1.76111">
        <ele>157.31</ele>
        <time>2015-03-15T13:49:11Z</time>
      </trkpt>
      <trkpt lat="48.58763" lon="1.76111">
        <ele>157.31</ele>
        <time>2015-03-15T13:49:19Z</time>
      </trkpt>
      <trkpt lat="48.58759" lon="1.7611">
        <ele>157.31</ele>
        <time>2015-03-15T13:49:25Z</time>
      </trkpt>
      <trkpt lat="48.58753" lon="1.76111">
        <ele>157.31</ele>
        <time>2015-03-15T13:49:34Z</time>
      </trkpt>
      <trkpt lat="48.58748" lon="1.76109">
        <ele>157.31</ele>
        <time>2015-03-15T13:49:43Z</time>
      </trkpt>
      <trkpt lat="48.58738" lon="1.76105">
        <ele>157.31</ele>
        <time>2015-03-15T13:49:52Z</time>
      </trkpt>
      <trkpt lat="48.58731" lon="1.76103">
        <ele>157.31</ele>
        <time>2015-03-15T13:49:59Z</time>
      </trkpt>
      <trkpt lat="48.58721" lon="1.76099">
        <ele>157.31</ele>
        <time>2015-03-15T13:50:08Z</time>
      </trkpt>
      <trkpt lat="48.58713" lon="1.76097">
        <ele>157.31</ele>
        <time>2015-03-15T13:50:16Z</time>
      </trkpt>
      <trkpt lat="48.58704" lon="1.76095">
        <ele>157.31</ele>
        <time>2015-03-15T13:50:24Z</time>
      </trkpt>
      <trkpt lat="48.58692" lon="1.76091">
        <ele>157.31</ele>
        <time>2015-03-15T13:50:34Z</time>
      </trkpt>
      <trkpt lat="48.5868" lon="1.76086">
        <ele>157.79</ele>
        <time>2015-03-15T13:50:44Z</time>
      </trkpt>
      <trkpt lat="48.58669" lon="1.7608">
        <ele>157.79</ele>
        <time>2015-03-15T13:50:54Z</time>
      </trkpt>
      <trkpt lat="48.58658" lon="1.76075">
        <ele>157.79</ele>
        <time>2015-03-15T13:51:03Z</time>
      </trkpt>
      <trkpt lat="48.58648" lon="1.7607">
        <ele>158.27</ele>
        <time>2015-03-15T13:51:11Z</time>
      </trkpt>
      <trkpt lat="48.58645" lon="1.76068">
        <ele>158.27</ele>
        <time>2015-03-15T13:51:14Z</time>
      </trkpt>
      <trkpt lat="48.58633" lon="1.76063">
        <ele>158.27</ele>
        <time>2015-03-15T13:51:25Z</time>
      </trkpt>
      <trkpt lat="48.5862" lon="1.76059">
        <ele>158.27</ele>
        <time>2015-03-15T13:51:36Z</time>
      </trkpt>
      <trkpt lat="48.58613" lon="1.76055">
        <ele>158.27</ele>
        <time>2015-03-15T13:51:43Z</time>
      </trkpt>
      <trkpt lat="48.58602" lon="1.7605">
        <ele>158.27</ele>
        <time>2015-03-15T13:51:53Z</time>
      </trkpt>
      <trkpt lat="48.58592" lon="1.76045">
        <ele>157.79</ele>
        <time>2015-03-15T13:52:02Z</time>
      </trkpt>
      <trkpt lat="48.58582" lon="1.76042">
        <ele>157.79</ele>
        <time>2015-03-15T13:52:11Z</time>
      </trkpt>
      <trkpt lat="48.58572" lon="1.76038">
        <ele>157.79</ele>
        <time>2015-03-15T13:52:20Z</time>
      </trkpt>
      <trkpt lat="48.58563" lon="1.76036">
        <ele>157.79</ele>
        <time>2015-03-15T13:52:28Z</time>
      </trkpt>
      <trkpt lat="48.58553" lon="1.76032">
        <ele>157.79</ele>
        <time>2015-03-15T13:52:36Z</time>
      </trkpt>
      <trkpt lat="48.58544" lon="1.76027">
        <ele>157.79</ele>
        <time>2015-03-15T13:52:44Z</time>
      </trkpt>
      <trkpt lat="48.58535" lon="1.76023">
        <ele>156.83</ele>
        <time>2015-03-15T13:52:52Z</time>
      </trkpt>
      <trkpt lat="48.58525" lon="1.76017">
        <ele>156.35</ele>
        <time>2015-03-15T13:53:02Z</time>
      </trkpt>
      <trkpt lat="48.58514" lon="1.76011">
        <ele>156.35</ele>
        <time>2015-03-15T13:53:12Z</time>
      </trkpt>
      <trkpt lat="48.58508" lon="1.76009">
        <ele>156.35</ele>
        <time>2015-03-15T13:53:22Z</time>
      </trkpt>
      <trkpt lat="48.58502" lon="1.76006">
        <ele>156.35</ele>
        <time>2015-03-15T13:53:33Z</time>
      </trkpt>
      <trkpt lat="48.58496" lon="1.76004">
        <ele>155.87</ele>
        <time>2015-03-15T13:53:40Z</time>
      </trkpt>
      <trkpt lat="48.58493" lon="1.76002">
        <ele>155.87</ele>
        <time>2015-03-15T13:53:50Z</time>
      </trkpt>
      <trkpt lat="48.58492" lon="1.76001">
        <ele>155.87</ele>
        <time>2015-03-15T13:54:04Z</time>
      </trkpt>
      <trkpt lat="48.58494" lon="1.75998">
        <ele>155.87</ele>
        <time>2015-03-15T13:54:13Z</time>
      </trkpt>
      <trkpt lat="48.58498" lon="1.75992">
        <ele>155.87</ele>
        <time>2015-03-15T13:54:22Z</time>
      </trkpt>
      <trkpt lat="48.58503" lon="1.75982">
        <ele>155.87</ele>
        <time>2015-03-15T13:54:31Z</time>
      </trkpt>
      <trkpt lat="48.58505" lon="1.75977">
        <ele>155.87</ele>
        <time>2015-03-15T13:54:36Z</time>
      </trkpt>
      <trkpt lat="48.58509" lon="1.75962">
        <ele>155.87</ele>
        <time>2015-03-15T13:54:45Z</time>
      </trkpt>
      <trkpt lat="48.58515" lon="1.75949">
        <ele>155.87</ele>
        <time>2015-03-15T13:54:54Z</time>
      </trkpt>
      <trkpt lat="48.58521" lon="1.75935">
        <ele>155.87</ele>
        <time>2015-03-15T13:55:04Z</time>
      </trkpt>
      <trkpt lat="48.58525" lon="1.75924">
        <ele>156.83</ele>
        <time>2015-03-15T13:55:12Z</time>
      </trkpt>
      <trkpt lat="48.58528" lon="1.75916">
        <ele>157.31</ele>
        <time>2015-03-15T13:55:19Z</time>
      </trkpt>
      <trkpt lat="48.58535" lon="1.75898">
        <ele>157.31</ele>
        <time>2015-03-15T13:55:29Z</time>
      </trkpt>
      <trkpt lat="48.58538" lon="1.75889">
        <ele>157.31</ele>
        <time>2015-03-15T13:55:36Z</time>
      </trkpt>
      <trkpt lat="48.58543" lon="1.75877">
        <ele>157.31</ele>
        <time>2015-03-15T13:55:44Z</time>
      </trkpt>
      <trkpt lat="48.58545" lon="1.75872">
        <ele>157.31</ele>
        <time>2015-03-15T13:55:48Z</time>
      </trkpt>
      <trkpt lat="48.58548" lon="1.75866">
        <ele>157.31</ele>
        <time>2015-03-15T13:55:53Z</time>
      </trkpt>
      <trkpt lat="48.58553" lon="1.75854">
        <ele>157.79</ele>
        <time>2015-03-15T13:56:02Z</time>
      </trkpt>
      <trkpt lat="48.58556" lon="1.75842">
        <ele>157.79</ele>
        <time>2015-03-15T13:56:10Z</time>
      </trkpt>
      <trkpt lat="48.58562" lon="1.7583">
        <ele>157.79</ele>
        <time>2015-03-15T13:56:19Z</time>
      </trkpt>
      <trkpt lat="48.58566" lon="1.75816">
        <ele>157.79</ele>
        <time>2015-03-15T13:56:29Z</time>
      </trkpt>
      <trkpt lat="48.58573" lon="1.758">
        <ele>158.27</ele>
        <time>2015-03-15T13:56:39Z</time>
      </trkpt>
      <trkpt lat="48.58577" lon="1.75788">
        <ele>158.27</ele>
        <time>2015-03-15T13:56:48Z</time>
      </trkpt>
      <trkpt lat="48.58584" lon="1.75774">
        <ele>158.27</ele>
        <time>2015-03-15T13:56:58Z</time>
      </trkpt>
      <trkpt lat="48.58589" lon="1.75761">
        <ele>158.27</ele>
        <time>2015-03-15T13:57:07Z</time>
      </trkpt>
      <trkpt lat="48.58593" lon="1.75751">
        <ele>158.27</ele>
        <time>2015-03-15T13:57:15Z</time>
      </trkpt>
      <trkpt lat="48.58597" lon="1.75737">
        <ele>158.75</ele>
        <time>2015-03-15T13:57:24Z</time>
      </trkpt>
      <trkpt lat="48.58604" lon="1.75725">
        <ele>158.75</ele>
        <time>2015-03-15T13:57:33Z</time>
      </trkpt>
      <trkpt lat="48.58611" lon="1.7571">
        <ele>158.75</ele>
        <time>2015-03-15T13:57:42Z</time>
      </trkpt>
      <trkpt lat="48.58615" lon="1.75699">
        <ele>158.75</ele>
        <time>2015-03-15T13:57:51Z</time>
      </trkpt>
      <trkpt lat="48.58621" lon="1.75688">
        <ele>159.24</ele>
        <time>2015-03-15T13:57:59Z</time>
      </trkpt>
      <trkpt lat="48.58627" lon="1.75676">
        <ele>159.24</ele>
        <time>2015-03-15T13:58:07Z</time>
      </trkpt>
      <trkpt lat="48.58634" lon="1.75662">
        <ele>159.24</ele>
        <time>2015-03-15T13:58:16Z</time>
      </trkpt>
      <trkpt lat="48.5864" lon="1.75651">
        <ele>159.24</ele>
        <time>2015-03-15T13:58:25Z</time>
      </trkpt>
      <trkpt lat="48.58644" lon="1.75642">
        <ele>160.68</ele>
        <time>2015-03-15T13:58:33Z</time>
      </trkpt>
      <trkpt lat="48.58648" lon="1.75626">
        <ele>159.24</ele>
        <time>2015-03-15T13:58:41Z</time>
      </trkpt>
      <trkpt lat="48.58653" lon="1.75613">
        <ele>159.24</ele>
        <time>2015-03-15T13:58:50Z</time>
      </trkpt>
      <trkpt lat="48.58657" lon="1.75604">
        <ele>159.24</ele>
        <time>2015-03-15T13:58:57Z</time>
      </trkpt>
      <trkpt lat="48.58661" lon="1.75587">
        <ele>159.24</ele>
        <time>2015-03-15T13:59:07Z</time>
      </trkpt>
      <trkpt lat="48.58663" lon="1.75578">
        <ele>159.24</ele>
        <time>2015-03-15T13:59:12Z</time>
      </trkpt>
      <trkpt lat="48.5867" lon="1.75559">
        <ele>159.24</ele>
        <time>2015-03-15T13:59:23Z</time>
      </trkpt>
      <trkpt lat="48.58671" lon="1.75556">
        <ele>160.68</ele>
        <time>2015-03-15T13:59:25Z</time>
      </trkpt>
      <trkpt lat="48.58674" lon="1.75546">
        <ele>160.68</ele>
        <time>2015-03-15T13:59:31Z</time>
      </trkpt>
      <trkpt lat="48.58677" lon="1.75535">
        <ele>160.68</ele>
        <time>2015-03-15T13:59:40Z</time>
      </trkpt>
      <trkpt lat="48.58674" lon="1.75526">
        <ele>160.68</ele>
        <time>2015-03-15T13:59:51Z</time>
      </trkpt>
      <trkpt lat="48.58671" lon="1.75527">
        <ele>160.68</ele>
        <time>2015-03-15T14:00:00Z</time>
      </trkpt>
      <trkpt lat="48.5867" lon="1.75523">
        <ele>160.68</ele>
        <time>2015-03-15T14:00:08Z</time>
      </trkpt>
      <trkpt lat="48.58671" lon="1.75519">
        <ele>160.68</ele>
        <time>2015-03-15T14:00:15Z</time>
      </trkpt>
      <trkpt lat="48.58671" lon="1.75519">
        <ele>160.68</ele>
        <time>2015-03-15T14:00:22Z</time>
      </trkpt>
      <trkpt lat="48.58669" lon="1.75519">
        <ele>160.68</ele>
        <time>2015-03-15T14:00:32Z</time>
      </trkpt>
      <trkpt lat="48.58672" lon="1.7552">
        <ele>160.68</ele>
        <time>2015-03-15T14:00:47Z</time>
      </trkpt>
      <trkpt lat="48.58673" lon="1.7552">
        <ele>160.68</ele>
        <time>2015-03-15T14:00:59Z</time>
      </trkpt>
      <trkpt lat="48.58673" lon="1.75517">
        <ele>160.68</ele>
        <time>2015-03-15T14:01:09Z</time>
      </trkpt>
      <trkpt lat="48.58675" lon="1.75516">
        <ele>160.68</ele>
        <time>2015-03-15T14:01:23Z</time>
      </trkpt>
      <trkpt lat="48.58675" lon="1.75516">
        <ele>160.68</ele>
        <time>2015-03-15T14:01:37Z</time>
      </trkpt>
      <trkpt lat="48.58675" lon="1.75516">
        <ele>160.68</ele>
        <time>2015-03-15T14:01:47Z</time>
      </trkpt>
      <trkpt lat="48.58673" lon="1.75517">
        <ele>161.16</ele>
        <time>2015-03-15T14:02:02Z</time>
      </trkpt>
      <trkpt lat="48.58672" lon="1.75518">
        <ele>161.16</ele>
        <time>2015-03-15T14:02:15Z</time>
      </trkpt>
      <trkpt lat="48.5867" lon="1.75511">
        <ele>161.16</ele>
        <time>2015-03-15T14:02:29Z</time>
      </trkpt>
      <trkpt lat="48.58669" lon="1.75511">
        <ele>161.16</ele>
        <time>2015-03-15T14:02:44Z</time>
      </trkpt>
      <trkpt lat="48.58672" lon="1.75512">
        <ele>161.16</ele>
        <time>2015-03-15T14:03:02Z</time>
      </trkpt>
      <trkpt lat="48.58673" lon="1.75513">
        <ele>161.16</ele>
        <time>2015-03-15T14:03:14Z</time>
      </trkpt>
      <trkpt lat="48.58673" lon="1.75515">
        <ele>161.16</ele>
        <time>2015-03-15T14:03:24Z</time>
      </trkpt>
      <trkpt lat="48.58673" lon="1.75513">
        <ele>161.16</ele>
        <time>2015-03-15T14:03:32Z</time>
      </trkpt>
      <trkpt lat="48.58677" lon="1.75501">
        <ele>161.16</ele>
        <time>2015-03-15T14:03:41Z</time>
      </trkpt>
      <trkpt lat="48.5868" lon="1.75484">
        <ele>161.16</ele>
        <time>2015-03-15T14:03:51Z</time>
      </trkpt>
      <trkpt lat="48.58685" lon="1.75469">
        <ele>161.16</ele>
        <time>2015-03-15T14:04:00Z</time>
      </trkpt>
      <trkpt lat="48.58688" lon="1.7546">
        <ele>161.16</ele>
        <time>2015-03-15T14:04:08Z</time>
      </trkpt>
      <trkpt lat="48.58692" lon="1.75443">
        <ele>161.16</ele>
        <time>2015-03-15T14:04:17Z</time>
      </trkpt>
      <trkpt lat="48.58694" lon="1.75438">
        <ele>161.16</ele>
        <time>2015-03-15T14:04:24Z</time>
      </trkpt>
      <trkpt lat="48.58699" lon="1.75421">
        <ele>161.16</ele>
        <time>2015-03-15T14:04:34Z</time>
      </trkpt>
      <trkpt lat="48.58702" lon="1.75408">
        <ele>161.16</ele>
        <time>2015-03-15T14:04:43Z</time>
      </trkpt>
      <trkpt lat="48.58704" lon="1.75391">
        <ele>160.68</ele>
        <time>2015-03-15T14:04:53Z</time>
      </trkpt>
      <trkpt lat="48.58708" lon="1.75372">
        <ele>160.68</ele>
        <time>2015-03-15T14:05:03Z</time>
      </trkpt>
      <trkpt lat="48.58709" lon="1.75361">
        <ele>160.68</ele>
        <time>2015-03-15T14:05:10Z</time>
      </trkpt>
      <trkpt lat="48.5871" lon="1.75346">
        <ele>160.68</ele>
        <time>2015-03-15T14:05:20Z</time>
      </trkpt>
      <trkpt lat="48.5871" lon="1.75344">
        <ele>160.68</ele>
        <time>2015-03-15T14:05:21Z</time>
      </trkpt>
      <trkpt lat="48.58709" lon="1.75329">
        <ele>160.68</ele>
        <time>2015-03-15T14:05:30Z</time>
      </trkpt>
      <trkpt lat="48.58707" lon="1.75315">
        <ele>160.68</ele>
        <time>2015-03-15T14:05:39Z</time>
      </trkpt>
      <trkpt lat="48.58706" lon="1.75293">
        <ele>160.2</ele>
        <time>2015-03-15T14:05:51Z</time>
      </trkpt>
      <trkpt lat="48.58705" lon="1.75276">
        <ele>159.72</ele>
        <time>2015-03-15T14:06:01Z</time>
      </trkpt>
      <trkpt lat="48.58704" lon="1.75272">
        <ele>159.72</ele>
        <time>2015-03-15T14:06:04Z</time>
      </trkpt>
      <trkpt lat="48.58701" lon="1.75255">
        <ele>159.72</ele>
        <time>2015-03-15T14:06:14Z</time>
      </trkpt>
      <trkpt lat="48.58698" lon="1.7524">
        <ele>159.24</ele>
        <time>2015-03-15T14:06:24Z</time>
      </trkpt>
      <trkpt lat="48.58693" lon="1.75227">
        <ele>159.24</ele>
        <time>2015-03-15T14:06:33Z</time>
      </trkpt>
      <trkpt lat="48.58692" lon="1.75215">
        <ele>158.75</ele>
        <time>2015-03-15T14:06:41Z</time>
      </trkpt>
      <trkpt lat="48.58696" lon="1.75204">
        <ele>158.27</ele>
        <time>2015-03-15T14:06:49Z</time>
      </trkpt>
      <trkpt lat="48.58698" lon="1.75192">
        <ele>157.79</ele>
        <time>2015-03-15T14:06:56Z</time>
      </trkpt>
      <trkpt lat="48.58699" lon="1.75182">
        <ele>157.79</ele>
        <time>2015-03-15T14:07:04Z</time>
      </trkpt>
      <trkpt lat="48.587" lon="1.75173">
        <ele>157.79</ele>
        <time>2015-03-15T14:07:12Z</time>
      </trkpt>
      <trkpt lat="48.58702" lon="1.7516">
        <ele>157.79</ele>
        <time>2015-03-15T14:07:21Z</time>
      </trkpt>
      <trkpt lat="48.58706" lon="1.75146">
        <ele>157.79</ele>
        <time>2015-03-15T14:07:31Z</time>
      </trkpt>
      <trkpt lat="48.58711" lon="1.7513">
        <ele>157.79</ele>
        <time>2015-03-15T14:07:40Z</time>
      </trkpt>
      <trkpt lat="48.58714" lon="1.75117">
        <ele>157.79</ele>
        <time>2015-03-15T14:07:49Z</time>
      </trkpt>
      <trkpt lat="48.58715" lon="1.75106">
        <ele>157.79</ele>
        <time>2015-03-15T14:07:56Z</time>
      </trkpt>
      <trkpt lat="48.58717" lon="1.751">
        <ele>157.79</ele>
        <time>2015-03-15T14:07:59Z</time>
      </trkpt>
      <trkpt lat="48.5872" lon="1.75087">
        <ele>157.79</ele>
        <time>2015-03-15T14:08:09Z</time>
      </trkpt>
      <trkpt lat="48.58723" lon="1.75075">
        <ele>157.79</ele>
        <time>2015-03-15T14:08:17Z</time>
      </trkpt>
      <trkpt lat="48.58725" lon="1.7506">
        <ele>158.27</ele>
        <time>2015-03-15T14:08:27Z</time>
      </trkpt>
      <trkpt lat="48.58727" lon="1.75043">
        <ele>158.27</ele>
        <time>2015-03-15T14:08:36Z</time>
      </trkpt>
      <trkpt lat="48.5873" lon="1.75026">
        <ele>158.27</ele>
        <time>2015-03-15T14:08:46Z</time>
      </trkpt>
      <trkpt lat="48.58731" lon="1.75024">
        <ele>158.27</ele>
        <time>2015-03-15T14:08:47Z</time>
      </trkpt>
      <trkpt lat="48.58734" lon="1.7501">
        <ele>158.27</ele>
        <time>2015-03-15T14:08:56Z</time>
      </trkpt>
      <trkpt lat="48.58736" lon="1.74997">
        <ele>158.27</ele>
        <time>2015-03-15T14:09:05Z</time>
      </trkpt>
      <trkpt lat="48.58738" lon="1.74983">
        <ele>157.79</ele>
        <time>2015-03-15T14:09:15Z</time>
      </trkpt>
      <trkpt lat="48.5874" lon="1.7497">
        <ele>157.79</ele>
        <time>2015-03-15T14:09:23Z</time>
      </trkpt>
      <trkpt lat="48.58741" lon="1.74966">
        <ele>157.79</ele>
        <time>2015-03-15T14:09:26Z</time>
      </trkpt>
      <trkpt lat="48.58743" lon="1.74944">
        <ele>157.79</ele>
        <time>2015-03-15T14:09:37Z</time>
      </trkpt>
      <trkpt lat="48.58745" lon="1.74929">
        <ele>157.79</ele>
        <time>2015-03-15T14:09:45Z</time>
      </trkpt>
      <trkpt lat="48.58748" lon="1.74917">
        <ele>158.27</ele>
        <time>2015-03-15T14:09:53Z</time>
      </trkpt>
      <trkpt lat="48.5875" lon="1.74902">
        <ele>157.79</ele>
        <time>2015-03-15T14:10:04Z</time>
      </trkpt>
      <trkpt lat="48.58749" lon="1.74889">
        <ele>157.79</ele>
        <time>2015-03-15T14:10:15Z</time>
      </trkpt>
      <trkpt lat="48.58751" lon="1.74877">
        <ele>157.79</ele>
        <time>2015-03-15T14:10:24Z</time>
      </trkpt>
      <trkpt lat="48.58753" lon="1.74864">
        <ele>157.79</ele>
        <time>2015-03-15T14:10:32Z</time>
      </trkpt>
      <trkpt lat="48.58757" lon="1.74852">
        <ele>157.31</ele>
        <time>2015-03-15T14:10:40Z</time>
      </trkpt>
      <trkpt lat="48.58763" lon="1.74842">
        <ele>157.31</ele>
        <time>2015-03-15T14:10:48Z</time>
      </trkpt>
      <trkpt lat="48.58771" lon="1.74829">
        <ele>157.31</ele>
        <time>2015-03-15T14:10:59Z</time>
      </trkpt>
      <trkpt lat="48.58779" lon="1.74816">
        <ele>157.31</ele>
        <time>2015-03-15T14:11:09Z</time>
      </trkpt>
      <trkpt lat="48.58785" lon="1.74807">
        <ele>157.31</ele>
        <time>2015-03-15T14:11:16Z</time>
      </trkpt>
      <trkpt lat="48.58792" lon="1.74794">
        <ele>157.31</ele>
        <time>2015-03-15T14:11:25Z</time>
      </trkpt>
      <trkpt lat="48.58798" lon="1.74785">
        <ele>157.31</ele>
        <time>2015-03-15T14:11:33Z</time>
      </trkpt>
      <trkpt lat="48.58802" lon="1.74772">
        <ele>156.83</ele>
        <time>2015-03-15T14:11:41Z</time>
      </trkpt>
      <trkpt lat="48.58802" lon="1.74766">
        <ele>156.83</ele>
        <time>2015-03-15T14:11:44Z</time>
      </trkpt>
      <trkpt lat="48.58802" lon="1.74758">
        <ele>156.83</ele>
        <time>2015-03-15T14:11:51Z</time>
      </trkpt>
      <trkpt lat="48.58803" lon="1.74736">
        <ele>156.83</ele>
        <time>2015-03-15T14:12:03Z</time>
      </trkpt>
      <trkpt lat="48.58805" lon="1.74721">
        <ele>156.83</ele>
        <time>2015-03-15T14:12:11Z</time>
      </trkpt>
      <trkpt lat="48.58808" lon="1.74699">
        <ele>158.27</ele>
        <time>2015-03-15T14:12:21Z</time>
      </trkpt>
      <trkpt lat="48.58808" lon="1.74684">
        <ele>158.27</ele>
        <time>2015-03-15T14:12:30Z</time>
      </trkpt>
      <trkpt lat="48.5881" lon="1.74669">
        <ele>158.27</ele>
        <time>2015-03-15T14:12:39Z</time>
      </trkpt>
      <trkpt lat="48.5881" lon="1.74667">
        <ele>158.27</ele>
        <time>2015-03-15T14:12:40Z</time>
      </trkpt>
      <trkpt lat="48.58812" lon="1.74652">
        <ele>158.27</ele>
        <time>2015-03-15T14:12:49Z</time>
      </trkpt>
      <trkpt lat="48.58814" lon="1.74646">
        <ele>158.27</ele>
        <time>2015-03-15T14:12:52Z</time>
      </trkpt>
      <trkpt lat="48.58813" lon="1.74636">
        <ele>158.27</ele>
        <time>2015-03-15T14:13:00Z</time>
      </trkpt>
      <trkpt lat="48.58815" lon="1.7463">
        <ele>158.27</ele>
        <time>2015-03-15T14:13:07Z</time>
      </trkpt>
      <trkpt lat="48.58815" lon="1.74626">
        <ele>158.27</ele>
        <time>2015-03-15T14:13:23Z</time>
      </trkpt>
      <trkpt lat="48.58816" lon="1.74619">
        <ele>158.27</ele>
        <time>2015-03-15T14:13:32Z</time>
      </trkpt>
      <trkpt lat="48.58816" lon="1.74619">
        <ele>159.24</ele>
        <time>2015-03-15T14:13:41Z</time>
      </trkpt>
      <trkpt lat="48.58818" lon="1.74617">
        <ele>159.24</ele>
        <time>2015-03-15T14:13:53Z</time>
      </trkpt>
      <trkpt lat="48.58818" lon="1.74606">
        <ele>159.24</ele>
        <time>2015-03-15T14:14:02Z</time>
      </trkpt>
      <trkpt lat="48.58818" lon="1.74594">
        <ele>159.24</ele>
        <time>2015-03-15T14:14:11Z</time>
      </trkpt>
      <trkpt lat="48.58821" lon="1.74579">
        <ele>159.24</ele>
        <time>2015-03-15T14:14:22Z</time>
      </trkpt>
      <trkpt lat="48.58822" lon="1.74565">
        <ele>159.24</ele>
        <time>2015-03-15T14:14:31Z</time>
      </trkpt>
      <trkpt lat="48.58823" lon="1.7455">
        <ele>159.24</ele>
        <time>2015-03-15T14:14:40Z</time>
      </trkpt>
      <trkpt lat="48.58827" lon="1.74536">
        <ele>159.24</ele>
        <time>2015-03-15T14:14:49Z</time>
      </trkpt>
      <trkpt lat="48.58829" lon="1.7453">
        <ele>159.24</ele>
        <time>2015-03-15T14:14:58Z</time>
      </trkpt>
      <trkpt lat="48.58831" lon="1.74525">
        <ele>159.24</ele>
        <time>2015-03-15T14:15:05Z</time>
      </trkpt>
      <trkpt lat="48.58834" lon="1.74515">
        <ele>159.24</ele>
        <time>2015-03-15T14:15:14Z</time>
      </trkpt>
      <trkpt lat="48.58834" lon="1.74512">
        <ele>159.24</ele>
        <time>2015-03-15T14:15:22Z</time>
      </trkpt>
      <trkpt lat="48.58834" lon="1.74512">
        <ele>159.72</ele>
        <time>2015-03-15T14:15:32Z</time>
      </trkpt>
      <trkpt lat="48.58833" lon="1.74513">
        <ele>159.72</ele>
        <time>2015-03-15T14:15:43Z</time>
      </trkpt>
      <trkpt lat="48.58831" lon="1.74512">
        <ele>159.72</ele>
        <time>2015-03-15T14:16:02Z</time>
      </trkpt>
      <trkpt lat="48.58829" lon="1.7451">
        <ele>159.72</ele>
        <time>2015-03-15T14:16:21Z</time>
      </trkpt>
      <trkpt lat="48.58828" lon="1.74509">
        <ele>159.24</ele>
        <time>2015-03-15T14:16:41Z</time>
      </trkpt>
      <trkpt lat="48.58829" lon="1.74508">
        <ele>159.24</ele>
        <time>2015-03-15T14:16:52Z</time>
      </trkpt>
      <trkpt lat="48.58827" lon="1.74508">
        <ele>159.24</ele>
        <time>2015-03-15T14:17:14Z</time>
      </trkpt>
      <trkpt lat="48.58825" lon="1.74509">
        <ele>159.24</ele>
        <time>2015-03-15T14:17:38Z</time>
      </trkpt>
      <trkpt lat="48.58829" lon="1.74509">
        <ele>159.24</ele>
        <time>2015-03-15T14:17:59Z</time>
      </trkpt>
      <trkpt lat="48.58828" lon="1.7451">
        <ele>159.24</ele>
        <time>2015-03-15T14:18:22Z</time>
      </trkpt>
      <trkpt lat="48.58831" lon="1.74512">
        <ele>159.24</ele>
        <time>2015-03-15T14:18:43Z</time>
      </trkpt>
      <trkpt lat="48.58833" lon="1.74512">
        <ele>159.24</ele>
        <time>2015-03-15T14:19:02Z</time>
      </trkpt>
      <trkpt lat="48.58834" lon="1.74516">
        <ele>159.24</ele>
        <time>2015-03-15T14:19:19Z</time>
      </trkpt>
      <trkpt lat="48.58832" lon="1.74516">
        <ele>159.24</ele>
        <time>2015-03-15T14:19:36Z</time>
      </trkpt>
      <trkpt lat="48.58833" lon="1.74517">
        <ele>159.24</ele>
        <time>2015-03-15T14:20:01Z</time>
      </trkpt>
      <trkpt lat="48.58835" lon="1.74519">
        <ele>159.24</ele>
        <time>2015-03-15T14:20:16Z</time>
      </trkpt>
      <trkpt lat="48.58836" lon="1.74518">
        <ele>159.24</ele>
        <time>2015-03-15T14:20:30Z</time>
      </trkpt>
      <trkpt lat="48.58837" lon="1.74517">
        <ele>159.24</ele>
        <time>2015-03-15T14:20:44Z</time>
      </trkpt>
      <trkpt lat="48.58834" lon="1.74519">
        <ele>159.24</ele>
        <time>2015-03-15T14:21:02Z</time>
      </trkpt>
      <trkpt lat="48.58829" lon="1.74521">
        <ele>159.24</ele>
        <time>2015-03-15T14:21:22Z</time>
      </trkpt>
      <trkpt lat="48.5883" lon="1.74517">
        <ele>159.72</ele>
        <time>2015-03-15T14:21:39Z</time>
      </trkpt>
      <trkpt lat="48.58832" lon="1.74517">
        <ele>159.72</ele>
        <time>2015-03-15T14:21:49Z</time>
      </trkpt>
      <trkpt lat="48.58835" lon="1.74513">
        <ele>159.72</ele>
        <time>2015-03-15T14:22:10Z</time>
      </trkpt>
      <trkpt lat="48.58834" lon="1.7451">
        <ele>159.72</ele>
        <time>2015-03-15T14:22:20Z</time>
      </trkpt>
      <trkpt lat="48.58834" lon="1.74506">
        <ele>159.72</ele>
        <time>2015-03-15T14:22:33Z</time>
      </trkpt>
      <trkpt lat="48.58837" lon="1.745">
        <ele>159.72</ele>
        <time>2015-03-15T14:22:39Z</time>
      </trkpt>
      <trkpt lat="48.58838" lon="1.74499">
        <ele>159.72</ele>
        <time>2015-03-15T14:22:40Z</time>
      </trkpt>
      <trkpt lat="48.58838" lon="1.74482">
        <ele>159.72</ele>
        <time>2015-03-15T14:22:50Z</time>
      </trkpt>
      <trkpt lat="48.58838" lon="1.74464">
        <ele>159.72</ele>
        <time>2015-03-15T14:22:59Z</time>
      </trkpt>
      <trkpt lat="48.58838" lon="1.74451">
        <ele>159.72</ele>
        <time>2015-03-15T14:23:07Z</time>
      </trkpt>
      <trkpt lat="48.58838" lon="1.74438">
        <ele>159.72</ele>
        <time>2015-03-15T14:23:15Z</time>
      </trkpt>
      <trkpt lat="48.58842" lon="1.74421">
        <ele>159.72</ele>
        <time>2015-03-15T14:23:23Z</time>
      </trkpt>
      <trkpt lat="48.58842" lon="1.74417">
        <ele>159.72</ele>
        <time>2015-03-15T14:23:25Z</time>
      </trkpt>
      <trkpt lat="48.58845" lon="1.74398">
        <ele>159.72</ele>
        <time>2015-03-15T14:23:36Z</time>
      </trkpt>
      <trkpt lat="48.58849" lon="1.74393">
        <ele>159.72</ele>
        <time>2015-03-15T14:23:43Z</time>
      </trkpt>
      <trkpt lat="48.58857" lon="1.74386">
        <ele>159.72</ele>
        <time>2015-03-15T14:23:52Z</time>
      </trkpt>
      <trkpt lat="48.58861" lon="1.7438">
        <ele>158.75</ele>
        <time>2015-03-15T14:24:01Z</time>
      </trkpt>
      <trkpt lat="48.58867" lon="1.7437">
        <ele>158.75</ele>
        <time>2015-03-15T14:24:08Z</time>
      </trkpt>
      <trkpt lat="48.58876" lon="1.74358">
        <ele>158.75</ele>
        <time>2015-03-15T14:24:18Z</time>
      </trkpt>
      <trkpt lat="48.58878" lon="1.74356">
        <ele>158.75</ele>
        <time>2015-03-15T14:24:20Z</time>
      </trkpt>
      <trkpt lat="48.58888" lon="1.74342">
        <ele>158.27</ele>
        <time>2015-03-15T14:24:31Z</time>
      </trkpt>
      <trkpt lat="48.58894" lon="1.74333">
        <ele>158.27</ele>
        <time>2015-03-15T14:24:39Z</time>
      </trkpt>
      <trkpt lat="48.58899" lon="1.74326">
        <ele>157.79</ele>
        <time>2015-03-15T14:24:45Z</time>
      </trkpt>
      <trkpt lat="48.5891" lon="1.74313">
        <ele>157.31</ele>
        <time>2015-03-15T14:24:56Z</time>
      </trkpt>
      <trkpt lat="48.58915" lon="1.74308">
        <ele>157.31</ele>
        <time>2015-03-15T14:25:04Z</time>
      </trkpt>
      <trkpt lat="48.58925" lon="1.74296">
        <ele>157.31</ele>
        <time>2015-03-15T14:25:14Z</time>
      </trkpt>
      <trkpt lat="48.5893" lon="1.74289">
        <ele>153.95</ele>
        <time>2015-03-15T14:25:22Z</time>
      </trkpt>
      <trkpt lat="48.58938" lon="1.74276">
        <ele>157.31</ele>
        <time>2015-03-15T14:25:30Z</time>
      </trkpt>
      <trkpt lat="48.58949" lon="1.74262">
        <ele>157.31</ele>
        <time>2015-03-15T14:25:40Z</time>
      </trkpt>
      <trkpt lat="48.58956" lon="1.7425">
        <ele>157.31</ele>
        <time>2015-03-15T14:25:47Z</time>
      </trkpt>
      <trkpt lat="48.58965" lon="1.74236">
        <ele>157.31</ele>
        <time>2015-03-15T14:25:56Z</time>
      </trkpt>
      <trkpt lat="48.58972" lon="1.74223">
        <ele>157.31</ele>
        <time>2015-03-15T14:26:04Z</time>
      </trkpt>
      <trkpt lat="48.58976" lon="1.7421">
        <ele>157.31</ele>
        <time>2015-03-15T14:26:13Z</time>
      </trkpt>
      <trkpt lat="48.58985" lon="1.74189">
        <ele>158.27</ele>
        <time>2015-03-15T14:26:26Z</time>
      </trkpt>
      <trkpt lat="48.5899" lon="1.74174">
        <ele>157.79</ele>
        <time>2015-03-15T14:26:35Z</time>
      </trkpt>
      <trkpt lat="48.58995" lon="1.7416">
        <ele>157.79</ele>
        <time>2015-03-15T14:26:44Z</time>
      </trkpt>
      <trkpt lat="48.59002" lon="1.74143">
        <ele>158.27</ele>
        <time>2015-03-15T14:26:54Z</time>
      </trkpt>
      <trkpt lat="48.59009" lon="1.74126">
        <ele>158.27</ele>
        <time>2015-03-15T14:27:05Z</time>
      </trkpt>
      <trkpt lat="48.59017" lon="1.74109">
        <ele>158.27</ele>
        <time>2015-03-15T14:27:16Z</time>
      </trkpt>
      <trkpt lat="48.59024" lon="1.74095">
        <ele>158.27</ele>
        <time>2015-03-15T14:27:26Z</time>
      </trkpt>
      <trkpt lat="48.59028" lon="1.74083">
        <ele>156.83</ele>
        <time>2015-03-15T14:27:33Z</time>
      </trkpt>
      <trkpt lat="48.59034" lon="1.74069">
        <ele>156.83</ele>
        <time>2015-03-15T14:27:42Z</time>
      </trkpt>
      <trkpt lat="48.59039" lon="1.74057">
        <ele>156.83</ele>
        <time>2015-03-15T14:27:50Z</time>
      </trkpt>
      <trkpt lat="48.59046" lon="1.7404">
        <ele>156.83</ele>
        <time>2015-03-15T14:28:01Z</time>
      </trkpt>
      <trkpt lat="48.59051" lon="1.74024">
        <ele>157.79</ele>
        <time>2015-03-15T14:28:11Z</time>
      </trkpt>
      <trkpt lat="48.59056" lon="1.74004">
        <ele>157.79</ele>
        <time>2015-03-15T14:28:22Z</time>
      </trkpt>
      <trkpt lat="48.59062" lon="1.73987">
        <ele>158.27</ele>
        <time>2015-03-15T14:28:32Z</time>
      </trkpt>
      <trkpt lat="48.59068" lon="1.73976">
        <ele>158.27</ele>
        <time>2015-03-15T14:28:40Z</time>
      </trkpt>
      <trkpt lat="48.59075" lon="1.73962">
        <ele>158.27</ele>
        <time>2015-03-15T14:28:50Z</time>
      </trkpt>
      <trkpt lat="48.59082" lon="1.7395">
        <ele>157.79</ele>
        <time>2015-03-15T14:28:59Z</time>
      </trkpt>
      <trkpt lat="48.59083" lon="1.73949">
        <ele>157.79</ele>
        <time>2015-03-15T14:29:00Z</time>
      </trkpt>
      <trkpt lat="48.59085" lon="1.73944">
        <ele>157.79</ele>
        <time>2015-03-15T14:29:04Z</time>
      </trkpt>
      <trkpt lat="48.59086" lon="1.73941">
        <ele>157.79</ele>
        <time>2015-03-15T14:29:06Z</time>
      </trkpt>
      <trkpt lat="48.59088" lon="1.73936">
        <ele>157.79</ele>
        <time>2015-03-15T14:29:09Z</time>
      </trkpt>
      <trkpt lat="48.59097" lon="1.73921">
        <ele>158.27</ele>
        <time>2015-03-15T14:29:20Z</time>
      </trkpt>
      <trkpt lat="48.59106" lon="1.73909">
        <ele>158.27</ele>
        <time>2015-03-15T14:29:29Z</time>
      </trkpt>
      <trkpt lat="48.59111" lon="1.73897">
        <ele>158.75</ele>
        <time>2015-03-15T14:29:37Z</time>
      </trkpt>
      <trkpt lat="48.5912" lon="1.73881">
        <ele>158.75</ele>
        <time>2015-03-15T14:29:49Z</time>
      </trkpt>
      <trkpt lat="48.59128" lon="1.73866">
        <ele>158.75</ele>
        <time>2015-03-15T14:29:59Z</time>
      </trkpt>
      <trkpt lat="48.59135" lon="1.73852">
        <ele>158.75</ele>
        <time>2015-03-15T14:30:09Z</time>
      </trkpt>
      <trkpt lat="48.59143" lon="1.73835">
        <ele>158.75</ele>
        <time>2015-03-15T14:30:21Z</time>
      </trkpt>
      <trkpt lat="48.59151" lon="1.73817">
        <ele>158.75</ele>
        <time>2015-03-15T14:30:32Z</time>
      </trkpt>
      <trkpt lat="48.59159" lon="1.738">
        <ele>159.24</ele>
        <time>2015-03-15T14:30:43Z</time>
      </trkpt>
      <trkpt lat="48.59167" lon="1.73787">
        <ele>159.24</ele>
        <time>2015-03-15T14:30:52Z</time>
      </trkpt>
      <trkpt lat="48.59177" lon="1.73774">
        <ele>158.75</ele>
        <time>2015-03-15T14:31:02Z</time>
      </trkpt>
      <trkpt lat="48.59185" lon="1.73761">
        <ele>159.24</ele>
        <time>2015-03-15T14:31:11Z</time>
      </trkpt>
      <trkpt lat="48.59189" lon="1.73755">
        <ele>159.24</ele>
        <time>2015-03-15T14:31:15Z</time>
      </trkpt>
      <trkpt lat="48.59199" lon="1.73742">
        <ele>159.24</ele>
        <time>2015-03-15T14:31:25Z</time>
      </trkpt>
      <trkpt lat="48.5921" lon="1.73729">
        <ele>159.72</ele>
        <time>2015-03-15T14:31:36Z</time>
      </trkpt>
      <trkpt lat="48.59217" lon="1.73714">
        <ele>159.72</ele>
        <time>2015-03-15T14:31:46Z</time>
      </trkpt>
      <trkpt lat="48.59222" lon="1.73705">
        <ele>159.72</ele>
        <time>2015-03-15T14:31:54Z</time>
      </trkpt>
      <trkpt lat="48.59224" lon="1.73702">
        <ele>159.72</ele>
        <time>2015-03-15T14:32:03Z</time>
      </trkpt>
      <trkpt lat="48.59224" lon="1.73703">
        <ele>159.24</ele>
        <time>2015-03-15T14:32:14Z</time>
      </trkpt>
      <trkpt lat="48.59223" lon="1.73704">
        <ele>159.24</ele>
        <time>2015-03-15T14:32:30Z</time>
      </trkpt>
      <trkpt lat="48.59224" lon="1.73706">
        <ele>159.24</ele>
        <time>2015-03-15T14:32:43Z</time>
      </trkpt>
      <trkpt lat="48.59222" lon="1.73705">
        <ele>159.24</ele>
        <time>2015-03-15T14:32:59Z</time>
      </trkpt>
      <trkpt lat="48.59222" lon="1.73705">
        <ele>159.24</ele>
        <time>2015-03-15T14:33:10Z</time>
      </trkpt>
      <trkpt lat="48.59223" lon="1.73706">
        <ele>159.24</ele>
        <time>2015-03-15T14:33:25Z</time>
      </trkpt>
      <trkpt lat="48.59224" lon="1.73705">
        <ele>159.24</ele>
        <time>2015-03-15T14:33:42Z</time>
      </trkpt>
      <trkpt lat="48.59225" lon="1.73704">
        <ele>159.24</ele>
        <time>2015-03-15T14:33:58Z</time>
      </trkpt>
      <trkpt lat="48.59224" lon="1.73704">
        <ele>159.24</ele>
        <time>2015-03-15T14:34:14Z</time>
      </trkpt>
      <trkpt lat="48.59226" lon="1.737">
        <ele>159.24</ele>
        <time>2015-03-15T14:34:27Z</time>
      </trkpt>
      <trkpt lat="48.59232" lon="1.73689">
        <ele>158.75</ele>
        <time>2015-03-15T14:34:35Z</time>
      </trkpt>
      <trkpt lat="48.59238" lon="1.73675">
        <ele>159.24</ele>
        <time>2015-03-15T14:34:45Z</time>
      </trkpt>
      <trkpt lat="48.59245" lon="1.73659">
        <ele>159.24</ele>
        <time>2015-03-15T14:34:55Z</time>
      </trkpt>
      <trkpt lat="48.5925" lon="1.73644">
        <ele>159.72</ele>
        <time>2015-03-15T14:35:05Z</time>
      </trkpt>
      <trkpt lat="48.59257" lon="1.73628">
        <ele>159.72</ele>
        <time>2015-03-15T14:35:15Z</time>
      </trkpt>
      <trkpt lat="48.59264" lon="1.73614">
        <ele>159.72</ele>
        <time>2015-03-15T14:35:25Z</time>
      </trkpt>
      <trkpt lat="48.59271" lon="1.73598">
        <ele>159.72</ele>
        <time>2015-03-15T14:35:36Z</time>
      </trkpt>
      <trkpt lat="48.5928" lon="1.73582">
        <ele>160.2</ele>
        <time>2015-03-15T14:35:47Z</time>
      </trkpt>
      <trkpt lat="48.5929" lon="1.73567">
        <ele>160.2</ele>
        <time>2015-03-15T14:35:58Z</time>
      </trkpt>
      <trkpt lat="48.59301" lon="1.73554">
        <ele>160.2</ele>
        <time>2015-03-15T14:36:09Z</time>
      </trkpt>
      <trkpt lat="48.59309" lon="1.73543">
        <ele>160.2</ele>
        <time>2015-03-15T14:36:18Z</time>
      </trkpt>
      <trkpt lat="48.59321" lon="1.73531">
        <ele>160.68</ele>
        <time>2015-03-15T14:36:29Z</time>
      </trkpt>
      <trkpt lat="48.59331" lon="1.73521">
        <ele>160.68</ele>
        <time>2015-03-15T14:36:39Z</time>
      </trkpt>
      <trkpt lat="48.59342" lon="1.73511">
        <ele>159.24</ele>
        <time>2015-03-15T14:36:50Z</time>
      </trkpt>
      <trkpt lat="48.59348" lon="1.73506">
        <ele>160.68</ele>
        <time>2015-03-15T14:36:55Z</time>
      </trkpt>
      <trkpt lat="48.59358" lon="1.73492">
        <ele>160.68</ele>
        <time>2015-03-15T14:37:06Z</time>
      </trkpt>
      <trkpt lat="48.59363" lon="1.7348">
        <ele>160.68</ele>
        <time>2015-03-15T14:37:14Z</time>
      </trkpt>
      <trkpt lat="48.59362" lon="1.73474">
        <ele>160.68</ele>
        <time>2015-03-15T14:37:22Z</time>
      </trkpt>
      <trkpt lat="48.59361" lon="1.73478">
        <ele>160.68</ele>
        <time>2015-03-15T14:37:31Z</time>
      </trkpt>
      <trkpt lat="48.59359" lon="1.73489">
        <ele>160.68</ele>
        <time>2015-03-15T14:37:38Z</time>
      </trkpt>
      <trkpt lat="48.59351" lon="1.73499">
        <ele>160.68</ele>
        <time>2015-03-15T14:37:48Z</time>
      </trkpt>
      <trkpt lat="48.59346" lon="1.73501">
        <ele>160.2</ele>
        <time>2015-03-15T14:37:58Z</time>
      </trkpt>
      <trkpt lat="48.59346" lon="1.735">
        <ele>160.2</ele>
        <time>2015-03-15T14:38:00Z</time>
      </trkpt>
      <trkpt lat="48.59338" lon="1.73494">
        <ele>160.2</ele>
        <time>2015-03-15T14:38:09Z</time>
      </trkpt>
      <trkpt lat="48.59332" lon="1.73489">
        <ele>160.2</ele>
        <time>2015-03-15T14:38:16Z</time>
      </trkpt>
      <trkpt lat="48.59324" lon="1.73483">
        <ele>160.2</ele>
        <time>2015-03-15T14:38:24Z</time>
      </trkpt>
      <trkpt lat="48.59322" lon="1.73481">
        <ele>159.24</ele>
        <time>2015-03-15T14:38:26Z</time>
      </trkpt>
      <trkpt lat="48.59316" lon="1.73474">
        <ele>159.24</ele>
        <time>2015-03-15T14:38:34Z</time>
      </trkpt>
      <trkpt lat="48.59304" lon="1.73463">
        <ele>159.24</ele>
        <time>2015-03-15T14:38:44Z</time>
      </trkpt>
      <trkpt lat="48.59295" lon="1.73454">
        <ele>158.75</ele>
        <time>2015-03-15T14:38:53Z</time>
      </trkpt>
      <trkpt lat="48.59286" lon="1.73446">
        <ele>158.27</ele>
        <time>2015-03-15T14:39:02Z</time>
      </trkpt>
      <trkpt lat="48.59281" lon="1.73443">
        <ele>158.27</ele>
        <time>2015-03-15T14:39:10Z</time>
      </trkpt>
      <trkpt lat="48.59277" lon="1.73439">
        <ele>158.27</ele>
        <time>2015-03-15T14:39:16Z</time>
      </trkpt>
      <trkpt lat="48.59265" lon="1.73431">
        <ele>157.79</ele>
        <time>2015-03-15T14:39:26Z</time>
      </trkpt>
      <trkpt lat="48.59252" lon="1.73422">
        <ele>156.35</ele>
        <time>2015-03-15T14:39:37Z</time>
      </trkpt>
      <trkpt lat="48.5924" lon="1.73409">
        <ele>156.35</ele>
        <time>2015-03-15T14:39:49Z</time>
      </trkpt>
      <trkpt lat="48.59233" lon="1.73402">
        <ele>155.87</ele>
        <time>2015-03-15T14:39:58Z</time>
      </trkpt>
      <trkpt lat="48.59226" lon="1.73399">
        <ele>155.39</ele>
        <time>2015-03-15T14:40:07Z</time>
      </trkpt>
      <trkpt lat="48.59224" lon="1.73399">
        <ele>154.91</ele>
        <time>2015-03-15T14:40:14Z</time>
      </trkpt>
      <trkpt lat="48.59215" lon="1.73394">
        <ele>153.95</ele>
        <time>2015-03-15T14:40:22Z</time>
      </trkpt>
      <trkpt lat="48.59207" lon="1.73397">
        <ele>152.99</ele>
        <time>2015-03-15T14:40:29Z</time>
      </trkpt>
      <trkpt lat="48.592" lon="1.73399">
        <ele>152.51</ele>
        <time>2015-03-15T14:40:36Z</time>
      </trkpt>
      <trkpt lat="48.5919" lon="1.73398">
        <ele>152.03</ele>
        <time>2015-03-15T14:40:45Z</time>
      </trkpt>
      <trkpt lat="48.59187" lon="1.73399">
        <ele>152.03</ele>
        <time>2015-03-15T14:40:48Z</time>
      </trkpt>
      <trkpt lat="48.5918" lon="1.734">
        <ele>151.54</ele>
        <time>2015-03-15T14:40:56Z</time>
      </trkpt>
      <trkpt lat="48.5917" lon="1.73403">
        <ele>149.62</ele>
        <time>2015-03-15T14:41:04Z</time>
      </trkpt>
      <trkpt lat="48.59164" lon="1.734">
        <ele>148.18</ele>
        <time>2015-03-15T14:41:12Z</time>
      </trkpt>
      <trkpt lat="48.59162" lon="1.73396">
        <ele>146.26</ele>
        <time>2015-03-15T14:41:18Z</time>
      </trkpt>
      <trkpt lat="48.59156" lon="1.73391">
        <ele>143.85</ele>
        <time>2015-03-15T14:41:25Z</time>
      </trkpt>
      <trkpt lat="48.59149" lon="1.73387">
        <ele>140.49</ele>
        <time>2015-03-15T14:41:32Z</time>
      </trkpt>
      <trkpt lat="48.59148" lon="1.73386">
        <ele>140.49</ele>
        <time>2015-03-15T14:41:33Z</time>
      </trkpt>
      <trkpt lat="48.59148" lon="1.73384">
        <ele>140.01</ele>
        <time>2015-03-15T14:41:35Z</time>
      </trkpt>
      <trkpt lat="48.59146" lon="1.73375">
        <ele>137.13</ele>
        <time>2015-03-15T14:41:42Z</time>
      </trkpt>
      <trkpt lat="48.59146" lon="1.73375">
        <ele>137.13</ele>
        <time>2015-03-15T14:41:43Z</time>
      </trkpt>
      <trkpt lat="48.59143" lon="1.73368">
        <ele>135.2</ele>
        <time>2015-03-15T14:41:49Z</time>
      </trkpt>
      <trkpt lat="48.59142" lon="1.73366">
        <ele>133.76</ele>
        <time>2015-03-15T14:41:52Z</time>
      </trkpt>
      <trkpt lat="48.59137" lon="1.73361">
        <ele>131.36</ele>
        <time>2015-03-15T14:41:58Z</time>
      </trkpt>
      <trkpt lat="48.59129" lon="1.73358">
        <ele>128.95</ele>
        <time>2015-03-15T14:42:07Z</time>
      </trkpt>
      <trkpt lat="48.59128" lon="1.73357">
        <ele>128.95</ele>
        <time>2015-03-15T14:42:08Z</time>
      </trkpt>
      <trkpt lat="48.59122" lon="1.73351">
        <ele>127.51</ele>
        <time>2015-03-15T14:42:16Z</time>
      </trkpt>
      <trkpt lat="48.59117" lon="1.73345">
        <ele>126.55</ele>
        <time>2015-03-15T14:42:24Z</time>
      </trkpt>
      <trkpt lat="48.59114" lon="1.7334">
        <ele>126.55</ele>
        <time>2015-03-15T14:42:34Z</time>
      </trkpt>
      <trkpt lat="48.59107" lon="1.73333">
        <ele>127.51</ele>
        <time>2015-03-15T14:42:43Z</time>
      </trkpt>
      <trkpt lat="48.59105" lon="1.73331">
        <ele>125.11</ele>
        <time>2015-03-15T14:42:52Z</time>
      </trkpt>
      <trkpt lat="48.59103" lon="1.73331">
        <ele>125.11</ele>
        <time>2015-03-15T14:43:03Z</time>
      </trkpt>
      <trkpt lat="48.591" lon="1.73333">
        <ele>125.11</ele>
        <time>2015-03-15T14:43:11Z</time>
      </trkpt>
      <trkpt lat="48.59097" lon="1.73335">
        <ele>125.11</ele>
        <time>2015-03-15T14:43:23Z</time>
      </trkpt>
      <trkpt lat="48.59095" lon="1.73336">
        <ele>126.55</ele>
        <time>2015-03-15T14:43:31Z</time>
      </trkpt>
      <trkpt lat="48.59094" lon="1.73334">
        <ele>126.55</ele>
        <time>2015-03-15T14:43:44Z</time>
      </trkpt>
      <trkpt lat="48.59089" lon="1.73328">
        <ele>126.55</ele>
        <time>2015-03-15T14:43:53Z</time>
      </trkpt>
      <trkpt lat="48.59088" lon="1.73324">
        <ele>126.55</ele>
        <time>2015-03-15T14:44:00Z</time>
      </trkpt>
      <trkpt lat="48.59086" lon="1.73323">
        <ele>126.55</ele>
        <time>2015-03-15T14:44:07Z</time>
      </trkpt>
      <trkpt lat="48.59076" lon="1.73317">
        <ele>126.55</ele>
        <time>2015-03-15T14:44:15Z</time>
      </trkpt>
      <trkpt lat="48.59068" lon="1.73319">
        <ele>125.59</ele>
        <time>2015-03-15T14:44:21Z</time>
      </trkpt>
      <trkpt lat="48.59067" lon="1.73318">
        <ele>125.59</ele>
        <time>2015-03-15T14:44:29Z</time>
      </trkpt>
      <trkpt lat="48.59067" lon="1.7332">
        <ele>125.59</ele>
        <time>2015-03-15T14:44:39Z</time>
      </trkpt>
      <trkpt lat="48.59066" lon="1.73323">
        <ele>125.59</ele>
        <time>2015-03-15T14:44:52Z</time>
      </trkpt>
      <trkpt lat="48.59066" lon="1.73323">
        <ele>125.59</ele>
        <time>2015-03-15T14:45:04Z</time>
      </trkpt>
      <trkpt lat="48.59068" lon="1.73325">
        <ele>125.59</ele>
        <time>2015-03-15T14:45:12Z</time>
      </trkpt>
      <trkpt lat="48.59072" lon="1.73327">
        <ele>125.59</ele>
        <time>2015-03-15T14:45:19Z</time>
      </trkpt>
      <trkpt lat="48.59074" lon="1.73329">
        <ele>125.59</ele>
        <time>2015-03-15T14:45:30Z</time>
      </trkpt>
      <trkpt lat="48.59075" lon="1.7333">
        <ele>126.55</ele>
        <time>2015-03-15T14:45:33Z</time>
      </trkpt>
      <trkpt lat="48.59075" lon="1.73326">
        <ele>126.55</ele>
        <time>2015-03-15T14:45:46Z</time>
      </trkpt>
      <trkpt lat="48.59077" lon="1.73325">
        <ele>127.03</ele>
        <time>2015-03-15T14:45:56Z</time>
      </trkpt>
      <trkpt lat="48.59078" lon="1.73324">
        <ele>127.03</ele>
        <time>2015-03-15T14:46:09Z</time>
      </trkpt>
      <trkpt lat="48.59083" lon="1.73327">
        <ele>127.03</ele>
        <time>2015-03-15T14:46:19Z</time>
      </trkpt>
      <trkpt lat="48.59084" lon="1.73328">
        <ele>127.03</ele>
        <time>2015-03-15T14:46:20Z</time>
      </trkpt>
      <trkpt lat="48.59086" lon="1.73329">
        <ele>126.55</ele>
        <time>2015-03-15T14:46:22Z</time>
      </trkpt>
      <trkpt lat="48.59098" lon="1.73326">
        <ele>126.55</ele>
        <time>2015-03-15T14:46:31Z</time>
      </trkpt>
      <trkpt lat="48.59102" lon="1.73324">
        <ele>125.59</ele>
        <time>2015-03-15T14:46:35Z</time>
      </trkpt>
      <trkpt lat="48.5911" lon="1.73318">
        <ele>125.59</ele>
        <time>2015-03-15T14:46:42Z</time>
      </trkpt>
      <trkpt lat="48.59115" lon="1.73313">
        <ele>125.59</ele>
        <time>2015-03-15T14:46:46Z</time>
      </trkpt>
      <trkpt lat="48.59126" lon="1.73303">
        <ele>125.59</ele>
        <time>2015-03-15T14:46:56Z</time>
      </trkpt>
      <trkpt lat="48.59135" lon="1.73295">
        <ele>125.59</ele>
        <time>2015-03-15T14:47:04Z</time>
      </trkpt>
      <trkpt lat="48.59142" lon="1.73286">
        <ele>125.59</ele>
        <time>2015-03-15T14:47:14Z</time>
      </trkpt>
      <trkpt lat="48.5915" lon="1.73271">
        <ele>125.59</ele>
        <time>2015-03-15T14:47:23Z</time>
      </trkpt>
      <trkpt lat="48.59159" lon="1.73259">
        <ele>125.59</ele>
        <time>2015-03-15T14:47:33Z</time>
      </trkpt>
      <trkpt lat="48.59165" lon="1.73255">
        <ele>125.59</ele>
        <time>2015-03-15T14:47:39Z</time>
      </trkpt>
      <trkpt lat="48.59175" lon="1.73244">
        <ele>125.59</ele>
        <time>2015-03-15T14:47:47Z</time>
      </trkpt>
      <trkpt lat="48.59181" lon="1.73237">
        <ele>125.59</ele>
        <time>2015-03-15T14:47:53Z</time>
      </trkpt>
      <trkpt lat="48.59187" lon="1.73223">
        <ele>125.59</ele>
        <time>2015-03-15T14:48:01Z</time>
      </trkpt>
      <trkpt lat="48.59191" lon="1.73212">
        <ele>125.59</ele>
        <time>2015-03-15T14:48:08Z</time>
      </trkpt>
      <trkpt lat="48.59196" lon="1.732">
        <ele>125.59</ele>
        <time>2015-03-15T14:48:16Z</time>
      </trkpt>
      <trkpt lat="48.592" lon="1.73184">
        <ele>125.59</ele>
        <time>2015-03-15T14:48:25Z</time>
      </trkpt>
      <trkpt lat="48.59203" lon="1.73177">
        <ele>125.59</ele>
        <time>2015-03-15T14:48:29Z</time>
      </trkpt>
      <trkpt lat="48.59206" lon="1.73172">
        <ele>125.59</ele>
        <time>2015-03-15T14:48:32Z</time>
      </trkpt>
      <trkpt lat="48.59209" lon="1.73155">
        <ele>125.11</ele>
        <time>2015-03-15T14:48:41Z</time>
      </trkpt>
      <trkpt lat="48.59209" lon="1.7314">
        <ele>125.11</ele>
        <time>2015-03-15T14:48:50Z</time>
      </trkpt>
      <trkpt lat="48.59209" lon="1.73126">
        <ele>125.11</ele>
        <time>2015-03-15T14:48:59Z</time>
      </trkpt>
      <trkpt lat="48.59207" lon="1.73117">
        <ele>126.07</ele>
        <time>2015-03-15T14:49:06Z</time>
      </trkpt>
      <trkpt lat="48.59207" lon="1.73108">
        <ele>126.07</ele>
        <time>2015-03-15T14:49:14Z</time>
      </trkpt>
      <trkpt lat="48.59204" lon="1.73105">
        <ele>126.55</ele>
        <time>2015-03-15T14:49:20Z</time>
      </trkpt>
      <trkpt lat="48.59203" lon="1.73105">
        <ele>126.55</ele>
        <time>2015-03-15T14:49:21Z</time>
      </trkpt>
      <trkpt lat="48.59192" lon="1.73102">
        <ele>126.55</ele>
        <time>2015-03-15T14:49:31Z</time>
      </trkpt>
      <trkpt lat="48.59182" lon="1.73103">
        <ele>126.55</ele>
        <time>2015-03-15T14:49:40Z</time>
      </trkpt>
      <trkpt lat="48.59169" lon="1.73106">
        <ele>127.51</ele>
        <time>2015-03-15T14:49:51Z</time>
      </trkpt>
      <trkpt lat="48.59156" lon="1.73106">
        <ele>127.51</ele>
        <time>2015-03-15T14:50:01Z</time>
      </trkpt>
      <trkpt lat="48.59143" lon="1.73106">
        <ele>127.99</ele>
        <time>2015-03-15T14:50:12Z</time>
      </trkpt>
      <trkpt lat="48.59131" lon="1.73108">
        <ele>128.47</ele>
        <time>2015-03-15T14:50:22Z</time>
      </trkpt>
      <trkpt lat="48.59124" lon="1.7311">
        <ele>128.95</ele>
        <time>2015-03-15T14:50:30Z</time>
      </trkpt>
      <trkpt lat="48.59119" lon="1.73111">
        <ele>129.43</ele>
        <time>2015-03-15T14:50:37Z</time>
      </trkpt>
      <trkpt lat="48.59116" lon="1.7311">
        <ele>129.43</ele>
        <time>2015-03-15T14:50:44Z</time>
      </trkpt>
      <trkpt lat="48.59105" lon="1.73108">
        <ele>129.92</ele>
        <time>2015-03-15T14:50:53Z</time>
      </trkpt>
      <trkpt lat="48.59094" lon="1.73105">
        <ele>130.4</ele>
        <time>2015-03-15T14:51:02Z</time>
      </trkpt>
      <trkpt lat="48.59091" lon="1.73103">
        <ele>131.36</ele>
        <time>2015-03-15T14:51:09Z</time>
      </trkpt>
      <trkpt lat="48.59089" lon="1.73099">
        <ele>131.36</ele>
        <time>2015-03-15T14:51:16Z</time>
      </trkpt>
      <trkpt lat="48.59085" lon="1.73094">
        <ele>131.36</ele>
        <time>2015-03-15T14:51:23Z</time>
      </trkpt>
      <trkpt lat="48.59077" lon="1.73088">
        <ele>131.84</ele>
        <time>2015-03-15T14:51:31Z</time>
      </trkpt>
      <trkpt lat="48.59073" lon="1.73084">
        <ele>132.32</ele>
        <time>2015-03-15T14:51:36Z</time>
      </trkpt>
      <trkpt lat="48.59064" lon="1.73078">
        <ele>133.28</ele>
        <time>2015-03-15T14:51:46Z</time>
      </trkpt>
      <trkpt lat="48.59056" lon="1.73076">
        <ele>133.76</ele>
        <time>2015-03-15T14:51:54Z</time>
      </trkpt>
      <trkpt lat="48.5905" lon="1.73075">
        <ele>134.24</ele>
        <time>2015-03-15T14:51:59Z</time>
      </trkpt>
      <trkpt lat="48.59041" lon="1.73071">
        <ele>134.72</ele>
        <time>2015-03-15T14:52:07Z</time>
      </trkpt>
      <trkpt lat="48.59029" lon="1.73069">
        <ele>135.2</ele>
        <time>2015-03-15T14:52:17Z</time>
      </trkpt>
      <trkpt lat="48.59029" lon="1.7307">
        <ele>135.68</ele>
        <time>2015-03-15T14:52:23Z</time>
      </trkpt>
      <trkpt lat="48.59029" lon="1.7307">
        <ele>135.68</ele>
        <time>2015-03-15T14:52:32Z</time>
      </trkpt>
      <trkpt lat="48.59023" lon="1.73068">
        <ele>135.68</ele>
        <time>2015-03-15T14:52:38Z</time>
      </trkpt>
      <trkpt lat="48.59013" lon="1.73062">
        <ele>136.16</ele>
        <time>2015-03-15T14:52:48Z</time>
      </trkpt>
      <trkpt lat="48.59006" lon="1.73059">
        <ele>137.13</ele>
        <time>2015-03-15T14:52:55Z</time>
      </trkpt>
      <trkpt lat="48.59004" lon="1.73058">
        <ele>136.64</ele>
        <time>2015-03-15T14:52:57Z</time>
      </trkpt>
      <trkpt lat="48.5899" lon="1.73051">
        <ele>138.09</ele>
        <time>2015-03-15T14:53:09Z</time>
      </trkpt>
      <trkpt lat="48.5898" lon="1.73046">
        <ele>138.57</ele>
        <time>2015-03-15T14:53:18Z</time>
      </trkpt>
      <trkpt lat="48.58968" lon="1.7304">
        <ele>139.53</ele>
        <time>2015-03-15T14:53:29Z</time>
      </trkpt>
      <trkpt lat="48.58959" lon="1.73035">
        <ele>140.01</ele>
        <time>2015-03-15T14:53:37Z</time>
      </trkpt>
      <trkpt lat="48.58949" lon="1.7303">
        <ele>140.49</ele>
        <time>2015-03-15T14:53:46Z</time>
      </trkpt>
      <trkpt lat="48.58939" lon="1.73025">
        <ele>140.49</ele>
        <time>2015-03-15T14:53:55Z</time>
      </trkpt>
      <trkpt lat="48.58929" lon="1.7302">
        <ele>141.45</ele>
        <time>2015-03-15T14:54:03Z</time>
      </trkpt>
      <trkpt lat="48.58918" lon="1.73019">
        <ele>141.93</ele>
        <time>2015-03-15T14:54:12Z</time>
      </trkpt>
      <trkpt lat="48.58904" lon="1.73021">
        <ele>141.93</ele>
        <time>2015-03-15T14:54:24Z</time>
      </trkpt>
      <trkpt lat="48.58894" lon="1.73022">
        <ele>141.93</ele>
        <time>2015-03-15T14:54:33Z</time>
      </trkpt>
      <trkpt lat="48.58883" lon="1.73027">
        <ele>142.41</ele>
        <time>2015-03-15T14:54:42Z</time>
      </trkpt>
      <trkpt lat="48.58879" lon="1.73035">
        <ele>142.41</ele>
        <time>2015-03-15T14:54:48Z</time>
      </trkpt>
      <trkpt lat="48.58879" lon="1.73049">
        <ele>142.41</ele>
        <time>2015-03-15T14:54:57Z</time>
      </trkpt>
      <trkpt lat="48.5888" lon="1.73051">
        <ele>142.41</ele>
        <time>2015-03-15T14:55:07Z</time>
      </trkpt>
      <trkpt lat="48.58879" lon="1.73059">
        <ele>142.41</ele>
        <time>2015-03-15T14:55:14Z</time>
      </trkpt>
      <trkpt lat="48.5888" lon="1.73077">
        <ele>142.89</ele>
        <time>2015-03-15T14:55:24Z</time>
      </trkpt>
      <trkpt lat="48.58894" lon="1.73092">
        <ele>142.89</ele>
        <time>2015-03-15T14:55:36Z</time>
      </trkpt>
      <trkpt lat="48.58905" lon="1.73101">
        <ele>143.37</ele>
        <time>2015-03-15T14:55:46Z</time>
      </trkpt>
      <trkpt lat="48.58917" lon="1.73111">
        <ele>143.37</ele>
        <time>2015-03-15T14:55:57Z</time>
      </trkpt>
      <trkpt lat="48.58927" lon="1.7312">
        <ele>143.37</ele>
        <time>2015-03-15T14:56:06Z</time>
      </trkpt>
      <trkpt lat="48.58938" lon="1.7313">
        <ele>141.93</ele>
        <time>2015-03-15T14:56:16Z</time>
      </trkpt>
      <trkpt lat="48.58939" lon="1.73131">
        <ele>141.93</ele>
        <time>2015-03-15T14:56:17Z</time>
      </trkpt>
      <trkpt lat="48.58952" lon="1.7314">
        <ele>141.93</ele>
        <time>2015-03-15T14:56:28Z</time>
      </trkpt>
      <trkpt lat="48.58964" lon="1.73148">
        <ele>141.93</ele>
        <time>2015-03-15T14:56:38Z</time>
      </trkpt>
      <trkpt lat="48.58977" lon="1.73157">
        <ele>141.45</ele>
        <time>2015-03-15T14:56:49Z</time>
      </trkpt>
      <trkpt lat="48.58989" lon="1.73168">
        <ele>141.45</ele>
        <time>2015-03-15T14:57:01Z</time>
      </trkpt>
      <trkpt lat="48.58996" lon="1.73174">
        <ele>140.01</ele>
        <time>2015-03-15T14:57:11Z</time>
      </trkpt>
      <trkpt lat="48.58997" lon="1.73175">
        <ele>140.01</ele>
        <time>2015-03-15T14:57:19Z</time>
      </trkpt>
      <trkpt lat="48.58998" lon="1.73175">
        <ele>140.01</ele>
        <time>2015-03-15T14:57:34Z</time>
      </trkpt>
      <trkpt lat="48.58999" lon="1.73174">
        <ele>140.01</ele>
        <time>2015-03-15T14:57:47Z</time>
      </trkpt>
      <trkpt lat="48.58999" lon="1.73175">
        <ele>138.57</ele>
        <time>2015-03-15T14:57:59Z</time>
      </trkpt>
      <trkpt lat="48.58999" lon="1.73177">
        <ele>140.97</ele>
        <time>2015-03-15T14:58:14Z</time>
      </trkpt>
      <trkpt lat="48.58998" lon="1.73175">
        <ele>140.97</ele>
        <time>2015-03-15T14:58:35Z</time>
      </trkpt>
      <trkpt lat="48.58997" lon="1.73174">
        <ele>140.97</ele>
        <time>2015-03-15T14:59:01Z</time>
      </trkpt>
      <trkpt lat="48.58997" lon="1.73175">
        <ele>140.97</ele>
        <time>2015-03-15T14:59:12Z</time>
      </trkpt>
      <trkpt lat="48.58996" lon="1.73175">
        <ele>140.97</ele>
        <time>2015-03-15T14:59:27Z</time>
      </trkpt>
      <trkpt lat="48.58997" lon="1.73176">
        <ele>141.45</ele>
        <time>2015-03-15T14:59:39Z</time>
      </trkpt>
      <trkpt lat="48.58998" lon="1.73173">
        <ele>141.45</ele>
        <time>2015-03-15T14:59:54Z</time>
      </trkpt>
      <trkpt lat="48.58997" lon="1.73175">
        <ele>140.01</ele>
        <time>2015-03-15T15:00:14Z</time>
      </trkpt>
      <trkpt lat="48.58998" lon="1.73176">
        <ele>140.01</ele>
        <time>2015-03-15T15:00:27Z</time>
      </trkpt>
      <trkpt lat="48.58999" lon="1.73177">
        <ele>140.49</ele>
        <time>2015-03-15T15:00:39Z</time>
      </trkpt>
      <trkpt lat="48.58999" lon="1.73175">
        <ele>140.49</ele>
        <time>2015-03-15T15:00:47Z</time>
      </trkpt>
      <trkpt lat="48.59" lon="1.73177">
        <ele>140.49</ele>
        <time>2015-03-15T15:00:56Z</time>
      </trkpt>
      <trkpt lat="48.58999" lon="1.73176">
        <ele>140.49</ele>
        <time>2015-03-15T15:01:10Z</time>
      </trkpt>
      <trkpt lat="48.58999" lon="1.73177">
        <ele>140.49</ele>
        <time>2015-03-15T15:01:21Z</time>
      </trkpt>
      <trkpt lat="48.59001" lon="1.7318">
        <ele>140.49</ele>
        <time>2015-03-15T15:01:29Z</time>
      </trkpt>
      <trkpt lat="48.59006" lon="1.73185">
        <ele>139.05</ele>
        <time>2015-03-15T15:01:38Z</time>
      </trkpt>
      <trkpt lat="48.5901" lon="1.73183">
        <ele>138.57</ele>
        <time>2015-03-15T15:01:45Z</time>
      </trkpt>
      <trkpt lat="48.59014" lon="1.73181">
        <ele>136.64</ele>
        <time>2015-03-15T15:01:53Z</time>
      </trkpt>
      <trkpt lat="48.59018" lon="1.73178">
        <ele>135.68</ele>
        <time>2015-03-15T15:02:01Z</time>
      </trkpt>
      <trkpt lat="48.59021" lon="1.73176">
        <ele>134.24</ele>
        <time>2015-03-15T15:02:07Z</time>
      </trkpt>
      <trkpt lat="48.59025" lon="1.73173">
        <ele>133.28</ele>
        <time>2015-03-15T15:02:14Z</time>
      </trkpt>
      <trkpt lat="48.59031" lon="1.7317">
        <ele>131.84</ele>
        <time>2015-03-15T15:02:23Z</time>
      </trkpt>
      <trkpt lat="48.59038" lon="1.73174">
        <ele>130.4</ele>
        <time>2015-03-15T15:02:33Z</time>
      </trkpt>
      <trkpt lat="48.59042" lon="1.7318">
        <ele>128.47</ele>
        <time>2015-03-15T15:02:43Z</time>
      </trkpt>
      <trkpt lat="48.59043" lon="1.73179">
        <ele>128.47</ele>
        <time>2015-03-15T15:02:51Z</time>
      </trkpt>
      <trkpt lat="48.59042" lon="1.73179">
        <ele>128.47</ele>
        <time>2015-03-15T15:02:52Z</time>
      </trkpt>
      <trkpt lat="48.59041" lon="1.7319">
        <ele>127.99</ele>
        <time>2015-03-15T15:03:00Z</time>
      </trkpt>
      <trkpt lat="48.59038" lon="1.73203">
        <ele>127.51</ele>
        <time>2015-03-15T15:03:08Z</time>
      </trkpt>
      <trkpt lat="48.59033" lon="1.73219">
        <ele>127.51</ele>
        <time>2015-03-15T15:03:18Z</time>
      </trkpt>
      <trkpt lat="48.59028" lon="1.73234">
        <ele>126.55</ele>
        <time>2015-03-15T15:03:27Z</time>
      </trkpt>
      <trkpt lat="48.59023" lon="1.73249">
        <ele>126.55</ele>
        <time>2015-03-15T15:03:36Z</time>
      </trkpt>
      <trkpt lat="48.59022" lon="1.73251">
        <ele>126.55</ele>
        <time>2015-03-15T15:03:41Z</time>
      </trkpt>
      <trkpt lat="48.5902" lon="1.73257">
        <ele>126.55</ele>
        <time>2015-03-15T15:03:45Z</time>
      </trkpt>
      <trkpt lat="48.59013" lon="1.73275">
        <ele>126.55</ele>
        <time>2015-03-15T15:03:56Z</time>
      </trkpt>
      <trkpt lat="48.5901" lon="1.73281">
        <ele>126.55</ele>
        <time>2015-03-15T15:04:00Z</time>
      </trkpt>
      <trkpt lat="48.59002" lon="1.73297">
        <ele>126.55</ele>
        <time>2015-03-15T15:04:10Z</time>
      </trkpt>
      <trkpt lat="48.58997" lon="1.73314">
        <ele>126.55</ele>
        <time>2015-03-15T15:04:20Z</time>
      </trkpt>
      <trkpt lat="48.58992" lon="1.73326">
        <ele>126.55</ele>
        <time>2015-03-15T15:04:28Z</time>
      </trkpt>
      <trkpt lat="48.58987" lon="1.73341">
        <ele>126.55</ele>
        <time>2015-03-15T15:04:38Z</time>
      </trkpt>
      <trkpt lat="48.5898" lon="1.73359">
        <ele>126.55</ele>
        <time>2015-03-15T15:04:49Z</time>
      </trkpt>
      <trkpt lat="48.58975" lon="1.73374">
        <ele>126.55</ele>
        <time>2015-03-15T15:04:59Z</time>
      </trkpt>
      <trkpt lat="48.58974" lon="1.73371">
        <ele>126.55</ele>
        <time>2015-03-15T15:05:05Z</time>
      </trkpt>
      <trkpt lat="48.58973" lon="1.73365">
        <ele>126.55</ele>
        <time>2015-03-15T15:05:13Z</time>
      </trkpt>
      <trkpt lat="48.58965" lon="1.7336">
        <ele>127.99</ele>
        <time>2015-03-15T15:05:24Z</time>
      </trkpt>
      <trkpt lat="48.58964" lon="1.7336">
        <ele>127.99</ele>
        <time>2015-03-15T15:05:25Z</time>
      </trkpt>
      <trkpt lat="48.58958" lon="1.73364">
        <ele>128.95</ele>
        <time>2015-03-15T15:05:35Z</time>
      </trkpt>
      <trkpt lat="48.58952" lon="1.73372">
        <ele>129.43</ele>
        <time>2015-03-15T15:05:44Z</time>
      </trkpt>
      <trkpt lat="48.58946" lon="1.7338">
        <ele>130.88</ele>
        <time>2015-03-15T15:05:53Z</time>
      </trkpt>
      <trkpt lat="48.5894" lon="1.73383">
        <ele>132.32</ele>
        <time>2015-03-15T15:06:02Z</time>
      </trkpt>
      <trkpt lat="48.58934" lon="1.73388">
        <ele>134.24</ele>
        <time>2015-03-15T15:06:10Z</time>
      </trkpt>
      <trkpt lat="48.58929" lon="1.73395">
        <ele>136.16</ele>
        <time>2015-03-15T15:06:20Z</time>
      </trkpt>
      <trkpt lat="48.58926" lon="1.73402">
        <ele>138.09</ele>
        <time>2015-03-15T15:06:30Z</time>
      </trkpt>
      <trkpt lat="48.58922" lon="1.73411">
        <ele>139.05</ele>
        <time>2015-03-15T15:06:39Z</time>
      </trkpt>
      <trkpt lat="48.58918" lon="1.7342">
        <ele>140.97</ele>
        <time>2015-03-15T15:06:47Z</time>
      </trkpt>
      <trkpt lat="48.58913" lon="1.7343">
        <ele>140.97</ele>
        <time>2015-03-15T15:06:56Z</time>
      </trkpt>
      <trkpt lat="48.58909" lon="1.73438">
        <ele>141.93</ele>
        <time>2015-03-15T15:07:04Z</time>
      </trkpt>
      <trkpt lat="48.58905" lon="1.73448">
        <ele>142.41</ele>
        <time>2015-03-15T15:07:13Z</time>
      </trkpt>
      <trkpt lat="48.58901" lon="1.73461">
        <ele>142.41</ele>
        <time>2015-03-15T15:07:22Z</time>
      </trkpt>
      <trkpt lat="48.58898" lon="1.73478">
        <ele>142.41</ele>
        <time>2015-03-15T15:07:31Z</time>
      </trkpt>
      <trkpt lat="48.58896" lon="1.73486">
        <ele>142.41</ele>
        <time>2015-03-15T15:07:39Z</time>
      </trkpt>
      <trkpt lat="48.58893" lon="1.73498">
        <ele>142.41</ele>
        <time>2015-03-15T15:07:48Z</time>
      </trkpt>
      <trkpt lat="48.58887" lon="1.73511">
        <ele>142.41</ele>
        <time>2015-03-15T15:07:58Z</time>
      </trkpt>
      <trkpt lat="48.58883" lon="1.73528">
        <ele>142.89</ele>
        <time>2015-03-15T15:08:09Z</time>
      </trkpt>
      <trkpt lat="48.5888" lon="1.73548">
        <ele>142.89</ele>
        <time>2015-03-15T15:08:23Z</time>
      </trkpt>
      <trkpt lat="48.58874" lon="1.73569">
        <ele>142.41</ele>
        <time>2015-03-15T15:08:35Z</time>
      </trkpt>
      <trkpt lat="48.58872" lon="1.73587">
        <ele>142.89</ele>
        <time>2015-03-15T15:08:46Z</time>
      </trkpt>
      <trkpt lat="48.58866" lon="1.73608">
        <ele>142.89</ele>
        <time>2015-03-15T15:08:56Z</time>
      </trkpt>
      <trkpt lat="48.58861" lon="1.73623">
        <ele>142.89</ele>
        <time>2015-03-15T15:09:06Z</time>
      </trkpt>
      <trkpt lat="48.58856" lon="1.73631">
        <ele>143.37</ele>
        <time>2015-03-15T15:09:14Z</time>
      </trkpt>
      <trkpt lat="48.58849" lon="1.73643">
        <ele>143.37</ele>
        <time>2015-03-15T15:09:24Z</time>
      </trkpt>
      <trkpt lat="48.58843" lon="1.73653">
        <ele>143.37</ele>
        <time>2015-03-15T15:09:32Z</time>
      </trkpt>
      <trkpt lat="48.58839" lon="1.7366">
        <ele>143.37</ele>
        <time>2015-03-15T15:09:40Z</time>
      </trkpt>
      <trkpt lat="48.58834" lon="1.73675">
        <ele>143.37</ele>
        <time>2015-03-15T15:09:50Z</time>
      </trkpt>
      <trkpt lat="48.58827" lon="1.73685">
        <ele>143.37</ele>
        <time>2015-03-15T15:09:59Z</time>
      </trkpt>
      <trkpt lat="48.58817" lon="1.73695">
        <ele>143.37</ele>
        <time>2015-03-15T15:10:08Z</time>
      </trkpt>
      <trkpt lat="48.58805" lon="1.73705">
        <ele>143.37</ele>
        <time>2015-03-15T15:10:18Z</time>
      </trkpt>
      <trkpt lat="48.58796" lon="1.73711">
        <ele>143.37</ele>
        <time>2015-03-15T15:10:26Z</time>
      </trkpt>
      <trkpt lat="48.58795" lon="1.73713">
        <ele>143.85</ele>
        <time>2015-03-15T15:10:28Z</time>
      </trkpt>
      <trkpt lat="48.58784" lon="1.73724">
        <ele>143.85</ele>
        <time>2015-03-15T15:10:39Z</time>
      </trkpt>
      <trkpt lat="48.58775" lon="1.73735">
        <ele>143.85</ele>
        <time>2015-03-15T15:10:50Z</time>
      </trkpt>
      <trkpt lat="48.58769" lon="1.73743">
        <ele>143.85</ele>
        <time>2015-03-15T15:10:58Z</time>
      </trkpt>
      <trkpt lat="48.58763" lon="1.7375">
        <ele>143.85</ele>
        <time>2015-03-15T15:11:07Z</time>
      </trkpt>
      <trkpt lat="48.58758" lon="1.73752">
        <ele>143.85</ele>
        <time>2015-03-15T15:11:12Z</time>
      </trkpt>
      <trkpt lat="48.58749" lon="1.73754">
        <ele>143.85</ele>
        <time>2015-03-15T15:11:20Z</time>
      </trkpt>
      <trkpt lat="48.58739" lon="1.73756">
        <ele>143.85</ele>
        <time>2015-03-15T15:11:29Z</time>
      </trkpt>
      <trkpt lat="48.5873" lon="1.73758">
        <ele>143.85</ele>
        <time>2015-03-15T15:11:38Z</time>
      </trkpt>
      <trkpt lat="48.58722" lon="1.73761">
        <ele>144.34</ele>
        <time>2015-03-15T15:11:47Z</time>
      </trkpt>
      <trkpt lat="48.5871" lon="1.73766">
        <ele>144.34</ele>
        <time>2015-03-15T15:11:57Z</time>
      </trkpt>
      <trkpt lat="48.58701" lon="1.73769">
        <ele>144.82</ele>
        <time>2015-03-15T15:12:04Z</time>
      </trkpt>
      <trkpt lat="48.58691" lon="1.73773">
        <ele>144.82</ele>
        <time>2015-03-15T15:12:14Z</time>
      </trkpt>
      <trkpt lat="48.58681" lon="1.73779">
        <ele>144.82</ele>
        <time>2015-03-15T15:12:24Z</time>
      </trkpt>
      <trkpt lat="48.5867" lon="1.73788">
        <ele>144.82</ele>
        <time>2015-03-15T15:12:33Z</time>
      </trkpt>
      <trkpt lat="48.58661" lon="1.73798">
        <ele>143.85</ele>
        <time>2015-03-15T15:12:41Z</time>
      </trkpt>
      <trkpt lat="48.5865" lon="1.73805">
        <ele>143.85</ele>
        <time>2015-03-15T15:12:50Z</time>
      </trkpt>
      <trkpt lat="48.58644" lon="1.73811">
        <ele>143.85</ele>
        <time>2015-03-15T15:12:59Z</time>
      </trkpt>
      <trkpt lat="48.58634" lon="1.73818">
        <ele>144.34</ele>
        <time>2015-03-15T15:13:08Z</time>
      </trkpt>
      <trkpt lat="48.58624" lon="1.73823">
        <ele>144.34</ele>
        <time>2015-03-15T15:13:18Z</time>
      </trkpt>
      <trkpt lat="48.58614" lon="1.73825">
        <ele>144.34</ele>
        <time>2015-03-15T15:13:28Z</time>
      </trkpt>
      <trkpt lat="48.58606" lon="1.73826">
        <ele>145.78</ele>
        <time>2015-03-15T15:13:35Z</time>
      </trkpt>
      <trkpt lat="48.58595" lon="1.73826">
        <ele>145.78</ele>
        <time>2015-03-15T15:13:44Z</time>
      </trkpt>
      <trkpt lat="48.58585" lon="1.73829">
        <ele>146.26</ele>
        <time>2015-03-15T15:13:54Z</time>
      </trkpt>
      <trkpt lat="48.58578" lon="1.73832">
        <ele>146.26</ele>
        <time>2015-03-15T15:14:01Z</time>
      </trkpt>
      <trkpt lat="48.58572" lon="1.73835">
        <ele>146.26</ele>
        <time>2015-03-15T15:14:08Z</time>
      </trkpt>
      <trkpt lat="48.58563" lon="1.73839">
        <ele>146.26</ele>
        <time>2015-03-15T15:14:17Z</time>
      </trkpt>
      <trkpt lat="48.58551" lon="1.73842">
        <ele>146.26</ele>
        <time>2015-03-15T15:14:27Z</time>
      </trkpt>
      <trkpt lat="48.58545" lon="1.73843">
        <ele>146.26</ele>
        <time>2015-03-15T15:14:32Z</time>
      </trkpt>
      <trkpt lat="48.58539" lon="1.73849">
        <ele>145.78</ele>
        <time>2015-03-15T15:14:37Z</time>
      </trkpt>
      <trkpt lat="48.58523" lon="1.73857">
        <ele>145.78</ele>
        <time>2015-03-15T15:14:48Z</time>
      </trkpt>
      <trkpt lat="48.58517" lon="1.73858">
        <ele>146.26</ele>
        <time>2015-03-15T15:14:53Z</time>
      </trkpt>
      <trkpt lat="48.58507" lon="1.73866">
        <ele>145.78</ele>
        <time>2015-03-15T15:15:03Z</time>
      </trkpt>
      <trkpt lat="48.58502" lon="1.73868">
        <ele>146.74</ele>
        <time>2015-03-15T15:15:08Z</time>
      </trkpt>
      <trkpt lat="48.58501" lon="1.73867">
        <ele>140.97</ele>
        <time>2015-03-15T15:15:13Z</time>
      </trkpt>
      <trkpt lat="48.58501" lon="1.73867">
        <ele>145.78</ele>
        <time>2015-03-15T15:15:14Z</time>
      </trkpt>
      <trkpt lat="48.58499" lon="1.73871">
        <ele>146.26</ele>
        <time>2015-03-15T15:15:25Z</time>
      </trkpt>
      <trkpt lat="48.58494" lon="1.73879">
        <ele>144.34</ele>
        <time>2015-03-15T15:15:32Z</time>
      </trkpt>
      <trkpt lat="48.5849" lon="1.73888">
        <ele>142.89</ele>
        <time>2015-03-15T15:15:39Z</time>
      </trkpt>
      <trkpt lat="48.58482" lon="1.73902">
        <ele>141.93</ele>
        <time>2015-03-15T15:15:48Z</time>
      </trkpt>
      <trkpt lat="48.58475" lon="1.73915">
        <ele>139.53</ele>
        <time>2015-03-15T15:15:58Z</time>
      </trkpt>
      <trkpt lat="48.58471" lon="1.73922">
        <ele>138.57</ele>
        <time>2015-03-15T15:16:05Z</time>
      </trkpt>
      <trkpt lat="48.58469" lon="1.7393">
        <ele>139.05</ele>
        <time>2015-03-15T15:16:11Z</time>
      </trkpt>
      <trkpt lat="48.58466" lon="1.73944">
        <ele>136.16</ele>
        <time>2015-03-15T15:16:19Z</time>
      </trkpt>
      <trkpt lat="48.58462" lon="1.7396">
        <ele>135.68</ele>
        <time>2015-03-15T15:16:28Z</time>
      </trkpt>
      <trkpt lat="48.58461" lon="1.73965">
        <ele>135.68</ele>
        <time>2015-03-15T15:16:31Z</time>
      </trkpt>
      <trkpt lat="48.5846" lon="1.73969">
        <ele>133.76</ele>
        <time>2015-03-15T15:16:33Z</time>
      </trkpt>
      <trkpt lat="48.58457" lon="1.73985">
        <ele>133.28</ele>
        <time>2015-03-15T15:16:42Z</time>
      </trkpt>
      <trkpt lat="48.58457" lon="1.73992">
        <ele>133.76</ele>
        <time>2015-03-15T15:16:46Z</time>
      </trkpt>
      <trkpt lat="48.58458" lon="1.74008">
        <ele>133.28</ele>
        <time>2015-03-15T15:16:55Z</time>
      </trkpt>
      <trkpt lat="48.58459" lon="1.74024">
        <ele>132.32</ele>
        <time>2015-03-15T15:17:04Z</time>
      </trkpt>
      <trkpt lat="48.58468" lon="1.74038">
        <ele>131.84</ele>
        <time>2015-03-15T15:17:14Z</time>
      </trkpt>
      <trkpt lat="48.58477" lon="1.74046">
        <ele>131.84</ele>
        <time>2015-03-15T15:17:23Z</time>
      </trkpt>
      <trkpt lat="48.58485" lon="1.74054">
        <ele>130.88</ele>
        <time>2015-03-15T15:17:31Z</time>
      </trkpt>
      <trkpt lat="48.58496" lon="1.74063">
        <ele>130.88</ele>
        <time>2015-03-15T15:17:41Z</time>
      </trkpt>
      <trkpt lat="48.58507" lon="1.74078">
        <ele>130.88</ele>
        <time>2015-03-15T15:17:53Z</time>
      </trkpt>
      <trkpt lat="48.58508" lon="1.74079">
        <ele>130.88</ele>
        <time>2015-03-15T15:17:54Z</time>
      </trkpt>
      <trkpt lat="48.58511" lon="1.7409">
        <ele>130.88</ele>
        <time>2015-03-15T15:18:02Z</time>
      </trkpt>
      <trkpt lat="48.58511" lon="1.74104">
        <ele>130.88</ele>
        <time>2015-03-15T15:18:12Z</time>
      </trkpt>
      <trkpt lat="48.58513" lon="1.74111">
        <ele>132.32</ele>
        <time>2015-03-15T15:18:18Z</time>
      </trkpt>
      <trkpt lat="48.58515" lon="1.74111">
        <ele>132.32</ele>
        <time>2015-03-15T15:18:20Z</time>
      </trkpt>
      <trkpt lat="48.58516" lon="1.74113">
        <ele>132.32</ele>
        <time>2015-03-15T15:18:22Z</time>
      </trkpt>
      <trkpt lat="48.58518" lon="1.74113">
        <ele>132.32</ele>
        <time>2015-03-15T15:18:30Z</time>
      </trkpt>
      <trkpt lat="48.58517" lon="1.74109">
        <ele>132.32</ele>
        <time>2015-03-15T15:18:40Z</time>
      </trkpt>
      <trkpt lat="48.58515" lon="1.74101">
        <ele>132.32</ele>
        <time>2015-03-15T15:18:48Z</time>
      </trkpt>
      <trkpt lat="48.58515" lon="1.74104">
        <ele>132.32</ele>
        <time>2015-03-15T15:18:57Z</time>
      </trkpt>
      <trkpt lat="48.58517" lon="1.74106">
        <ele>132.8</ele>
        <time>2015-03-15T15:19:07Z</time>
      </trkpt>
      <trkpt lat="48.58516" lon="1.74107">
        <ele>132.8</ele>
        <time>2015-03-15T15:19:19Z</time>
      </trkpt>
      <trkpt lat="48.58519" lon="1.74112">
        <ele>132.8</ele>
        <time>2015-03-15T15:19:36Z</time>
      </trkpt>
      <trkpt lat="48.58518" lon="1.74112">
        <ele>132.8</ele>
        <time>2015-03-15T15:19:51Z</time>
      </trkpt>
      <trkpt lat="48.58517" lon="1.74105">
        <ele>132.8</ele>
        <time>2015-03-15T15:20:02Z</time>
      </trkpt>
      <trkpt lat="48.5852" lon="1.74101">
        <ele>132.8</ele>
        <time>2015-03-15T15:20:19Z</time>
      </trkpt>
      <trkpt lat="48.5852" lon="1.74102">
        <ele>132.8</ele>
        <time>2015-03-15T15:20:31Z</time>
      </trkpt>
      <trkpt lat="48.58521" lon="1.74105">
        <ele>132.8</ele>
        <time>2015-03-15T15:20:41Z</time>
      </trkpt>
      <trkpt lat="48.5852" lon="1.74109">
        <ele>132.8</ele>
        <time>2015-03-15T15:20:59Z</time>
      </trkpt>
      <trkpt lat="48.58519" lon="1.74108">
        <ele>132.8</ele>
        <time>2015-03-15T15:21:08Z</time>
      </trkpt>
      <trkpt lat="48.58519" lon="1.74106">
        <ele>132.8</ele>
        <time>2015-03-15T15:21:20Z</time>
      </trkpt>
      <trkpt lat="48.5852" lon="1.74105">
        <ele>132.8</ele>
        <time>2015-03-15T15:21:32Z</time>
      </trkpt>
      <trkpt lat="48.58519" lon="1.74107">
        <ele>133.28</ele>
        <time>2015-03-15T15:21:42Z</time>
      </trkpt>
      <trkpt lat="48.58519" lon="1.74103">
        <ele>133.28</ele>
        <time>2015-03-15T15:21:55Z</time>
      </trkpt>
      <trkpt lat="48.58521" lon="1.74103">
        <ele>133.28</ele>
        <time>2015-03-15T15:22:12Z</time>
      </trkpt>
      <trkpt lat="48.58519" lon="1.74105">
        <ele>133.28</ele>
        <time>2015-03-15T15:22:26Z</time>
      </trkpt>
      <trkpt lat="48.58516" lon="1.74101">
        <ele>133.76</ele>
        <time>2015-03-15T15:22:35Z</time>
      </trkpt>
      <trkpt lat="48.58515" lon="1.74103">
        <ele>133.76</ele>
        <time>2015-03-15T15:22:45Z</time>
      </trkpt>
      <trkpt lat="48.58516" lon="1.74103">
        <ele>132.32</ele>
        <time>2015-03-15T15:22:58Z</time>
      </trkpt>
      <trkpt lat="48.58516" lon="1.74099">
        <ele>132.32</ele>
        <time>2015-03-15T15:23:17Z</time>
      </trkpt>
      <trkpt lat="48.58516" lon="1.74101">
        <ele>133.76</ele>
        <time>2015-03-15T15:23:30Z</time>
      </trkpt>
      <trkpt lat="48.58516" lon="1.74101">
        <ele>130.4</ele>
        <time>2015-03-15T15:23:32Z</time>
      </trkpt>
      <trkpt lat="48.58516" lon="1.74101">
        <ele>135.2</ele>
        <time>2015-03-15T15:23:33Z</time>
      </trkpt>
      <trkpt lat="48.58516" lon="1.741">
        <ele>133.76</ele>
        <time>2015-03-15T15:23:44Z</time>
      </trkpt>
      <trkpt lat="48.58516" lon="1.741">
        <ele>133.76</ele>
        <time>2015-03-15T15:23:56Z</time>
      </trkpt>
      <trkpt lat="48.58516" lon="1.74101">
        <ele>133.76</ele>
        <time>2015-03-15T15:24:10Z</time>
      </trkpt>
      <trkpt lat="48.58515" lon="1.74097">
        <ele>133.76</ele>
        <time>2015-03-15T15:24:26Z</time>
      </trkpt>
      <trkpt lat="48.58513" lon="1.74099">
        <ele>133.76</ele>
        <time>2015-03-15T15:24:36Z</time>
      </trkpt>
      <trkpt lat="48.5851" lon="1.74096">
        <ele>133.76</ele>
        <time>2015-03-15T15:24:49Z</time>
      </trkpt>
      <trkpt lat="48.58506" lon="1.74097">
        <ele>133.76</ele>
        <time>2015-03-15T15:24:53Z</time>
      </trkpt>
      <trkpt lat="48.58501" lon="1.74098">
        <ele>134.24</ele>
        <time>2015-03-15T15:24:58Z</time>
      </trkpt>
      <trkpt lat="48.58491" lon="1.74104">
        <ele>135.2</ele>
        <time>2015-03-15T15:25:09Z</time>
      </trkpt>
      <trkpt lat="48.58483" lon="1.74106">
        <ele>135.68</ele>
        <time>2015-03-15T15:25:16Z</time>
      </trkpt>
      <trkpt lat="48.58471" lon="1.74111">
        <ele>136.64</ele>
        <time>2015-03-15T15:25:27Z</time>
      </trkpt>
      <trkpt lat="48.58461" lon="1.74119">
        <ele>137.13</ele>
        <time>2015-03-15T15:25:34Z</time>
      </trkpt>
      <trkpt lat="48.58456" lon="1.74134">
        <ele>137.61</ele>
        <time>2015-03-15T15:25:43Z</time>
      </trkpt>
      <trkpt lat="48.58453" lon="1.74153">
        <ele>137.61</ele>
        <time>2015-03-15T15:25:51Z</time>
      </trkpt>
      <trkpt lat="48.58453" lon="1.74173">
        <ele>138.57</ele>
        <time>2015-03-15T15:25:59Z</time>
      </trkpt>
      <trkpt lat="48.58456" lon="1.74194">
        <ele>139.05</ele>
        <time>2015-03-15T15:26:08Z</time>
      </trkpt>
      <trkpt lat="48.58456" lon="1.74199">
        <ele>139.05</ele>
        <time>2015-03-15T15:26:11Z</time>
      </trkpt>
      <trkpt lat="48.58459" lon="1.74223">
        <ele>139.53</ele>
        <time>2015-03-15T15:26:22Z</time>
      </trkpt>
      <trkpt lat="48.58462" lon="1.74246">
        <ele>140.01</ele>
        <time>2015-03-15T15:26:33Z</time>
      </trkpt>
      <trkpt lat="48.58463" lon="1.74256">
        <ele>140.97</ele>
        <time>2015-03-15T15:26:41Z</time>
      </trkpt>
      <trkpt lat="48.58466" lon="1.74272">
        <ele>141.45</ele>
        <time>2015-03-15T15:26:51Z</time>
      </trkpt>
      <trkpt lat="48.58468" lon="1.7429">
        <ele>141.93</ele>
        <time>2015-03-15T15:27:01Z</time>
      </trkpt>
      <trkpt lat="48.58469" lon="1.74307">
        <ele>142.41</ele>
        <time>2015-03-15T15:27:11Z</time>
      </trkpt>
      <trkpt lat="48.5847" lon="1.74324">
        <ele>142.89</ele>
        <time>2015-03-15T15:27:21Z</time>
      </trkpt>
      <trkpt lat="48.5847" lon="1.74337">
        <ele>143.37</ele>
        <time>2015-03-15T15:27:27Z</time>
      </trkpt>
      <trkpt lat="48.5847" lon="1.74341">
        <ele>143.37</ele>
        <time>2015-03-15T15:27:29Z</time>
      </trkpt>
      <trkpt lat="48.5847" lon="1.74346">
        <ele>143.37</ele>
        <time>2015-03-15T15:27:32Z</time>
      </trkpt>
      <trkpt lat="48.58468" lon="1.74353">
        <ele>143.37</ele>
        <time>2015-03-15T15:27:36Z</time>
      </trkpt>
      <trkpt lat="48.58466" lon="1.74364">
        <ele>144.34</ele>
        <time>2015-03-15T15:27:45Z</time>
      </trkpt>
      <trkpt lat="48.58466" lon="1.74369">
        <ele>144.34</ele>
        <time>2015-03-15T15:27:51Z</time>
      </trkpt>
      <trkpt lat="48.58466" lon="1.74374">
        <ele>144.82</ele>
        <time>2015-03-15T15:27:58Z</time>
      </trkpt>
      <trkpt lat="48.58466" lon="1.74375">
        <ele>144.82</ele>
        <time>2015-03-15T15:27:59Z</time>
      </trkpt>
      <trkpt lat="48.58465" lon="1.74381">
        <ele>144.82</ele>
        <time>2015-03-15T15:28:03Z</time>
      </trkpt>
      <trkpt lat="48.58463" lon="1.74387">
        <ele>145.3</ele>
        <time>2015-03-15T15:28:08Z</time>
      </trkpt>
      <trkpt lat="48.58463" lon="1.74402">
        <ele>146.26</ele>
        <time>2015-03-15T15:28:17Z</time>
      </trkpt>
      <trkpt lat="48.58462" lon="1.74418">
        <ele>146.74</ele>
        <time>2015-03-15T15:28:26Z</time>
      </trkpt>
      <trkpt lat="48.58463" lon="1.74427">
        <ele>147.22</ele>
        <time>2015-03-15T15:28:35Z</time>
      </trkpt>
      <trkpt lat="48.58464" lon="1.7443">
        <ele>147.22</ele>
        <time>2015-03-15T15:28:48Z</time>
      </trkpt>
      <trkpt lat="48.58462" lon="1.74433">
        <ele>147.22</ele>
        <time>2015-03-15T15:28:54Z</time>
      </trkpt>
      <trkpt lat="48.58461" lon="1.74443">
        <ele>147.7</ele>
        <time>2015-03-15T15:29:03Z</time>
      </trkpt>
      <trkpt lat="48.5846" lon="1.74453">
        <ele>147.7</ele>
        <time>2015-03-15T15:29:12Z</time>
      </trkpt>
      <trkpt lat="48.58457" lon="1.74463">
        <ele>148.66</ele>
        <time>2015-03-15T15:29:20Z</time>
      </trkpt>
      <trkpt lat="48.58456" lon="1.74475">
        <ele>148.66</ele>
        <time>2015-03-15T15:29:28Z</time>
      </trkpt>
      <trkpt lat="48.58456" lon="1.7448">
        <ele>148.66</ele>
        <time>2015-03-15T15:29:31Z</time>
      </trkpt>
      <trkpt lat="48.58453" lon="1.74495">
        <ele>149.62</ele>
        <time>2015-03-15T15:29:40Z</time>
      </trkpt>
      <trkpt lat="48.58453" lon="1.74497">
        <ele>149.62</ele>
        <time>2015-03-15T15:29:41Z</time>
      </trkpt>
      <trkpt lat="48.58452" lon="1.745">
        <ele>149.62</ele>
        <time>2015-03-15T15:29:43Z</time>
      </trkpt>
      <trkpt lat="48.58452" lon="1.74514">
        <ele>150.58</ele>
        <time>2015-03-15T15:29:52Z</time>
      </trkpt>
      <trkpt lat="48.58451" lon="1.7453">
        <ele>151.06</ele>
        <time>2015-03-15T15:30:02Z</time>
      </trkpt>
      <trkpt lat="48.58451" lon="1.74545">
        <ele>151.54</ele>
        <time>2015-03-15T15:30:11Z</time>
      </trkpt>
      <trkpt lat="48.5845" lon="1.74558">
        <ele>152.51</ele>
        <time>2015-03-15T15:30:19Z</time>
      </trkpt>
      <trkpt lat="48.58447" lon="1.74575">
        <ele>152.99</ele>
        <time>2015-03-15T15:30:29Z</time>
      </trkpt>
      <trkpt lat="48.58446" lon="1.74578">
        <ele>152.99</ele>
        <time>2015-03-15T15:30:31Z</time>
      </trkpt>
      <trkpt lat="48.58445" lon="1.74592">
        <ele>153.47</ele>
        <time>2015-03-15T15:30:39Z</time>
      </trkpt>
      <trkpt lat="48.58442" lon="1.74604">
        <ele>153.47</ele>
        <time>2015-03-15T15:30:47Z</time>
      </trkpt>
      <trkpt lat="48.58441" lon="1.7462">
        <ele>153.95</ele>
        <time>2015-03-15T15:30:56Z</time>
      </trkpt>
      <trkpt lat="48.58438" lon="1.74635">
        <ele>154.43</ele>
        <time>2015-03-15T15:31:04Z</time>
      </trkpt>
      <trkpt lat="48.58436" lon="1.74654">
        <ele>154.43</ele>
        <time>2015-03-15T15:31:14Z</time>
      </trkpt>
      <trkpt lat="48.58436" lon="1.74668">
        <ele>154.91</ele>
        <time>2015-03-15T15:31:22Z</time>
      </trkpt>
      <trkpt lat="48.58438" lon="1.74682">
        <ele>154.91</ele>
        <time>2015-03-15T15:31:29Z</time>
      </trkpt>
      <trkpt lat="48.58439" lon="1.74698">
        <ele>154.91</ele>
        <time>2015-03-15T15:31:38Z</time>
      </trkpt>
      <trkpt lat="48.58439" lon="1.74714">
        <ele>155.39</ele>
        <time>2015-03-15T15:31:47Z</time>
      </trkpt>
      <trkpt lat="48.58438" lon="1.74728">
        <ele>155.39</ele>
        <time>2015-03-15T15:31:55Z</time>
      </trkpt>
      <trkpt lat="48.58437" lon="1.74744">
        <ele>155.39</ele>
        <time>2015-03-15T15:32:03Z</time>
      </trkpt>
      <trkpt lat="48.58436" lon="1.74759">
        <ele>154.91</ele>
        <time>2015-03-15T15:32:11Z</time>
      </trkpt>
      <trkpt lat="48.58435" lon="1.74778">
        <ele>154.91</ele>
        <time>2015-03-15T15:32:21Z</time>
      </trkpt>
      <trkpt lat="48.58434" lon="1.74791">
        <ele>154.91</ele>
        <time>2015-03-15T15:32:27Z</time>
      </trkpt>
      <trkpt lat="48.58433" lon="1.74815">
        <ele>153.47</ele>
        <time>2015-03-15T15:32:38Z</time>
      </trkpt>
      <trkpt lat="48.58433" lon="1.74831">
        <ele>153.47</ele>
        <time>2015-03-15T15:32:46Z</time>
      </trkpt>
      <trkpt lat="48.58433" lon="1.74847">
        <ele>152.99</ele>
        <time>2015-03-15T15:32:54Z</time>
      </trkpt>
      <trkpt lat="48.5843" lon="1.74862">
        <ele>152.51</ele>
        <time>2015-03-15T15:33:03Z</time>
      </trkpt>
      <trkpt lat="48.5843" lon="1.74878">
        <ele>152.51</ele>
        <time>2015-03-15T15:33:11Z</time>
      </trkpt>
      <trkpt lat="48.58429" lon="1.74896">
        <ele>152.03</ele>
        <time>2015-03-15T15:33:20Z</time>
      </trkpt>
      <trkpt lat="48.58429" lon="1.74916">
        <ele>151.54</ele>
        <time>2015-03-15T15:33:29Z</time>
      </trkpt>
      <trkpt lat="48.58428" lon="1.74937">
        <ele>151.06</ele>
        <time>2015-03-15T15:33:40Z</time>
      </trkpt>
      <trkpt lat="48.58427" lon="1.74947">
        <ele>150.58</ele>
        <time>2015-03-15T15:33:46Z</time>
      </trkpt>
      <trkpt lat="48.58426" lon="1.74961">
        <ele>150.58</ele>
        <time>2015-03-15T15:33:53Z</time>
      </trkpt>
      <trkpt lat="48.58424" lon="1.74976">
        <ele>150.1</ele>
        <time>2015-03-15T15:34:02Z</time>
      </trkpt>
      <trkpt lat="48.58425" lon="1.7498">
        <ele>150.1</ele>
        <time>2015-03-15T15:34:08Z</time>
      </trkpt>
      <trkpt lat="48.58425" lon="1.74987">
        <ele>150.1</ele>
        <time>2015-03-15T15:34:16Z</time>
      </trkpt>
      <trkpt lat="48.58424" lon="1.74991">
        <ele>150.1</ele>
        <time>2015-03-15T15:34:23Z</time>
      </trkpt>
      <trkpt lat="48.58423" lon="1.75002">
        <ele>148.66</ele>
        <time>2015-03-15T15:34:30Z</time>
      </trkpt>
      <trkpt lat="48.58423" lon="1.75014">
        <ele>148.66</ele>
        <time>2015-03-15T15:34:38Z</time>
      </trkpt>
      <trkpt lat="48.58421" lon="1.7502">
        <ele>149.62</ele>
        <time>2015-03-15T15:34:44Z</time>
      </trkpt>
      <trkpt lat="48.5842" lon="1.75031">
        <ele>149.62</ele>
        <time>2015-03-15T15:34:51Z</time>
      </trkpt>
      <trkpt lat="48.58419" lon="1.75038">
        <ele>148.18</ele>
        <time>2015-03-15T15:34:55Z</time>
      </trkpt>
      <trkpt lat="48.5842" lon="1.75045">
        <ele>148.18</ele>
        <time>2015-03-15T15:35:03Z</time>
      </trkpt>
      <trkpt lat="48.5842" lon="1.75056">
        <ele>148.18</ele>
        <time>2015-03-15T15:35:11Z</time>
      </trkpt>
      <trkpt lat="48.58419" lon="1.75077">
        <ele>147.7</ele>
        <time>2015-03-15T15:35:22Z</time>
      </trkpt>
      <trkpt lat="48.58417" lon="1.75099">
        <ele>146.74</ele>
        <time>2015-03-15T15:35:33Z</time>
      </trkpt>
      <trkpt lat="48.58415" lon="1.75115">
        <ele>146.74</ele>
        <time>2015-03-15T15:35:43Z</time>
      </trkpt>
      <trkpt lat="48.58411" lon="1.75132">
        <ele>145.78</ele>
        <time>2015-03-15T15:35:53Z</time>
      </trkpt>
      <trkpt lat="48.58408" lon="1.75148">
        <ele>145.3</ele>
        <time>2015-03-15T15:36:02Z</time>
      </trkpt>
      <trkpt lat="48.58405" lon="1.75161">
        <ele>145.3</ele>
        <time>2015-03-15T15:36:10Z</time>
      </trkpt>
      <trkpt lat="48.584" lon="1.75175">
        <ele>144.82</ele>
        <time>2015-03-15T15:36:18Z</time>
      </trkpt>
      <trkpt lat="48.58397" lon="1.75189">
        <ele>144.82</ele>
        <time>2015-03-15T15:36:28Z</time>
      </trkpt>
      <trkpt lat="48.58395" lon="1.75204">
        <ele>143.85</ele>
        <time>2015-03-15T15:36:36Z</time>
      </trkpt>
      <trkpt lat="48.58393" lon="1.75218">
        <ele>143.85</ele>
        <time>2015-03-15T15:36:44Z</time>
      </trkpt>
      <trkpt lat="48.58391" lon="1.75226">
        <ele>142.89</ele>
        <time>2015-03-15T15:36:50Z</time>
      </trkpt>
      <trkpt lat="48.58389" lon="1.7524">
        <ele>142.41</ele>
        <time>2015-03-15T15:36:58Z</time>
      </trkpt>
      <trkpt lat="48.58388" lon="1.75245">
        <ele>143.85</ele>
        <time>2015-03-15T15:37:01Z</time>
      </trkpt>
      <trkpt lat="48.58382" lon="1.7526">
        <ele>142.89</ele>
        <time>2015-03-15T15:37:11Z</time>
      </trkpt>
      <trkpt lat="48.58376" lon="1.75275">
        <ele>142.41</ele>
        <time>2015-03-15T15:37:21Z</time>
      </trkpt>
      <trkpt lat="48.58373" lon="1.75288">
        <ele>142.41</ele>
        <time>2015-03-15T15:37:29Z</time>
      </trkpt>
      <trkpt lat="48.58366" lon="1.75307">
        <ele>142.41</ele>
        <time>2015-03-15T15:37:40Z</time>
      </trkpt>
      <trkpt lat="48.58362" lon="1.75322">
        <ele>142.41</ele>
        <time>2015-03-15T15:37:49Z</time>
      </trkpt>
      <trkpt lat="48.58358" lon="1.75337">
        <ele>142.41</ele>
        <time>2015-03-15T15:37:57Z</time>
      </trkpt>
      <trkpt lat="48.58352" lon="1.75352">
        <ele>141.93</ele>
        <time>2015-03-15T15:38:07Z</time>
      </trkpt>
      <trkpt lat="48.58344" lon="1.75372">
        <ele>141.45</ele>
        <time>2015-03-15T15:38:18Z</time>
      </trkpt>
      <trkpt lat="48.58339" lon="1.75385">
        <ele>141.93</ele>
        <time>2015-03-15T15:38:26Z</time>
      </trkpt>
      <trkpt lat="48.58334" lon="1.75404">
        <ele>141.93</ele>
        <time>2015-03-15T15:38:35Z</time>
      </trkpt>
      <trkpt lat="48.5833" lon="1.75414">
        <ele>141.93</ele>
        <time>2015-03-15T15:38:42Z</time>
      </trkpt>
      <trkpt lat="48.58327" lon="1.75431">
        <ele>143.37</ele>
        <time>2015-03-15T15:38:50Z</time>
      </trkpt>
      <trkpt lat="48.58324" lon="1.75459">
        <ele>143.37</ele>
        <time>2015-03-15T15:39:01Z</time>
      </trkpt>
      <trkpt lat="48.5832" lon="1.75481">
        <ele>144.34</ele>
        <time>2015-03-15T15:39:11Z</time>
      </trkpt>
      <trkpt lat="48.58321" lon="1.75518">
        <ele>144.82</ele>
        <time>2015-03-15T15:39:21Z</time>
      </trkpt>
      <trkpt lat="48.58321" lon="1.75543">
        <ele>144.82</ele>
        <time>2015-03-15T15:39:31Z</time>
      </trkpt>
      <trkpt lat="48.58319" lon="1.7556">
        <ele>146.26</ele>
        <time>2015-03-15T15:39:40Z</time>
      </trkpt>
      <trkpt lat="48.58315" lon="1.75578">
        <ele>145.78</ele>
        <time>2015-03-15T15:39:49Z</time>
      </trkpt>
      <trkpt lat="48.58315" lon="1.7558">
        <ele>145.78</ele>
        <time>2015-03-15T15:39:50Z</time>
      </trkpt>
      <trkpt lat="48.58313" lon="1.75589">
        <ele>147.22</ele>
        <time>2015-03-15T15:39:55Z</time>
      </trkpt>
      <trkpt lat="48.58314" lon="1.75596">
        <ele>145.78</ele>
        <time>2015-03-15T15:39:59Z</time>
      </trkpt>
      <trkpt lat="48.58314" lon="1.756">
        <ele>147.22</ele>
        <time>2015-03-15T15:40:01Z</time>
      </trkpt>
      <trkpt lat="48.5831" lon="1.75604">
        <ele>147.22</ele>
        <time>2015-03-15T15:40:09Z</time>
      </trkpt>
      <trkpt lat="48.5831" lon="1.75606">
        <ele>147.7</ele>
        <time>2015-03-15T15:40:20Z</time>
      </trkpt>
      <trkpt lat="48.58309" lon="1.75605">
        <ele>147.7</ele>
        <time>2015-03-15T15:40:31Z</time>
      </trkpt>
      <trkpt lat="48.58308" lon="1.75608">
        <ele>147.7</ele>
        <time>2015-03-15T15:40:42Z</time>
      </trkpt>
      <trkpt lat="48.5831" lon="1.75607">
        <ele>147.7</ele>
        <time>2015-03-15T15:40:55Z</time>
      </trkpt>
      <trkpt lat="48.5831" lon="1.75605">
        <ele>147.7</ele>
        <time>2015-03-15T15:41:04Z</time>
      </trkpt>
      <trkpt lat="48.58309" lon="1.75609">
        <ele>147.7</ele>
        <time>2015-03-15T15:41:15Z</time>
      </trkpt>
      <trkpt lat="48.58307" lon="1.75614">
        <ele>147.7</ele>
        <time>2015-03-15T15:41:26Z</time>
      </trkpt>
      <trkpt lat="48.58307" lon="1.75613">
        <ele>147.7</ele>
        <time>2015-03-15T15:41:36Z</time>
      </trkpt>
      <trkpt lat="48.58308" lon="1.75611">
        <ele>147.7</ele>
        <time>2015-03-15T15:41:48Z</time>
      </trkpt>
      <trkpt lat="48.58308" lon="1.75608">
        <ele>147.22</ele>
        <time>2015-03-15T15:42:02Z</time>
      </trkpt>
      <trkpt lat="48.58307" lon="1.75608">
        <ele>147.22</ele>
        <time>2015-03-15T15:42:15Z</time>
      </trkpt>
      <trkpt lat="48.58304" lon="1.75606">
        <ele>146.74</ele>
        <time>2015-03-15T15:42:28Z</time>
      </trkpt>
      <trkpt lat="48.58302" lon="1.75603">
        <ele>146.74</ele>
        <time>2015-03-15T15:42:41Z</time>
      </trkpt>
      <trkpt lat="48.58302" lon="1.75603">
        <ele>146.74</ele>
        <time>2015-03-15T15:42:53Z</time>
      </trkpt>
      <trkpt lat="48.58307" lon="1.75611">
        <ele>147.22</ele>
        <time>2015-03-15T15:43:04Z</time>
      </trkpt>
      <trkpt lat="48.58309" lon="1.75615">
        <ele>147.22</ele>
        <time>2015-03-15T15:43:19Z</time>
      </trkpt>
      <trkpt lat="48.58308" lon="1.75615">
        <ele>147.22</ele>
        <time>2015-03-15T15:43:32Z</time>
      </trkpt>
      <trkpt lat="48.58307" lon="1.75617">
        <ele>147.22</ele>
        <time>2015-03-15T15:43:42Z</time>
      </trkpt>
      <trkpt lat="48.58307" lon="1.75617">
        <ele>147.22</ele>
        <time>2015-03-15T15:43:51Z</time>
      </trkpt>
      <trkpt lat="48.58307" lon="1.75618">
        <ele>147.22</ele>
        <time>2015-03-15T15:43:59Z</time>
      </trkpt>
      <trkpt lat="48.58308" lon="1.75622">
        <ele>147.22</ele>
        <time>2015-03-15T15:44:08Z</time>
      </trkpt>
      <trkpt lat="48.58306" lon="1.75631">
        <ele>145.78</ele>
        <time>2015-03-15T15:44:18Z</time>
      </trkpt>
      <trkpt lat="48.58306" lon="1.75632">
        <ele>145.78</ele>
        <time>2015-03-15T15:44:19Z</time>
      </trkpt>
      <trkpt lat="48.58304" lon="1.75638">
        <ele>147.7</ele>
        <time>2015-03-15T15:44:23Z</time>
      </trkpt>
      <trkpt lat="48.58303" lon="1.75641">
        <ele>147.7</ele>
        <time>2015-03-15T15:44:25Z</time>
      </trkpt>
      <trkpt lat="48.58301" lon="1.75646">
        <ele>142.41</ele>
        <time>2015-03-15T15:44:28Z</time>
      </trkpt>
      <trkpt lat="48.58301" lon="1.75648">
        <ele>147.22</ele>
        <time>2015-03-15T15:44:29Z</time>
      </trkpt>
      <trkpt lat="48.583" lon="1.75651">
        <ele>142.41</ele>
        <time>2015-03-15T15:44:31Z</time>
      </trkpt>
      <trkpt lat="48.58299" lon="1.75653">
        <ele>147.22</ele>
        <time>2015-03-15T15:44:32Z</time>
      </trkpt>
      <trkpt lat="48.58299" lon="1.75654">
        <ele>143.85</ele>
        <time>2015-03-15T15:44:33Z</time>
      </trkpt>
      <trkpt lat="48.58295" lon="1.75666">
        <ele>143.85</ele>
        <time>2015-03-15T15:44:42Z</time>
      </trkpt>
      <trkpt lat="48.58293" lon="1.75679">
        <ele>142.89</ele>
        <time>2015-03-15T15:44:52Z</time>
      </trkpt>
      <trkpt lat="48.58289" lon="1.75689">
        <ele>141.93</ele>
        <time>2015-03-15T15:45:02Z</time>
      </trkpt>
      <trkpt lat="48.58285" lon="1.757">
        <ele>140.97</ele>
        <time>2015-03-15T15:45:11Z</time>
      </trkpt>
      <trkpt lat="48.58282" lon="1.7571">
        <ele>140.49</ele>
        <time>2015-03-15T15:45:19Z</time>
      </trkpt>
      <trkpt lat="48.58273" lon="1.75729">
        <ele>140.49</ele>
        <time>2015-03-15T15:45:30Z</time>
      </trkpt>
      <trkpt lat="48.58264" lon="1.75745">
        <ele>140.01</ele>
        <time>2015-03-15T15:45:41Z</time>
      </trkpt>
      <trkpt lat="48.58254" lon="1.75761">
        <ele>139.53</ele>
        <time>2015-03-15T15:45:53Z</time>
      </trkpt>
      <trkpt lat="48.58245" lon="1.75774">
        <ele>139.05</ele>
        <time>2015-03-15T15:46:04Z</time>
      </trkpt>
      <trkpt lat="48.58237" lon="1.75786">
        <ele>139.53</ele>
        <time>2015-03-15T15:46:14Z</time>
      </trkpt>
      <trkpt lat="48.58233" lon="1.75791">
        <ele>139.53</ele>
        <time>2015-03-15T15:46:18Z</time>
      </trkpt>
      <trkpt lat="48.5822" lon="1.75806">
        <ele>139.53</ele>
        <time>2015-03-15T15:46:30Z</time>
      </trkpt>
      <trkpt lat="48.58212" lon="1.75815">
        <ele>139.53</ele>
        <time>2015-03-15T15:46:38Z</time>
      </trkpt>
      <trkpt lat="48.58205" lon="1.75827">
        <ele>139.05</ele>
        <time>2015-03-15T15:46:46Z</time>
      </trkpt>
      <trkpt lat="48.58197" lon="1.75846">
        <ele>139.05</ele>
        <time>2015-03-15T15:46:58Z</time>
      </trkpt>
      <trkpt lat="48.5819" lon="1.75868">
        <ele>139.05</ele>
        <time>2015-03-15T15:47:08Z</time>
      </trkpt>
      <trkpt lat="48.58184" lon="1.75892">
        <ele>139.05</ele>
        <time>2015-03-15T15:47:20Z</time>
      </trkpt>
      <trkpt lat="48.58178" lon="1.7591">
        <ele>139.05</ele>
        <time>2015-03-15T15:47:30Z</time>
      </trkpt>
      <trkpt lat="48.58174" lon="1.75925">
        <ele>139.05</ele>
        <time>2015-03-15T15:47:40Z</time>
      </trkpt>
      <trkpt lat="48.58172" lon="1.75931">
        <ele>139.05</ele>
        <time>2015-03-15T15:47:43Z</time>
      </trkpt>
      <trkpt lat="48.58168" lon="1.75946">
        <ele>139.05</ele>
        <time>2015-03-15T15:47:51Z</time>
      </trkpt>
      <trkpt lat="48.5816" lon="1.75959">
        <ele>139.05</ele>
        <time>2015-03-15T15:48:01Z</time>
      </trkpt>
      <trkpt lat="48.58155" lon="1.75968">
        <ele>139.05</ele>
        <time>2015-03-15T15:48:07Z</time>
      </trkpt>
      <trkpt lat="48.58152" lon="1.75979">
        <ele>139.05</ele>
        <time>2015-03-15T15:48:13Z</time>
      </trkpt>
      <trkpt lat="48.58149" lon="1.75997">
        <ele>139.53</ele>
        <time>2015-03-15T15:48:22Z</time>
      </trkpt>
      <trkpt lat="48.5815" lon="1.76003">
        <ele>140.01</ele>
        <time>2015-03-15T15:48:25Z</time>
      </trkpt>
      <trkpt lat="48.58154" lon="1.76021">
        <ele>140.49</ele>
        <time>2015-03-15T15:48:34Z</time>
      </trkpt>
      <trkpt lat="48.58158" lon="1.76042">
        <ele>140.97</ele>
        <time>2015-03-15T15:48:44Z</time>
      </trkpt>
      <trkpt lat="48.58162" lon="1.76059">
        <ele>140.97</ele>
        <time>2015-03-15T15:48:53Z</time>
      </trkpt>
      <trkpt lat="48.58166" lon="1.7608">
        <ele>141.45</ele>
        <time>2015-03-15T15:49:04Z</time>
      </trkpt>
      <trkpt lat="48.58168" lon="1.76091">
        <ele>141.45</ele>
        <time>2015-03-15T15:49:11Z</time>
      </trkpt>
      <trkpt lat="48.58167" lon="1.761">
        <ele>141.93</ele>
        <time>2015-03-15T15:49:20Z</time>
      </trkpt>
      <trkpt lat="48.5817" lon="1.76114">
        <ele>142.41</ele>
        <time>2015-03-15T15:49:28Z</time>
      </trkpt>
      <trkpt lat="48.58173" lon="1.7613">
        <ele>143.37</ele>
        <time>2015-03-15T15:49:38Z</time>
      </trkpt>
      <trkpt lat="48.58176" lon="1.76146">
        <ele>143.85</ele>
        <time>2015-03-15T15:49:48Z</time>
      </trkpt>
      <trkpt lat="48.58175" lon="1.76147">
        <ele>144.34</ele>
        <time>2015-03-15T15:49:55Z</time>
      </trkpt>
      <trkpt lat="48.58176" lon="1.76147">
        <ele>144.34</ele>
        <time>2015-03-15T15:50:04Z</time>
      </trkpt>
      <trkpt lat="48.58177" lon="1.76149">
        <ele>144.34</ele>
        <time>2015-03-15T15:50:08Z</time>
      </trkpt>
      <trkpt lat="48.58179" lon="1.76159">
        <ele>144.82</ele>
        <time>2015-03-15T15:50:16Z</time>
      </trkpt>
      <trkpt lat="48.58183" lon="1.76171">
        <ele>146.26</ele>
        <time>2015-03-15T15:50:25Z</time>
      </trkpt>
      <trkpt lat="48.58185" lon="1.76182">
        <ele>146.74</ele>
        <time>2015-03-15T15:50:31Z</time>
      </trkpt>
      <trkpt lat="48.5819" lon="1.76198">
        <ele>148.18</ele>
        <time>2015-03-15T15:50:41Z</time>
      </trkpt>
      <trkpt lat="48.58192" lon="1.76207">
        <ele>148.18</ele>
        <time>2015-03-15T15:50:46Z</time>
      </trkpt>
      <trkpt lat="48.58198" lon="1.76222">
        <ele>149.14</ele>
        <time>2015-03-15T15:50:56Z</time>
      </trkpt>
      <trkpt lat="48.58202" lon="1.76235">
        <ele>149.62</ele>
        <time>2015-03-15T15:51:03Z</time>
      </trkpt>
      <trkpt lat="48.58205" lon="1.7625">
        <ele>150.58</ele>
        <time>2015-03-15T15:51:11Z</time>
      </trkpt>
      <trkpt lat="48.58208" lon="1.76263">
        <ele>151.06</ele>
        <time>2015-03-15T15:51:19Z</time>
      </trkpt>
      <trkpt lat="48.5821" lon="1.76275">
        <ele>152.03</ele>
        <time>2015-03-15T15:51:26Z</time>
      </trkpt>
      <trkpt lat="48.58211" lon="1.7629">
        <ele>153.95</ele>
        <time>2015-03-15T15:51:35Z</time>
      </trkpt>
      <trkpt lat="48.58211" lon="1.76301">
        <ele>154.43</ele>
        <time>2015-03-15T15:51:43Z</time>
      </trkpt>
      <trkpt lat="48.58213" lon="1.7631">
        <ele>155.39</ele>
        <time>2015-03-15T15:51:50Z</time>
      </trkpt>
      <trkpt lat="48.58212" lon="1.76312">
        <ele>155.39</ele>
        <time>2015-03-15T15:51:52Z</time>
      </trkpt>
      <trkpt lat="48.58207" lon="1.7633">
        <ele>156.35</ele>
        <time>2015-03-15T15:52:01Z</time>
      </trkpt>
      <trkpt lat="48.58204" lon="1.76345">
        <ele>156.83</ele>
        <time>2015-03-15T15:52:09Z</time>
      </trkpt>
      <trkpt lat="48.58205" lon="1.76349">
        <ele>156.83</ele>
        <time>2015-03-15T15:52:17Z</time>
      </trkpt>
      <trkpt lat="48.58205" lon="1.76352">
        <ele>157.31</ele>
        <time>2015-03-15T15:52:28Z</time>
      </trkpt>
      <trkpt lat="48.58203" lon="1.76357">
        <ele>157.79</ele>
        <time>2015-03-15T15:52:33Z</time>
      </trkpt>
      <trkpt lat="48.58199" lon="1.7637">
        <ele>157.31</ele>
        <time>2015-03-15T15:52:42Z</time>
      </trkpt>
      <trkpt lat="48.58199" lon="1.7638">
        <ele>157.31</ele>
        <time>2015-03-15T15:52:50Z</time>
      </trkpt>
      <trkpt lat="48.58196" lon="1.76395">
        <ele>157.79</ele>
        <time>2015-03-15T15:53:01Z</time>
      </trkpt>
      <trkpt lat="48.58195" lon="1.76403">
        <ele>157.79</ele>
        <time>2015-03-15T15:53:06Z</time>
      </trkpt>
      <trkpt lat="48.58193" lon="1.76416">
        <ele>158.27</ele>
        <time>2015-03-15T15:53:14Z</time>
      </trkpt>
      <trkpt lat="48.58192" lon="1.76421">
        <ele>158.27</ele>
        <time>2015-03-15T15:53:21Z</time>
      </trkpt>
      <trkpt lat="48.58191" lon="1.76428">
        <ele>158.27</ele>
        <time>2015-03-15T15:53:30Z</time>
      </trkpt>
      <trkpt lat="48.58186" lon="1.76442">
        <ele>158.27</ele>
        <time>2015-03-15T15:53:39Z</time>
      </trkpt>
      <trkpt lat="48.58185" lon="1.76443">
        <ele>158.27</ele>
        <time>2015-03-15T15:53:41Z</time>
      </trkpt>
      <trkpt lat="48.58179" lon="1.76457">
        <ele>158.75</ele>
        <time>2015-03-15T15:53:51Z</time>
      </trkpt>
      <trkpt lat="48.58176" lon="1.76466">
        <ele>158.27</ele>
        <time>2015-03-15T15:53:59Z</time>
      </trkpt>
      <trkpt lat="48.58178" lon="1.76464">
        <ele>158.27</ele>
        <time>2015-03-15T15:54:08Z</time>
      </trkpt>
      <trkpt lat="48.58178" lon="1.76465">
        <ele>158.27</ele>
        <time>2015-03-15T15:54:25Z</time>
      </trkpt>
      <trkpt lat="48.58178" lon="1.76467">
        <ele>158.27</ele>
        <time>2015-03-15T15:54:43Z</time>
      </trkpt>
      <trkpt lat="48.58179" lon="1.76467">
        <ele>158.27</ele>
        <time>2015-03-15T15:55:00Z</time>
      </trkpt>
      <trkpt lat="48.58178" lon="1.76466">
        <ele>158.27</ele>
        <time>2015-03-15T15:55:13Z</time>
      </trkpt>
      <trkpt lat="48.58177" lon="1.76465">
        <ele>158.27</ele>
        <time>2015-03-15T15:55:31Z</time>
      </trkpt>
      <trkpt lat="48.58178" lon="1.76466">
        <ele>157.79</ele>
        <time>2015-03-15T15:55:47Z</time>
      </trkpt>
      <trkpt lat="48.58177" lon="1.76466">
        <ele>157.79</ele>
        <time>2015-03-15T15:56:11Z</time>
      </trkpt>
      <trkpt lat="48.58178" lon="1.76466">
        <ele>156.83</ele>
        <time>2015-03-15T15:56:26Z</time>
      </trkpt>
      <trkpt lat="48.58178" lon="1.76466">
        <ele>158.75</ele>
        <time>2015-03-15T15:56:28Z</time>
      </trkpt>
      <trkpt lat="48.58177" lon="1.76467">
        <ele>158.75</ele>
        <time>2015-03-15T15:56:41Z</time>
      </trkpt>
      <trkpt lat="48.58173" lon="1.76472">
        <ele>157.31</ele>
        <time>2015-03-15T15:56:49Z</time>
      </trkpt>
      <trkpt lat="48.58173" lon="1.76474">
        <ele>158.75</ele>
        <time>2015-03-15T15:56:53Z</time>
      </trkpt>
      <trkpt lat="48.58171" lon="1.76481">
        <ele>158.75</ele>
        <time>2015-03-15T15:57:01Z</time>
      </trkpt>
      <trkpt lat="48.58165" lon="1.76491">
        <ele>158.75</ele>
        <time>2015-03-15T15:57:11Z</time>
      </trkpt>
      <trkpt lat="48.58163" lon="1.76495">
        <ele>158.75</ele>
        <time>2015-03-15T15:57:14Z</time>
      </trkpt>
      <trkpt lat="48.58153" lon="1.76509">
        <ele>157.31</ele>
        <time>2015-03-15T15:57:25Z</time>
      </trkpt>
      <trkpt lat="48.58152" lon="1.7651">
        <ele>157.31</ele>
        <time>2015-03-15T15:57:26Z</time>
      </trkpt>
      <trkpt lat="48.58144" lon="1.76521">
        <ele>157.31</ele>
        <time>2015-03-15T15:57:35Z</time>
      </trkpt>
      <trkpt lat="48.58136" lon="1.76527">
        <ele>156.83</ele>
        <time>2015-03-15T15:57:43Z</time>
      </trkpt>
      <trkpt lat="48.58125" lon="1.7654">
        <ele>156.35</ele>
        <time>2015-03-15T15:57:55Z</time>
      </trkpt>
      <trkpt lat="48.58113" lon="1.76551">
        <ele>155.87</ele>
        <time>2015-03-15T15:58:06Z</time>
      </trkpt>
      <trkpt lat="48.58107" lon="1.76559">
        <ele>155.39</ele>
        <time>2015-03-15T15:58:14Z</time>
      </trkpt>
      <trkpt lat="48.58097" lon="1.76569">
        <ele>153.95</ele>
        <time>2015-03-15T15:58:23Z</time>
      </trkpt>
      <trkpt lat="48.58085" lon="1.76581">
        <ele>152.99</ele>
        <time>2015-03-15T15:58:35Z</time>
      </trkpt>
      <trkpt lat="48.58072" lon="1.76592">
        <ele>152.03</ele>
        <time>2015-03-15T15:58:45Z</time>
      </trkpt>
      <trkpt lat="48.58061" lon="1.76603">
        <ele>151.54</ele>
        <time>2015-03-15T15:58:54Z</time>
      </trkpt>
      <trkpt lat="48.58051" lon="1.76613">
        <ele>151.54</ele>
        <time>2015-03-15T15:59:03Z</time>
      </trkpt>
      <trkpt lat="48.58039" lon="1.76626">
        <ele>151.06</ele>
        <time>2015-03-15T15:59:14Z</time>
      </trkpt>
      <trkpt lat="48.58026" lon="1.76637">
        <ele>150.58</ele>
        <time>2015-03-15T15:59:25Z</time>
      </trkpt>
      <trkpt lat="48.58023" lon="1.7664">
        <ele>150.58</ele>
        <time>2015-03-15T15:59:28Z</time>
      </trkpt>
      <trkpt lat="48.58021" lon="1.76644">
        <ele>150.58</ele>
        <time>2015-03-15T15:59:34Z</time>
      </trkpt>
      <trkpt lat="48.58022" lon="1.76645">
        <ele>150.58</ele>
        <time>2015-03-15T15:59:35Z</time>
      </trkpt>
      <trkpt lat="48.58016" lon="1.76652">
        <ele>150.58</ele>
        <time>2015-03-15T15:59:42Z</time>
      </trkpt>
      <trkpt lat="48.58007" lon="1.76663">
        <ele>150.58</ele>
        <time>2015-03-15T15:59:52Z</time>
      </trkpt>
      <trkpt lat="48.58006" lon="1.76665">
        <ele>150.58</ele>
        <time>2015-03-15T16:00:01Z</time>
      </trkpt>
      <trkpt lat="48.58003" lon="1.76668">
        <ele>150.58</ele>
        <time>2015-03-15T16:00:08Z</time>
      </trkpt>
      <trkpt lat="48.57994" lon="1.76676">
        <ele>150.58</ele>
        <time>2015-03-15T16:00:17Z</time>
      </trkpt>
      <trkpt lat="48.57984" lon="1.76686">
        <ele>150.58</ele>
        <time>2015-03-15T16:00:27Z</time>
      </trkpt>
      <trkpt lat="48.57976" lon="1.76695">
        <ele>150.1</ele>
        <time>2015-03-15T16:00:35Z</time>
      </trkpt>
      <trkpt lat="48.57968" lon="1.76707">
        <ele>151.54</ele>
        <time>2015-03-15T16:00:44Z</time>
      </trkpt>
      <trkpt lat="48.57966" lon="1.76709">
        <ele>151.54</ele>
        <time>2015-03-15T16:00:46Z</time>
      </trkpt>
      <trkpt lat="48.57958" lon="1.76718">
        <ele>152.03</ele>
        <time>2015-03-15T16:00:55Z</time>
      </trkpt>
      <trkpt lat="48.57956" lon="1.76725">
        <ele>152.03</ele>
        <time>2015-03-15T16:01:02Z</time>
      </trkpt>
      <trkpt lat="48.57955" lon="1.76731">
        <ele>152.03</ele>
        <time>2015-03-15T16:01:10Z</time>
      </trkpt>
      <trkpt lat="48.57956" lon="1.76733">
        <ele>151.54</ele>
        <time>2015-03-15T16:01:21Z</time>
      </trkpt>
      <trkpt lat="48.57957" lon="1.76736">
        <ele>152.51</ele>
        <time>2015-03-15T16:01:29Z</time>
      </trkpt>
      <trkpt lat="48.57957" lon="1.76735">
        <ele>152.51</ele>
        <time>2015-03-15T16:01:38Z</time>
      </trkpt>
      <trkpt lat="48.57956" lon="1.76733">
        <ele>152.03</ele>
        <time>2015-03-15T16:01:50Z</time>
      </trkpt>
      <trkpt lat="48.57955" lon="1.76735">
        <ele>152.03</ele>
        <time>2015-03-15T16:02:01Z</time>
      </trkpt>
      <trkpt lat="48.57956" lon="1.76742">
        <ele>152.03</ele>
        <time>2015-03-15T16:02:08Z</time>
      </trkpt>
      <trkpt lat="48.57955" lon="1.76751">
        <ele>152.03</ele>
        <time>2015-03-15T16:02:14Z</time>
      </trkpt>
      <trkpt lat="48.57956" lon="1.76767">
        <ele>152.51</ele>
        <time>2015-03-15T16:02:23Z</time>
      </trkpt>
      <trkpt lat="48.57956" lon="1.76783">
        <ele>152.99</ele>
        <time>2015-03-15T16:02:32Z</time>
      </trkpt>
      <trkpt lat="48.57955" lon="1.76795">
        <ele>152.99</ele>
        <time>2015-03-15T16:02:40Z</time>
      </trkpt>
      <trkpt lat="48.57955" lon="1.76811">
        <ele>153.47</ele>
        <time>2015-03-15T16:02:49Z</time>
      </trkpt>
      <trkpt lat="48.57955" lon="1.76826">
        <ele>153.95</ele>
        <time>2015-03-15T16:02:58Z</time>
      </trkpt>
      <trkpt lat="48.57955" lon="1.76838">
        <ele>154.43</ele>
        <time>2015-03-15T16:03:05Z</time>
      </trkpt>
      <trkpt lat="48.57956" lon="1.76853">
        <ele>154.43</ele>
        <time>2015-03-15T16:03:14Z</time>
      </trkpt>
      <trkpt lat="48.57956" lon="1.76867">
        <ele>154.43</ele>
        <time>2015-03-15T16:03:23Z</time>
      </trkpt>
      <trkpt lat="48.57955" lon="1.7688">
        <ele>154.91</ele>
        <time>2015-03-15T16:03:31Z</time>
      </trkpt>
      <trkpt lat="48.57954" lon="1.76883">
        <ele>154.91</ele>
        <time>2015-03-15T16:03:33Z</time>
      </trkpt>
      <trkpt lat="48.57953" lon="1.76901">
        <ele>154.91</ele>
        <time>2015-03-15T16:03:43Z</time>
      </trkpt>
      <trkpt lat="48.57952" lon="1.76917">
        <ele>155.39</ele>
        <time>2015-03-15T16:03:52Z</time>
      </trkpt>
      <trkpt lat="48.57951" lon="1.76931">
        <ele>155.39</ele>
        <time>2015-03-15T16:04:01Z</time>
      </trkpt>
      <trkpt lat="48.57951" lon="1.76945">
        <ele>155.87</ele>
        <time>2015-03-15T16:04:09Z</time>
      </trkpt>
      <trkpt lat="48.57949" lon="1.76956">
        <ele>156.35</ele>
        <time>2015-03-15T16:04:15Z</time>
      </trkpt>
      <trkpt lat="48.57949" lon="1.76971">
        <ele>155.87</ele>
        <time>2015-03-15T16:04:24Z</time>
      </trkpt>
      <trkpt lat="48.57949" lon="1.76983">
        <ele>156.83</ele>
        <time>2015-03-15T16:04:31Z</time>
      </trkpt>
      <trkpt lat="48.57946" lon="1.77002">
        <ele>156.83</ele>
        <time>2015-03-15T16:04:41Z</time>
      </trkpt>
      <trkpt lat="48.57946" lon="1.77011">
        <ele>156.83</ele>
        <time>2015-03-15T16:04:46Z</time>
      </trkpt>
      <trkpt lat="48.57944" lon="1.77028">
        <ele>156.83</ele>
        <time>2015-03-15T16:04:55Z</time>
      </trkpt>
      <trkpt lat="48.57944" lon="1.7703">
        <ele>156.83</ele>
        <time>2015-03-15T16:04:56Z</time>
      </trkpt>
      <trkpt lat="48.57942" lon="1.77053">
        <ele>156.83</ele>
        <time>2015-03-15T16:05:08Z</time>
      </trkpt>
      <trkpt lat="48.57942" lon="1.77063">
        <ele>157.31</ele>
        <time>2015-03-15T16:05:17Z</time>
      </trkpt>
      <trkpt lat="48.57942" lon="1.77065">
        <ele>157.31</ele>
        <time>2015-03-15T16:05:20Z</time>
      </trkpt>
      <trkpt lat="48.57945" lon="1.77071">
        <ele>157.31</ele>
        <time>2015-03-15T16:05:27Z</time>
      </trkpt>
      <trkpt lat="48.57945" lon="1.77072">
        <ele>157.31</ele>
        <time>2015-03-15T16:05:32Z</time>
      </trkpt>
      <trkpt lat="48.57942" lon="1.7708">
        <ele>157.31</ele>
        <time>2015-03-15T16:05:37Z</time>
      </trkpt>
      <trkpt lat="48.57943" lon="1.77084">
        <ele>157.31</ele>
        <time>2015-03-15T16:05:43Z</time>
      </trkpt>
      <trkpt lat="48.57943" lon="1.77085">
        <ele>157.79</ele>
        <time>2015-03-15T16:05:46Z</time>
      </trkpt>
      <trkpt lat="48.57941" lon="1.77091">
        <ele>157.79</ele>
        <time>2015-03-15T16:05:54Z</time>
      </trkpt>
      <trkpt lat="48.5794" lon="1.77098">
        <ele>157.79</ele>
        <time>2015-03-15T16:06:07Z</time>
      </trkpt>
      <trkpt lat="48.57935" lon="1.77119">
        <ele>157.79</ele>
        <time>2015-03-15T16:06:15Z</time>
      </trkpt>
      <trkpt lat="48.57932" lon="1.77138">
        <ele>158.27</ele>
        <time>2015-03-15T16:06:25Z</time>
      </trkpt>
      <trkpt lat="48.57929" lon="1.77155">
        <ele>158.27</ele>
        <time>2015-03-15T16:06:35Z</time>
      </trkpt>
      <trkpt lat="48.57928" lon="1.77179">
        <ele>158.75</ele>
        <time>2015-03-15T16:06:47Z</time>
      </trkpt>
      <trkpt lat="48.57925" lon="1.77201">
        <ele>158.75</ele>
        <time>2015-03-15T16:06:59Z</time>
      </trkpt>
      <trkpt lat="48.57923" lon="1.77222">
        <ele>158.75</ele>
        <time>2015-03-15T16:07:10Z</time>
      </trkpt>
      <trkpt lat="48.57921" lon="1.77242">
        <ele>159.24</ele>
        <time>2015-03-15T16:07:21Z</time>
      </trkpt>
      <trkpt lat="48.57919" lon="1.77259">
        <ele>159.24</ele>
        <time>2015-03-15T16:07:30Z</time>
      </trkpt>
      <trkpt lat="48.57918" lon="1.77278">
        <ele>159.72</ele>
        <time>2015-03-15T16:07:40Z</time>
      </trkpt>
      <trkpt lat="48.57917" lon="1.77298">
        <ele>160.2</ele>
        <time>2015-03-15T16:07:51Z</time>
      </trkpt>
      <trkpt lat="48.5792" lon="1.77315">
        <ele>159.72</ele>
        <time>2015-03-15T16:08:00Z</time>
      </trkpt>
      <trkpt lat="48.57928" lon="1.77325">
        <ele>160.2</ele>
        <time>2015-03-15T16:08:08Z</time>
      </trkpt>
      <trkpt lat="48.5794" lon="1.77329">
        <ele>160.2</ele>
        <time>2015-03-15T16:08:18Z</time>
      </trkpt>
      <trkpt lat="48.57947" lon="1.77334">
        <ele>160.2</ele>
        <time>2015-03-15T16:08:25Z</time>
      </trkpt>
      <trkpt lat="48.57954" lon="1.77352">
        <ele>160.2</ele>
        <time>2015-03-15T16:08:35Z</time>
      </trkpt>
      <trkpt lat="48.5796" lon="1.77365">
        <ele>160.2</ele>
        <time>2015-03-15T16:08:43Z</time>
      </trkpt>
      <trkpt lat="48.57957" lon="1.77378">
        <ele>160.68</ele>
        <time>2015-03-15T16:08:51Z</time>
      </trkpt>
      <trkpt lat="48.57946" lon="1.77393">
        <ele>160.68</ele>
        <time>2015-03-15T16:09:02Z</time>
      </trkpt>
      <trkpt lat="48.57941" lon="1.77407">
        <ele>160.68</ele>
        <time>2015-03-15T16:09:12Z</time>
      </trkpt>
      <trkpt lat="48.57937" lon="1.77423">
        <ele>160.68</ele>
        <time>2015-03-15T16:09:21Z</time>
      </trkpt>
      <trkpt lat="48.57937" lon="1.77437">
        <ele>160.68</ele>
        <time>2015-03-15T16:09:30Z</time>
      </trkpt>
      <trkpt lat="48.57936" lon="1.77436">
        <ele>160.68</ele>
        <time>2015-03-15T16:09:40Z</time>
      </trkpt>
      <trkpt lat="48.57936" lon="1.77436">
        <ele>160.68</ele>
        <time>2015-03-15T16:09:54Z</time>
      </trkpt>
      <trkpt lat="48.57937" lon="1.77435">
        <ele>160.68</ele>
        <time>2015-03-15T16:10:06Z</time>
      </trkpt>
      <trkpt lat="48.57934" lon="1.77438">
        <ele>160.68</ele>
        <time>2015-03-15T16:10:15Z</time>
      </trkpt>
      <trkpt lat="48.57933" lon="1.77439">
        <ele>160.68</ele>
        <time>2015-03-15T16:10:16Z</time>
      </trkpt>
      <trkpt lat="48.57929" lon="1.7744">
        <ele>160.68</ele>
        <time>2015-03-15T16:10:22Z</time>
      </trkpt>
      <trkpt lat="48.57928" lon="1.77442">
        <ele>159.24</ele>
        <time>2015-03-15T16:10:23Z</time>
      </trkpt>
      <trkpt lat="48.57927" lon="1.77444">
        <ele>159.24</ele>
        <time>2015-03-15T16:10:24Z</time>
      </trkpt>
      <trkpt lat="48.57925" lon="1.77446">
        <ele>160.68</ele>
        <time>2015-03-15T16:10:26Z</time>
      </trkpt>
      <trkpt lat="48.57918" lon="1.77453">
        <ele>160.68</ele>
        <time>2015-03-15T16:10:32Z</time>
      </trkpt>
      <trkpt lat="48.57917" lon="1.77454">
        <ele>160.68</ele>
        <time>2015-03-15T16:10:33Z</time>
      </trkpt>
      <trkpt lat="48.57916" lon="1.77454">
        <ele>160.68</ele>
        <time>2015-03-15T16:10:34Z</time>
      </trkpt>
      <trkpt lat="48.57908" lon="1.7746">
        <ele>160.68</ele>
        <time>2015-03-15T16:10:42Z</time>
      </trkpt>
      <trkpt lat="48.57902" lon="1.77463">
        <ele>161.16</ele>
        <time>2015-03-15T16:10:49Z</time>
      </trkpt>
      <trkpt lat="48.579" lon="1.77464">
        <ele>161.16</ele>
        <time>2015-03-15T16:10:51Z</time>
      </trkpt>
      <trkpt lat="48.57898" lon="1.77465">
        <ele>161.16</ele>
        <time>2015-03-15T16:10:52Z</time>
      </trkpt>
      <trkpt lat="48.57894" lon="1.7747">
        <ele>161.16</ele>
        <time>2015-03-15T16:10:57Z</time>
      </trkpt>
      <trkpt lat="48.57893" lon="1.77471">
        <ele>161.16</ele>
        <time>2015-03-15T16:10:58Z</time>
      </trkpt>
      <trkpt lat="48.57889" lon="1.77482">
        <ele>161.16</ele>
        <time>2015-03-15T16:11:06Z</time>
      </trkpt>
      <trkpt lat="48.57888" lon="1.77499">
        <ele>161.64</ele>
        <time>2015-03-15T16:11:15Z</time>
      </trkpt>
      <trkpt lat="48.57886" lon="1.77515">
        <ele>161.64</ele>
        <time>2015-03-15T16:11:25Z</time>
      </trkpt>
      <trkpt lat="48.57883" lon="1.77529">
        <ele>161.64</ele>
        <time>2015-03-15T16:11:34Z</time>
      </trkpt>
      <trkpt lat="48.57879" lon="1.77546">
        <ele>161.64</ele>
        <time>2015-03-15T16:11:44Z</time>
      </trkpt>
      <trkpt lat="48.57875" lon="1.77565">
        <ele>161.64</ele>
        <time>2015-03-15T16:11:54Z</time>
      </trkpt>
      <trkpt lat="48.57872" lon="1.7758">
        <ele>161.64</ele>
        <time>2015-03-15T16:12:03Z</time>
      </trkpt>
      <trkpt lat="48.57868" lon="1.77597">
        <ele>161.64</ele>
        <time>2015-03-15T16:12:13Z</time>
      </trkpt>
      <trkpt lat="48.57864" lon="1.77613">
        <ele>161.64</ele>
        <time>2015-03-15T16:12:23Z</time>
      </trkpt>
      <trkpt lat="48.57861" lon="1.7763">
        <ele>161.64</ele>
        <time>2015-03-15T16:12:33Z</time>
      </trkpt>
      <trkpt lat="48.57856" lon="1.77646">
        <ele>161.64</ele>
        <time>2015-03-15T16:12:42Z</time>
      </trkpt>
      <trkpt lat="48.57852" lon="1.77663">
        <ele>161.64</ele>
        <time>2015-03-15T16:12:52Z</time>
      </trkpt>
      <trkpt lat="48.57847" lon="1.77682">
        <ele>161.64</ele>
        <time>2015-03-15T16:13:03Z</time>
      </trkpt>
      <trkpt lat="48.57842" lon="1.77699">
        <ele>161.64</ele>
        <time>2015-03-15T16:13:13Z</time>
      </trkpt>
      <trkpt lat="48.57839" lon="1.77716">
        <ele>162.6</ele>
        <time>2015-03-15T16:13:22Z</time>
      </trkpt>
      <trkpt lat="48.57838" lon="1.7772">
        <ele>161.16</ele>
        <time>2015-03-15T16:13:24Z</time>
      </trkpt>
      <trkpt lat="48.57834" lon="1.77735">
        <ele>161.16</ele>
        <time>2015-03-15T16:13:33Z</time>
      </trkpt>
      <trkpt lat="48.57832" lon="1.77751">
        <ele>161.16</ele>
        <time>2015-03-15T16:13:43Z</time>
      </trkpt>
      <trkpt lat="48.57835" lon="1.77757">
        <ele>161.16</ele>
        <time>2015-03-15T16:13:51Z</time>
      </trkpt>
      <trkpt lat="48.57835" lon="1.77759">
        <ele>161.16</ele>
        <time>2015-03-15T16:14:00Z</time>
      </trkpt>
      <trkpt lat="48.57835" lon="1.77759">
        <ele>162.12</ele>
        <time>2015-03-15T16:14:10Z</time>
      </trkpt>
      <trkpt lat="48.57836" lon="1.77758">
        <ele>162.12</ele>
        <time>2015-03-15T16:14:19Z</time>
      </trkpt>
      <trkpt lat="48.57835" lon="1.77759">
        <ele>162.12</ele>
        <time>2015-03-15T16:14:30Z</time>
      </trkpt>
      <trkpt lat="48.57835" lon="1.77762">
        <ele>160.68</ele>
        <time>2015-03-15T16:14:37Z</time>
      </trkpt>
      <trkpt lat="48.57834" lon="1.77767">
        <ele>161.16</ele>
        <time>2015-03-15T16:14:45Z</time>
      </trkpt>
      <trkpt lat="48.57835" lon="1.77766">
        <ele>160.68</ele>
        <time>2015-03-15T16:14:57Z</time>
      </trkpt>
      <trkpt lat="48.57834" lon="1.77769">
        <ele>160.68</ele>
        <time>2015-03-15T16:15:07Z</time>
      </trkpt>
      <trkpt lat="48.57834" lon="1.77774">
        <ele>160.68</ele>
        <time>2015-03-15T16:15:14Z</time>
      </trkpt>
      <trkpt lat="48.57834" lon="1.77772">
        <ele>160.68</ele>
        <time>2015-03-15T16:15:28Z</time>
      </trkpt>
      <trkpt lat="48.57832" lon="1.77776">
        <ele>160.68</ele>
        <time>2015-03-15T16:15:40Z</time>
      </trkpt>
      <trkpt lat="48.57832" lon="1.77778">
        <ele>160.68</ele>
        <time>2015-03-15T16:15:41Z</time>
      </trkpt>
      <trkpt lat="48.57832" lon="1.77776">
        <ele>161.16</ele>
        <time>2015-03-15T16:15:47Z</time>
      </trkpt>
      <trkpt lat="48.57836" lon="1.77771">
        <ele>160.2</ele>
        <time>2015-03-15T16:15:53Z</time>
      </trkpt>
      <trkpt lat="48.57845" lon="1.7777">
        <ele>161.64</ele>
        <time>2015-03-15T16:16:02Z</time>
      </trkpt>
      <trkpt lat="48.57855" lon="1.77773">
        <ele>160.2</ele>
        <time>2015-03-15T16:16:11Z</time>
      </trkpt>
      <trkpt lat="48.57867" lon="1.77776">
        <ele>160.2</ele>
        <time>2015-03-15T16:16:22Z</time>
      </trkpt>
      <trkpt lat="48.57876" lon="1.77779">
        <ele>160.2</ele>
        <time>2015-03-15T16:16:31Z</time>
      </trkpt>
      <trkpt lat="48.57886" lon="1.77783">
        <ele>160.2</ele>
        <time>2015-03-15T16:16:41Z</time>
      </trkpt>
      <trkpt lat="48.57901" lon="1.77787">
        <ele>159.72</ele>
        <time>2015-03-15T16:16:53Z</time>
      </trkpt>
      <trkpt lat="48.57911" lon="1.7779">
        <ele>161.16</ele>
        <time>2015-03-15T16:17:01Z</time>
      </trkpt>
      <trkpt lat="48.57914" lon="1.77791">
        <ele>159.72</ele>
        <time>2015-03-15T16:17:03Z</time>
      </trkpt>
      <trkpt lat="48.57926" lon="1.77795">
        <ele>159.72</ele>
        <time>2015-03-15T16:17:12Z</time>
      </trkpt>
      <trkpt lat="48.57941" lon="1.77797">
        <ele>158.75</ele>
        <time>2015-03-15T16:17:22Z</time>
      </trkpt>
      <trkpt lat="48.57948" lon="1.77799">
        <ele>159.72</ele>
        <time>2015-03-15T16:17:28Z</time>
      </trkpt>
      <trkpt lat="48.57959" lon="1.77803">
        <ele>157.79</ele>
        <time>2015-03-15T16:17:37Z</time>
      </trkpt>
      <trkpt lat="48.57972" lon="1.77808">
        <ele>157.79</ele>
        <time>2015-03-15T16:17:47Z</time>
      </trkpt>
      <trkpt lat="48.57983" lon="1.77816">
        <ele>157.31</ele>
        <time>2015-03-15T16:17:57Z</time>
      </trkpt>
      <trkpt lat="48.57995" lon="1.77829">
        <ele>156.83</ele>
        <time>2015-03-15T16:18:08Z</time>
      </trkpt>
      <trkpt lat="48.58003" lon="1.77837">
        <ele>157.79</ele>
        <time>2015-03-15T16:18:16Z</time>
      </trkpt>
      <trkpt lat="48.5801" lon="1.77845">
        <ele>154.91</ele>
        <time>2015-03-15T16:18:23Z</time>
      </trkpt>
      <trkpt lat="48.5802" lon="1.77854">
        <ele>154.43</ele>
        <time>2015-03-15T16:18:33Z</time>
      </trkpt>
      <trkpt lat="48.58025" lon="1.7786">
        <ele>152.99</ele>
        <time>2015-03-15T16:18:41Z</time>
      </trkpt>
      <trkpt lat="48.58026" lon="1.7786">
        <ele>152.99</ele>
        <time>2015-03-15T16:18:42Z</time>
      </trkpt>
      <trkpt lat="48.58028" lon="1.77879">
        <ele>152.99</ele>
        <time>2015-03-15T16:18:54Z</time>
      </trkpt>
      <trkpt lat="48.58028" lon="1.77883">
        <ele>154.43</ele>
        <time>2015-03-15T16:18:57Z</time>
      </trkpt>
      <trkpt lat="48.58027" lon="1.77903">
        <ele>154.43</ele>
        <time>2015-03-15T16:19:09Z</time>
      </trkpt>
      <trkpt lat="48.58024" lon="1.77926">
        <ele>155.39</ele>
        <time>2015-03-15T16:19:22Z</time>
      </trkpt>
      <trkpt lat="48.58023" lon="1.77946">
        <ele>155.39</ele>
        <time>2015-03-15T16:19:33Z</time>
      </trkpt>
      <trkpt lat="48.58022" lon="1.77962">
        <ele>156.35</ele>
        <time>2015-03-15T16:19:42Z</time>
      </trkpt>
      <trkpt lat="48.5802" lon="1.7798">
        <ele>156.83</ele>
        <time>2015-03-15T16:19:52Z</time>
      </trkpt>
      <trkpt lat="48.5802" lon="1.77997">
        <ele>156.83</ele>
        <time>2015-03-15T16:20:01Z</time>
      </trkpt>
      <trkpt lat="48.58018" lon="1.78014">
        <ele>157.31</ele>
        <time>2015-03-15T16:20:11Z</time>
      </trkpt>
      <trkpt lat="48.58015" lon="1.78032">
        <ele>157.31</ele>
        <time>2015-03-15T16:20:21Z</time>
      </trkpt>
      <trkpt lat="48.58011" lon="1.78054">
        <ele>157.31</ele>
        <time>2015-03-15T16:20:33Z</time>
      </trkpt>
      <trkpt lat="48.58008" lon="1.78072">
        <ele>157.31</ele>
        <time>2015-03-15T16:20:43Z</time>
      </trkpt>
      <trkpt lat="48.58005" lon="1.78088">
        <ele>157.31</ele>
        <time>2015-03-15T16:20:53Z</time>
      </trkpt>
      <trkpt lat="48.57999" lon="1.78106">
        <ele>157.31</ele>
        <time>2015-03-15T16:21:04Z</time>
      </trkpt>
      <trkpt lat="48.57995" lon="1.78125">
        <ele>157.31</ele>
        <time>2015-03-15T16:21:14Z</time>
      </trkpt>
      <trkpt lat="48.57993" lon="1.78142">
        <ele>156.83</ele>
        <time>2015-03-15T16:21:22Z</time>
      </trkpt>
      <trkpt lat="48.5799" lon="1.78157">
        <ele>156.83</ele>
        <time>2015-03-15T16:21:31Z</time>
      </trkpt>
      <trkpt lat="48.57988" lon="1.7817">
        <ele>155.39</ele>
        <time>2015-03-15T16:21:39Z</time>
      </trkpt>
      <trkpt lat="48.57985" lon="1.78184">
        <ele>154.91</ele>
        <time>2015-03-15T16:21:48Z</time>
      </trkpt>
      <trkpt lat="48.57984" lon="1.78191">
        <ele>154.91</ele>
        <time>2015-03-15T16:21:55Z</time>
      </trkpt>
      <trkpt lat="48.57982" lon="1.78197">
        <ele>154.91</ele>
        <time>2015-03-15T16:22:03Z</time>
      </trkpt>
      <trkpt lat="48.57982" lon="1.78199">
        <ele>154.43</ele>
        <time>2015-03-15T16:22:11Z</time>
      </trkpt>
      <trkpt lat="48.57983" lon="1.78198">
        <ele>153.47</ele>
        <time>2015-03-15T16:22:21Z</time>
      </trkpt>
      <trkpt lat="48.57983" lon="1.78197">
        <ele>153.47</ele>
        <time>2015-03-15T16:22:33Z</time>
      </trkpt>
      <trkpt lat="48.57983" lon="1.78196">
        <ele>153.47</ele>
        <time>2015-03-15T16:22:41Z</time>
      </trkpt>
      <trkpt lat="48.57983" lon="1.78197">
        <ele>153.47</ele>
        <time>2015-03-15T16:22:52Z</time>
      </trkpt>
      <trkpt lat="48.57984" lon="1.782">
        <ele>154.91</ele>
        <time>2015-03-15T16:23:08Z</time>
      </trkpt>
      <trkpt lat="48.57985" lon="1.78202">
        <ele>154.91</ele>
        <time>2015-03-15T16:23:30Z</time>
      </trkpt>
      <trkpt lat="48.57983" lon="1.78201">
        <ele>153.95</ele>
        <time>2015-03-15T16:23:45Z</time>
      </trkpt>
      <trkpt lat="48.57983" lon="1.78198">
        <ele>153.95</ele>
        <time>2015-03-15T16:24:01Z</time>
      </trkpt>
      <trkpt lat="48.57981" lon="1.78197">
        <ele>153.95</ele>
        <time>2015-03-15T16:24:19Z</time>
      </trkpt>
      <trkpt lat="48.57981" lon="1.78196">
        <ele>153.95</ele>
        <time>2015-03-15T16:24:37Z</time>
      </trkpt>
      <trkpt lat="48.57982" lon="1.78195">
        <ele>153.95</ele>
        <time>2015-03-15T16:24:54Z</time>
      </trkpt>
    </trkseg>
  </trk>
</gpx>